<?xml version='1.0' encoding='UTF-8'?><gpx version="1.1" creator="JPX - https://github.com/jenetics/jpx" xmlns="http://www.topografix.com/GPX/1/1"><trk><trkseg><trkpt lat="43.8510471" lon="11.1862147"><ele>88.0</ele><time>2026-04-17T06:40:16.553Z</time></trkpt><trkpt lat="43.8510966" lon="11.1863183"><ele>88.0</ele><time>2026-04-17T06:40:18.554Z</time></trkpt><trkpt lat="43.8511624" lon="11.1864717"><ele>88.0</ele><time>2026-04-17T06:40:20.561Z</time></trkpt><trkpt lat="43.851206" lon="11.1865585"><ele>88.0</ele><time>2026-04-17T06:40:21.553Z</time></trkpt><trkpt lat="43.8512432" lon="11.186661"><ele>88.0</ele><time>2026-04-17T06:40:22.555Z</time></trkpt><trkpt lat="43.8512831" lon="11.1867699"><ele>89.0</ele><time>2026-04-17T06:40:23.558Z</time></trkpt><trkpt lat="43.8513304" lon="11.1868882"><ele>90.0</ele><time>2026-04-17T06:40:24.552Z</time></trkpt><trkpt lat="43.851382" lon="11.1870134"><ele>91.0</ele><time>2026-04-17T06:40:25.562Z</time></trkpt><trkpt lat="43.8514391" lon="11.1871246"><ele>92.0</ele><time>2026-04-17T06:40:26.557Z</time></trkpt><trkpt lat="43.8514905" lon="11.1872409"><ele>93.0</ele><time>2026-04-17T06:40:27.55Z</time></trkpt><trkpt lat="43.8515408" lon="11.1873562"><ele>94.2</ele><time>2026-04-17T06:40:28.553Z</time></trkpt><trkpt lat="43.8515926" lon="11.1874717"><ele>95.4</ele><time>2026-04-17T06:40:29.557Z</time></trkpt><trkpt lat="43.8516468" lon="11.1875884"><ele>96.60000000000001</ele><time>2026-04-17T06:40:30.559Z</time></trkpt><trkpt lat="43.8516928" lon="11.1877043"><ele>97.80000000000001</ele><time>2026-04-17T06:40:31.547Z</time></trkpt><trkpt lat="43.851705" lon="11.1877984"><ele>99.0</ele><time>2026-04-17T06:40:32.572Z</time></trkpt><trkpt lat="43.851606" lon="11.1879028"><ele>99.0</ele><time>2026-04-17T06:40:34.552Z</time></trkpt><trkpt lat="43.8515416" lon="11.1878768"><ele>99.0</ele><time>2026-04-17T06:40:35.55Z</time></trkpt><trkpt lat="43.8514351" lon="11.1877912"><ele>99.0</ele><time>2026-04-17T06:40:37.552Z</time></trkpt><trkpt lat="43.8513797" lon="11.1877304"><ele>99.0</ele><time>2026-04-17T06:40:38.571Z</time></trkpt><trkpt lat="43.851312" lon="11.1876684"><ele>99.0</ele><time>2026-04-17T06:40:39.555Z</time></trkpt><trkpt lat="43.8512402" lon="11.1875974"><ele>99.0</ele><time>2026-04-17T06:40:40.558Z</time></trkpt><trkpt lat="43.851171" lon="11.1875267"><ele>99.0</ele><time>2026-04-17T06:40:41.559Z</time></trkpt><trkpt lat="43.851092" lon="11.1874652"><ele>99.0</ele><time>2026-04-17T06:40:42.562Z</time></trkpt><trkpt lat="43.8510108" lon="11.1874065"><ele>99.0</ele><time>2026-04-17T06:40:43.556Z</time></trkpt><trkpt lat="43.8509389" lon="11.1873408"><ele>99.0</ele><time>2026-04-17T06:40:44.562Z</time></trkpt><trkpt lat="43.8508586" lon="11.1872682"><ele>99.0</ele><time>2026-04-17T06:40:45.551Z</time></trkpt><trkpt lat="43.8507771" lon="11.1871924"><ele>100.0</ele><time>2026-04-17T06:40:46.559Z</time></trkpt><trkpt lat="43.8506965" lon="11.1871167"><ele>101.0</ele><time>2026-04-17T06:40:47.555Z</time></trkpt><trkpt lat="43.8506154" lon="11.1870297"><ele>102.0</ele><time>2026-04-17T06:40:48.549Z</time></trkpt><trkpt lat="43.8505314" lon="11.1869264"><ele>103.0</ele><time>2026-04-17T06:40:49.558Z</time></trkpt><trkpt lat="43.8504505" lon="11.1868253"><ele>104.0</ele><time>2026-04-17T06:40:50.555Z</time></trkpt><trkpt lat="43.850357" lon="11.1867301"><ele>104.0</ele><time>2026-04-17T06:40:51.56Z</time></trkpt><trkpt lat="43.8502671" lon="11.1866497"><ele>104.0</ele><time>2026-04-17T06:40:52.559Z</time></trkpt><trkpt lat="43.8501812" lon="11.1865835"><ele>104.0</ele><time>2026-04-17T06:40:53.55Z</time></trkpt><trkpt lat="43.8500747" lon="11.1865606"><ele>104.0</ele><time>2026-04-17T06:40:54.553Z</time></trkpt><trkpt lat="43.849958" lon="11.1865896"><ele>104.0</ele><time>2026-04-17T06:40:55.55Z</time></trkpt><trkpt lat="43.8498638" lon="11.1866427"><ele>107.4</ele><time>2026-04-17T06:40:56.555Z</time></trkpt><trkpt lat="43.8497772" lon="11.1867057"><ele>110.80000000000001</ele><time>2026-04-17T06:40:57.551Z</time></trkpt><trkpt lat="43.8496917" lon="11.1867545"><ele>114.19999999999999</ele><time>2026-04-17T06:40:58.558Z</time></trkpt><trkpt lat="43.8495916" lon="11.1868051"><ele>117.6</ele><time>2026-04-17T06:40:59.559Z</time></trkpt><trkpt lat="43.8494918" lon="11.1868642"><ele>121.0</ele><time>2026-04-17T06:41:00.554Z</time></trkpt><trkpt lat="43.8494018" lon="11.1869271"><ele>121.0</ele><time>2026-04-17T06:41:01.551Z</time></trkpt><trkpt lat="43.8493137" lon="11.1869906"><ele>121.0</ele><time>2026-04-17T06:41:02.556Z</time></trkpt><trkpt lat="43.8492279" lon="11.1870729"><ele>121.0</ele><time>2026-04-17T06:41:03.578Z</time></trkpt><trkpt lat="43.8491579" lon="11.1871869"><ele>121.0</ele><time>2026-04-17T06:41:04.553Z</time></trkpt><trkpt lat="43.8490958" lon="11.1873055"><ele>121.0</ele><time>2026-04-17T06:41:05.556Z</time></trkpt><trkpt lat="43.8490473" lon="11.1874122"><ele>124.00000000000001</ele><time>2026-04-17T06:41:06.559Z</time></trkpt><trkpt lat="43.8490048" lon="11.1875034"><ele>127.0</ele><time>2026-04-17T06:41:08.567Z</time></trkpt><trkpt lat="43.8490714" lon="11.1874577"><ele>130.0</ele><time>2026-04-17T06:41:11.556Z</time></trkpt><trkpt lat="43.8491411" lon="11.1874147"><ele>133.0</ele><time>2026-04-17T06:41:13.556Z</time></trkpt><trkpt lat="43.8492797" lon="11.1874358"><ele>136.0</ele><time>2026-04-17T06:41:15.575Z</time></trkpt><trkpt lat="43.849344" lon="11.187472"><ele>139.0</ele><time>2026-04-17T06:41:16.558Z</time></trkpt><trkpt lat="43.84941" lon="11.1875165"><ele>139.0</ele><time>2026-04-17T06:41:17.555Z</time></trkpt><trkpt lat="43.8494728" lon="11.1875666"><ele>139.0</ele><time>2026-04-17T06:41:18.554Z</time></trkpt><trkpt lat="43.8495332" lon="11.1876184"><ele>139.0</ele><time>2026-04-17T06:41:19.559Z</time></trkpt><trkpt lat="43.8496355" lon="11.187712"><ele>139.0</ele><time>2026-04-17T06:41:21.563Z</time></trkpt><trkpt lat="43.8496911" lon="11.1877632"><ele>139.0</ele><time>2026-04-17T06:41:22.551Z</time></trkpt><trkpt lat="43.8497474" lon="11.1878365"><ele>139.0</ele><time>2026-04-17T06:41:23.557Z</time></trkpt><trkpt lat="43.8497618" lon="11.1879487"><ele>139.0</ele><time>2026-04-17T06:41:25.561Z</time></trkpt><trkpt lat="43.8497043" lon="11.188029"><ele>139.0</ele><time>2026-04-17T06:41:26.561Z</time></trkpt><trkpt lat="43.8496609" lon="11.1881008"><ele>139.0</ele><time>2026-04-17T06:41:27.563Z</time></trkpt><trkpt lat="43.8496674" lon="11.1881967"><ele>139.0</ele><time>2026-04-17T06:41:28.558Z</time></trkpt><trkpt lat="43.8496294" lon="11.188286"><ele>139.0</ele><time>2026-04-17T06:41:29.569Z</time></trkpt><trkpt lat="43.8495652" lon="11.188359"><ele>139.0</ele><time>2026-04-17T06:41:30.554Z</time></trkpt><trkpt lat="43.8494973" lon="11.1884374"><ele>142.2</ele><time>2026-04-17T06:41:31.558Z</time></trkpt><trkpt lat="43.8494438" lon="11.1885296"><ele>145.4</ele><time>2026-04-17T06:41:32.566Z</time></trkpt><trkpt lat="43.8494041" lon="11.1886481"><ele>148.6</ele><time>2026-04-17T06:41:33.552Z</time></trkpt><trkpt lat="43.8493385" lon="11.1887697"><ele>151.8</ele><time>2026-04-17T06:41:34.555Z</time></trkpt><trkpt lat="43.8492713" lon="11.188883"><ele>155.0</ele><time>2026-04-17T06:41:35.549Z</time></trkpt><trkpt lat="43.8491977" lon="11.1890035"><ele>158.8</ele><time>2026-04-17T06:41:36.554Z</time></trkpt><trkpt lat="43.8491295" lon="11.1891139"><ele>162.6</ele><time>2026-04-17T06:41:37.56Z</time></trkpt><trkpt lat="43.8490549" lon="11.1892233"><ele>166.39999999999998</ele><time>2026-04-17T06:41:38.552Z</time></trkpt><trkpt lat="43.8489833" lon="11.1893364"><ele>170.2</ele><time>2026-04-17T06:41:39.548Z</time></trkpt><trkpt lat="43.84891" lon="11.1894508"><ele>174.0</ele><time>2026-04-17T06:41:40.548Z</time></trkpt><trkpt lat="43.8488415" lon="11.1895668"><ele>174.0</ele><time>2026-04-17T06:41:41.547Z</time></trkpt><trkpt lat="43.8487807" lon="11.1896843"><ele>174.0</ele><time>2026-04-17T06:41:42.555Z</time></trkpt><trkpt lat="43.8487313" lon="11.1898148"><ele>174.0</ele><time>2026-04-17T06:41:43.555Z</time></trkpt><trkpt lat="43.8486967" lon="11.1899655"><ele>174.0</ele><time>2026-04-17T06:41:44.552Z</time></trkpt><trkpt lat="43.8486862" lon="11.1900927"><ele>174.0</ele><time>2026-04-17T06:41:45.557Z</time></trkpt><trkpt lat="43.8486727" lon="11.1902205"><ele>177.6</ele><time>2026-04-17T06:41:46.563Z</time></trkpt><trkpt lat="43.8486634" lon="11.1903487"><ele>181.2</ele><time>2026-04-17T06:41:47.576Z</time></trkpt><trkpt lat="43.8486448" lon="11.1904799"><ele>184.79999999999998</ele><time>2026-04-17T06:41:48.555Z</time></trkpt><trkpt lat="43.8486067" lon="11.1906191"><ele>188.39999999999998</ele><time>2026-04-17T06:41:49.558Z</time></trkpt><trkpt lat="43.8485792" lon="11.1907366"><ele>192.0</ele><time>2026-04-17T06:41:50.555Z</time></trkpt><trkpt lat="43.8485604" lon="11.1908515"><ele>193.33333333333334</ele><time>2026-04-17T06:41:51.56Z</time></trkpt><trkpt lat="43.8485484" lon="11.1909404"><ele>194.66666666666669</ele><time>2026-04-17T06:41:52.56Z</time></trkpt><trkpt lat="43.8485418" lon="11.1910438"><ele>196.0</ele><time>2026-04-17T06:41:53.557Z</time></trkpt><trkpt lat="43.8485317" lon="11.1911514"><ele>197.33333333333334</ele><time>2026-04-17T06:41:54.57Z</time></trkpt><trkpt lat="43.84852" lon="11.1912645"><ele>198.66666666666669</ele><time>2026-04-17T06:41:55.562Z</time></trkpt><trkpt lat="43.848502" lon="11.1913848"><ele>200.0</ele><time>2026-04-17T06:41:56.562Z</time></trkpt><trkpt lat="43.8484858" lon="11.1915092"><ele>200.2</ele><time>2026-04-17T06:41:57.556Z</time></trkpt><trkpt lat="43.848477" lon="11.1916387"><ele>200.4</ele><time>2026-04-17T06:41:58.562Z</time></trkpt><trkpt lat="43.848478" lon="11.1917729"><ele>200.60000000000002</ele><time>2026-04-17T06:41:59.556Z</time></trkpt><trkpt lat="43.8484829" lon="11.1918999"><ele>200.8</ele><time>2026-04-17T06:42:00.558Z</time></trkpt><trkpt lat="43.8484932" lon="11.1920302"><ele>201.0</ele><time>2026-04-17T06:42:01.562Z</time></trkpt><trkpt lat="43.8485166" lon="11.1921606"><ele>201.0</ele><time>2026-04-17T06:42:02.552Z</time></trkpt><trkpt lat="43.8485423" lon="11.1923014"><ele>201.0</ele><time>2026-04-17T06:42:03.559Z</time></trkpt><trkpt lat="43.8485587" lon="11.1924448"><ele>201.0</ele><time>2026-04-17T06:42:04.587Z</time></trkpt><trkpt lat="43.848583" lon="11.1925813"><ele>201.0</ele><time>2026-04-17T06:42:05.577Z</time></trkpt><trkpt lat="43.8486063" lon="11.192716"><ele>201.0</ele><time>2026-04-17T06:42:06.578Z</time></trkpt><trkpt lat="43.8486227" lon="11.1928441"><ele>200.0</ele><time>2026-04-17T06:42:07.55Z</time></trkpt><trkpt lat="43.8486331" lon="11.1929554"><ele>199.0</ele><time>2026-04-17T06:42:08.571Z</time></trkpt><trkpt lat="43.8486505" lon="11.1930482"><ele>198.0</ele><time>2026-04-17T06:42:09.57Z</time></trkpt><trkpt lat="43.8486561" lon="11.193189"><ele>197.0</ele><time>2026-04-17T06:42:11.569Z</time></trkpt><trkpt lat="43.84859" lon="11.1932952"><ele>196.0</ele><time>2026-04-17T06:42:13.576Z</time></trkpt><trkpt lat="43.8485277" lon="11.193362"><ele>195.0</ele><time>2026-04-17T06:42:14.58Z</time></trkpt><trkpt lat="43.8484519" lon="11.1934189"><ele>190.66666666666666</ele><time>2026-04-17T06:42:15.558Z</time></trkpt><trkpt lat="43.8483726" lon="11.1934731"><ele>186.33333333333334</ele><time>2026-04-17T06:42:16.578Z</time></trkpt><trkpt lat="43.8482933" lon="11.1935324"><ele>182.0</ele><time>2026-04-17T06:42:17.571Z</time></trkpt><trkpt lat="43.8482122" lon="11.193598"><ele>177.66666666666669</ele><time>2026-04-17T06:42:18.582Z</time></trkpt><trkpt lat="43.8481359" lon="11.1936541"><ele>173.33333333333334</ele><time>2026-04-17T06:42:19.513Z</time></trkpt><trkpt lat="43.8480614" lon="11.1937055"><ele>169.0</ele><time>2026-04-17T06:42:20.455Z</time></trkpt><trkpt lat="43.8479849" lon="11.1937634"><ele>169.0</ele><time>2026-04-17T06:42:21.376Z</time></trkpt><trkpt lat="43.8479134" lon="11.1938195"><ele>169.0</ele><time>2026-04-17T06:42:22.308Z</time></trkpt><trkpt lat="43.8478362" lon="11.1938789"><ele>169.0</ele><time>2026-04-17T06:42:23.31Z</time></trkpt><trkpt lat="43.847758" lon="11.1939436"><ele>169.0</ele><time>2026-04-17T06:42:24.306Z</time></trkpt><trkpt lat="43.8476793" lon="11.1940039"><ele>169.0</ele><time>2026-04-17T06:42:25.312Z</time></trkpt><trkpt lat="43.847605" lon="11.1940722"><ele>169.0</ele><time>2026-04-17T06:42:26.24Z</time></trkpt><trkpt lat="43.8475309" lon="11.1941447"><ele>166.0</ele><time>2026-04-17T06:42:27.165Z</time></trkpt><trkpt lat="43.8474524" lon="11.1942201"><ele>163.0</ele><time>2026-04-17T06:42:28.189Z</time></trkpt><trkpt lat="43.8473737" lon="11.1943033"><ele>160.0</ele><time>2026-04-17T06:42:29.165Z</time></trkpt><trkpt lat="43.847298" lon="11.194381"><ele>157.0</ele><time>2026-04-17T06:42:30.228Z</time></trkpt><trkpt lat="43.8472195" lon="11.1944587"><ele>154.0</ele><time>2026-04-17T06:42:31.162Z</time></trkpt><trkpt lat="43.8471413" lon="11.1945323"><ele>154.0</ele><time>2026-04-17T06:42:32.073Z</time></trkpt><trkpt lat="43.8470585" lon="11.1946019"><ele>154.0</ele><time>2026-04-17T06:42:33.033Z</time></trkpt><trkpt lat="43.8469717" lon="11.194676"><ele>154.0</ele><time>2026-04-17T06:42:33.981Z</time></trkpt><trkpt lat="43.846882" lon="11.1947478"><ele>154.0</ele><time>2026-04-17T06:42:35.068Z</time></trkpt><trkpt lat="43.8467958" lon="11.1948156"><ele>154.0</ele><time>2026-04-17T06:42:36.031Z</time></trkpt><trkpt lat="43.8467178" lon="11.194886"><ele>150.4</ele><time>2026-04-17T06:42:36.963Z</time></trkpt><trkpt lat="43.8466529" lon="11.1949452"><ele>146.8</ele><time>2026-04-17T06:42:37.948Z</time></trkpt><trkpt lat="43.8465929" lon="11.1950727"><ele>143.2</ele><time>2026-04-17T06:42:39.949Z</time></trkpt><trkpt lat="43.8466652" lon="11.195213"><ele>139.6</ele><time>2026-04-17T06:42:41.96Z</time></trkpt><trkpt lat="43.8467149" lon="11.1952815"><ele>136.0</ele><time>2026-04-17T06:42:42.958Z</time></trkpt><trkpt lat="43.8467645" lon="11.1953591"><ele>137.66666666666669</ele><time>2026-04-17T06:42:43.961Z</time></trkpt><trkpt lat="43.8468204" lon="11.1954205"><ele>139.33333333333334</ele><time>2026-04-17T06:42:44.97Z</time></trkpt><trkpt lat="43.8468748" lon="11.1954906"><ele>141.0</ele><time>2026-04-17T06:42:45.969Z</time></trkpt><trkpt lat="43.8469323" lon="11.1955723"><ele>142.66666666666666</ele><time>2026-04-17T06:42:46.961Z</time></trkpt><trkpt lat="43.8469866" lon="11.1956561"><ele>144.33333333333331</ele><time>2026-04-17T06:42:47.961Z</time></trkpt><trkpt lat="43.8470266" lon="11.1957378"><ele>146.0</ele><time>2026-04-17T06:42:48.96Z</time></trkpt><trkpt lat="43.8469859" lon="11.1959148"><ele>146.0</ele><time>2026-04-17T06:42:50.967Z</time></trkpt><trkpt lat="43.8469314" lon="11.1960084"><ele>146.0</ele><time>2026-04-17T06:42:51.958Z</time></trkpt><trkpt lat="43.8468788" lon="11.1960903"><ele>146.0</ele><time>2026-04-17T06:42:52.961Z</time></trkpt><trkpt lat="43.8468204" lon="11.1961847"><ele>146.0</ele><time>2026-04-17T06:42:54.042Z</time></trkpt><trkpt lat="43.8467652" lon="11.1962775"><ele>146.0</ele><time>2026-04-17T06:42:54.953Z</time></trkpt><trkpt lat="43.8467106" lon="11.1963672"><ele>146.0</ele><time>2026-04-17T06:42:55.956Z</time></trkpt><trkpt lat="43.8466595" lon="11.196456"><ele>142.33333333333331</ele><time>2026-04-17T06:42:56.952Z</time></trkpt><trkpt lat="43.846611" lon="11.196552"><ele>138.66666666666666</ele><time>2026-04-17T06:42:57.96Z</time></trkpt><trkpt lat="43.8465682" lon="11.1966456"><ele>135.0</ele><time>2026-04-17T06:42:58.952Z</time></trkpt><trkpt lat="43.8465388" lon="11.1967431"><ele>131.33333333333334</ele><time>2026-04-17T06:42:59.961Z</time></trkpt><trkpt lat="43.8465176" lon="11.1968446"><ele>127.66666666666667</ele><time>2026-04-17T06:43:01.029Z</time></trkpt><trkpt lat="43.8465018" lon="11.1969466"><ele>124.0</ele><time>2026-04-17T06:43:01.965Z</time></trkpt><trkpt lat="43.8464916" lon="11.1970519"><ele>124.00000000000001</ele><time>2026-04-17T06:43:03.004Z</time></trkpt><trkpt lat="43.8464808" lon="11.197166"><ele>124.0</ele><time>2026-04-17T06:43:03.948Z</time></trkpt><trkpt lat="43.8464729" lon="11.1972805"><ele>124.0</ele><time>2026-04-17T06:43:05.026Z</time></trkpt><trkpt lat="43.8464653" lon="11.1973939"><ele>124.0</ele><time>2026-04-17T06:43:05.954Z</time></trkpt><trkpt lat="43.8464467" lon="11.1974989"><ele>124.00000000000001</ele><time>2026-04-17T06:43:06.939Z</time></trkpt><trkpt lat="43.8464201" lon="11.1975969"><ele>124.0</ele><time>2026-04-17T06:43:07.962Z</time></trkpt><trkpt lat="43.8463901" lon="11.1976786"><ele>123.66666666666667</ele><time>2026-04-17T06:43:09.084Z</time></trkpt><trkpt lat="43.8462895" lon="11.1978185"><ele>123.33333333333334</ele><time>2026-04-17T06:43:10.951Z</time></trkpt><trkpt lat="43.8462395" lon="11.1978825"><ele>123.0</ele><time>2026-04-17T06:43:11.957Z</time></trkpt><trkpt lat="43.846201" lon="11.1979522"><ele>122.66666666666666</ele><time>2026-04-17T06:43:12.96Z</time></trkpt><trkpt lat="43.8461881" lon="11.1980382"><ele>122.33333333333333</ele><time>2026-04-17T06:43:13.983Z</time></trkpt><trkpt lat="43.8461863" lon="11.1981395"><ele>122.0</ele><time>2026-04-17T06:43:14.958Z</time></trkpt><trkpt lat="43.8461843" lon="11.1982542"><ele>120.16666666666666</ele><time>2026-04-17T06:43:16.028Z</time></trkpt><trkpt lat="43.8461937" lon="11.19838"><ele>118.33333333333333</ele><time>2026-04-17T06:43:16.955Z</time></trkpt><trkpt lat="43.84622" lon="11.198494"><ele>116.5</ele><time>2026-04-17T06:43:17.961Z</time></trkpt><trkpt lat="43.8462476" lon="11.1986112"><ele>114.66666666666666</ele><time>2026-04-17T06:43:18.957Z</time></trkpt><trkpt lat="43.8462675" lon="11.1987267"><ele>112.83333333333333</ele><time>2026-04-17T06:43:19.96Z</time></trkpt><trkpt lat="43.8462685" lon="11.1988288"><ele>111.0</ele><time>2026-04-17T06:43:20.959Z</time></trkpt><trkpt lat="43.8462426" lon="11.1989244"><ele>109.5</ele><time>2026-04-17T06:43:21.963Z</time></trkpt><trkpt lat="43.8461831" lon="11.1990678"><ele>108.0</ele><time>2026-04-17T06:43:23.977Z</time></trkpt><trkpt lat="43.8461509" lon="11.1991457"><ele>106.5</ele><time>2026-04-17T06:43:24.954Z</time></trkpt><trkpt lat="43.8461507" lon="11.1992337"><ele>105.0</ele><time>2026-04-17T06:43:26.008Z</time></trkpt><trkpt lat="43.8461529" lon="11.1993391"><ele>103.5</ele><time>2026-04-17T06:43:26.959Z</time></trkpt><trkpt lat="43.8461508" lon="11.1994756"><ele>102.0</ele><time>2026-04-17T06:43:27.967Z</time></trkpt><trkpt lat="43.8461414" lon="11.1996157"><ele>102.0</ele><time>2026-04-17T06:43:28.946Z</time></trkpt><trkpt lat="43.8461361" lon="11.1997517"><ele>102.0</ele><time>2026-04-17T06:43:29.956Z</time></trkpt><trkpt lat="43.8461323" lon="11.1998932"><ele>102.0</ele><time>2026-04-17T06:43:30.941Z</time></trkpt><trkpt lat="43.8461349" lon="11.2000295"><ele>102.0</ele><time>2026-04-17T06:43:31.961Z</time></trkpt><trkpt lat="43.8461445" lon="11.2001519"><ele>102.0</ele><time>2026-04-17T06:43:33.031Z</time></trkpt><trkpt lat="43.8461724" lon="11.2002464"><ele>101.85714285714286</ele><time>2026-04-17T06:43:34.027Z</time></trkpt><trkpt lat="43.8462116" lon="11.2003387"><ele>101.71428571428572</ele><time>2026-04-17T06:43:34.972Z</time></trkpt><trkpt lat="43.8462486" lon="11.2004191"><ele>101.57142857142857</ele><time>2026-04-17T06:43:35.951Z</time></trkpt><trkpt lat="43.8462692" lon="11.2005158"><ele>101.42857142857143</ele><time>2026-04-17T06:43:36.971Z</time></trkpt><trkpt lat="43.8462676" lon="11.200615"><ele>101.28571428571428</ele><time>2026-04-17T06:43:37.964Z</time></trkpt><trkpt lat="43.8462471" lon="11.200716"><ele>101.14285714285714</ele><time>2026-04-17T06:43:38.959Z</time></trkpt><trkpt lat="43.8462246" lon="11.2008169"><ele>101.0</ele><time>2026-04-17T06:43:39.966Z</time></trkpt><trkpt lat="43.8461984" lon="11.2009289"><ele>101.0</ele><time>2026-04-17T06:43:40.975Z</time></trkpt><trkpt lat="43.8461684" lon="11.201057"><ele>101.0</ele><time>2026-04-17T06:43:41.969Z</time></trkpt><trkpt lat="43.8461304" lon="11.2011944"><ele>101.0</ele><time>2026-04-17T06:43:42.951Z</time></trkpt><trkpt lat="43.84609" lon="11.2013529"><ele>101.0</ele><time>2026-04-17T06:43:43.963Z</time></trkpt><trkpt lat="43.846064" lon="11.2015156"><ele>101.0</ele><time>2026-04-17T06:43:44.971Z</time></trkpt><trkpt lat="43.8460534" lon="11.2016781"><ele>102.8</ele><time>2026-04-17T06:43:45.962Z</time></trkpt><trkpt lat="43.8460539" lon="11.2018337"><ele>104.6</ele><time>2026-04-17T06:43:46.964Z</time></trkpt><trkpt lat="43.8460537" lon="11.2019736"><ele>106.4</ele><time>2026-04-17T06:43:47.966Z</time></trkpt><trkpt lat="43.8460649" lon="11.2020968"><ele>108.2</ele><time>2026-04-17T06:43:48.959Z</time></trkpt><trkpt lat="43.8460503" lon="11.2022072"><ele>110.0</ele><time>2026-04-17T06:43:49.963Z</time></trkpt><trkpt lat="43.845999" lon="11.2022733"><ele>108.83333333333333</ele><time>2026-04-17T06:43:50.955Z</time></trkpt><trkpt lat="43.8459493" lon="11.2023615"><ele>107.66666666666666</ele><time>2026-04-17T06:43:51.968Z</time></trkpt><trkpt lat="43.8458976" lon="11.2024675"><ele>106.5</ele><time>2026-04-17T06:43:52.96Z</time></trkpt><trkpt lat="43.8458406" lon="11.2025457"><ele>105.33333333333334</ele><time>2026-04-17T06:43:53.958Z</time></trkpt><trkpt lat="43.845774" lon="11.2025967"><ele>104.16666666666667</ele><time>2026-04-17T06:43:54.96Z</time></trkpt><trkpt lat="43.8457034" lon="11.2026434"><ele>103.0</ele><time>2026-04-17T06:43:55.953Z</time></trkpt><trkpt lat="43.8456365" lon="11.2026975"><ele>103.00000000000001</ele><time>2026-04-17T06:43:56.959Z</time></trkpt><trkpt lat="43.8455688" lon="11.2027541"><ele>103.0</ele><time>2026-04-17T06:43:57.961Z</time></trkpt><trkpt lat="43.8455004" lon="11.2028215"><ele>103.0</ele><time>2026-04-17T06:43:58.962Z</time></trkpt><trkpt lat="43.8454235" lon="11.2028934"><ele>103.0</ele><time>2026-04-17T06:43:59.959Z</time></trkpt><trkpt lat="43.845356" lon="11.2029586"><ele>103.00000000000001</ele><time>2026-04-17T06:44:00.961Z</time></trkpt><trkpt lat="43.845295" lon="11.2030206"><ele>103.0</ele><time>2026-04-17T06:44:01.955Z</time></trkpt><trkpt lat="43.8452462" lon="11.2030919"><ele>104.00000000000001</ele><time>2026-04-17T06:44:02.958Z</time></trkpt><trkpt lat="43.8452172" lon="11.2031704"><ele>105.0</ele><time>2026-04-17T06:44:03.959Z</time></trkpt><trkpt lat="43.8452021" lon="11.2032618"><ele>106.0</ele><time>2026-04-17T06:44:04.965Z</time></trkpt><trkpt lat="43.8451996" lon="11.2033722"><ele>107.0</ele><time>2026-04-17T06:44:05.954Z</time></trkpt><trkpt lat="43.8452009" lon="11.2034822"><ele>108.00000000000001</ele><time>2026-04-17T06:44:06.957Z</time></trkpt><trkpt lat="43.8452216" lon="11.2036182"><ele>109.0</ele><time>2026-04-17T06:44:08.957Z</time></trkpt><trkpt lat="43.8452609" lon="11.203689"><ele>109.00000000000001</ele><time>2026-04-17T06:44:17.968Z</time></trkpt><trkpt lat="43.8453276" lon="11.2036959"><ele>109.0</ele><time>2026-04-17T06:44:20.973Z</time></trkpt><trkpt lat="43.8454095" lon="11.2036942"><ele>109.0</ele><time>2026-04-17T06:44:22.967Z</time></trkpt><trkpt lat="43.8455156" lon="11.2036735"><ele>109.0</ele><time>2026-04-17T06:44:24.974Z</time></trkpt><trkpt lat="43.8455818" lon="11.2036617"><ele>109.00000000000001</ele><time>2026-04-17T06:44:25.963Z</time></trkpt><trkpt lat="43.8457031" lon="11.2037053"><ele>109.0</ele><time>2026-04-17T06:44:27.968Z</time></trkpt><trkpt lat="43.8457717" lon="11.2037383"><ele>109.0</ele><time>2026-04-17T06:44:28.963Z</time></trkpt><trkpt lat="43.8458574" lon="11.203728"><ele>109.0</ele><time>2026-04-17T06:44:30.985Z</time></trkpt><trkpt lat="43.8459613" lon="11.2037187"><ele>109.0</ele><time>2026-04-17T06:44:32.978Z</time></trkpt><trkpt lat="43.8460426" lon="11.2037328"><ele>109.0</ele><time>2026-04-17T06:44:33.974Z</time></trkpt><trkpt lat="43.8461266" lon="11.2037477"><ele>109.0</ele><time>2026-04-17T06:44:34.975Z</time></trkpt><trkpt lat="43.8462223" lon="11.2037596"><ele>110.80000000000001</ele><time>2026-04-17T06:44:36.037Z</time></trkpt><trkpt lat="43.8463115" lon="11.2037736"><ele>112.60000000000001</ele><time>2026-04-17T06:44:36.953Z</time></trkpt><trkpt lat="43.8464082" lon="11.2037888"><ele>114.4</ele><time>2026-04-17T06:44:37.973Z</time></trkpt><trkpt lat="43.8465071" lon="11.2038021"><ele>116.2</ele><time>2026-04-17T06:44:38.959Z</time></trkpt><trkpt lat="43.8466091" lon="11.2038222"><ele>118.0</ele><time>2026-04-17T06:44:40.042Z</time></trkpt><trkpt lat="43.8467173" lon="11.2038381"><ele>120.4</ele><time>2026-04-17T06:44:41.03Z</time></trkpt><trkpt lat="43.8468234" lon="11.2038658"><ele>122.80000000000001</ele><time>2026-04-17T06:44:42.036Z</time></trkpt><trkpt lat="43.8469204" lon="11.2038969"><ele>125.2</ele><time>2026-04-17T06:44:42.958Z</time></trkpt><trkpt lat="43.8470137" lon="11.2039355"><ele>127.6</ele><time>2026-04-17T06:44:43.967Z</time></trkpt><trkpt lat="43.8471089" lon="11.2039809"><ele>130.0</ele><time>2026-04-17T06:44:44.959Z</time></trkpt><trkpt lat="43.8472095" lon="11.204015"><ele>130.0</ele><time>2026-04-17T06:44:46.047Z</time></trkpt><trkpt lat="43.8473049" lon="11.2040333"><ele>130.0</ele><time>2026-04-17T06:44:47.034Z</time></trkpt><trkpt lat="43.8473903" lon="11.2040464"><ele>130.0</ele><time>2026-04-17T06:44:47.974Z</time></trkpt><trkpt lat="43.8474607" lon="11.2040203"><ele>130.0</ele><time>2026-04-17T06:44:49.034Z</time></trkpt><trkpt lat="43.8475247" lon="11.2039844"><ele>130.0</ele><time>2026-04-17T06:44:50.04Z</time></trkpt><trkpt lat="43.8475885" lon="11.2039586"><ele>130.0</ele><time>2026-04-17T06:44:51.035Z</time></trkpt><trkpt lat="43.8476922" lon="11.2039358"><ele>132.5</ele><time>2026-04-17T06:44:52.961Z</time></trkpt><trkpt lat="43.8477592" lon="11.2039254"><ele>135.0</ele><time>2026-04-17T06:44:56.032Z</time></trkpt><trkpt lat="43.8478077" lon="11.2039979"><ele>137.5</ele><time>2026-04-17T06:45:10.963Z</time></trkpt><trkpt lat="43.8477963" lon="11.2041172"><ele>140.0</ele><time>2026-04-17T06:45:13.944Z</time></trkpt><trkpt lat="43.8477471" lon="11.2042587"><ele>142.5</ele><time>2026-04-17T06:45:15.956Z</time></trkpt><trkpt lat="43.8477104" lon="11.2043412"><ele>145.0</ele><time>2026-04-17T06:45:16.965Z</time></trkpt><trkpt lat="43.8476766" lon="11.2044295"><ele>145.33333333333334</ele><time>2026-04-17T06:45:17.968Z</time></trkpt><trkpt lat="43.8476411" lon="11.2045231"><ele>145.66666666666669</ele><time>2026-04-17T06:45:18.966Z</time></trkpt><trkpt lat="43.8475957" lon="11.204619"><ele>146.0</ele><time>2026-04-17T06:45:19.969Z</time></trkpt><trkpt lat="43.8475481" lon="11.2047101"><ele>146.33333333333334</ele><time>2026-04-17T06:45:20.967Z</time></trkpt><trkpt lat="43.8475047" lon="11.2047946"><ele>146.66666666666666</ele><time>2026-04-17T06:45:21.97Z</time></trkpt><trkpt lat="43.847463" lon="11.2048751"><ele>147.0</ele><time>2026-04-17T06:45:22.988Z</time></trkpt><trkpt lat="43.8474211" lon="11.2049597"><ele>144.2</ele><time>2026-04-17T06:45:23.964Z</time></trkpt><trkpt lat="43.847353" lon="11.2051002"><ele>141.39999999999998</ele><time>2026-04-17T06:45:25.969Z</time></trkpt><trkpt lat="43.8473133" lon="11.2052245"><ele>138.60000000000002</ele><time>2026-04-17T06:45:27.976Z</time></trkpt><trkpt lat="43.8472794" lon="11.2053451"><ele>135.8</ele><time>2026-04-17T06:45:29.98Z</time></trkpt><trkpt lat="43.847256" lon="11.2054348"><ele>133.0</ele><time>2026-04-17T06:45:31.969Z</time></trkpt><trkpt lat="43.8472342" lon="11.2055394"><ele>133.0</ele><time>2026-04-17T06:45:34.974Z</time></trkpt><trkpt lat="43.8471896" lon="11.2056233"><ele>133.0</ele><time>2026-04-17T06:45:37.97Z</time></trkpt><trkpt lat="43.8471104" lon="11.2057026"><ele>133.0</ele><time>2026-04-17T06:45:40.97Z</time></trkpt><trkpt lat="43.8470334" lon="11.2057776"><ele>133.0</ele><time>2026-04-17T06:45:42.998Z</time></trkpt><trkpt lat="43.8469507" lon="11.2058753"><ele>133.0</ele><time>2026-04-17T06:45:45.004Z</time></trkpt><trkpt lat="43.8468602" lon="11.2059566"><ele>129.25</ele><time>2026-04-17T06:45:46.98Z</time></trkpt><trkpt lat="43.8467634" lon="11.2060486"><ele>125.5</ele><time>2026-04-17T06:45:48.987Z</time></trkpt><trkpt lat="43.846671" lon="11.2061404"><ele>121.75</ele><time>2026-04-17T06:45:51.03Z</time></trkpt><trkpt lat="43.8465696" lon="11.2062477"><ele>118.0</ele><time>2026-04-17T06:45:52.962Z</time></trkpt><trkpt lat="43.8464739" lon="11.2063529"><ele>118.00000000000001</ele><time>2026-04-17T06:45:54.94Z</time></trkpt><trkpt lat="43.8464244" lon="11.2064108"><ele>118.0</ele><time>2026-04-17T06:45:55.967Z</time></trkpt><trkpt lat="43.8463718" lon="11.2064674"><ele>118.0</ele><time>2026-04-17T06:45:56.969Z</time></trkpt><trkpt lat="43.8462724" lon="11.2065567"><ele>118.0</ele><time>2026-04-17T06:45:58.951Z</time></trkpt><trkpt lat="43.8461994" lon="11.2066385"><ele>118.00000000000001</ele><time>2026-04-17T06:46:01.03Z</time></trkpt><trkpt lat="43.8461619" lon="11.2067677"><ele>118.0</ele><time>2026-04-17T06:46:02.95Z</time></trkpt><trkpt lat="43.8461127" lon="11.2069143"><ele>120.0</ele><time>2026-04-17T06:46:04.946Z</time></trkpt><trkpt lat="43.8460688" lon="11.2070581"><ele>122.00000000000001</ele><time>2026-04-17T06:46:07.027Z</time></trkpt><trkpt lat="43.8460247" lon="11.2072013"><ele>124.00000000000001</ele><time>2026-04-17T06:46:08.984Z</time></trkpt><trkpt lat="43.845991" lon="11.2073215"><ele>126.0</ele><time>2026-04-17T06:46:11.048Z</time></trkpt><trkpt lat="43.8459556" lon="11.2074441"><ele>128.0</ele><time>2026-04-17T06:46:14.032Z</time></trkpt><trkpt lat="43.845932" lon="11.2075428"><ele>127.99999999999999</ele><time>2026-04-17T06:46:16.046Z</time></trkpt><trkpt lat="43.8459041" lon="11.2076546"><ele>128.0</ele><time>2026-04-17T06:46:17.972Z</time></trkpt><trkpt lat="43.8458942" lon="11.2077653"><ele>128.0</ele><time>2026-04-17T06:46:22.96Z</time></trkpt><trkpt lat="43.8458802" lon="11.20787"><ele>128.0</ele><time>2026-04-17T06:46:26.035Z</time></trkpt><trkpt lat="43.8458756" lon="11.2079617"><ele>127.99999999999999</ele><time>2026-04-17T06:46:29.956Z</time></trkpt><trkpt lat="43.8459205" lon="11.2080487"><ele>128.0</ele><time>2026-04-17T06:46:35.972Z</time></trkpt><trkpt lat="43.8459136" lon="11.2081866"><ele>128.33333333333331</ele><time>2026-04-17T06:46:47.971Z</time></trkpt><trkpt lat="43.8458928" lon="11.208349"><ele>128.66666666666666</ele><time>2026-04-17T06:46:50.045Z</time></trkpt><trkpt lat="43.8458813" lon="11.2084367"><ele>129.0</ele><time>2026-04-17T06:46:50.973Z</time></trkpt><trkpt lat="43.8458774" lon="11.2085247"><ele>129.33333333333334</ele><time>2026-04-17T06:46:52.014Z</time></trkpt><trkpt lat="43.8458731" lon="11.2086438"><ele>129.66666666666669</ele><time>2026-04-17T06:46:53.963Z</time></trkpt><trkpt lat="43.8458643" lon="11.2087687"><ele>130.0</ele><time>2026-04-17T06:46:55.971Z</time></trkpt><trkpt lat="43.8458463" lon="11.2089132"><ele>129.2</ele><time>2026-04-17T06:46:57.967Z</time></trkpt><trkpt lat="43.8458799" lon="11.2090785"><ele>128.4</ele><time>2026-04-17T06:47:00.031Z</time></trkpt><trkpt lat="43.8459114" lon="11.2091628"><ele>127.6</ele><time>2026-04-17T06:47:01.028Z</time></trkpt><trkpt lat="43.8459473" lon="11.2092422"><ele>126.8</ele><time>2026-04-17T06:47:02.01Z</time></trkpt><trkpt lat="43.8460017" lon="11.2093844"><ele>126.0</ele><time>2026-04-17T06:47:03.97Z</time></trkpt><trkpt lat="43.8460293" lon="11.2094805"><ele>129.0</ele><time>2026-04-17T06:47:05.969Z</time></trkpt><trkpt lat="43.8460942" lon="11.2095067"><ele>132.0</ele><time>2026-04-17T06:47:11.019Z</time></trkpt><trkpt lat="43.8461645" lon="11.2094906"><ele>135.0</ele><time>2026-04-17T06:47:12.961Z</time></trkpt><trkpt lat="43.846253" lon="11.2095024"><ele>138.0</ele><time>2026-04-17T06:47:14.952Z</time></trkpt><trkpt lat="43.8463415" lon="11.2095697"><ele>141.0</ele><time>2026-04-17T06:47:16.971Z</time></trkpt><trkpt lat="43.8464277" lon="11.2096266"><ele>144.0</ele><time>2026-04-17T06:47:19.036Z</time></trkpt><trkpt lat="43.8465224" lon="11.2096898"><ele>144.0</ele><time>2026-04-17T06:47:20.979Z</time></trkpt><trkpt lat="43.8466145" lon="11.2097776"><ele>144.0</ele><time>2026-04-17T06:47:22.974Z</time></trkpt><trkpt lat="43.8466917" lon="11.2098744"><ele>144.0</ele><time>2026-04-17T06:47:24.972Z</time></trkpt><trkpt lat="43.8467752" lon="11.2099852"><ele>144.0</ele><time>2026-04-17T06:47:26.965Z</time></trkpt><trkpt lat="43.8468118" lon="11.210057"><ele>144.0</ele><time>2026-04-17T06:47:27.967Z</time></trkpt><trkpt lat="43.8468619" lon="11.2101307"><ele>143.2</ele><time>2026-04-17T06:47:28.964Z</time></trkpt><trkpt lat="43.846953" lon="11.2102535"><ele>142.4</ele><time>2026-04-17T06:47:30.966Z</time></trkpt><trkpt lat="43.8470009" lon="11.2103178"><ele>141.6</ele><time>2026-04-17T06:47:31.963Z</time></trkpt><trkpt lat="43.8470482" lon="11.2103755"><ele>140.8</ele><time>2026-04-17T06:47:32.969Z</time></trkpt><trkpt lat="43.8471309" lon="11.2104601"><ele>140.0</ele><time>2026-04-17T06:47:35.029Z</time></trkpt><trkpt lat="43.8472077" lon="11.2105405"><ele>140.0</ele><time>2026-04-17T06:47:37.036Z</time></trkpt><trkpt lat="43.8472807" lon="11.210622"><ele>140.0</ele><time>2026-04-17T06:47:38.961Z</time></trkpt><trkpt lat="43.8473489" lon="11.2106952"><ele>140.0</ele><time>2026-04-17T06:47:41.028Z</time></trkpt><trkpt lat="43.8474138" lon="11.2107808"><ele>140.0</ele><time>2026-04-17T06:47:42.967Z</time></trkpt><trkpt lat="43.847483" lon="11.2108837"><ele>140.0</ele><time>2026-04-17T06:47:44.969Z</time></trkpt><trkpt lat="43.8475508" lon="11.2109704"><ele>139.33333333333331</ele><time>2026-04-17T06:47:47.029Z</time></trkpt><trkpt lat="43.8476199" lon="11.2110412"><ele>138.66666666666666</ele><time>2026-04-17T06:47:48.962Z</time></trkpt><trkpt lat="43.8476806" lon="11.2111044"><ele>138.0</ele><time>2026-04-17T06:47:51.038Z</time></trkpt><trkpt lat="43.8477512" lon="11.2111846"><ele>137.33333333333334</ele><time>2026-04-17T06:47:52.95Z</time></trkpt><trkpt lat="43.8478088" lon="11.2112315"><ele>136.66666666666669</ele><time>2026-04-17T06:47:54.957Z</time></trkpt><trkpt lat="43.8478808" lon="11.2112946"><ele>136.0</ele><time>2026-04-17T06:47:59.966Z</time></trkpt><trkpt lat="43.8479501" lon="11.2113566"><ele>136.66666666666669</ele><time>2026-04-17T06:48:03.948Z</time></trkpt><trkpt lat="43.8480045" lon="11.2114082"><ele>137.33333333333334</ele><time>2026-04-17T06:48:05.948Z</time></trkpt><trkpt lat="43.8480608" lon="11.211463"><ele>138.0</ele><time>2026-04-17T06:48:07.959Z</time></trkpt><trkpt lat="43.8481387" lon="11.2115316"><ele>138.66666666666666</ele><time>2026-04-17T06:48:10.973Z</time></trkpt><trkpt lat="43.8481948" lon="11.2115855"><ele>139.33333333333331</ele><time>2026-04-17T06:48:12.957Z</time></trkpt><trkpt lat="43.848275" lon="11.2116622"><ele>140.0</ele><time>2026-04-17T06:48:14.96Z</time></trkpt><trkpt lat="43.8483445" lon="11.211747"><ele>140.0</ele><time>2026-04-17T06:48:16.96Z</time></trkpt><trkpt lat="43.8484175" lon="11.2118187"><ele>140.0</ele><time>2026-04-17T06:48:18.942Z</time></trkpt><trkpt lat="43.848485" lon="11.211895"><ele>140.0</ele><time>2026-04-17T06:48:20.957Z</time></trkpt><trkpt lat="43.8485532" lon="11.2119514"><ele>140.0</ele><time>2026-04-17T06:48:23.95Z</time></trkpt><trkpt lat="43.8486148" lon="11.2120053"><ele>140.0</ele><time>2026-04-17T06:48:25.966Z</time></trkpt><trkpt lat="43.8487025" lon="11.2120897"><ele>140.0</ele><time>2026-04-17T06:48:27.959Z</time></trkpt><trkpt lat="43.8487549" lon="11.2121459"><ele>141.0</ele><time>2026-04-17T06:48:28.96Z</time></trkpt><trkpt lat="43.8488458" lon="11.212231"><ele>142.0</ele><time>2026-04-17T06:48:30.943Z</time></trkpt><trkpt lat="43.8489167" lon="11.2122855"><ele>143.0</ele><time>2026-04-17T06:48:32.962Z</time></trkpt><trkpt lat="43.8489723" lon="11.2123344"><ele>144.0</ele><time>2026-04-17T06:48:34.964Z</time></trkpt><trkpt lat="43.8490302" lon="11.2123946"><ele>145.0</ele><time>2026-04-17T06:48:37.965Z</time></trkpt><trkpt lat="43.849086" lon="11.2124526"><ele>146.0</ele><time>2026-04-17T06:48:40.952Z</time></trkpt><trkpt lat="43.8491469" lon="11.2125302"><ele>146.0</ele><time>2026-04-17T06:48:43.946Z</time></trkpt><trkpt lat="43.8491789" lon="11.2126074"><ele>146.0</ele><time>2026-04-17T06:48:45.964Z</time></trkpt><trkpt lat="43.8492077" lon="11.2127026"><ele>146.0</ele><time>2026-04-17T06:48:47.964Z</time></trkpt><trkpt lat="43.8492411" lon="11.2127815"><ele>146.0</ele><time>2026-04-17T06:48:49.957Z</time></trkpt><trkpt lat="43.8492939" lon="11.2128737"><ele>146.0</ele><time>2026-04-17T06:48:52.951Z</time></trkpt><trkpt lat="43.8493626" lon="11.2129724"><ele>146.0</ele><time>2026-04-17T06:48:55.957Z</time></trkpt><trkpt lat="43.8494301" lon="11.2130837"><ele>146.8</ele><time>2026-04-17T06:48:57.95Z</time></trkpt><trkpt lat="43.8495226" lon="11.2131658"><ele>147.6</ele><time>2026-04-17T06:48:59.958Z</time></trkpt><trkpt lat="43.8496182" lon="11.2132611"><ele>148.4</ele><time>2026-04-17T06:49:01.94Z</time></trkpt><trkpt lat="43.8497101" lon="11.2133489"><ele>149.2</ele><time>2026-04-17T06:49:03.972Z</time></trkpt><trkpt lat="43.8498095" lon="11.2134003"><ele>150.0</ele><time>2026-04-17T06:49:05.958Z</time></trkpt><trkpt lat="43.8498677" lon="11.2134536"><ele>150.0</ele><time>2026-04-17T06:49:07.961Z</time></trkpt><trkpt lat="43.8499608" lon="11.2135215"><ele>150.0</ele><time>2026-04-17T06:49:09.963Z</time></trkpt><trkpt lat="43.8500551" lon="11.213597"><ele>150.0</ele><time>2026-04-17T06:49:11.953Z</time></trkpt><trkpt lat="43.8501181" lon="11.2136505"><ele>150.0</ele><time>2026-04-17T06:49:13.963Z</time></trkpt><trkpt lat="43.8501564" lon="11.2137336"><ele>150.0</ele><time>2026-04-17T06:49:16.965Z</time></trkpt><trkpt lat="43.8501974" lon="11.2138183"><ele>150.0</ele><time>2026-04-17T06:49:22.944Z</time></trkpt><trkpt lat="43.8502601" lon="11.2138666"><ele>150.66666666666666</ele><time>2026-04-17T06:49:25.959Z</time></trkpt><trkpt lat="43.8503141" lon="11.2139198"><ele>151.33333333333334</ele><time>2026-04-17T06:49:27.957Z</time></trkpt><trkpt lat="43.850384" lon="11.2139734"><ele>152.0</ele><time>2026-04-17T06:49:29.961Z</time></trkpt><trkpt lat="43.850455" lon="11.2140219"><ele>152.66666666666669</ele><time>2026-04-17T06:49:31.962Z</time></trkpt><trkpt lat="43.8505198" lon="11.2140784"><ele>153.33333333333334</ele><time>2026-04-17T06:49:33.951Z</time></trkpt><trkpt lat="43.8505754" lon="11.2141301"><ele>154.0</ele><time>2026-04-17T06:49:36.948Z</time></trkpt><trkpt lat="43.8506571" lon="11.2141917"><ele>154.0</ele><time>2026-04-17T06:49:39.955Z</time></trkpt><trkpt lat="43.8507371" lon="11.2142105"><ele>154.0</ele><time>2026-04-17T06:49:41.961Z</time></trkpt><trkpt lat="43.850817" lon="11.2142291"><ele>154.0</ele><time>2026-04-17T06:49:43.959Z</time></trkpt><trkpt lat="43.850883" lon="11.2142564"><ele>154.0</ele><time>2026-04-17T06:49:46.958Z</time></trkpt><trkpt lat="43.8509427" lon="11.2142904"><ele>154.0</ele><time>2026-04-17T06:50:00.953Z</time></trkpt><trkpt lat="43.8509323" lon="11.2144255"><ele>154.0</ele><time>2026-04-17T06:52:05.973Z</time></trkpt><trkpt lat="43.8509262" lon="11.2145248"><ele>154.0</ele><time>2026-04-17T06:52:08.971Z</time></trkpt><trkpt lat="43.8509073" lon="11.2146389"><ele>154.0</ele><time>2026-04-17T06:52:11.968Z</time></trkpt><trkpt lat="43.8508498" lon="11.2146938"><ele>154.0</ele><time>2026-04-17T06:52:15.976Z</time></trkpt><trkpt lat="43.850783" lon="11.2147207"><ele>154.0</ele><time>2026-04-17T06:52:17.973Z</time></trkpt><trkpt lat="43.8506805" lon="11.2147574"><ele>154.0</ele><time>2026-04-17T06:52:19.966Z</time></trkpt><trkpt lat="43.8506149" lon="11.2147697"><ele>154.0</ele><time>2026-04-17T06:52:20.96Z</time></trkpt><trkpt lat="43.8505464" lon="11.2147802"><ele>154.0</ele><time>2026-04-17T06:52:21.96Z</time></trkpt><trkpt lat="43.8504803" lon="11.2147907"><ele>154.0</ele><time>2026-04-17T06:52:22.963Z</time></trkpt><trkpt lat="43.8504161" lon="11.214813"><ele>154.0</ele><time>2026-04-17T06:52:23.96Z</time></trkpt><trkpt lat="43.8503485" lon="11.2148274"><ele>154.0</ele><time>2026-04-17T06:52:24.953Z</time></trkpt><trkpt lat="43.8502323" lon="11.2148309"><ele>154.0</ele><time>2026-04-17T06:52:27.021Z</time></trkpt><trkpt lat="43.8501131" lon="11.2148147"><ele>154.0</ele><time>2026-04-17T06:52:28.968Z</time></trkpt><trkpt lat="43.850044" lon="11.2148067"><ele>152.66666666666669</ele><time>2026-04-17T06:52:29.955Z</time></trkpt><trkpt lat="43.8499761" lon="11.2148079"><ele>151.33333333333334</ele><time>2026-04-17T06:52:30.963Z</time></trkpt><trkpt lat="43.8498863" lon="11.2148075"><ele>150.0</ele><time>2026-04-17T06:52:31.959Z</time></trkpt><trkpt lat="43.8497944" lon="11.2147973"><ele>148.66666666666666</ele><time>2026-04-17T06:52:32.945Z</time></trkpt><trkpt lat="43.849698" lon="11.2147851"><ele>147.33333333333331</ele><time>2026-04-17T06:52:34.032Z</time></trkpt><trkpt lat="43.8496007" lon="11.2147818"><ele>146.0</ele><time>2026-04-17T06:52:35.032Z</time></trkpt><trkpt lat="43.8495027" lon="11.2147802"><ele>146.0</ele><time>2026-04-17T06:52:36.03Z</time></trkpt><trkpt lat="43.8494031" lon="11.2147693"><ele>146.0</ele><time>2026-04-17T06:52:36.968Z</time></trkpt><trkpt lat="43.8492983" lon="11.2147558"><ele>146.0</ele><time>2026-04-17T06:52:37.961Z</time></trkpt><trkpt lat="43.8491949" lon="11.2147527"><ele>146.0</ele><time>2026-04-17T06:52:38.956Z</time></trkpt><trkpt lat="43.8490919" lon="11.2147456"><ele>146.0</ele><time>2026-04-17T06:52:39.964Z</time></trkpt><trkpt lat="43.8489914" lon="11.2147347"><ele>146.0</ele><time>2026-04-17T06:52:40.961Z</time></trkpt><trkpt lat="43.8488865" lon="11.214719"><ele>146.0</ele><time>2026-04-17T06:52:41.985Z</time></trkpt><trkpt lat="43.8487844" lon="11.2146985"><ele>146.0</ele><time>2026-04-17T06:52:42.962Z</time></trkpt><trkpt lat="43.8486858" lon="11.214672"><ele>146.0</ele><time>2026-04-17T06:52:43.968Z</time></trkpt><trkpt lat="43.8485876" lon="11.2146308"><ele>146.0</ele><time>2026-04-17T06:52:44.995Z</time></trkpt><trkpt lat="43.848498" lon="11.2145694"><ele>146.6</ele><time>2026-04-17T06:52:45.956Z</time></trkpt><trkpt lat="43.8484084" lon="11.2145002"><ele>147.2</ele><time>2026-04-17T06:52:46.956Z</time></trkpt><trkpt lat="43.8483151" lon="11.2144276"><ele>147.8</ele><time>2026-04-17T06:52:47.966Z</time></trkpt><trkpt lat="43.8482195" lon="11.214357"><ele>148.4</ele><time>2026-04-17T06:52:48.96Z</time></trkpt><trkpt lat="43.8481318" lon="11.214287"><ele>149.0</ele><time>2026-04-17T06:52:49.965Z</time></trkpt><trkpt lat="43.8480491" lon="11.2142233"><ele>149.0</ele><time>2026-04-17T06:52:51.012Z</time></trkpt><trkpt lat="43.8479681" lon="11.2141607"><ele>149.0</ele><time>2026-04-17T06:52:51.965Z</time></trkpt><trkpt lat="43.8478812" lon="11.2140982"><ele>149.0</ele><time>2026-04-17T06:52:52.965Z</time></trkpt><trkpt lat="43.8477978" lon="11.2140596"><ele>149.0</ele><time>2026-04-17T06:52:53.943Z</time></trkpt><trkpt lat="43.847713" lon="11.2140449"><ele>149.0</ele><time>2026-04-17T06:52:54.964Z</time></trkpt><trkpt lat="43.8476157" lon="11.2140627"><ele>149.6</ele><time>2026-04-17T06:52:55.966Z</time></trkpt><trkpt lat="43.8475234" lon="11.2141049"><ele>150.2</ele><time>2026-04-17T06:52:56.95Z</time></trkpt><trkpt lat="43.8474335" lon="11.2141423"><ele>150.79999999999998</ele><time>2026-04-17T06:52:57.962Z</time></trkpt><trkpt lat="43.8473483" lon="11.2141699"><ele>151.4</ele><time>2026-04-17T06:52:59.019Z</time></trkpt><trkpt lat="43.8472646" lon="11.2141798"><ele>152.0</ele><time>2026-04-17T06:53:00.027Z</time></trkpt><trkpt lat="43.8471731" lon="11.2141972"><ele>152.0</ele><time>2026-04-17T06:53:01.045Z</time></trkpt><trkpt lat="43.8470856" lon="11.2142141"><ele>152.0</ele><time>2026-04-17T06:53:01.978Z</time></trkpt><trkpt lat="43.8470109" lon="11.2142247"><ele>152.0</ele><time>2026-04-17T06:53:02.969Z</time></trkpt><trkpt lat="43.8469488" lon="11.2142443"><ele>152.0</ele><time>2026-04-17T06:53:03.976Z</time></trkpt><trkpt lat="43.8468652" lon="11.2142929"><ele>152.0</ele><time>2026-04-17T06:53:05.971Z</time></trkpt><trkpt lat="43.8469367" lon="11.2142762"><ele>152.0</ele><time>2026-04-17T06:53:11.966Z</time></trkpt><trkpt lat="43.8470583" lon="11.214206"><ele>152.0</ele><time>2026-04-17T06:53:13.97Z</time></trkpt><trkpt lat="43.847154" lon="11.2141932"><ele>152.0</ele><time>2026-04-17T06:53:15.021Z</time></trkpt><trkpt lat="43.8472607" lon="11.2141775"><ele>152.0</ele><time>2026-04-17T06:53:15.958Z</time></trkpt><trkpt lat="43.8473766" lon="11.214155"><ele>152.0</ele><time>2026-04-17T06:53:17.03Z</time></trkpt><trkpt lat="43.8474837" lon="11.2141292"><ele>152.0</ele><time>2026-04-17T06:53:17.974Z</time></trkpt><trkpt lat="43.8475751" lon="11.2141162"><ele>151.4</ele><time>2026-04-17T06:53:18.974Z</time></trkpt><trkpt lat="43.8476442" lon="11.2141183"><ele>150.79999999999998</ele><time>2026-04-17T06:53:19.969Z</time></trkpt><trkpt lat="43.8477522" lon="11.2141565"><ele>150.2</ele><time>2026-04-17T06:53:21.974Z</time></trkpt><trkpt lat="43.847849" lon="11.2142566"><ele>149.6</ele><time>2026-04-17T06:53:23.965Z</time></trkpt><trkpt lat="43.8479336" lon="11.2143432"><ele>149.0</ele><time>2026-04-17T06:53:26.002Z</time></trkpt><trkpt lat="43.8480219" lon="11.2144181"><ele>149.0</ele><time>2026-04-17T06:53:27.964Z</time></trkpt><trkpt lat="43.8481311" lon="11.2145027"><ele>149.0</ele><time>2026-04-17T06:53:29.976Z</time></trkpt><trkpt lat="43.8481836" lon="11.2145595"><ele>149.0</ele><time>2026-04-17T06:53:30.976Z</time></trkpt><trkpt lat="43.8482372" lon="11.2146282"><ele>149.0</ele><time>2026-04-17T06:53:32.035Z</time></trkpt><trkpt lat="43.848293" lon="11.2146917"><ele>149.0</ele><time>2026-04-17T06:53:32.972Z</time></trkpt><trkpt lat="43.8483483" lon="11.2147521"><ele>149.0</ele><time>2026-04-17T06:53:33.962Z</time></trkpt><trkpt lat="43.8484019" lon="11.2148146"><ele>151.66666666666666</ele><time>2026-04-17T06:53:34.971Z</time></trkpt><trkpt lat="43.8484565" lon="11.2148741"><ele>154.33333333333331</ele><time>2026-04-17T06:53:35.972Z</time></trkpt><trkpt lat="43.8485248" lon="11.214937"><ele>157.0</ele><time>2026-04-17T06:53:36.979Z</time></trkpt><trkpt lat="43.848597" lon="11.2150009"><ele>159.66666666666666</ele><time>2026-04-17T06:53:37.974Z</time></trkpt><trkpt lat="43.8486734" lon="11.2150677"><ele>162.33333333333334</ele><time>2026-04-17T06:53:38.977Z</time></trkpt><trkpt lat="43.848753" lon="11.2151413"><ele>165.0</ele><time>2026-04-17T06:53:39.964Z</time></trkpt><trkpt lat="43.8488365" lon="11.2152143"><ele>165.0</ele><time>2026-04-17T06:53:40.979Z</time></trkpt><trkpt lat="43.8489266" lon="11.2152867"><ele>165.0</ele><time>2026-04-17T06:53:41.972Z</time></trkpt><trkpt lat="43.8490104" lon="11.2153654"><ele>165.0</ele><time>2026-04-17T06:53:42.98Z</time></trkpt><trkpt lat="43.8490943" lon="11.2154521"><ele>165.0</ele><time>2026-04-17T06:53:43.973Z</time></trkpt><trkpt lat="43.8491758" lon="11.2155489"><ele>165.0</ele><time>2026-04-17T06:53:44.978Z</time></trkpt><trkpt lat="43.849264" lon="11.2156469"><ele>168.2</ele><time>2026-04-17T06:53:45.978Z</time></trkpt><trkpt lat="43.8493555" lon="11.2157425"><ele>171.4</ele><time>2026-04-17T06:53:47.039Z</time></trkpt><trkpt lat="43.8494401" lon="11.2158378"><ele>174.60000000000002</ele><time>2026-04-17T06:53:47.967Z</time></trkpt><trkpt lat="43.8495202" lon="11.2159309"><ele>177.8</ele><time>2026-04-17T06:53:48.97Z</time></trkpt><trkpt lat="43.8495957" lon="11.2160232"><ele>181.0</ele><time>2026-04-17T06:53:49.981Z</time></trkpt><trkpt lat="43.8496737" lon="11.216109"><ele>181.0</ele><time>2026-04-17T06:53:51.03Z</time></trkpt><trkpt lat="43.8497565" lon="11.2161993"><ele>181.0</ele><time>2026-04-17T06:53:52.028Z</time></trkpt><trkpt lat="43.8498446" lon="11.2162867"><ele>181.0</ele><time>2026-04-17T06:53:52.963Z</time></trkpt><trkpt lat="43.8499329" lon="11.2163742"><ele>181.0</ele><time>2026-04-17T06:53:53.97Z</time></trkpt><trkpt lat="43.8500144" lon="11.2164569"><ele>181.0</ele><time>2026-04-17T06:53:54.972Z</time></trkpt><trkpt lat="43.8500872" lon="11.2165373"><ele>183.0</ele><time>2026-04-17T06:53:56.03Z</time></trkpt><trkpt lat="43.8501635" lon="11.2166079"><ele>185.0</ele><time>2026-04-17T06:53:57.029Z</time></trkpt><trkpt lat="43.8502402" lon="11.2166794"><ele>187.0</ele><time>2026-04-17T06:53:57.96Z</time></trkpt><trkpt lat="43.8503153" lon="11.216757"><ele>189.0</ele><time>2026-04-17T06:53:58.962Z</time></trkpt><trkpt lat="43.850396" lon="11.2168396"><ele>191.0</ele><time>2026-04-17T06:53:59.98Z</time></trkpt><trkpt lat="43.8504834" lon="11.2169316"><ele>191.0</ele><time>2026-04-17T06:54:01.029Z</time></trkpt><trkpt lat="43.8505639" lon="11.2170253"><ele>191.0</ele><time>2026-04-17T06:54:02.032Z</time></trkpt><trkpt lat="43.850645" lon="11.2171173"><ele>191.0</ele><time>2026-04-17T06:54:02.963Z</time></trkpt><trkpt lat="43.8507211" lon="11.2171913"><ele>191.0</ele><time>2026-04-17T06:54:03.962Z</time></trkpt><trkpt lat="43.850797" lon="11.2172511"><ele>191.0</ele><time>2026-04-17T06:54:04.959Z</time></trkpt><trkpt lat="43.8508784" lon="11.2172957"><ele>193.33333333333331</ele><time>2026-04-17T06:54:06.032Z</time></trkpt><trkpt lat="43.8509575" lon="11.2173304"><ele>195.66666666666666</ele><time>2026-04-17T06:54:07.029Z</time></trkpt><trkpt lat="43.8510349" lon="11.2173693"><ele>198.0</ele><time>2026-04-17T06:54:07.972Z</time></trkpt><trkpt lat="43.8511155" lon="11.2174043"><ele>200.33333333333331</ele><time>2026-04-17T06:54:08.973Z</time></trkpt><trkpt lat="43.8512036" lon="11.2174509"><ele>202.66666666666666</ele><time>2026-04-17T06:54:09.963Z</time></trkpt><trkpt lat="43.8512724" lon="11.2175035"><ele>205.0</ele><time>2026-04-17T06:54:10.965Z</time></trkpt><trkpt lat="43.8513411" lon="11.2175801"><ele>205.0</ele><time>2026-04-17T06:54:11.973Z</time></trkpt><trkpt lat="43.8514123" lon="11.2176523"><ele>205.0</ele><time>2026-04-17T06:54:12.975Z</time></trkpt><trkpt lat="43.8514838" lon="11.2177109"><ele>205.0</ele><time>2026-04-17T06:54:13.975Z</time></trkpt><trkpt lat="43.8515645" lon="11.2177769"><ele>205.0</ele><time>2026-04-17T06:54:14.996Z</time></trkpt><trkpt lat="43.8516482" lon="11.2178396"><ele>205.0</ele><time>2026-04-17T06:54:15.968Z</time></trkpt><trkpt lat="43.8517368" lon="11.2179029"><ele>206.16666666666666</ele><time>2026-04-17T06:54:16.963Z</time></trkpt><trkpt lat="43.8518148" lon="11.217957"><ele>207.33333333333331</ele><time>2026-04-17T06:54:17.954Z</time></trkpt><trkpt lat="43.8518939" lon="11.2180142"><ele>208.5</ele><time>2026-04-17T06:54:18.966Z</time></trkpt><trkpt lat="43.8519718" lon="11.2180644"><ele>209.66666666666669</ele><time>2026-04-17T06:54:19.97Z</time></trkpt><trkpt lat="43.8520485" lon="11.2181149"><ele>210.83333333333334</ele><time>2026-04-17T06:54:20.972Z</time></trkpt><trkpt lat="43.8521303" lon="11.2181773"><ele>212.0</ele><time>2026-04-17T06:54:22.029Z</time></trkpt><trkpt lat="43.8522155" lon="11.2182405"><ele>212.0</ele><time>2026-04-17T06:54:22.961Z</time></trkpt><trkpt lat="43.8522978" lon="11.2183228"><ele>212.0</ele><time>2026-04-17T06:54:23.966Z</time></trkpt><trkpt lat="43.8523971" lon="11.218393"><ele>212.0</ele><time>2026-04-17T06:54:24.971Z</time></trkpt><trkpt lat="43.8524993" lon="11.2184648"><ele>212.0</ele><time>2026-04-17T06:54:26.036Z</time></trkpt><trkpt lat="43.8525923" lon="11.2185334"><ele>212.0</ele><time>2026-04-17T06:54:26.961Z</time></trkpt><trkpt lat="43.852691" lon="11.2186052"><ele>210.0</ele><time>2026-04-17T06:54:27.965Z</time></trkpt><trkpt lat="43.8527835" lon="11.218676"><ele>208.0</ele><time>2026-04-17T06:54:29.021Z</time></trkpt><trkpt lat="43.8528697" lon="11.2187451"><ele>206.0</ele><time>2026-04-17T06:54:30.018Z</time></trkpt><trkpt lat="43.8529485" lon="11.2188032"><ele>204.0</ele><time>2026-04-17T06:54:31.04Z</time></trkpt><trkpt lat="43.8530208" lon="11.2188712"><ele>202.0</ele><time>2026-04-17T06:54:31.964Z</time></trkpt><trkpt lat="43.8530834" lon="11.21893"><ele>202.0</ele><time>2026-04-17T06:54:32.963Z</time></trkpt><trkpt lat="43.8531438" lon="11.2189718"><ele>202.0</ele><time>2026-04-17T06:54:33.988Z</time></trkpt><trkpt lat="43.8532002" lon="11.2190139"><ele>202.0</ele><time>2026-04-17T06:54:34.949Z</time></trkpt><trkpt lat="43.8532612" lon="11.2190644"><ele>202.0</ele><time>2026-04-17T06:54:35.956Z</time></trkpt><trkpt lat="43.8533186" lon="11.2191176"><ele>202.0</ele><time>2026-04-17T06:54:36.968Z</time></trkpt><trkpt lat="43.8533727" lon="11.2191683"><ele>202.0</ele><time>2026-04-17T06:54:37.959Z</time></trkpt><trkpt lat="43.8534384" lon="11.2192282"><ele>202.0</ele><time>2026-04-17T06:54:38.966Z</time></trkpt><trkpt lat="43.8535064" lon="11.2192929"><ele>204.8</ele><time>2026-04-17T06:54:39.965Z</time></trkpt><trkpt lat="43.853581" lon="11.2193625"><ele>207.6</ele><time>2026-04-17T06:54:40.976Z</time></trkpt><trkpt lat="43.8536718" lon="11.2194429"><ele>210.40000000000003</ele><time>2026-04-17T06:54:42.021Z</time></trkpt><trkpt lat="43.8537681" lon="11.2195221"><ele>213.20000000000002</ele><time>2026-04-17T06:54:42.961Z</time></trkpt><trkpt lat="43.8538547" lon="11.2196092"><ele>216.0</ele><time>2026-04-17T06:54:43.968Z</time></trkpt><trkpt lat="43.8539334" lon="11.2196906"><ele>216.0</ele><time>2026-04-17T06:54:44.978Z</time></trkpt><trkpt lat="43.8540139" lon="11.2197878"><ele>216.00000000000003</ele><time>2026-04-17T06:54:46.028Z</time></trkpt><trkpt lat="43.8540972" lon="11.2198826"><ele>216.00000000000003</ele><time>2026-04-17T06:54:46.98Z</time></trkpt><trkpt lat="43.8541754" lon="11.2199833"><ele>216.0</ele><time>2026-04-17T06:54:47.982Z</time></trkpt><trkpt lat="43.8542523" lon="11.2200763"><ele>216.0</ele><time>2026-04-17T06:54:48.983Z</time></trkpt><trkpt lat="43.8543157" lon="11.2201752"><ele>214.83333333333334</ele><time>2026-04-17T06:54:49.978Z</time></trkpt><trkpt lat="43.8543676" lon="11.2202743"><ele>213.66666666666669</ele><time>2026-04-17T06:54:50.979Z</time></trkpt><trkpt lat="43.8544122" lon="11.2203571"><ele>212.5</ele><time>2026-04-17T06:54:51.976Z</time></trkpt><trkpt lat="43.8544659" lon="11.2204917"><ele>211.33333333333334</ele><time>2026-04-17T06:54:53.97Z</time></trkpt><trkpt lat="43.854511" lon="11.2206159"><ele>210.16666666666669</ele><time>2026-04-17T06:54:56.029Z</time></trkpt><trkpt lat="43.8545325" lon="11.2206999"><ele>209.0</ele><time>2026-04-17T06:54:56.978Z</time></trkpt><trkpt lat="43.8545995" lon="11.2208456"><ele>212.2</ele><time>2026-04-17T06:54:58.977Z</time></trkpt><trkpt lat="43.8546285" lon="11.2209386"><ele>215.39999999999998</ele><time>2026-04-17T06:54:59.977Z</time></trkpt><trkpt lat="43.8546718" lon="11.2210536"><ele>218.6</ele><time>2026-04-17T06:55:00.965Z</time></trkpt><trkpt lat="43.8547094" lon="11.2211742"><ele>221.8</ele><time>2026-04-17T06:55:01.969Z</time></trkpt><trkpt lat="43.8547499" lon="11.2212987"><ele>225.0</ele><time>2026-04-17T06:55:02.983Z</time></trkpt><trkpt lat="43.8548135" lon="11.2214175"><ele>228.2</ele><time>2026-04-17T06:55:03.978Z</time></trkpt><trkpt lat="43.8548673" lon="11.2215392"><ele>231.4</ele><time>2026-04-17T06:55:05.074Z</time></trkpt><trkpt lat="43.8549204" lon="11.2216638"><ele>234.60000000000002</ele><time>2026-04-17T06:55:06.031Z</time></trkpt><trkpt lat="43.85497" lon="11.2217892"><ele>237.8</ele><time>2026-04-17T06:55:07.035Z</time></trkpt><trkpt lat="43.8550179" lon="11.2219169"><ele>241.0</ele><time>2026-04-17T06:55:07.971Z</time></trkpt><trkpt lat="43.8550639" lon="11.2220414"><ele>240.99999999999997</ele><time>2026-04-17T06:55:08.976Z</time></trkpt><trkpt lat="43.8550874" lon="11.2221257"><ele>241.0</ele><time>2026-04-17T06:55:09.997Z</time></trkpt><trkpt lat="43.8551028" lon="11.2222606"><ele>241.0</ele><time>2026-04-17T06:55:11.98Z</time></trkpt><trkpt lat="43.8550454" lon="11.222191"><ele>241.0</ele><time>2026-04-17T06:55:22.947Z</time></trkpt><trkpt lat="43.8549767" lon="11.2221495"><ele>240.99999999999997</ele><time>2026-04-17T06:55:24.964Z</time></trkpt><trkpt lat="43.8549133" lon="11.2220951"><ele>241.0</ele><time>2026-04-17T06:55:26.992Z</time></trkpt><trkpt lat="43.854826" lon="11.2220637"><ele>241.0</ele><time>2026-04-17T06:55:28.968Z</time></trkpt><trkpt lat="43.8547588" lon="11.2220329"><ele>241.00000000000003</ele><time>2026-04-17T06:55:30.956Z</time></trkpt><trkpt lat="43.8546569" lon="11.221979"><ele>241.00000000000003</ele><time>2026-04-17T06:55:32.962Z</time></trkpt><trkpt lat="43.8545549" lon="11.2219338"><ele>241.0</ele><time>2026-04-17T06:55:34.961Z</time></trkpt><trkpt lat="43.8544606" lon="11.2218952"><ele>241.0</ele><time>2026-04-17T06:55:36.952Z</time></trkpt><trkpt lat="43.8543733" lon="11.2218593"><ele>240.99999999999997</ele><time>2026-04-17T06:55:38.963Z</time></trkpt><trkpt lat="43.8543008" lon="11.2218023"><ele>241.0</ele><time>2026-04-17T06:55:40.94Z</time></trkpt><trkpt lat="43.854225" lon="11.2217278"><ele>241.0</ele><time>2026-04-17T06:55:42.956Z</time></trkpt><trkpt lat="43.8541498" lon="11.2216589"><ele>241.0</ele><time>2026-04-17T06:55:44.965Z</time></trkpt><trkpt lat="43.8540889" lon="11.2216269"><ele>240.99999999999997</ele><time>2026-04-17T06:55:46.955Z</time></trkpt><trkpt lat="43.8541116" lon="11.2217352"><ele>241.0</ele><time>2026-04-17T06:55:49.971Z</time></trkpt><trkpt lat="43.8541708" lon="11.221802"><ele>240.99999999999997</ele><time>2026-04-17T06:55:51.969Z</time></trkpt><trkpt lat="43.8542141" lon="11.2219065"><ele>241.0</ele><time>2026-04-17T06:55:54.966Z</time></trkpt><trkpt lat="43.8542434" lon="11.2220007"><ele>241.0</ele><time>2026-04-17T06:55:56.952Z</time></trkpt><trkpt lat="43.8542836" lon="11.2221013"><ele>241.0</ele><time>2026-04-17T06:55:59.079Z</time></trkpt><trkpt lat="43.8543176" lon="11.222193"><ele>240.99999999999997</ele><time>2026-04-17T06:56:01.035Z</time></trkpt><trkpt lat="43.854357" lon="11.2222866"><ele>241.0</ele><time>2026-04-17T06:56:02.958Z</time></trkpt><trkpt lat="43.8543979" lon="11.2223971"><ele>243.83333333333331</ele><time>2026-04-17T06:56:04.958Z</time></trkpt><trkpt lat="43.8544592" lon="11.2225105"><ele>246.66666666666666</ele><time>2026-04-17T06:56:06.951Z</time></trkpt><trkpt lat="43.8544848" lon="11.2225954"><ele>249.5</ele><time>2026-04-17T06:56:08.96Z</time></trkpt><trkpt lat="43.8543903" lon="11.222585"><ele>252.33333333333331</ele><time>2026-04-17T06:56:11.961Z</time></trkpt><trkpt lat="43.854327" lon="11.2225491"><ele>255.16666666666666</ele><time>2026-04-17T06:56:13.96Z</time></trkpt><trkpt lat="43.8542427" lon="11.2226177"><ele>258.0</ele><time>2026-04-17T06:56:16.965Z</time></trkpt><trkpt lat="43.8542381" lon="11.2227189"><ele>258.0</ele><time>2026-04-17T06:56:18.94Z</time></trkpt><trkpt lat="43.8542546" lon="11.2228252"><ele>258.0</ele><time>2026-04-17T06:56:20.99Z</time></trkpt><trkpt lat="43.85428" lon="11.2229311"><ele>258.0</ele><time>2026-04-17T06:56:22.979Z</time></trkpt><trkpt lat="43.8542984" lon="11.2230294"><ele>258.0</ele><time>2026-04-17T06:56:24.98Z</time></trkpt><trkpt lat="43.8543093" lon="11.2231729"><ele>258.0</ele><time>2026-04-17T06:56:26.979Z</time></trkpt><trkpt lat="43.8543081" lon="11.2233387"><ele>260.6</ele><time>2026-04-17T06:56:28.981Z</time></trkpt><trkpt lat="43.8543047" lon="11.2234944"><ele>263.20000000000005</ele><time>2026-04-17T06:56:30.979Z</time></trkpt><trkpt lat="43.8542984" lon="11.2236374"><ele>265.8</ele><time>2026-04-17T06:56:32.981Z</time></trkpt><trkpt lat="43.8542954" lon="11.2237793"><ele>268.40000000000003</ele><time>2026-04-17T06:56:34.98Z</time></trkpt><trkpt lat="43.8542834" lon="11.2238806"><ele>271.0</ele><time>2026-04-17T06:56:36.98Z</time></trkpt><trkpt lat="43.8542549" lon="11.2239967"><ele>277.8333333333333</ele><time>2026-04-17T06:56:38.99Z</time></trkpt><trkpt lat="43.8542316" lon="11.2241041"><ele>284.66666666666663</ele><time>2026-04-17T06:56:40.982Z</time></trkpt><trkpt lat="43.8542176" lon="11.2242019"><ele>291.5</ele><time>2026-04-17T06:56:42.986Z</time></trkpt><trkpt lat="43.8542117" lon="11.2243367"><ele>298.3333333333333</ele><time>2026-04-17T06:56:44.977Z</time></trkpt><trkpt lat="43.8542112" lon="11.2244339"><ele>305.1666666666667</ele><time>2026-04-17T06:56:46.979Z</time></trkpt><trkpt lat="43.854201" lon="11.2245532"><ele>312.0</ele><time>2026-04-17T06:56:48.972Z</time></trkpt><trkpt lat="43.8541955" lon="11.224674"><ele>312.0</ele><time>2026-04-17T06:56:50.972Z</time></trkpt><trkpt lat="43.8541808" lon="11.2247863"><ele>312.0</ele><time>2026-04-17T06:56:52.968Z</time></trkpt><trkpt lat="43.8541458" lon="11.224928"><ele>312.0</ele><time>2026-04-17T06:56:54.962Z</time></trkpt><trkpt lat="43.8541243" lon="11.2250616"><ele>312.0</ele><time>2026-04-17T06:56:56.971Z</time></trkpt><trkpt lat="43.8541114" lon="11.2251834"><ele>312.0</ele><time>2026-04-17T06:56:58.973Z</time></trkpt><trkpt lat="43.8541066" lon="11.2253052"><ele>312.7142857142857</ele><time>2026-04-17T06:57:00.982Z</time></trkpt><trkpt lat="43.8541085" lon="11.2254196"><ele>313.4285714285714</ele><time>2026-04-17T06:57:02.982Z</time></trkpt><trkpt lat="43.8541102" lon="11.2255352"><ele>314.1428571428571</ele><time>2026-04-17T06:57:04.967Z</time></trkpt><trkpt lat="43.8540925" lon="11.2256323"><ele>314.8571428571429</ele><time>2026-04-17T06:57:06.977Z</time></trkpt><trkpt lat="43.8540595" lon="11.2257289"><ele>315.57142857142856</ele><time>2026-04-17T06:57:08.981Z</time></trkpt><trkpt lat="43.8540216" lon="11.2258009"><ele>316.2857142857143</ele><time>2026-04-17T06:57:10.97Z</time></trkpt><trkpt lat="43.8540088" lon="11.2258951"><ele>317.0</ele><time>2026-04-17T06:57:12.98Z</time></trkpt><trkpt lat="43.8540026" lon="11.2259952"><ele>317.6666666666667</ele><time>2026-04-17T06:57:15.982Z</time></trkpt><trkpt lat="43.8539305" lon="11.2259845"><ele>318.33333333333337</ele><time>2026-04-17T06:57:19.981Z</time></trkpt><trkpt lat="43.8538516" lon="11.2259376"><ele>319.0</ele><time>2026-04-17T06:57:22.983Z</time></trkpt><trkpt lat="43.8537924" lon="11.2258657"><ele>319.6666666666667</ele><time>2026-04-17T06:57:25.978Z</time></trkpt><trkpt lat="43.8537377" lon="11.2259258"><ele>320.3333333333333</ele><time>2026-04-17T06:57:27.977Z</time></trkpt><trkpt lat="43.8537046" lon="11.2260288"><ele>321.0</ele><time>2026-04-17T06:57:30.979Z</time></trkpt><trkpt lat="43.8537005" lon="11.2261713"><ele>321.0</ele><time>2026-04-17T06:57:33.972Z</time></trkpt><trkpt lat="43.8536799" lon="11.2262781"><ele>321.0</ele><time>2026-04-17T06:57:35.976Z</time></trkpt><trkpt lat="43.8536342" lon="11.2264022"><ele>321.0</ele><time>2026-04-17T06:57:37.98Z</time></trkpt><trkpt lat="43.8536398" lon="11.2265418"><ele>321.0</ele><time>2026-04-17T06:57:39.978Z</time></trkpt><trkpt lat="43.8536614" lon="11.2266923"><ele>321.0</ele><time>2026-04-17T06:57:41.97Z</time></trkpt><trkpt lat="43.8536643" lon="11.2268639"><ele>321.5</ele><time>2026-04-17T06:57:43.978Z</time></trkpt><trkpt lat="43.85366" lon="11.226973"><ele>322.0</ele><time>2026-04-17T06:57:44.974Z</time></trkpt><trkpt lat="43.8536561" lon="11.2270807"><ele>322.5</ele><time>2026-04-17T06:57:45.975Z</time></trkpt><trkpt lat="43.8536435" lon="11.2271786"><ele>323.0</ele><time>2026-04-17T06:57:46.977Z</time></trkpt><trkpt lat="43.8536231" lon="11.2273318"><ele>323.5</ele><time>2026-04-17T06:57:48.974Z</time></trkpt><trkpt lat="43.8535761" lon="11.2274592"><ele>324.0</ele><time>2026-04-17T06:57:50.964Z</time></trkpt><trkpt lat="43.8535414" lon="11.2275457"><ele>324.5</ele><time>2026-04-17T06:57:52.987Z</time></trkpt><trkpt lat="43.8535233" lon="11.2276656"><ele>325.0</ele><time>2026-04-17T06:57:55.983Z</time></trkpt><trkpt lat="43.8535334" lon="11.2277624"><ele>325.5</ele><time>2026-04-17T06:57:57.979Z</time></trkpt><trkpt lat="43.8535193" lon="11.2278684"><ele>326.0</ele><time>2026-04-17T06:57:59.976Z</time></trkpt><trkpt lat="43.8534818" lon="11.2280016"><ele>326.5</ele><time>2026-04-17T06:58:01.984Z</time></trkpt><trkpt lat="43.8534642" lon="11.2281137"><ele>327.0</ele><time>2026-04-17T06:58:03.974Z</time></trkpt><trkpt lat="43.8534092" lon="11.2281912"><ele>334.8</ele><time>2026-04-17T06:58:05.984Z</time></trkpt><trkpt lat="43.8533885" lon="11.2280748"><ele>342.6</ele><time>2026-04-17T06:58:09.984Z</time></trkpt><trkpt lat="43.8533458" lon="11.2279721"><ele>350.40000000000003</ele><time>2026-04-17T06:58:11.986Z</time></trkpt><trkpt lat="43.8532925" lon="11.2278479"><ele>358.20000000000005</ele><time>2026-04-17T06:58:13.982Z</time></trkpt><trkpt lat="43.8532492" lon="11.2277274"><ele>366.0</ele><time>2026-04-17T06:58:15.984Z</time></trkpt><trkpt lat="43.8531966" lon="11.2275833"><ele>366.0</ele><time>2026-04-17T06:58:17.989Z</time></trkpt><trkpt lat="43.8531689" lon="11.2274404"><ele>366.0</ele><time>2026-04-17T06:58:19.988Z</time></trkpt><trkpt lat="43.8531478" lon="11.2272938"><ele>366.0</ele><time>2026-04-17T06:58:21.98Z</time></trkpt><trkpt lat="43.8531331" lon="11.2272083"><ele>366.0</ele><time>2026-04-17T06:58:22.971Z</time></trkpt><trkpt lat="43.853134" lon="11.2271174"><ele>366.0</ele><time>2026-04-17T06:58:23.977Z</time></trkpt><trkpt lat="43.8531214" lon="11.2270263"><ele>366.0</ele><time>2026-04-17T06:58:24.978Z</time></trkpt><trkpt lat="43.8531049" lon="11.226879"><ele>365.5</ele><time>2026-04-17T06:58:26.98Z</time></trkpt><trkpt lat="43.853084" lon="11.2267629"><ele>365.0</ele><time>2026-04-17T06:58:28.982Z</time></trkpt><trkpt lat="43.8530505" lon="11.2266463"><ele>364.5</ele><time>2026-04-17T06:58:30.984Z</time></trkpt><trkpt lat="43.8530073" lon="11.2265555"><ele>364.0</ele><time>2026-04-17T06:58:32.98Z</time></trkpt><trkpt lat="43.8529589" lon="11.2264621"><ele>363.5</ele><time>2026-04-17T06:58:34.991Z</time></trkpt><trkpt lat="43.8529188" lon="11.2263487"><ele>363.0</ele><time>2026-04-17T06:58:36.976Z</time></trkpt><trkpt lat="43.8528771" lon="11.2262179"><ele>362.2</ele><time>2026-04-17T06:58:38.978Z</time></trkpt><trkpt lat="43.8528488" lon="11.2260817"><ele>361.4</ele><time>2026-04-17T06:58:40.977Z</time></trkpt><trkpt lat="43.8528339" lon="11.2259683"><ele>360.59999999999997</ele><time>2026-04-17T06:58:42.986Z</time></trkpt><trkpt lat="43.8528212" lon="11.2258299"><ele>359.79999999999995</ele><time>2026-04-17T06:58:44.986Z</time></trkpt><trkpt lat="43.8527992" lon="11.2256964"><ele>359.0</ele><time>2026-04-17T06:58:46.982Z</time></trkpt><trkpt lat="43.85278" lon="11.2255792"><ele>359.0</ele><time>2026-04-17T06:58:48.971Z</time></trkpt><trkpt lat="43.8527731" lon="11.2254699"><ele>359.0</ele><time>2026-04-17T06:58:50.982Z</time></trkpt><trkpt lat="43.8527705" lon="11.2253565"><ele>359.0</ele><time>2026-04-17T06:58:52.981Z</time></trkpt><trkpt lat="43.852769" lon="11.2252407"><ele>359.0</ele><time>2026-04-17T06:58:54.974Z</time></trkpt><trkpt lat="43.8527492" lon="11.2251077"><ele>359.0</ele><time>2026-04-17T06:58:56.972Z</time></trkpt><trkpt lat="43.8527253" lon="11.2249836"><ele>359.0</ele><time>2026-04-17T06:58:58.985Z</time></trkpt><trkpt lat="43.8527016" lon="11.2248794"><ele>357.83333333333337</ele><time>2026-04-17T06:59:00.968Z</time></trkpt><trkpt lat="43.8526536" lon="11.2247761"><ele>356.6666666666667</ele><time>2026-04-17T06:59:03.971Z</time></trkpt><trkpt lat="43.8526087" lon="11.2247027"><ele>355.5</ele><time>2026-04-17T06:59:05.984Z</time></trkpt><trkpt lat="43.8525517" lon="11.2246278"><ele>354.3333333333333</ele><time>2026-04-17T06:59:07.98Z</time></trkpt><trkpt lat="43.85251" lon="11.2245494"><ele>353.16666666666663</ele><time>2026-04-17T06:59:09.983Z</time></trkpt><trkpt lat="43.8524543" lon="11.2244447"><ele>352.0</ele><time>2026-04-17T06:59:12.987Z</time></trkpt><trkpt lat="43.8523729" lon="11.2243427"><ele>355.40000000000003</ele><time>2026-04-17T06:59:14.981Z</time></trkpt><trkpt lat="43.8522918" lon="11.2242112"><ele>358.8</ele><time>2026-04-17T06:59:16.98Z</time></trkpt><trkpt lat="43.8522551" lon="11.2241362"><ele>362.2</ele><time>2026-04-17T06:59:17.978Z</time></trkpt><trkpt lat="43.8522063" lon="11.2240803"><ele>365.6</ele><time>2026-04-17T06:59:18.981Z</time></trkpt><trkpt lat="43.8521148" lon="11.2239604"><ele>369.0</ele><time>2026-04-17T06:59:20.986Z</time></trkpt><trkpt lat="43.8520263" lon="11.2238545"><ele>369.0</ele><time>2026-04-17T06:59:22.982Z</time></trkpt><trkpt lat="43.8519321" lon="11.2237688"><ele>369.0</ele><time>2026-04-17T06:59:24.98Z</time></trkpt><trkpt lat="43.8518415" lon="11.2236869"><ele>369.0</ele><time>2026-04-17T06:59:26.985Z</time></trkpt><trkpt lat="43.8517445" lon="11.2236165"><ele>369.0</ele><time>2026-04-17T06:59:28.984Z</time></trkpt><trkpt lat="43.8516552" lon="11.2235525"><ele>369.0</ele><time>2026-04-17T06:59:30.977Z</time></trkpt><trkpt lat="43.8515593" lon="11.2234849"><ele>373.2</ele><time>2026-04-17T06:59:32.979Z</time></trkpt><trkpt lat="43.8514683" lon="11.2234296"><ele>377.4</ele><time>2026-04-17T06:59:35.005Z</time></trkpt><trkpt lat="43.8513678" lon="11.2233653"><ele>381.6</ele><time>2026-04-17T06:59:37.035Z</time></trkpt><trkpt lat="43.8512735" lon="11.2233277"><ele>385.8</ele><time>2026-04-17T06:59:38.959Z</time></trkpt><trkpt lat="43.8511828" lon="11.2232825"><ele>390.0</ele><time>2026-04-17T06:59:41.023Z</time></trkpt><trkpt lat="43.8510967" lon="11.2232388"><ele>390.0</ele><time>2026-04-17T06:59:42.955Z</time></trkpt><trkpt lat="43.8510206" lon="11.223189"><ele>390.0</ele><time>2026-04-17T06:59:44.988Z</time></trkpt><trkpt lat="43.8509495" lon="11.2231486"><ele>390.0</ele><time>2026-04-17T06:59:46.979Z</time></trkpt><trkpt lat="43.8508702" lon="11.223126"><ele>390.0</ele><time>2026-04-17T06:59:48.961Z</time></trkpt><trkpt lat="43.8507697" lon="11.2230866"><ele>390.0</ele><time>2026-04-17T06:59:50.936Z</time></trkpt><trkpt lat="43.8506837" lon="11.2230497"><ele>390.0</ele><time>2026-04-17T06:59:52.936Z</time></trkpt><trkpt lat="43.85059" lon="11.2230041"><ele>389.4</ele><time>2026-04-17T06:59:54.94Z</time></trkpt><trkpt lat="43.850495" lon="11.2229665"><ele>388.8</ele><time>2026-04-17T06:59:56.959Z</time></trkpt><trkpt lat="43.8503989" lon="11.2229192"><ele>388.20000000000005</ele><time>2026-04-17T06:59:58.958Z</time></trkpt><trkpt lat="43.8502982" lon="11.2228695"><ele>387.6</ele><time>2026-04-17T07:00:00.954Z</time></trkpt><trkpt lat="43.8501986" lon="11.2228312"><ele>387.0</ele><time>2026-04-17T07:00:02.959Z</time></trkpt><trkpt lat="43.8501214" lon="11.2228137"><ele>388.6666666666667</ele><time>2026-04-17T07:00:04.991Z</time></trkpt><trkpt lat="43.8500511" lon="11.2227942"><ele>390.33333333333337</ele><time>2026-04-17T07:00:06.954Z</time></trkpt><trkpt lat="43.8499785" lon="11.2227836"><ele>392.0</ele><time>2026-04-17T07:00:08.96Z</time></trkpt><trkpt lat="43.8499004" lon="11.2227605"><ele>393.6666666666667</ele><time>2026-04-17T07:00:10.954Z</time></trkpt><trkpt lat="43.8498157" lon="11.2227399"><ele>395.33333333333337</ele><time>2026-04-17T07:00:12.957Z</time></trkpt><trkpt lat="43.8497181" lon="11.2226939"><ele>397.0</ele><time>2026-04-17T07:00:14.958Z</time></trkpt><trkpt lat="43.8496138" lon="11.2226635"><ele>397.00000000000006</ele><time>2026-04-17T07:00:16.962Z</time></trkpt><trkpt lat="43.8495231" lon="11.2226689"><ele>397.0</ele><time>2026-04-17T07:00:18.949Z</time></trkpt><trkpt lat="43.8494274" lon="11.2226741"><ele>397.0</ele><time>2026-04-17T07:00:20.941Z</time></trkpt><trkpt lat="43.8493447" lon="11.2226845"><ele>397.0</ele><time>2026-04-17T07:00:22.961Z</time></trkpt><trkpt lat="43.8492767" lon="11.2227145"><ele>397.00000000000006</ele><time>2026-04-17T07:00:25.956Z</time></trkpt><trkpt lat="43.8492069" lon="11.2227371"><ele>397.0</ele><time>2026-04-17T07:00:28.955Z</time></trkpt><trkpt lat="43.8491182" lon="11.2227648"><ele>398.6666666666667</ele><time>2026-04-17T07:00:31.95Z</time></trkpt><trkpt lat="43.8490481" lon="11.2227948"><ele>400.33333333333337</ele><time>2026-04-17T07:00:33.96Z</time></trkpt><trkpt lat="43.848973" lon="11.2228366"><ele>402.0</ele><time>2026-04-17T07:00:35.958Z</time></trkpt><trkpt lat="43.8488958" lon="11.2228675"><ele>403.66666666666663</ele><time>2026-04-17T07:00:37.966Z</time></trkpt><trkpt lat="43.8488393" lon="11.2229148"><ele>405.3333333333333</ele><time>2026-04-17T07:00:39.954Z</time></trkpt><trkpt lat="43.8487617" lon="11.2229764"><ele>407.0</ele><time>2026-04-17T07:00:42.957Z</time></trkpt><trkpt lat="43.8487492" lon="11.2230703"><ele>406.99999999999994</ele><time>2026-04-17T07:00:46.962Z</time></trkpt><trkpt lat="43.8488114" lon="11.2230943"><ele>407.0</ele><time>2026-04-17T07:00:48.962Z</time></trkpt><trkpt lat="43.8488829" lon="11.2231413"><ele>407.0</ele><time>2026-04-17T07:00:50.953Z</time></trkpt><trkpt lat="43.8489673" lon="11.2231839"><ele>407.0</ele><time>2026-04-17T07:00:52.956Z</time></trkpt><trkpt lat="43.8490433" lon="11.223223"><ele>406.99999999999994</ele><time>2026-04-17T07:00:54.951Z</time></trkpt><trkpt lat="43.8491209" lon="11.2232427"><ele>407.0</ele><time>2026-04-17T07:00:56.95Z</time></trkpt><trkpt lat="43.8492058" lon="11.2232542"><ele>410.3333333333333</ele><time>2026-04-17T07:00:58.964Z</time></trkpt><trkpt lat="43.8492772" lon="11.2233051"><ele>413.66666666666663</ele><time>2026-04-17T07:01:01.963Z</time></trkpt><trkpt lat="43.8492015" lon="11.2233423"><ele>417.0</ele><time>2026-04-17T07:01:06.967Z</time></trkpt><trkpt lat="43.8491316" lon="11.2233781"><ele>420.33333333333337</ele><time>2026-04-17T07:01:09.966Z</time></trkpt><trkpt lat="43.8490422" lon="11.2234285"><ele>423.6666666666667</ele><time>2026-04-17T07:01:12.953Z</time></trkpt><trkpt lat="43.8489678" lon="11.223474"><ele>427.0</ele><time>2026-04-17T07:01:14.97Z</time></trkpt><trkpt lat="43.84889" lon="11.2235216"><ele>427.00000000000006</ele><time>2026-04-17T07:01:16.961Z</time></trkpt><trkpt lat="43.8488197" lon="11.2235841"><ele>427.0</ele><time>2026-04-17T07:01:18.956Z</time></trkpt><trkpt lat="43.8487573" lon="11.2236387"><ele>427.0</ele><time>2026-04-17T07:01:20.967Z</time></trkpt><trkpt lat="43.8487026" lon="11.2236957"><ele>427.0</ele><time>2026-04-17T07:01:22.967Z</time></trkpt><trkpt lat="43.8486263" lon="11.2237698"><ele>427.00000000000006</ele><time>2026-04-17T07:01:26.02Z</time></trkpt><trkpt lat="43.8485788" lon="11.2238394"><ele>427.0</ele><time>2026-04-17T07:01:27.971Z</time></trkpt><trkpt lat="43.8484999" lon="11.22392"><ele>430.1666666666667</ele><time>2026-04-17T07:01:30.967Z</time></trkpt><trkpt lat="43.8484497" lon="11.2240013"><ele>433.33333333333337</ele><time>2026-04-17T07:01:32.951Z</time></trkpt><trkpt lat="43.8483845" lon="11.2240817"><ele>436.5</ele><time>2026-04-17T07:01:34.963Z</time></trkpt><trkpt lat="43.8483192" lon="11.2241832"><ele>439.66666666666663</ele><time>2026-04-17T07:01:36.956Z</time></trkpt><trkpt lat="43.848253" lon="11.2242665"><ele>442.8333333333333</ele><time>2026-04-17T07:01:38.966Z</time></trkpt><trkpt lat="43.8482021" lon="11.224325"><ele>446.0</ele><time>2026-04-17T07:01:40.968Z</time></trkpt><trkpt lat="43.8482178" lon="11.2244199"><ele>446.0</ele><time>2026-04-17T07:01:48.955Z</time></trkpt><trkpt lat="43.8483017" lon="11.2244227"><ele>446.0</ele><time>2026-04-17T07:01:52.968Z</time></trkpt><trkpt lat="43.8483765" lon="11.2244204"><ele>446.0</ele><time>2026-04-17T07:01:55.955Z</time></trkpt><trkpt lat="43.8484428" lon="11.2244188"><ele>446.0</ele><time>2026-04-17T07:01:57.964Z</time></trkpt><trkpt lat="43.8485102" lon="11.2244116"><ele>446.0</ele><time>2026-04-17T07:01:59.963Z</time></trkpt><trkpt lat="43.8485868" lon="11.2244159"><ele>446.0</ele><time>2026-04-17T07:02:01.962Z</time></trkpt><trkpt lat="43.8486499" lon="11.2244045"><ele>446.0</ele><time>2026-04-17T07:02:03.962Z</time></trkpt><trkpt lat="43.8487389" lon="11.2244077"><ele>446.57142857142856</ele><time>2026-04-17T07:02:06.959Z</time></trkpt><trkpt lat="43.8487967" lon="11.2244857"><ele>447.1428571428571</ele><time>2026-04-17T07:02:09.97Z</time></trkpt><trkpt lat="43.8487876" lon="11.2245749"><ele>447.7142857142858</ele><time>2026-04-17T07:02:12.958Z</time></trkpt><trkpt lat="43.8487365" lon="11.2246459"><ele>448.28571428571433</ele><time>2026-04-17T07:02:15.948Z</time></trkpt><trkpt lat="43.8486681" lon="11.2247129"><ele>448.8571428571429</ele><time>2026-04-17T07:02:17.963Z</time></trkpt><trkpt lat="43.8486077" lon="11.2247394"><ele>449.4285714285715</ele><time>2026-04-17T07:02:19.969Z</time></trkpt><trkpt lat="43.8486683" lon="11.2248035"><ele>450.00000000000006</ele><time>2026-04-17T07:02:25.961Z</time></trkpt><trkpt lat="43.8487381" lon="11.2247875"><ele>450.0</ele><time>2026-04-17T07:02:27.969Z</time></trkpt><trkpt lat="43.8488175" lon="11.2247743"><ele>450.0</ele><time>2026-04-17T07:02:29.942Z</time></trkpt><trkpt lat="43.8488948" lon="11.224767"><ele>450.0</ele><time>2026-04-17T07:02:31.968Z</time></trkpt><trkpt lat="43.8489656" lon="11.2247561"><ele>450.0</ele><time>2026-04-17T07:02:33.958Z</time></trkpt><trkpt lat="43.8490475" lon="11.2247875"><ele>450.0</ele><time>2026-04-17T07:02:35.963Z</time></trkpt><trkpt lat="43.8491301" lon="11.2248095"><ele>450.0</ele><time>2026-04-17T07:02:37.967Z</time></trkpt><trkpt lat="43.8492305" lon="11.2248481"><ele>454.4</ele><time>2026-04-17T07:02:39.96Z</time></trkpt><trkpt lat="43.8493199" lon="11.2248871"><ele>458.8</ele><time>2026-04-17T07:02:42.023Z</time></trkpt><trkpt lat="43.8494185" lon="11.2249151"><ele>463.20000000000005</ele><time>2026-04-17T07:02:43.97Z</time></trkpt><trkpt lat="43.8495091" lon="11.2249335"><ele>467.6</ele><time>2026-04-17T07:02:45.97Z</time></trkpt><trkpt lat="43.8496221" lon="11.2249613"><ele>472.0</ele><time>2026-04-17T07:02:48.068Z</time></trkpt><trkpt lat="43.8497577" lon="11.2249765"><ele>472.0</ele><time>2026-04-17T07:02:49.945Z</time></trkpt><trkpt lat="43.8498319" lon="11.2249785"><ele>472.00000000000006</ele><time>2026-04-17T07:02:51.002Z</time></trkpt><trkpt lat="43.8498966" lon="11.2250036"><ele>472.00000000000006</ele><time>2026-04-17T07:02:51.967Z</time></trkpt><trkpt lat="43.8499997" lon="11.225066"><ele>472.0</ele><time>2026-04-17T07:02:53.963Z</time></trkpt><trkpt lat="43.8500892" lon="11.22513"><ele>472.0</ele><time>2026-04-17T07:02:55.967Z</time></trkpt><trkpt lat="43.8501805" lon="11.2251954"><ele>469.83333333333337</ele><time>2026-04-17T07:02:58.037Z</time></trkpt><trkpt lat="43.8502534" lon="11.2252435"><ele>467.6666666666667</ele><time>2026-04-17T07:02:59.97Z</time></trkpt><trkpt lat="43.8503122" lon="11.2252993"><ele>465.5</ele><time>2026-04-17T07:03:01.964Z</time></trkpt><trkpt lat="43.8503627" lon="11.2253731"><ele>463.33333333333337</ele><time>2026-04-17T07:03:03.968Z</time></trkpt><trkpt lat="43.8504203" lon="11.225464"><ele>461.1666666666667</ele><time>2026-04-17T07:03:06.974Z</time></trkpt><trkpt lat="43.8504488" lon="11.2255545"><ele>459.0</ele><time>2026-04-17T07:03:09.957Z</time></trkpt><trkpt lat="43.8503843" lon="11.2255979"><ele>459.0</ele><time>2026-04-17T07:03:13.961Z</time></trkpt><trkpt lat="43.8503152" lon="11.2256261"><ele>459.0</ele><time>2026-04-17T07:03:16.951Z</time></trkpt><trkpt lat="43.8502293" lon="11.2256478"><ele>459.0</ele><time>2026-04-17T07:03:19.97Z</time></trkpt><trkpt lat="43.8501628" lon="11.2256798"><ele>459.0</ele><time>2026-04-17T07:03:21.966Z</time></trkpt><trkpt lat="43.8500961" lon="11.2257031"><ele>459.0</ele><time>2026-04-17T07:03:23.959Z</time></trkpt><trkpt lat="43.8500159" lon="11.2257221"><ele>459.0</ele><time>2026-04-17T07:03:25.969Z</time></trkpt><trkpt lat="43.8499434" lon="11.2257471"><ele>465.1666666666667</ele><time>2026-04-17T07:03:27.96Z</time></trkpt><trkpt lat="43.8498776" lon="11.2257868"><ele>471.33333333333337</ele><time>2026-04-17T07:03:29.966Z</time></trkpt><trkpt lat="43.8497973" lon="11.2258245"><ele>477.5</ele><time>2026-04-17T07:03:31.962Z</time></trkpt><trkpt lat="43.8497195" lon="11.225873"><ele>483.6666666666667</ele><time>2026-04-17T07:03:33.956Z</time></trkpt><trkpt lat="43.8496539" lon="11.225933"><ele>489.83333333333337</ele><time>2026-04-17T07:03:35.96Z</time></trkpt><trkpt lat="43.849583" lon="11.2259963"><ele>496.0</ele><time>2026-04-17T07:03:37.947Z</time></trkpt><trkpt lat="43.8495336" lon="11.2260617"><ele>496.00000000000006</ele><time>2026-04-17T07:03:39.974Z</time></trkpt><trkpt lat="43.8495026" lon="11.226187"><ele>496.0</ele><time>2026-04-17T07:03:43.072Z</time></trkpt><trkpt lat="43.8494915" lon="11.2262744"><ele>496.0</ele><time>2026-04-17T07:03:44.956Z</time></trkpt><trkpt lat="43.8494972" lon="11.2263702"><ele>496.0</ele><time>2026-04-17T07:03:47.955Z</time></trkpt><trkpt lat="43.8495483" lon="11.2264354"><ele>496.00000000000006</ele><time>2026-04-17T07:03:50.968Z</time></trkpt><trkpt lat="43.849619" lon="11.2264871"><ele>496.0</ele><time>2026-04-17T07:03:53.963Z</time></trkpt><trkpt lat="43.8496832" lon="11.2265435"><ele>498.0</ele><time>2026-04-17T07:03:55.994Z</time></trkpt><trkpt lat="43.8497322" lon="11.2266188"><ele>500.00000000000006</ele><time>2026-04-17T07:03:57.963Z</time></trkpt><trkpt lat="43.8497842" lon="11.2267098"><ele>502.0</ele><time>2026-04-17T07:03:59.946Z</time></trkpt><trkpt lat="43.8498388" lon="11.2268036"><ele>504.0</ele><time>2026-04-17T07:04:01.956Z</time></trkpt><trkpt lat="43.8498528" lon="11.2268928"><ele>506.00000000000006</ele><time>2026-04-17T07:04:03.964Z</time></trkpt><trkpt lat="43.8498459" lon="11.2269952"><ele>508.0</ele><time>2026-04-17T07:04:06.007Z</time></trkpt><trkpt lat="43.8498461" lon="11.2270861"><ele>510.0</ele><time>2026-04-17T07:04:07.965Z</time></trkpt><trkpt lat="43.8498484" lon="11.2271757"><ele>510.0</ele><time>2026-04-17T07:04:09.96Z</time></trkpt><trkpt lat="43.8498502" lon="11.2272746"><ele>510.00000000000006</ele><time>2026-04-17T07:04:12.01Z</time></trkpt><trkpt lat="43.8498773" lon="11.2273668"><ele>510.0</ele><time>2026-04-17T07:04:13.969Z</time></trkpt><trkpt lat="43.8498982" lon="11.2274638"><ele>510.0</ele><time>2026-04-17T07:04:15.95Z</time></trkpt><trkpt lat="43.8499122" lon="11.2275496"><ele>510.00000000000006</ele><time>2026-04-17T07:04:18.048Z</time></trkpt><trkpt lat="43.8499088" lon="11.2276845"><ele>510.0</ele><time>2026-04-17T07:04:20.955Z</time></trkpt><trkpt lat="43.8499074" lon="11.2277787"><ele>510.0</ele><time>2026-04-17T07:04:22.965Z</time></trkpt><trkpt lat="43.8498941" lon="11.227899"><ele>512.0</ele><time>2026-04-17T07:04:24.965Z</time></trkpt><trkpt lat="43.8498202" lon="11.2279638"><ele>514.0</ele><time>2026-04-17T07:04:26.983Z</time></trkpt><trkpt lat="43.8497207" lon="11.2280177"><ele>516.0</ele><time>2026-04-17T07:04:28.949Z</time></trkpt><trkpt lat="43.849605" lon="11.2280631"><ele>518.0</ele><time>2026-04-17T07:04:30.941Z</time></trkpt><trkpt lat="43.8494807" lon="11.2280682"><ele>520.0</ele><time>2026-04-17T07:04:33.016Z</time></trkpt><trkpt lat="43.8494152" lon="11.2280666"><ele>520.6</ele><time>2026-04-17T07:04:33.953Z</time></trkpt><trkpt lat="43.8492875" lon="11.2281298"><ele>521.2</ele><time>2026-04-17T07:04:35.969Z</time></trkpt><trkpt lat="43.8491834" lon="11.228205"><ele>521.8</ele><time>2026-04-17T07:04:38.016Z</time></trkpt><trkpt lat="43.8490996" lon="11.2282567"><ele>522.4</ele><time>2026-04-17T07:04:39.963Z</time></trkpt><trkpt lat="43.8490119" lon="11.2282159"><ele>523.0</ele><time>2026-04-17T07:04:41.964Z</time></trkpt><trkpt lat="43.8489323" lon="11.2281851"><ele>525.4</ele><time>2026-04-17T07:04:43.966Z</time></trkpt><trkpt lat="43.8488344" lon="11.228205"><ele>527.8</ele><time>2026-04-17T07:04:45.966Z</time></trkpt><trkpt lat="43.8487736" lon="11.2282394"><ele>530.2</ele><time>2026-04-17T07:04:46.962Z</time></trkpt><trkpt lat="43.8486714" lon="11.2282706"><ele>532.6</ele><time>2026-04-17T07:04:48.96Z</time></trkpt><trkpt lat="43.8485779" lon="11.2282858"><ele>535.0</ele><time>2026-04-17T07:04:50.959Z</time></trkpt><trkpt lat="43.8484826" lon="11.2282968"><ele>534.1666666666667</ele><time>2026-04-17T07:04:53.033Z</time></trkpt><trkpt lat="43.8484045" lon="11.2283376"><ele>533.3333333333334</ele><time>2026-04-17T07:04:54.966Z</time></trkpt><trkpt lat="43.8483146" lon="11.2283672"><ele>532.5</ele><time>2026-04-17T07:04:57.957Z</time></trkpt><trkpt lat="43.8482396" lon="11.2283816"><ele>531.6666666666666</ele><time>2026-04-17T07:05:00.954Z</time></trkpt><trkpt lat="43.8481533" lon="11.228408"><ele>530.8333333333333</ele><time>2026-04-17T07:05:39.955Z</time></trkpt><trkpt lat="43.8480644" lon="11.2284239"><ele>530.0</ele><time>2026-04-17T07:05:42.955Z</time></trkpt><trkpt lat="43.8480012" lon="11.2284391"><ele>529.9999999999999</ele><time>2026-04-17T07:05:45.019Z</time></trkpt><trkpt lat="43.8479278" lon="11.2284667"><ele>530.0</ele><time>2026-04-17T07:05:47.964Z</time></trkpt><trkpt lat="43.847846" lon="11.2284556"><ele>530.0</ele><time>2026-04-17T07:05:51.034Z</time></trkpt><trkpt lat="43.8477814" lon="11.2284464"><ele>530.0</ele><time>2026-04-17T07:05:52.98Z</time></trkpt><trkpt lat="43.8477163" lon="11.228433"><ele>530.0</ele><time>2026-04-17T07:05:54.961Z</time></trkpt><trkpt lat="43.8476474" lon="11.228431"><ele>529.9999999999999</ele><time>2026-04-17T07:05:56.965Z</time></trkpt><trkpt lat="43.847572" lon="11.2284461"><ele>530.0</ele><time>2026-04-17T07:05:59.022Z</time></trkpt><trkpt lat="43.8474827" lon="11.2284386"><ele>527.6666666666666</ele><time>2026-04-17T07:06:01.984Z</time></trkpt><trkpt lat="43.8473835" lon="11.228436"><ele>525.3333333333333</ele><time>2026-04-17T07:06:05.018Z</time></trkpt><trkpt lat="43.8473099" lon="11.2284397"><ele>523.0</ele><time>2026-04-17T07:06:06.97Z</time></trkpt><trkpt lat="43.8472439" lon="11.2284477"><ele>520.6666666666666</ele><time>2026-04-17T07:06:08.97Z</time></trkpt><trkpt lat="43.8471734" lon="11.2284713"><ele>518.3333333333334</ele><time>2026-04-17T07:06:10.962Z</time></trkpt><trkpt lat="43.8470764" lon="11.2284935"><ele>516.0</ele><time>2026-04-17T07:06:13.964Z</time></trkpt><trkpt lat="43.8469941" lon="11.2284997"><ele>516.0</ele><time>2026-04-17T07:06:15.963Z</time></trkpt><trkpt lat="43.8469186" lon="11.228506"><ele>516.0</ele><time>2026-04-17T07:06:17.963Z</time></trkpt><trkpt lat="43.8468246" lon="11.2285258"><ele>516.0</ele><time>2026-04-17T07:06:19.961Z</time></trkpt><trkpt lat="43.8467552" lon="11.2285432"><ele>516.0</ele><time>2026-04-17T07:06:21.956Z</time></trkpt><trkpt lat="43.8466678" lon="11.2285666"><ele>516.0</ele><time>2026-04-17T07:06:24.966Z</time></trkpt><trkpt lat="43.8465965" lon="11.2285941"><ele>516.0</ele><time>2026-04-17T07:06:28.966Z</time></trkpt><trkpt lat="43.8465171" lon="11.2285789"><ele>513.7142857142857</ele><time>2026-04-17T07:06:32.962Z</time></trkpt><trkpt lat="43.8464493" lon="11.2285584"><ele>511.42857142857144</ele><time>2026-04-17T07:06:36.032Z</time></trkpt><trkpt lat="43.8463814" lon="11.2285538"><ele>509.1428571428571</ele><time>2026-04-17T07:06:39.971Z</time></trkpt><trkpt lat="43.8463073" lon="11.2285548"><ele>506.85714285714283</ele><time>2026-04-17T07:06:43.977Z</time></trkpt><trkpt lat="43.8462242" lon="11.2285758"><ele>504.57142857142856</ele><time>2026-04-17T07:06:47.957Z</time></trkpt><trkpt lat="43.8461605" lon="11.2285603"><ele>502.2857142857143</ele><time>2026-04-17T07:06:50.969Z</time></trkpt><trkpt lat="43.846076" lon="11.2285461"><ele>500.0</ele><time>2026-04-17T07:06:54.961Z</time></trkpt><trkpt lat="43.8460089" lon="11.2285184"><ele>496.16666666666663</ele><time>2026-04-17T07:06:57.969Z</time></trkpt><trkpt lat="43.8459302" lon="11.2285246"><ele>492.3333333333333</ele><time>2026-04-17T07:07:00.969Z</time></trkpt><trkpt lat="43.8458533" lon="11.2285391"><ele>488.5</ele><time>2026-04-17T07:07:03.973Z</time></trkpt><trkpt lat="43.8457919" lon="11.2285619"><ele>484.66666666666663</ele><time>2026-04-17T07:07:06.973Z</time></trkpt><trkpt lat="43.8457326" lon="11.2286012"><ele>480.8333333333333</ele><time>2026-04-17T07:07:10.98Z</time></trkpt><trkpt lat="43.8456721" lon="11.2286921"><ele>477.0</ele><time>2026-04-17T07:07:14.961Z</time></trkpt><trkpt lat="43.8456355" lon="11.2288119"><ele>477.0</ele><time>2026-04-17T07:07:17.971Z</time></trkpt><trkpt lat="43.8456111" lon="11.2288979"><ele>477.0</ele><time>2026-04-17T07:07:19.97Z</time></trkpt><trkpt lat="43.8455975" lon="11.2289869"><ele>477.0</ele><time>2026-04-17T07:07:21.979Z</time></trkpt><trkpt lat="43.8455769" lon="11.2290735"><ele>477.0</ele><time>2026-04-17T07:07:23.965Z</time></trkpt><trkpt lat="43.8455511" lon="11.2291962"><ele>477.0</ele><time>2026-04-17T07:07:26.963Z</time></trkpt><trkpt lat="43.8455224" lon="11.2293138"><ele>477.0</ele><time>2026-04-17T07:07:29.971Z</time></trkpt><trkpt lat="43.8454972" lon="11.2294308"><ele>479.1666666666667</ele><time>2026-04-17T07:07:32.974Z</time></trkpt><trkpt lat="43.8454898" lon="11.2295401"><ele>481.33333333333337</ele><time>2026-04-17T07:07:35.968Z</time></trkpt><trkpt lat="43.8454843" lon="11.2296323"><ele>483.5</ele><time>2026-04-17T07:07:37.963Z</time></trkpt><trkpt lat="43.8454731" lon="11.2297537"><ele>485.6666666666667</ele><time>2026-04-17T07:07:40.975Z</time></trkpt><trkpt lat="43.8454567" lon="11.2298567"><ele>487.83333333333337</ele><time>2026-04-17T07:07:42.981Z</time></trkpt><trkpt lat="43.8454337" lon="11.2299585"><ele>490.0</ele><time>2026-04-17T07:07:44.974Z</time></trkpt><trkpt lat="43.8454139" lon="11.2300753"><ele>490.6666666666667</ele><time>2026-04-17T07:07:46.965Z</time></trkpt><trkpt lat="43.8453908" lon="11.2301872"><ele>491.33333333333337</ele><time>2026-04-17T07:07:48.976Z</time></trkpt><trkpt lat="43.845377" lon="11.2303013"><ele>492.0</ele><time>2026-04-17T07:07:50.97Z</time></trkpt><trkpt lat="43.8453539" lon="11.2304162"><ele>492.66666666666663</ele><time>2026-04-17T07:07:52.967Z</time></trkpt><trkpt lat="43.8453441" lon="11.2305115"><ele>493.3333333333333</ele><time>2026-04-17T07:07:54.965Z</time></trkpt><trkpt lat="43.845325" lon="11.2306071"><ele>494.0</ele><time>2026-04-17T07:07:56.973Z</time></trkpt><trkpt lat="43.8452979" lon="11.2307264"><ele>494.49999999999994</ele><time>2026-04-17T07:07:59.972Z</time></trkpt><trkpt lat="43.8452714" lon="11.2308283"><ele>495.0</ele><time>2026-04-17T07:08:02.975Z</time></trkpt><trkpt lat="43.8452357" lon="11.2309325"><ele>495.5</ele><time>2026-04-17T07:08:05.965Z</time></trkpt><trkpt lat="43.8451933" lon="11.2310313"><ele>496.0</ele><time>2026-04-17T07:08:08.972Z</time></trkpt><trkpt lat="43.8451847" lon="11.2311351"><ele>496.49999999999994</ele><time>2026-04-17T07:08:38.975Z</time></trkpt><trkpt lat="43.8452068" lon="11.2312516"><ele>497.0</ele><time>2026-04-17T07:08:41.965Z</time></trkpt><trkpt lat="43.8452253" lon="11.2313552"><ele>496.99999999999994</ele><time>2026-04-17T07:08:44.969Z</time></trkpt><trkpt lat="43.8452446" lon="11.2314571"><ele>497.0</ele><time>2026-04-17T07:08:47.977Z</time></trkpt><trkpt lat="43.8452629" lon="11.2315596"><ele>497.0</ele><time>2026-04-17T07:08:50.962Z</time></trkpt><trkpt lat="43.8452885" lon="11.231666"><ele>497.0</ele><time>2026-04-17T07:08:53.962Z</time></trkpt><trkpt lat="43.8453212" lon="11.2317819"><ele>496.99999999999994</ele><time>2026-04-17T07:08:56.973Z</time></trkpt><trkpt lat="43.8453443" lon="11.2318707"><ele>497.0</ele><time>2026-04-17T07:08:58.968Z</time></trkpt><trkpt lat="43.8453723" lon="11.2319643"><ele>496.40000000000003</ele><time>2026-04-17T07:09:00.971Z</time></trkpt><trkpt lat="43.8454314" lon="11.2320988"><ele>495.80000000000007</ele><time>2026-04-17T07:09:02.964Z</time></trkpt><trkpt lat="43.8455005" lon="11.2322443"><ele>495.2</ele><time>2026-04-17T07:09:04.969Z</time></trkpt><trkpt lat="43.8455445" lon="11.2323159"><ele>494.6</ele><time>2026-04-17T07:09:05.966Z</time></trkpt><trkpt lat="43.8455935" lon="11.2324735"><ele>494.0</ele><time>2026-04-17T07:09:07.97Z</time></trkpt><trkpt lat="43.8456249" lon="11.2325588"><ele>492.6</ele><time>2026-04-17T07:09:08.96Z</time></trkpt><trkpt lat="43.8456636" lon="11.232696"><ele>491.2</ele><time>2026-04-17T07:09:10.969Z</time></trkpt><trkpt lat="43.845675" lon="11.2327858"><ele>489.80000000000007</ele><time>2026-04-17T07:09:11.971Z</time></trkpt><trkpt lat="43.8457054" lon="11.2329334"><ele>488.40000000000003</ele><time>2026-04-17T07:09:13.976Z</time></trkpt><trkpt lat="43.8457489" lon="11.2330491"><ele>487.0</ele><time>2026-04-17T07:09:15.974Z</time></trkpt><trkpt lat="43.845789" lon="11.2331339"><ele>485.33333333333337</ele><time>2026-04-17T07:09:17.974Z</time></trkpt><trkpt lat="43.8458304" lon="11.2332197"><ele>483.6666666666667</ele><time>2026-04-17T07:09:19.955Z</time></trkpt><trkpt lat="43.8458758" lon="11.2333337"><ele>482.0</ele><time>2026-04-17T07:09:21.966Z</time></trkpt><trkpt lat="43.8459297" lon="11.2334367"><ele>480.33333333333337</ele><time>2026-04-17T07:09:23.964Z</time></trkpt><trkpt lat="43.8459621" lon="11.2335506"><ele>478.6666666666667</ele><time>2026-04-17T07:09:25.969Z</time></trkpt><trkpt lat="43.8459976" lon="11.2336641"><ele>477.0</ele><time>2026-04-17T07:09:27.964Z</time></trkpt><trkpt lat="43.8460076" lon="11.2337915"><ele>481.1666666666667</ele><time>2026-04-17T07:09:29.963Z</time></trkpt><trkpt lat="43.8460148" lon="11.2338904"><ele>485.33333333333337</ele><time>2026-04-17T07:09:32.974Z</time></trkpt><trkpt lat="43.8460299" lon="11.2339957"><ele>489.5</ele><time>2026-04-17T07:09:36.97Z</time></trkpt><trkpt lat="43.8460638" lon="11.2340751"><ele>493.6666666666667</ele><time>2026-04-17T07:09:39.947Z</time></trkpt><trkpt lat="43.846111" lon="11.234187"><ele>497.83333333333337</ele><time>2026-04-17T07:09:42.962Z</time></trkpt><trkpt lat="43.8461501" lon="11.2342946"><ele>502.0</ele><time>2026-04-17T07:09:44.973Z</time></trkpt><trkpt lat="43.8461905" lon="11.2343894"><ele>502.00000000000006</ele><time>2026-04-17T07:09:46.964Z</time></trkpt><trkpt lat="43.8462333" lon="11.2344825"><ele>502.0</ele><time>2026-04-17T07:09:48.966Z</time></trkpt><trkpt lat="43.846275" lon="11.2345732"><ele>502.0</ele><time>2026-04-17T07:09:50.969Z</time></trkpt><trkpt lat="43.8463045" lon="11.2346536"><ele>502.0</ele><time>2026-04-17T07:09:52.953Z</time></trkpt><trkpt lat="43.8463417" lon="11.2347502"><ele>502.00000000000006</ele><time>2026-04-17T07:09:55.962Z</time></trkpt><trkpt lat="43.8463789" lon="11.2348481"><ele>502.0</ele><time>2026-04-17T07:09:58.952Z</time></trkpt><trkpt lat="43.8464228" lon="11.2349427"><ele>500.1666666666667</ele><time>2026-04-17T07:10:11.97Z</time></trkpt><trkpt lat="43.846463" lon="11.2350111"><ele>498.33333333333337</ele><time>2026-04-17T07:10:15.962Z</time></trkpt><trkpt lat="43.8464411" lon="11.2351261"><ele>496.5</ele><time>2026-04-17T07:10:33.968Z</time></trkpt><trkpt lat="43.8464928" lon="11.2352377"><ele>494.66666666666663</ele><time>2026-04-17T07:10:56.966Z</time></trkpt><trkpt lat="43.8465369" lon="11.2353146"><ele>492.8333333333333</ele><time>2026-04-17T07:11:01.956Z</time></trkpt><trkpt lat="43.8465924" lon="11.2354019"><ele>491.0</ele><time>2026-04-17T07:11:05.969Z</time></trkpt><trkpt lat="43.8466395" lon="11.2354753"><ele>491.0</ele><time>2026-04-17T07:11:08.974Z</time></trkpt><trkpt lat="43.8466794" lon="11.2355461"><ele>490.99999999999994</ele><time>2026-04-17T07:11:11.972Z</time></trkpt><trkpt lat="43.8467313" lon="11.2356231"><ele>491.0</ele><time>2026-04-17T07:11:14.972Z</time></trkpt><trkpt lat="43.8467834" lon="11.2356975"><ele>491.0</ele><time>2026-04-17T07:11:18.943Z</time></trkpt><trkpt lat="43.846817" lon="11.2357762"><ele>490.99999999999994</ele><time>2026-04-17T07:11:22.96Z</time></trkpt><trkpt lat="43.8468271" lon="11.235879"><ele>491.0</ele><time>2026-04-17T07:11:35.956Z</time></trkpt><trkpt lat="43.8468543" lon="11.2359622"><ele>491.0</ele><time>2026-04-17T07:12:59.961Z</time></trkpt><trkpt lat="43.8469208" lon="11.2360225"><ele>493.85714285714283</ele><time>2026-04-17T07:14:47.956Z</time></trkpt><trkpt lat="43.8469752" lon="11.2360674"><ele>496.71428571428567</ele><time>2026-04-17T07:15:36.965Z</time></trkpt><trkpt lat="43.8470512" lon="11.2360931"><ele>499.57142857142856</ele><time>2026-04-17T07:15:40.957Z</time></trkpt><trkpt lat="43.8471045" lon="11.2361509"><ele>502.42857142857144</ele><time>2026-04-17T07:15:44.954Z</time></trkpt><trkpt lat="43.8471281" lon="11.2362469"><ele>505.2857142857143</ele><time>2026-04-17T07:15:49.956Z</time></trkpt><trkpt lat="43.8471697" lon="11.2363316"><ele>508.1428571428571</ele><time>2026-04-17T07:15:54.957Z</time></trkpt><trkpt lat="43.8472059" lon="11.2364125"><ele>511.0</ele><time>2026-04-17T07:15:58.953Z</time></trkpt><trkpt lat="43.8472379" lon="11.2365019"><ele>511.0</ele><time>2026-04-17T07:16:02.97Z</time></trkpt><trkpt lat="43.8472793" lon="11.2366014"><ele>511.0</ele><time>2026-04-17T07:16:05.947Z</time></trkpt><trkpt lat="43.8473098" lon="11.2366921"><ele>511.0</ele><time>2026-04-17T07:16:08.962Z</time></trkpt><trkpt lat="43.8473537" lon="11.2367655"><ele>511.0</ele><time>2026-04-17T07:16:11.96Z</time></trkpt><trkpt lat="43.8473934" lon="11.2368462"><ele>511.0</ele><time>2026-04-17T07:16:14.953Z</time></trkpt><trkpt lat="43.8474254" lon="11.2369336"><ele>511.0</ele><time>2026-04-17T07:16:17.96Z</time></trkpt><trkpt lat="43.8474574" lon="11.2370123"><ele>511.0</ele><time>2026-04-17T07:16:20.96Z</time></trkpt><trkpt lat="43.8474836" lon="11.2370966"><ele>511.00000000000006</ele><time>2026-04-17T07:16:23.973Z</time></trkpt><trkpt lat="43.8475115" lon="11.2371847"><ele>511.0</ele><time>2026-04-17T07:16:26.961Z</time></trkpt><trkpt lat="43.8475549" lon="11.2373043"><ele>511.0</ele><time>2026-04-17T07:16:29.963Z</time></trkpt><trkpt lat="43.8475797" lon="11.2374067"><ele>511.0</ele><time>2026-04-17T07:16:31.969Z</time></trkpt><trkpt lat="43.8476091" lon="11.2375113"><ele>511.00000000000006</ele><time>2026-04-17T07:16:33.96Z</time></trkpt><trkpt lat="43.8476179" lon="11.237607"><ele>511.0</ele><time>2026-04-17T07:16:34.964Z</time></trkpt><trkpt lat="43.8476533" lon="11.2377796"><ele>514.0</ele><time>2026-04-17T07:16:36.962Z</time></trkpt><trkpt lat="43.8476689" lon="11.2378652"><ele>517.0</ele><time>2026-04-17T07:16:37.969Z</time></trkpt><trkpt lat="43.8476947" lon="11.2380088"><ele>520.0</ele><time>2026-04-17T07:16:39.957Z</time></trkpt><trkpt lat="43.8476987" lon="11.2381047"><ele>523.0</ele><time>2026-04-17T07:16:42.978Z</time></trkpt><trkpt lat="43.8477461" lon="11.2381626"><ele>526.0</ele><time>2026-04-17T07:16:48.961Z</time></trkpt><trkpt lat="43.8478212" lon="11.2381761"><ele>529.0</ele><time>2026-04-17T07:16:53.961Z</time></trkpt><trkpt lat="43.847901" lon="11.2381793"><ele>529.0</ele><time>2026-04-17T07:16:57.958Z</time></trkpt><trkpt lat="43.8479911" lon="11.2381801"><ele>529.0</ele><time>2026-04-17T07:17:00.957Z</time></trkpt><trkpt lat="43.8480538" lon="11.2382054"><ele>529.0</ele><time>2026-04-17T07:17:02.955Z</time></trkpt><trkpt lat="43.8481393" lon="11.23823"><ele>529.0</ele><time>2026-04-17T07:17:05.955Z</time></trkpt><trkpt lat="43.8481969" lon="11.2382756"><ele>529.0</ele><time>2026-04-17T07:17:07.953Z</time></trkpt><trkpt lat="43.848268" lon="11.2383475"><ele>529.0</ele><time>2026-04-17T07:17:09.968Z</time></trkpt><trkpt lat="43.8483589" lon="11.2384383"><ele>529.0</ele><time>2026-04-17T07:17:11.955Z</time></trkpt><trkpt lat="43.8484088" lon="11.2384927"><ele>529.0</ele><time>2026-04-17T07:17:12.96Z</time></trkpt><trkpt lat="43.8484614" lon="11.2385466"><ele>529.0</ele><time>2026-04-17T07:17:13.96Z</time></trkpt><trkpt lat="43.8485445" lon="11.2386207"><ele>529.0</ele><time>2026-04-17T07:17:15.953Z</time></trkpt><trkpt lat="43.8486196" lon="11.2386725"><ele>529.0</ele><time>2026-04-17T07:17:17.953Z</time></trkpt><trkpt lat="43.8487194" lon="11.2386882"><ele>529.0</ele><time>2026-04-17T07:17:19.964Z</time></trkpt><trkpt lat="43.8487653" lon="11.2386215"><ele>532.8333333333334</ele><time>2026-04-17T07:17:22.961Z</time></trkpt><trkpt lat="43.8487552" lon="11.2384988"><ele>536.6666666666667</ele><time>2026-04-17T07:17:25.959Z</time></trkpt><trkpt lat="43.8487353" lon="11.2384152"><ele>540.5</ele><time>2026-04-17T07:17:27.946Z</time></trkpt><trkpt lat="43.8486953" lon="11.2382852"><ele>544.3333333333334</ele><time>2026-04-17T07:17:29.964Z</time></trkpt><trkpt lat="43.8486699" lon="11.2381573"><ele>548.1666666666666</ele><time>2026-04-17T07:17:31.95Z</time></trkpt><trkpt lat="43.8486507" lon="11.2380644"><ele>552.0</ele><time>2026-04-17T07:17:33.965Z</time></trkpt><trkpt lat="43.8486387" lon="11.2379711"><ele>553.4</ele><time>2026-04-17T07:17:35.962Z</time></trkpt><trkpt lat="43.8486381" lon="11.2378425"><ele>554.8000000000001</ele><time>2026-04-17T07:17:37.952Z</time></trkpt><trkpt lat="43.8486523" lon="11.2376897"><ele>556.2</ele><time>2026-04-17T07:17:39.959Z</time></trkpt><trkpt lat="43.8486481" lon="11.23752"><ele>557.6</ele><time>2026-04-17T07:17:41.948Z</time></trkpt><trkpt lat="43.8486511" lon="11.2373603"><ele>559.0</ele><time>2026-04-17T07:17:43.964Z</time></trkpt><trkpt lat="43.8486664" lon="11.2372082"><ele>560.3333333333334</ele><time>2026-04-17T07:17:45.962Z</time></trkpt><trkpt lat="43.8486809" lon="11.2370666"><ele>561.6666666666667</ele><time>2026-04-17T07:17:47.963Z</time></trkpt><trkpt lat="43.8487049" lon="11.2369358"><ele>563.0</ele><time>2026-04-17T07:17:49.961Z</time></trkpt><trkpt lat="43.8487288" lon="11.2368379"><ele>564.3333333333334</ele><time>2026-04-17T07:17:51.963Z</time></trkpt><trkpt lat="43.8487469" lon="11.2367412"><ele>565.6666666666666</ele><time>2026-04-17T07:17:53.953Z</time></trkpt><trkpt lat="43.8487602" lon="11.2366447"><ele>567.0</ele><time>2026-04-17T07:17:55.958Z</time></trkpt><trkpt lat="43.8488266" lon="11.2366103"><ele>567.0</ele><time>2026-04-17T07:17:59.956Z</time></trkpt><trkpt lat="43.8488851" lon="11.2366632"><ele>567.0</ele><time>2026-04-17T07:18:01.959Z</time></trkpt><trkpt lat="43.8489529" lon="11.2367055"><ele>567.0</ele><time>2026-04-17T07:18:03.958Z</time></trkpt><trkpt lat="43.8490296" lon="11.2367796"><ele>567.0</ele><time>2026-04-17T07:18:06.958Z</time></trkpt><trkpt lat="43.8490876" lon="11.2368432"><ele>567.0</ele><time>2026-04-17T07:18:08.956Z</time></trkpt><trkpt lat="43.849158" lon="11.2369394"><ele>567.0</ele><time>2026-04-17T07:18:10.949Z</time></trkpt><trkpt lat="43.8492258" lon="11.2370232"><ele>569.1666666666666</ele><time>2026-04-17T07:18:12.969Z</time></trkpt><trkpt lat="43.8492924" lon="11.2371234"><ele>571.3333333333334</ele><time>2026-04-17T07:18:14.946Z</time></trkpt><trkpt lat="43.8493596" lon="11.2372114"><ele>573.5</ele><time>2026-04-17T07:18:16.953Z</time></trkpt><trkpt lat="43.8494075" lon="11.2372945"><ele>575.6666666666667</ele><time>2026-04-17T07:18:18.957Z</time></trkpt><trkpt lat="43.8494592" lon="11.2373658"><ele>577.8333333333334</ele><time>2026-04-17T07:18:20.959Z</time></trkpt><trkpt lat="43.8495165" lon="11.2374296"><ele>580.0</ele><time>2026-04-17T07:18:22.959Z</time></trkpt><trkpt lat="43.8495709" lon="11.2374952"><ele>580.0</ele><time>2026-04-17T07:18:24.968Z</time></trkpt><trkpt lat="43.8496269" lon="11.2375429"><ele>580.0</ele><time>2026-04-17T07:18:26.958Z</time></trkpt><trkpt lat="43.8496896" lon="11.2375913"><ele>580.0</ele><time>2026-04-17T07:18:28.965Z</time></trkpt><trkpt lat="43.8497503" lon="11.2376354"><ele>580.0</ele><time>2026-04-17T07:18:30.955Z</time></trkpt><trkpt lat="43.8498091" lon="11.2376788"><ele>580.0</ele><time>2026-04-17T07:18:32.95Z</time></trkpt><trkpt lat="43.8498646" lon="11.237721"><ele>580.0</ele><time>2026-04-17T07:18:34.962Z</time></trkpt><trkpt lat="43.8499236" lon="11.2377661"><ele>580.0</ele><time>2026-04-17T07:18:36.948Z</time></trkpt><trkpt lat="43.8499812" lon="11.2378153"><ele>580.0</ele><time>2026-04-17T07:18:38.949Z</time></trkpt><trkpt lat="43.850059" lon="11.2378614"><ele>580.0</ele><time>2026-04-17T07:18:41.965Z</time></trkpt><trkpt lat="43.8501195" lon="11.2378932"><ele>580.0</ele><time>2026-04-17T07:18:43.947Z</time></trkpt><trkpt lat="43.8501804" lon="11.237925"><ele>580.0</ele><time>2026-04-17T07:18:45.956Z</time></trkpt><trkpt lat="43.8502468" lon="11.2379602"><ele>580.0</ele><time>2026-04-17T07:18:47.955Z</time></trkpt><trkpt lat="43.8503124" lon="11.2379928"><ele>580.0</ele><time>2026-04-17T07:18:49.949Z</time></trkpt><trkpt lat="43.8503952" lon="11.2380019"><ele>580.0</ele><time>2026-04-17T07:18:53.007Z</time></trkpt><trkpt lat="43.8504582" lon="11.2380246"><ele>581.5</ele><time>2026-04-17T07:18:54.964Z</time></trkpt><trkpt lat="43.850549" lon="11.2380586"><ele>583.0</ele><time>2026-04-17T07:18:57.959Z</time></trkpt><trkpt lat="43.8506238" lon="11.2380795"><ele>584.5</ele><time>2026-04-17T07:19:00.014Z</time></trkpt><trkpt lat="43.8507121" lon="11.2381115"><ele>586.0</ele><time>2026-04-17T07:19:02.015Z</time></trkpt><trkpt lat="43.8507998" lon="11.2381385"><ele>587.5</ele><time>2026-04-17T07:19:03.968Z</time></trkpt><trkpt lat="43.8508781" lon="11.238196"><ele>589.0</ele><time>2026-04-17T07:19:05.959Z</time></trkpt><trkpt lat="43.8509351" lon="11.2382548"><ele>589.5714285714286</ele><time>2026-04-17T07:19:07.97Z</time></trkpt><trkpt lat="43.8509732" lon="11.2383264"><ele>590.1428571428571</ele><time>2026-04-17T07:19:09.95Z</time></trkpt><trkpt lat="43.8510082" lon="11.2384097"><ele>590.7142857142857</ele><time>2026-04-17T07:19:12.06Z</time></trkpt><trkpt lat="43.8510371" lon="11.2384965"><ele>591.2857142857142</ele><time>2026-04-17T07:19:13.964Z</time></trkpt><trkpt lat="43.8510608" lon="11.2386036"><ele>591.8571428571429</ele><time>2026-04-17T07:19:16.03Z</time></trkpt><trkpt lat="43.851062" lon="11.2387067"><ele>592.4285714285713</ele><time>2026-04-17T07:19:18.03Z</time></trkpt><trkpt lat="43.8510577" lon="11.2388154"><ele>593.0</ele><time>2026-04-17T07:19:19.964Z</time></trkpt><trkpt lat="43.8510376" lon="11.2389619"><ele>592.8333333333333</ele><time>2026-04-17T07:19:21.982Z</time></trkpt><trkpt lat="43.851011" lon="11.2391432"><ele>592.6666666666666</ele><time>2026-04-17T07:19:23.993Z</time></trkpt><trkpt lat="43.8509928" lon="11.2392442"><ele>592.5</ele><time>2026-04-17T07:19:24.965Z</time></trkpt><trkpt lat="43.8509733" lon="11.2393367"><ele>592.3333333333334</ele><time>2026-04-17T07:19:25.976Z</time></trkpt><trkpt lat="43.8509645" lon="11.239437"><ele>592.1666666666667</ele><time>2026-04-17T07:19:26.961Z</time></trkpt><trkpt lat="43.8509554" lon="11.239552"><ele>592.0</ele><time>2026-04-17T07:19:27.955Z</time></trkpt><trkpt lat="43.8509363" lon="11.2396655"><ele>592.0</ele><time>2026-04-17T07:19:28.968Z</time></trkpt><trkpt lat="43.8509111" lon="11.2397817"><ele>592.0</ele><time>2026-04-17T07:19:29.97Z</time></trkpt><trkpt lat="43.8508883" lon="11.2399029"><ele>592.0</ele><time>2026-04-17T07:19:30.972Z</time></trkpt><trkpt lat="43.8508642" lon="11.2400201"><ele>592.0</ele><time>2026-04-17T07:19:31.975Z</time></trkpt><trkpt lat="43.8508466" lon="11.2401357"><ele>592.0</ele><time>2026-04-17T07:19:32.972Z</time></trkpt><trkpt lat="43.8508298" lon="11.2402516"><ele>592.0</ele><time>2026-04-17T07:19:33.955Z</time></trkpt><trkpt lat="43.8508207" lon="11.2403751"><ele>593.2</ele><time>2026-04-17T07:19:35.035Z</time></trkpt><trkpt lat="43.8508178" lon="11.2405019"><ele>594.4000000000001</ele><time>2026-04-17T07:19:35.986Z</time></trkpt><trkpt lat="43.8508205" lon="11.2406398"><ele>595.5999999999999</ele><time>2026-04-17T07:19:36.98Z</time></trkpt><trkpt lat="43.8508354" lon="11.2407735"><ele>596.8</ele><time>2026-04-17T07:19:37.976Z</time></trkpt><trkpt lat="43.8508498" lon="11.2409074"><ele>598.0</ele><time>2026-04-17T07:19:38.976Z</time></trkpt><trkpt lat="43.8508657" lon="11.2410418"><ele>598.6</ele><time>2026-04-17T07:19:39.976Z</time></trkpt><trkpt lat="43.8508765" lon="11.2411748"><ele>599.1999999999999</ele><time>2026-04-17T07:19:40.979Z</time></trkpt><trkpt lat="43.8508949" lon="11.2413048"><ele>599.8</ele><time>2026-04-17T07:19:41.972Z</time></trkpt><trkpt lat="43.8509029" lon="11.2414326"><ele>600.4</ele><time>2026-04-17T07:19:43.027Z</time></trkpt><trkpt lat="43.8508954" lon="11.2415666"><ele>601.0</ele><time>2026-04-17T07:19:43.959Z</time></trkpt><trkpt lat="43.8508764" lon="11.2417062"><ele>601.6</ele><time>2026-04-17T07:19:45.032Z</time></trkpt><trkpt lat="43.8508582" lon="11.241852"><ele>602.2</ele><time>2026-04-17T07:19:45.99Z</time></trkpt><trkpt lat="43.8508416" lon="11.2419914"><ele>602.8</ele><time>2026-04-17T07:19:47.026Z</time></trkpt><trkpt lat="43.8508294" lon="11.2421302"><ele>603.4</ele><time>2026-04-17T07:19:48.031Z</time></trkpt><trkpt lat="43.8508069" lon="11.242273"><ele>604.0</ele><time>2026-04-17T07:19:48.976Z</time></trkpt><trkpt lat="43.8507874" lon="11.24242"><ele>605.6</ele><time>2026-04-17T07:19:49.971Z</time></trkpt><trkpt lat="43.850764" lon="11.2425661"><ele>607.2</ele><time>2026-04-17T07:19:51.032Z</time></trkpt><trkpt lat="43.8507415" lon="11.2427126"><ele>608.8000000000001</ele><time>2026-04-17T07:19:51.977Z</time></trkpt><trkpt lat="43.8507218" lon="11.2428516"><ele>610.4</ele><time>2026-04-17T07:19:53.028Z</time></trkpt><trkpt lat="43.8507009" lon="11.242982"><ele>612.0</ele><time>2026-04-17T07:19:53.982Z</time></trkpt><trkpt lat="43.8506826" lon="11.2431221"><ele>612.8000000000001</ele><time>2026-04-17T07:19:54.974Z</time></trkpt><trkpt lat="43.8506663" lon="11.2432627"><ele>613.6</ele><time>2026-04-17T07:19:55.989Z</time></trkpt><trkpt lat="43.8506512" lon="11.2434029"><ele>614.4000000000001</ele><time>2026-04-17T07:19:56.974Z</time></trkpt><trkpt lat="43.8506271" lon="11.2435438"><ele>615.2</ele><time>2026-04-17T07:19:58.054Z</time></trkpt><trkpt lat="43.8506101" lon="11.2436885"><ele>616.0</ele><time>2026-04-17T07:19:58.973Z</time></trkpt><trkpt lat="43.8505909" lon="11.2438404"><ele>617.0</ele><time>2026-04-17T07:19:59.969Z</time></trkpt><trkpt lat="43.8505623" lon="11.2439921"><ele>618.0</ele><time>2026-04-17T07:20:01.01Z</time></trkpt><trkpt lat="43.8505268" lon="11.2441458"><ele>619.0</ele><time>2026-04-17T07:20:01.98Z</time></trkpt><trkpt lat="43.8504898" lon="11.2443031"><ele>620.0</ele><time>2026-04-17T07:20:02.984Z</time></trkpt><trkpt lat="43.8504697" lon="11.2444621"><ele>620.0</ele><time>2026-04-17T07:20:03.981Z</time></trkpt><trkpt lat="43.8504621" lon="11.2446074"><ele>620.0</ele><time>2026-04-17T07:20:04.962Z</time></trkpt><trkpt lat="43.8504599" lon="11.2447398"><ele>620.0</ele><time>2026-04-17T07:20:05.985Z</time></trkpt><trkpt lat="43.8504612" lon="11.2448598"><ele>620.0</ele><time>2026-04-17T07:20:06.956Z</time></trkpt><trkpt lat="43.8504494" lon="11.2449686"><ele>620.0</ele><time>2026-04-17T07:20:07.985Z</time></trkpt><trkpt lat="43.8504258" lon="11.2450786"><ele>620.0</ele><time>2026-04-17T07:20:08.981Z</time></trkpt><trkpt lat="43.8504009" lon="11.2451892"><ele>621.1666666666666</ele><time>2026-04-17T07:20:09.984Z</time></trkpt><trkpt lat="43.8503688" lon="11.2453063"><ele>622.3333333333333</ele><time>2026-04-17T07:20:10.979Z</time></trkpt><trkpt lat="43.8503257" lon="11.2454067"><ele>623.5</ele><time>2026-04-17T07:20:11.971Z</time></trkpt><trkpt lat="43.8502756" lon="11.245502"><ele>624.6666666666666</ele><time>2026-04-17T07:20:12.982Z</time></trkpt><trkpt lat="43.8502192" lon="11.2455873"><ele>625.8333333333334</ele><time>2026-04-17T07:20:13.978Z</time></trkpt><trkpt lat="43.8501731" lon="11.2456972"><ele>627.0</ele><time>2026-04-17T07:20:14.979Z</time></trkpt><trkpt lat="43.8501218" lon="11.2458317"><ele>623.0</ele><time>2026-04-17T07:20:15.971Z</time></trkpt><trkpt lat="43.8500685" lon="11.245967"><ele>619.0</ele><time>2026-04-17T07:20:16.972Z</time></trkpt><trkpt lat="43.8500071" lon="11.2460862"><ele>615.0</ele><time>2026-04-17T07:20:17.974Z</time></trkpt><trkpt lat="43.8499287" lon="11.2461797"><ele>611.0</ele><time>2026-04-17T07:20:18.978Z</time></trkpt><trkpt lat="43.8498426" lon="11.246282"><ele>607.0</ele><time>2026-04-17T07:20:19.973Z</time></trkpt><trkpt lat="43.8497581" lon="11.246389"><ele>610.4</ele><time>2026-04-17T07:20:20.98Z</time></trkpt><trkpt lat="43.8496821" lon="11.2464848"><ele>613.8000000000001</ele><time>2026-04-17T07:20:21.967Z</time></trkpt><trkpt lat="43.8496023" lon="11.2465776"><ele>617.2</ele><time>2026-04-17T07:20:22.984Z</time></trkpt><trkpt lat="43.8495203" lon="11.246675"><ele>620.6</ele><time>2026-04-17T07:20:23.985Z</time></trkpt><trkpt lat="43.8494371" lon="11.2467712"><ele>624.0</ele><time>2026-04-17T07:20:24.985Z</time></trkpt><trkpt lat="43.8493374" lon="11.246841"><ele>619.75</ele><time>2026-04-17T07:20:25.974Z</time></trkpt><trkpt lat="43.8492229" lon="11.2468877"><ele>615.5</ele><time>2026-04-17T07:20:26.958Z</time></trkpt><trkpt lat="43.8490988" lon="11.2468973"><ele>611.25</ele><time>2026-04-17T07:20:27.967Z</time></trkpt><trkpt lat="43.8489681" lon="11.2468861"><ele>607.0</ele><time>2026-04-17T07:20:28.979Z</time></trkpt><trkpt lat="43.8488349" lon="11.2468751"><ele>607.0</ele><time>2026-04-17T07:20:29.975Z</time></trkpt><trkpt lat="43.8487119" lon="11.2468421"><ele>607.0</ele><time>2026-04-17T07:20:30.985Z</time></trkpt><trkpt lat="43.8485948" lon="11.2468106"><ele>607.0</ele><time>2026-04-17T07:20:31.991Z</time></trkpt><trkpt lat="43.8484755" lon="11.2467804"><ele>607.0</ele><time>2026-04-17T07:20:32.978Z</time></trkpt><trkpt lat="43.8483648" lon="11.2467484"><ele>606.0</ele><time>2026-04-17T07:20:33.969Z</time></trkpt><trkpt lat="43.8482493" lon="11.2467514"><ele>605.0</ele><time>2026-04-17T07:20:34.974Z</time></trkpt><trkpt lat="43.848124" lon="11.2468052"><ele>604.0</ele><time>2026-04-17T07:20:35.98Z</time></trkpt><trkpt lat="43.8480073" lon="11.2468925"><ele>603.0</ele><time>2026-04-17T07:20:36.976Z</time></trkpt><trkpt lat="43.8478862" lon="11.2469746"><ele>603.0</ele><time>2026-04-17T07:20:37.971Z</time></trkpt><trkpt lat="43.847742" lon="11.2470576"><ele>603.0</ele><time>2026-04-17T07:20:38.961Z</time></trkpt><trkpt lat="43.8475881" lon="11.2470832"><ele>603.0</ele><time>2026-04-17T07:20:39.98Z</time></trkpt><trkpt lat="43.8474291" lon="11.2470585"><ele>601.6666666666666</ele><time>2026-04-17T07:20:40.979Z</time></trkpt><trkpt lat="43.8472577" lon="11.2469892"><ele>600.3333333333333</ele><time>2026-04-17T07:20:41.982Z</time></trkpt><trkpt lat="43.8470951" lon="11.2468928"><ele>599.0</ele><time>2026-04-17T07:20:42.983Z</time></trkpt><trkpt lat="43.8469238" lon="11.2467834"><ele>602.6666666666666</ele><time>2026-04-17T07:20:43.97Z</time></trkpt><trkpt lat="43.8467438" lon="11.2466645"><ele>606.3333333333334</ele><time>2026-04-17T07:20:44.971Z</time></trkpt><trkpt lat="43.8465793" lon="11.2465308"><ele>610.0</ele><time>2026-04-17T07:20:45.972Z</time></trkpt><trkpt lat="43.8464292" lon="11.2463827"><ele>599.6666666666667</ele><time>2026-04-17T07:20:46.978Z</time></trkpt><trkpt lat="43.846293" lon="11.2462323"><ele>589.3333333333334</ele><time>2026-04-17T07:20:47.982Z</time></trkpt><trkpt lat="43.8461476" lon="11.2461218"><ele>579.0</ele><time>2026-04-17T07:20:48.978Z</time></trkpt><trkpt lat="43.8460022" lon="11.2460456"><ele>582.6666666666666</ele><time>2026-04-17T07:20:49.984Z</time></trkpt><trkpt lat="43.8458458" lon="11.2460039"><ele>586.3333333333333</ele><time>2026-04-17T07:20:50.982Z</time></trkpt><trkpt lat="43.8456908" lon="11.2459908"><ele>590.0</ele><time>2026-04-17T07:20:51.979Z</time></trkpt><trkpt lat="43.845543" lon="11.2460341"><ele>590.0</ele><time>2026-04-17T07:20:52.969Z</time></trkpt><trkpt lat="43.8454009" lon="11.2460874"><ele>590.0</ele><time>2026-04-17T07:20:53.982Z</time></trkpt><trkpt lat="43.8452551" lon="11.2461515"><ele>590.0</ele><time>2026-04-17T07:20:54.968Z</time></trkpt><trkpt lat="43.8451153" lon="11.2462143"><ele>590.0</ele><time>2026-04-17T07:20:55.979Z</time></trkpt><trkpt lat="43.8449676" lon="11.2462598"><ele>590.6666666666666</ele><time>2026-04-17T07:20:56.981Z</time></trkpt><trkpt lat="43.8448095" lon="11.2462834"><ele>591.3333333333334</ele><time>2026-04-17T07:20:57.979Z</time></trkpt><trkpt lat="43.8446526" lon="11.2462807"><ele>592.0</ele><time>2026-04-17T07:20:58.984Z</time></trkpt><trkpt lat="43.8444913" lon="11.2462607"><ele>592.0</ele><time>2026-04-17T07:20:59.98Z</time></trkpt><trkpt lat="43.8443368" lon="11.2462558"><ele>592.0</ele><time>2026-04-17T07:21:00.975Z</time></trkpt><trkpt lat="43.8441833" lon="11.2462427"><ele>592.0</ele><time>2026-04-17T07:21:01.981Z</time></trkpt><trkpt lat="43.8440433" lon="11.2462448"><ele>592.0</ele><time>2026-04-17T07:21:02.982Z</time></trkpt><trkpt lat="43.8439113" lon="11.2462484"><ele>590.75</ele><time>2026-04-17T07:21:03.963Z</time></trkpt><trkpt lat="43.8437823" lon="11.2462416"><ele>589.5</ele><time>2026-04-17T07:21:04.982Z</time></trkpt><trkpt lat="43.843663" lon="11.2462356"><ele>588.25</ele><time>2026-04-17T07:21:05.982Z</time></trkpt><trkpt lat="43.8435513" lon="11.2462239"><ele>587.0</ele><time>2026-04-17T07:21:06.979Z</time></trkpt><trkpt lat="43.8434436" lon="11.2462118"><ele>586.4</ele><time>2026-04-17T07:21:07.966Z</time></trkpt><trkpt lat="43.8433386" lon="11.2462128"><ele>585.8000000000001</ele><time>2026-04-17T07:21:08.976Z</time></trkpt><trkpt lat="43.8432404" lon="11.2462152"><ele>585.2</ele><time>2026-04-17T07:21:09.98Z</time></trkpt><trkpt lat="43.8431499" lon="11.2462173"><ele>584.6</ele><time>2026-04-17T07:21:10.975Z</time></trkpt><trkpt lat="43.8430651" lon="11.2462286"><ele>584.0</ele><time>2026-04-17T07:21:11.982Z</time></trkpt><trkpt lat="43.8429891" lon="11.2462561"><ele>584.0</ele><time>2026-04-17T07:21:12.976Z</time></trkpt><trkpt lat="43.8429138" lon="11.2462996"><ele>584.0</ele><time>2026-04-17T07:21:13.966Z</time></trkpt><trkpt lat="43.8428415" lon="11.2463382"><ele>584.0</ele><time>2026-04-17T07:21:14.975Z</time></trkpt><trkpt lat="43.8427762" lon="11.2464053"><ele>584.0</ele><time>2026-04-17T07:21:15.979Z</time></trkpt><trkpt lat="43.8427145" lon="11.2464663"><ele>584.0</ele><time>2026-04-17T07:21:16.984Z</time></trkpt><trkpt lat="43.8426532" lon="11.2465407"><ele>584.0</ele><time>2026-04-17T07:21:17.974Z</time></trkpt><trkpt lat="43.8425918" lon="11.2466185"><ele>585.0</ele><time>2026-04-17T07:21:18.985Z</time></trkpt><trkpt lat="43.8425404" lon="11.2467005"><ele>586.0</ele><time>2026-04-17T07:21:19.986Z</time></trkpt><trkpt lat="43.8424994" lon="11.2467947"><ele>587.0</ele><time>2026-04-17T07:21:20.982Z</time></trkpt><trkpt lat="43.8424727" lon="11.2469089"><ele>588.0</ele><time>2026-04-17T07:21:21.994Z</time></trkpt><trkpt lat="43.8424567" lon="11.2470184"><ele>589.0</ele><time>2026-04-17T07:21:22.99Z</time></trkpt><trkpt lat="43.8424478" lon="11.2471283"><ele>590.0</ele><time>2026-04-17T07:21:23.99Z</time></trkpt><trkpt lat="43.8424458" lon="11.2472355"><ele>591.5</ele><time>2026-04-17T07:21:24.984Z</time></trkpt><trkpt lat="43.8424572" lon="11.2473428"><ele>593.0</ele><time>2026-04-17T07:21:25.989Z</time></trkpt><trkpt lat="43.8424704" lon="11.247447"><ele>594.5</ele><time>2026-04-17T07:21:26.988Z</time></trkpt><trkpt lat="43.8424864" lon="11.2475555"><ele>596.0</ele><time>2026-04-17T07:21:27.988Z</time></trkpt><trkpt lat="43.84251" lon="11.2476646"><ele>597.5</ele><time>2026-04-17T07:21:28.984Z</time></trkpt><trkpt lat="43.8425352" lon="11.2477712"><ele>599.0</ele><time>2026-04-17T07:21:29.986Z</time></trkpt><trkpt lat="43.842559" lon="11.2478796"><ele>599.0</ele><time>2026-04-17T07:21:30.991Z</time></trkpt><trkpt lat="43.842588" lon="11.2479905"><ele>599.0</ele><time>2026-04-17T07:21:31.981Z</time></trkpt><trkpt lat="43.8426255" lon="11.2481047"><ele>599.0</ele><time>2026-04-17T07:21:32.977Z</time></trkpt><trkpt lat="43.8426703" lon="11.2482089"><ele>599.0</ele><time>2026-04-17T07:21:33.977Z</time></trkpt><trkpt lat="43.84272" lon="11.2483153"><ele>599.0</ele><time>2026-04-17T07:21:34.982Z</time></trkpt><trkpt lat="43.8427703" lon="11.2484145"><ele>599.0</ele><time>2026-04-17T07:21:35.977Z</time></trkpt><trkpt lat="43.8428263" lon="11.2485162"><ele>601.2</ele><time>2026-04-17T07:21:36.982Z</time></trkpt><trkpt lat="43.8428776" lon="11.2486142"><ele>603.4</ele><time>2026-04-17T07:21:37.971Z</time></trkpt><trkpt lat="43.8429357" lon="11.2487071"><ele>605.6</ele><time>2026-04-17T07:21:38.959Z</time></trkpt><trkpt lat="43.8429943" lon="11.2488049"><ele>607.8</ele><time>2026-04-17T07:21:39.972Z</time></trkpt><trkpt lat="43.8430532" lon="11.2489055"><ele>610.0</ele><time>2026-04-17T07:21:40.97Z</time></trkpt><trkpt lat="43.8431144" lon="11.2490076"><ele>610.0</ele><time>2026-04-17T07:21:41.982Z</time></trkpt><trkpt lat="43.8431726" lon="11.249106"><ele>610.0</ele><time>2026-04-17T07:21:42.982Z</time></trkpt><trkpt lat="43.8432341" lon="11.2491943"><ele>610.0</ele><time>2026-04-17T07:21:43.982Z</time></trkpt><trkpt lat="43.8432936" lon="11.2492902"><ele>610.0</ele><time>2026-04-17T07:21:44.99Z</time></trkpt><trkpt lat="43.8433476" lon="11.2493848"><ele>610.0</ele><time>2026-04-17T07:21:45.981Z</time></trkpt><trkpt lat="43.8434136" lon="11.2494717"><ele>610.6</ele><time>2026-04-17T07:21:46.991Z</time></trkpt><trkpt lat="43.8434814" lon="11.2495631"><ele>611.2</ele><time>2026-04-17T07:21:47.974Z</time></trkpt><trkpt lat="43.8435567" lon="11.2496421"><ele>611.8</ele><time>2026-04-17T07:21:48.982Z</time></trkpt><trkpt lat="43.8436303" lon="11.2497325"><ele>612.4</ele><time>2026-04-17T07:21:49.981Z</time></trkpt><trkpt lat="43.8437039" lon="11.2498292"><ele>613.0</ele><time>2026-04-17T07:21:50.981Z</time></trkpt><trkpt lat="43.8437773" lon="11.249922"><ele>613.0</ele><time>2026-04-17T07:21:51.982Z</time></trkpt><trkpt lat="43.8438539" lon="11.2500119"><ele>613.0</ele><time>2026-04-17T07:21:52.992Z</time></trkpt><trkpt lat="43.8439323" lon="11.2500939"><ele>613.0</ele><time>2026-04-17T07:21:53.983Z</time></trkpt><trkpt lat="43.8440106" lon="11.2501691"><ele>613.0</ele><time>2026-04-17T07:21:54.992Z</time></trkpt><trkpt lat="43.8440928" lon="11.2502472"><ele>613.0</ele><time>2026-04-17T07:21:56.098Z</time></trkpt><trkpt lat="43.844182" lon="11.2503276"><ele>613.0</ele><time>2026-04-17T07:21:57.054Z</time></trkpt><trkpt lat="43.8442678" lon="11.2503986"><ele>613.0</ele><time>2026-04-17T07:21:58.033Z</time></trkpt><trkpt lat="43.8443605" lon="11.250455"><ele>613.0</ele><time>2026-04-17T07:21:58.974Z</time></trkpt><trkpt lat="43.8444614" lon="11.2504525"><ele>613.0</ele><time>2026-04-17T07:21:59.969Z</time></trkpt><trkpt lat="43.8445564" lon="11.2504253"><ele>613.0</ele><time>2026-04-17T07:22:00.992Z</time></trkpt><trkpt lat="43.844638" lon="11.250373"><ele>613.8333333333334</ele><time>2026-04-17T07:22:02.038Z</time></trkpt><trkpt lat="43.8447089" lon="11.2503127"><ele>614.6666666666667</ele><time>2026-04-17T07:22:03.031Z</time></trkpt><trkpt lat="43.8447832" lon="11.2502509"><ele>615.5</ele><time>2026-04-17T07:22:03.971Z</time></trkpt><trkpt lat="43.8448585" lon="11.2501919"><ele>616.3333333333334</ele><time>2026-04-17T07:22:04.978Z</time></trkpt><trkpt lat="43.8449392" lon="11.2501491"><ele>617.1666666666666</ele><time>2026-04-17T07:22:05.969Z</time></trkpt><trkpt lat="43.845026" lon="11.2501163"><ele>618.0</ele><time>2026-04-17T07:22:07.033Z</time></trkpt><trkpt lat="43.845118" lon="11.2500913"><ele>618.5</ele><time>2026-04-17T07:22:08.03Z</time></trkpt><trkpt lat="43.8452249" lon="11.2500923"><ele>619.0</ele><time>2026-04-17T07:22:08.963Z</time></trkpt><trkpt lat="43.845335" lon="11.2501165"><ele>619.5</ele><time>2026-04-17T07:22:09.963Z</time></trkpt><trkpt lat="43.8454508" lon="11.2501479"><ele>620.0</ele><time>2026-04-17T07:22:10.943Z</time></trkpt><trkpt lat="43.8455649" lon="11.2501853"><ele>620.0</ele><time>2026-04-17T07:22:11.956Z</time></trkpt><trkpt lat="43.8456794" lon="11.2502453"><ele>620.0</ele><time>2026-04-17T07:22:12.976Z</time></trkpt><trkpt lat="43.8457819" lon="11.250319"><ele>620.0</ele><time>2026-04-17T07:22:13.973Z</time></trkpt><trkpt lat="43.8458862" lon="11.2503946"><ele>620.0</ele><time>2026-04-17T07:22:14.955Z</time></trkpt><trkpt lat="43.8459747" lon="11.2504969"><ele>618.75</ele><time>2026-04-17T07:22:15.963Z</time></trkpt><trkpt lat="43.846054" lon="11.2506115"><ele>617.5</ele><time>2026-04-17T07:22:16.96Z</time></trkpt><trkpt lat="43.8461173" lon="11.2507483"><ele>616.25</ele><time>2026-04-17T07:22:17.961Z</time></trkpt><trkpt lat="43.8461757" lon="11.2508825"><ele>615.0</ele><time>2026-04-17T07:22:18.956Z</time></trkpt><trkpt lat="43.846247" lon="11.2510063"><ele>615.0</ele><time>2026-04-17T07:22:19.956Z</time></trkpt><trkpt lat="43.8463335" lon="11.2511131"><ele>615.0</ele><time>2026-04-17T07:22:20.96Z</time></trkpt><trkpt lat="43.8464303" lon="11.251214"><ele>615.0</ele><time>2026-04-17T07:22:21.952Z</time></trkpt><trkpt lat="43.8465141" lon="11.2513268"><ele>615.0</ele><time>2026-04-17T07:22:22.952Z</time></trkpt><trkpt lat="43.846595" lon="11.2514327"><ele>611.25</ele><time>2026-04-17T07:22:23.961Z</time></trkpt><trkpt lat="43.8466551" lon="11.2515573"><ele>607.5</ele><time>2026-04-17T07:22:24.951Z</time></trkpt><trkpt lat="43.8467007" lon="11.2516902"><ele>603.75</ele><time>2026-04-17T07:22:25.956Z</time></trkpt><trkpt lat="43.8467213" lon="11.2518526"><ele>600.0</ele><time>2026-04-17T07:22:27.024Z</time></trkpt><trkpt lat="43.8467356" lon="11.2520244"><ele>600.0</ele><time>2026-04-17T07:22:28.048Z</time></trkpt><trkpt lat="43.8467695" lon="11.2521773"><ele>600.0</ele><time>2026-04-17T07:22:28.969Z</time></trkpt><trkpt lat="43.8468242" lon="11.2523235"><ele>600.0</ele><time>2026-04-17T07:22:29.965Z</time></trkpt><trkpt lat="43.8468937" lon="11.2524618"><ele>600.0</ele><time>2026-04-17T07:22:30.959Z</time></trkpt><trkpt lat="43.8469632" lon="11.25258"><ele>603.0</ele><time>2026-04-17T07:22:31.966Z</time></trkpt><trkpt lat="43.8470354" lon="11.2526953"><ele>606.0</ele><time>2026-04-17T07:22:32.968Z</time></trkpt><trkpt lat="43.847117" lon="11.2528078"><ele>609.0</ele><time>2026-04-17T07:22:34.006Z</time></trkpt><trkpt lat="43.8471987" lon="11.2529161"><ele>612.0</ele><time>2026-04-17T07:22:35.028Z</time></trkpt><trkpt lat="43.8472817" lon="11.2530277"><ele>610.8000000000001</ele><time>2026-04-17T07:22:36.006Z</time></trkpt><trkpt lat="43.8473585" lon="11.2531402"><ele>609.6</ele><time>2026-04-17T07:22:37.042Z</time></trkpt><trkpt lat="43.8474335" lon="11.253251"><ele>608.4000000000001</ele><time>2026-04-17T07:22:38.032Z</time></trkpt><trkpt lat="43.8475171" lon="11.2533408"><ele>607.2</ele><time>2026-04-17T07:22:38.954Z</time></trkpt><trkpt lat="43.8476007" lon="11.2534181"><ele>606.0</ele><time>2026-04-17T07:22:39.961Z</time></trkpt><trkpt lat="43.8476894" lon="11.2534804"><ele>606.0</ele><time>2026-04-17T07:22:40.977Z</time></trkpt><trkpt lat="43.8477904" lon="11.2535236"><ele>606.0</ele><time>2026-04-17T07:22:42.033Z</time></trkpt><trkpt lat="43.8478979" lon="11.253561"><ele>606.0</ele><time>2026-04-17T07:22:42.963Z</time></trkpt><trkpt lat="43.8480116" lon="11.2535792"><ele>606.0</ele><time>2026-04-17T07:22:43.966Z</time></trkpt><trkpt lat="43.848125" lon="11.2536088"><ele>606.0</ele><time>2026-04-17T07:22:44.957Z</time></trkpt><trkpt lat="43.848233" lon="11.2536263"><ele>606.0</ele><time>2026-04-17T07:22:46.046Z</time></trkpt><trkpt lat="43.848339" lon="11.2536417"><ele>606.0</ele><time>2026-04-17T07:22:47.032Z</time></trkpt><trkpt lat="43.848452" lon="11.2536522"><ele>606.0</ele><time>2026-04-17T07:22:48.028Z</time></trkpt><trkpt lat="43.8485667" lon="11.2536603"><ele>606.0</ele><time>2026-04-17T07:22:48.963Z</time></trkpt><trkpt lat="43.8486786" lon="11.2536683"><ele>606.0</ele><time>2026-04-17T07:22:49.963Z</time></trkpt><trkpt lat="43.8487826" lon="11.2536817"><ele>606.4</ele><time>2026-04-17T07:22:50.985Z</time></trkpt><trkpt lat="43.848885" lon="11.2536922"><ele>606.8</ele><time>2026-04-17T07:22:51.955Z</time></trkpt><trkpt lat="43.8489872" lon="11.2536997"><ele>607.1999999999999</ele><time>2026-04-17T07:22:52.959Z</time></trkpt><trkpt lat="43.8491035" lon="11.2536829"><ele>607.6</ele><time>2026-04-17T07:22:53.962Z</time></trkpt><trkpt lat="43.8492229" lon="11.2536539"><ele>608.0</ele><time>2026-04-17T07:22:54.957Z</time></trkpt><trkpt lat="43.849347" lon="11.2536211"><ele>608.0</ele><time>2026-04-17T07:22:56.044Z</time></trkpt><trkpt lat="43.8494785" lon="11.253581"><ele>608.0</ele><time>2026-04-17T07:22:57.015Z</time></trkpt><trkpt lat="43.8496135" lon="11.2535577"><ele>608.0</ele><time>2026-04-17T07:22:57.983Z</time></trkpt><trkpt lat="43.8497596" lon="11.2535485"><ele>608.0</ele><time>2026-04-17T07:22:58.971Z</time></trkpt><trkpt lat="43.849914" lon="11.2535701"><ele>608.0</ele><time>2026-04-17T07:22:59.967Z</time></trkpt><trkpt lat="43.8500668" lon="11.2536043"><ele>608.0</ele><time>2026-04-17T07:23:00.965Z</time></trkpt><trkpt lat="43.8502147" lon="11.2536354"><ele>608.0</ele><time>2026-04-17T07:23:01.957Z</time></trkpt><trkpt lat="43.8503547" lon="11.2537196"><ele>607.3333333333333</ele><time>2026-04-17T07:23:02.957Z</time></trkpt><trkpt lat="43.8504925" lon="11.2538227"><ele>606.6666666666666</ele><time>2026-04-17T07:23:03.958Z</time></trkpt><trkpt lat="43.8506276" lon="11.2539379"><ele>606.0</ele><time>2026-04-17T07:23:04.961Z</time></trkpt><trkpt lat="43.8507702" lon="11.2540412"><ele>601.25</ele><time>2026-04-17T07:23:05.966Z</time></trkpt><trkpt lat="43.8509089" lon="11.2541301"><ele>596.5</ele><time>2026-04-17T07:23:06.956Z</time></trkpt><trkpt lat="43.851045" lon="11.2541998"><ele>591.75</ele><time>2026-04-17T07:23:07.958Z</time></trkpt><trkpt lat="43.8511896" lon="11.2542577"><ele>587.0</ele><time>2026-04-17T07:23:08.965Z</time></trkpt><trkpt lat="43.8513235" lon="11.2543197"><ele>587.0</ele><time>2026-04-17T07:23:10.003Z</time></trkpt><trkpt lat="43.8514545" lon="11.2543919"><ele>587.0</ele><time>2026-04-17T07:23:10.956Z</time></trkpt><trkpt lat="43.8515897" lon="11.2544769"><ele>587.0</ele><time>2026-04-17T07:23:11.958Z</time></trkpt><trkpt lat="43.851717" lon="11.2545717"><ele>587.0</ele><time>2026-04-17T07:23:12.959Z</time></trkpt><trkpt lat="43.8518469" lon="11.254679"><ele>587.0</ele><time>2026-04-17T07:23:13.967Z</time></trkpt><trkpt lat="43.8519806" lon="11.2547856"><ele>587.0</ele><time>2026-04-17T07:23:14.956Z</time></trkpt><trkpt lat="43.8521208" lon="11.2548944"><ele>587.0</ele><time>2026-04-17T07:23:15.958Z</time></trkpt><trkpt lat="43.852264" lon="11.255014"><ele>587.0</ele><time>2026-04-17T07:23:17.03Z</time></trkpt><trkpt lat="43.8524077" lon="11.2551132"><ele>587.0</ele><time>2026-04-17T07:23:18.029Z</time></trkpt><trkpt lat="43.8525531" lon="11.2552311"><ele>587.0</ele><time>2026-04-17T07:23:18.964Z</time></trkpt><trkpt lat="43.8527015" lon="11.2553372"><ele>586.3333333333333</ele><time>2026-04-17T07:23:20.041Z</time></trkpt><trkpt lat="43.8528431" lon="11.2554474"><ele>585.6666666666666</ele><time>2026-04-17T07:23:21.03Z</time></trkpt><trkpt lat="43.8529746" lon="11.2555519"><ele>585.0</ele><time>2026-04-17T07:23:22.029Z</time></trkpt><trkpt lat="43.8531034" lon="11.2556518"><ele>585.0</ele><time>2026-04-17T07:23:23.03Z</time></trkpt><trkpt lat="43.8532278" lon="11.2557539"><ele>585.0</ele><time>2026-04-17T07:23:23.96Z</time></trkpt><trkpt lat="43.8533546" lon="11.2558543"><ele>585.0</ele><time>2026-04-17T07:23:25.029Z</time></trkpt><trkpt lat="43.8534754" lon="11.2559535"><ele>585.0</ele><time>2026-04-17T07:23:26.024Z</time></trkpt><trkpt lat="43.8535924" lon="11.2560544"><ele>590.75</ele><time>2026-04-17T07:23:27.034Z</time></trkpt><trkpt lat="43.8537045" lon="11.2561521"><ele>596.5</ele><time>2026-04-17T07:23:28.033Z</time></trkpt><trkpt lat="43.853796" lon="11.2562463"><ele>602.25</ele><time>2026-04-17T07:23:28.959Z</time></trkpt><trkpt lat="43.8538837" lon="11.2563249"><ele>608.0</ele><time>2026-04-17T07:23:29.968Z</time></trkpt><trkpt lat="43.8539866" lon="11.2563636"><ele>608.0</ele><time>2026-04-17T07:23:30.971Z</time></trkpt><trkpt lat="43.8540863" lon="11.2563674"><ele>608.0</ele><time>2026-04-17T07:23:32.05Z</time></trkpt><trkpt lat="43.854193" lon="11.256366"><ele>608.0</ele><time>2026-04-17T07:23:33.035Z</time></trkpt><trkpt lat="43.8543103" lon="11.2563766"><ele>608.0</ele><time>2026-04-17T07:23:33.959Z</time></trkpt><trkpt lat="43.8544378" lon="11.2564318"><ele>604.0</ele><time>2026-04-17T07:23:34.953Z</time></trkpt><trkpt lat="43.8545372" lon="11.2565391"><ele>600.0</ele><time>2026-04-17T07:23:36.045Z</time></trkpt><trkpt lat="43.8546373" lon="11.256665"><ele>596.0</ele><time>2026-04-17T07:23:36.987Z</time></trkpt><trkpt lat="43.8547267" lon="11.2568009"><ele>592.0</ele><time>2026-04-17T07:23:37.974Z</time></trkpt><trkpt lat="43.8548236" lon="11.2569339"><ele>592.0</ele><time>2026-04-17T07:23:38.958Z</time></trkpt><trkpt lat="43.8549284" lon="11.2570488"><ele>592.0</ele><time>2026-04-17T07:23:39.964Z</time></trkpt><trkpt lat="43.8550294" lon="11.2571634"><ele>592.0</ele><time>2026-04-17T07:23:41.039Z</time></trkpt><trkpt lat="43.8551158" lon="11.2572863"><ele>592.0</ele><time>2026-04-17T07:23:42.03Z</time></trkpt><trkpt lat="43.8551896" lon="11.2574271"><ele>597.25</ele><time>2026-04-17T07:23:42.948Z</time></trkpt><trkpt lat="43.8552319" lon="11.2575955"><ele>602.5</ele><time>2026-04-17T07:23:43.969Z</time></trkpt><trkpt lat="43.8552482" lon="11.2577686"><ele>607.75</ele><time>2026-04-17T07:23:44.963Z</time></trkpt><trkpt lat="43.8552679" lon="11.2579452"><ele>613.0</ele><time>2026-04-17T07:23:45.964Z</time></trkpt><trkpt lat="43.8552993" lon="11.258101"><ele>610.25</ele><time>2026-04-17T07:23:46.971Z</time></trkpt><trkpt lat="43.8553793" lon="11.2582286"><ele>607.5</ele><time>2026-04-17T07:23:48.03Z</time></trkpt><trkpt lat="43.8554841" lon="11.2583489"><ele>604.75</ele><time>2026-04-17T07:23:48.965Z</time></trkpt><trkpt lat="43.8555823" lon="11.258501"><ele>602.0</ele><time>2026-04-17T07:23:50.029Z</time></trkpt><trkpt lat="43.8556437" lon="11.2587039"><ele>602.0</ele><time>2026-04-17T07:23:50.973Z</time></trkpt><trkpt lat="43.8557029" lon="11.2589046"><ele>602.0</ele><time>2026-04-17T07:23:51.974Z</time></trkpt><trkpt lat="43.8557668" lon="11.2590905"><ele>602.0</ele><time>2026-04-17T07:23:52.969Z</time></trkpt><trkpt lat="43.8558429" lon="11.2592713"><ele>604.25</ele><time>2026-04-17T07:23:53.974Z</time></trkpt><trkpt lat="43.85589" lon="11.2594723"><ele>606.5</ele><time>2026-04-17T07:23:54.969Z</time></trkpt><trkpt lat="43.8559321" lon="11.259674"><ele>608.75</ele><time>2026-04-17T07:23:55.979Z</time></trkpt><trkpt lat="43.8559748" lon="11.2598651"><ele>611.0</ele><time>2026-04-17T07:23:57.032Z</time></trkpt><trkpt lat="43.8560129" lon="11.2600655"><ele>611.0</ele><time>2026-04-17T07:23:57.964Z</time></trkpt><trkpt lat="43.8560524" lon="11.260257"><ele>611.0</ele><time>2026-04-17T07:23:58.968Z</time></trkpt><trkpt lat="43.8561019" lon="11.2604201"><ele>611.0</ele><time>2026-04-17T07:23:59.971Z</time></trkpt><trkpt lat="43.8561625" lon="11.2605615"><ele>611.0</ele><time>2026-04-17T07:24:00.954Z</time></trkpt><trkpt lat="43.8562332" lon="11.2606854"><ele>606.25</ele><time>2026-04-17T07:24:01.972Z</time></trkpt><trkpt lat="43.8563098" lon="11.2607942"><ele>601.5</ele><time>2026-04-17T07:24:02.977Z</time></trkpt><trkpt lat="43.8564017" lon="11.2608999"><ele>596.75</ele><time>2026-04-17T07:24:03.968Z</time></trkpt><trkpt lat="43.8564989" lon="11.2610147"><ele>592.0</ele><time>2026-04-17T07:24:05.021Z</time></trkpt><trkpt lat="43.8565831" lon="11.2611405"><ele>592.0</ele><time>2026-04-17T07:24:06.03Z</time></trkpt><trkpt lat="43.8566711" lon="11.2612697"><ele>592.0</ele><time>2026-04-17T07:24:07.03Z</time></trkpt><trkpt lat="43.8567595" lon="11.2614005"><ele>592.0</ele><time>2026-04-17T07:24:07.987Z</time></trkpt><trkpt lat="43.8568417" lon="11.2615467"><ele>592.0</ele><time>2026-04-17T07:24:08.955Z</time></trkpt><trkpt lat="43.8569302" lon="11.2617034"><ele>593.5</ele><time>2026-04-17T07:24:09.966Z</time></trkpt><trkpt lat="43.8570261" lon="11.2618542"><ele>595.0</ele><time>2026-04-17T07:24:10.979Z</time></trkpt><trkpt lat="43.8571114" lon="11.2620225"><ele>596.5</ele><time>2026-04-17T07:24:11.965Z</time></trkpt><trkpt lat="43.8571544" lon="11.2621973"><ele>598.0</ele><time>2026-04-17T07:24:12.959Z</time></trkpt><trkpt lat="43.8571844" lon="11.2623675"><ele>593.0</ele><time>2026-04-17T07:24:13.956Z</time></trkpt><trkpt lat="43.8572258" lon="11.262533"><ele>588.0</ele><time>2026-04-17T07:24:14.954Z</time></trkpt><trkpt lat="43.857279" lon="11.2626795"><ele>583.0</ele><time>2026-04-17T07:24:15.953Z</time></trkpt><trkpt lat="43.8573965" lon="11.2627948"><ele>578.0</ele><time>2026-04-17T07:24:16.96Z</time></trkpt><trkpt lat="43.8575169" lon="11.2628694"><ele>578.25</ele><time>2026-04-17T07:24:17.951Z</time></trkpt><trkpt lat="43.8576522" lon="11.2629185"><ele>578.5</ele><time>2026-04-17T07:24:18.945Z</time></trkpt><trkpt lat="43.8577915" lon="11.2629371"><ele>578.75</ele><time>2026-04-17T07:24:19.952Z</time></trkpt><trkpt lat="43.8579373" lon="11.2629212"><ele>579.0</ele><time>2026-04-17T07:24:20.951Z</time></trkpt><trkpt lat="43.8580745" lon="11.2628681"><ele>579.0</ele><time>2026-04-17T07:24:21.953Z</time></trkpt><trkpt lat="43.8581975" lon="11.2627961"><ele>579.0</ele><time>2026-04-17T07:24:22.954Z</time></trkpt><trkpt lat="43.8583146" lon="11.2627307"><ele>579.0</ele><time>2026-04-17T07:24:23.954Z</time></trkpt><trkpt lat="43.8584427" lon="11.2626727"><ele>579.0</ele><time>2026-04-17T07:24:25.053Z</time></trkpt><trkpt lat="43.8585432" lon="11.2626407"><ele>575.0</ele><time>2026-04-17T07:24:25.957Z</time></trkpt><trkpt lat="43.8586351" lon="11.262664"><ele>571.0</ele><time>2026-04-17T07:24:27.103Z</time></trkpt><trkpt lat="43.8588147" lon="11.2628613"><ele>567.0</ele><time>2026-04-17T07:24:28.979Z</time></trkpt><trkpt lat="43.8588356" lon="11.2630228"><ele>563.0</ele><time>2026-04-17T07:24:29.972Z</time></trkpt><trkpt lat="43.858816" lon="11.2631631"><ele>563.0</ele><time>2026-04-17T07:24:31.033Z</time></trkpt><trkpt lat="43.8587629" lon="11.2633243"><ele>563.0</ele><time>2026-04-17T07:24:31.959Z</time></trkpt><trkpt lat="43.8587336" lon="11.2634936"><ele>563.0</ele><time>2026-04-17T07:24:32.975Z</time></trkpt><trkpt lat="43.8587517" lon="11.2636894"><ele>563.0</ele><time>2026-04-17T07:24:33.982Z</time></trkpt><trkpt lat="43.858789" lon="11.2638704"><ele>564.25</ele><time>2026-04-17T07:24:34.97Z</time></trkpt><trkpt lat="43.8588428" lon="11.264052"><ele>565.5</ele><time>2026-04-17T07:24:35.961Z</time></trkpt><trkpt lat="43.858896" lon="11.2642282"><ele>566.75</ele><time>2026-04-17T07:24:36.96Z</time></trkpt><trkpt lat="43.8589455" lon="11.2644173"><ele>568.0</ele><time>2026-04-17T07:24:38.041Z</time></trkpt><trkpt lat="43.8589973" lon="11.2646122"><ele>565.6666666666667</ele><time>2026-04-17T07:24:38.967Z</time></trkpt><trkpt lat="43.8590558" lon="11.2648071"><ele>563.3333333333334</ele><time>2026-04-17T07:24:39.96Z</time></trkpt><trkpt lat="43.8591448" lon="11.2649869"><ele>561.0</ele><time>2026-04-17T07:24:41.012Z</time></trkpt><trkpt lat="43.859252" lon="11.2651466"><ele>563.5</ele><time>2026-04-17T07:24:41.961Z</time></trkpt><trkpt lat="43.8593498" lon="11.2652948"><ele>566.0</ele><time>2026-04-17T07:24:42.962Z</time></trkpt><trkpt lat="43.8594411" lon="11.2654351"><ele>568.5</ele><time>2026-04-17T07:24:43.951Z</time></trkpt><trkpt lat="43.8595186" lon="11.2655691"><ele>571.0</ele><time>2026-04-17T07:24:44.961Z</time></trkpt><trkpt lat="43.8596007" lon="11.2657051"><ele>571.0</ele><time>2026-04-17T07:24:45.97Z</time></trkpt><trkpt lat="43.8596825" lon="11.2658376"><ele>571.0</ele><time>2026-04-17T07:24:47.028Z</time></trkpt><trkpt lat="43.8597721" lon="11.265964"><ele>571.0</ele><time>2026-04-17T07:24:48.03Z</time></trkpt><trkpt lat="43.8598567" lon="11.2661"><ele>571.0</ele><time>2026-04-17T07:24:48.96Z</time></trkpt><trkpt lat="43.8599427" lon="11.2662451"><ele>571.0</ele><time>2026-04-17T07:24:49.967Z</time></trkpt><trkpt lat="43.8599968" lon="11.2663901"><ele>571.0</ele><time>2026-04-17T07:24:50.983Z</time></trkpt><trkpt lat="43.8600235" lon="11.2665491"><ele>571.0</ele><time>2026-04-17T07:24:52.034Z</time></trkpt><trkpt lat="43.860033" lon="11.2667312"><ele>571.0</ele><time>2026-04-17T07:24:53.041Z</time></trkpt><trkpt lat="43.8600156" lon="11.2669236"><ele>569.25</ele><time>2026-04-17T07:24:53.962Z</time></trkpt><trkpt lat="43.8599856" lon="11.2671062"><ele>567.5</ele><time>2026-04-17T07:24:54.968Z</time></trkpt><trkpt lat="43.8599616" lon="11.2672664"><ele>565.75</ele><time>2026-04-17T07:24:56.028Z</time></trkpt><trkpt lat="43.8599455" lon="11.2674107"><ele>564.0</ele><time>2026-04-17T07:24:56.987Z</time></trkpt><trkpt lat="43.8599278" lon="11.2675495"><ele>564.0</ele><time>2026-04-17T07:24:57.957Z</time></trkpt><trkpt lat="43.8598898" lon="11.2676649"><ele>564.0</ele><time>2026-04-17T07:24:58.963Z</time></trkpt><trkpt lat="43.859854" lon="11.2677709"><ele>564.0</ele><time>2026-04-17T07:24:59.956Z</time></trkpt><trkpt lat="43.8598243" lon="11.2678529"><ele>564.0</ele><time>2026-04-17T07:25:00.957Z</time></trkpt><trkpt lat="43.8597589" lon="11.2679247"><ele>564.0</ele><time>2026-04-17T07:25:02.964Z</time></trkpt><trkpt lat="43.8596864" lon="11.2678823"><ele>564.0</ele><time>2026-04-17T07:25:04.967Z</time></trkpt><trkpt lat="43.8596726" lon="11.2677675"><ele>564.0</ele><time>2026-04-17T07:25:05.947Z</time></trkpt><trkpt lat="43.8596748" lon="11.2676661"><ele>564.0</ele><time>2026-04-17T07:25:06.968Z</time></trkpt><trkpt lat="43.8596737" lon="11.2675557"><ele>564.0</ele><time>2026-04-17T07:25:07.95Z</time></trkpt><trkpt lat="43.8596467" lon="11.2674287"><ele>564.0</ele><time>2026-04-17T07:25:08.963Z</time></trkpt><trkpt lat="43.8596216" lon="11.2673068"><ele>564.0</ele><time>2026-04-17T07:25:09.958Z</time></trkpt><trkpt lat="43.8595838" lon="11.2671755"><ele>564.0</ele><time>2026-04-17T07:25:10.956Z</time></trkpt><trkpt lat="43.8595183" lon="11.2670331"><ele>563.25</ele><time>2026-04-17T07:25:12.03Z</time></trkpt><trkpt lat="43.8594651" lon="11.2668956"><ele>562.5</ele><time>2026-04-17T07:25:12.95Z</time></trkpt><trkpt lat="43.8594047" lon="11.2667532"><ele>561.75</ele><time>2026-04-17T07:25:13.964Z</time></trkpt><trkpt lat="43.8593403" lon="11.2666097"><ele>561.0</ele><time>2026-04-17T07:25:14.964Z</time></trkpt><trkpt lat="43.8592748" lon="11.266458"><ele>558.0</ele><time>2026-04-17T07:25:15.953Z</time></trkpt><trkpt lat="43.8591944" lon="11.2663214"><ele>555.0</ele><time>2026-04-17T07:25:16.947Z</time></trkpt><trkpt lat="43.8591076" lon="11.2662109"><ele>552.0</ele><time>2026-04-17T07:25:17.955Z</time></trkpt><trkpt lat="43.8590149" lon="11.2661243"><ele>549.0</ele><time>2026-04-17T07:25:18.968Z</time></trkpt><trkpt lat="43.858909" lon="11.2660264"><ele>549.0</ele><time>2026-04-17T07:25:19.96Z</time></trkpt><trkpt lat="43.8587999" lon="11.2659532"><ele>549.0</ele><time>2026-04-17T07:25:20.964Z</time></trkpt><trkpt lat="43.8586812" lon="11.2658866"><ele>549.0</ele><time>2026-04-17T07:25:21.96Z</time></trkpt><trkpt lat="43.8585638" lon="11.2658166"><ele>549.0</ele><time>2026-04-17T07:25:22.965Z</time></trkpt><trkpt lat="43.8584326" lon="11.2657599"><ele>544.5</ele><time>2026-04-17T07:25:23.952Z</time></trkpt><trkpt lat="43.8583019" lon="11.2657099"><ele>540.0</ele><time>2026-04-17T07:25:24.963Z</time></trkpt><trkpt lat="43.8581669" lon="11.2656478"><ele>535.5</ele><time>2026-04-17T07:25:25.969Z</time></trkpt><trkpt lat="43.8580329" lon="11.2656074"><ele>531.0</ele><time>2026-04-17T07:25:26.961Z</time></trkpt><trkpt lat="43.8579207" lon="11.2655712"><ele>531.0</ele><time>2026-04-17T07:25:27.963Z</time></trkpt><trkpt lat="43.8578254" lon="11.2655461"><ele>531.0</ele><time>2026-04-17T07:25:28.956Z</time></trkpt><trkpt lat="43.8577324" lon="11.2655304"><ele>531.0</ele><time>2026-04-17T07:25:29.955Z</time></trkpt><trkpt lat="43.8576286" lon="11.2655511"><ele>531.0</ele><time>2026-04-17T07:25:30.968Z</time></trkpt><trkpt lat="43.8575443" lon="11.2656864"><ele>531.0</ele><time>2026-04-17T07:25:32.96Z</time></trkpt><trkpt lat="43.8574681" lon="11.2657964"><ele>526.2</ele><time>2026-04-17T07:25:34.973Z</time></trkpt><trkpt lat="43.8573884" lon="11.265803"><ele>521.4000000000001</ele><time>2026-04-17T07:25:36.962Z</time></trkpt><trkpt lat="43.8572807" lon="11.2656953"><ele>516.6</ele><time>2026-04-17T07:25:38.964Z</time></trkpt><trkpt lat="43.8572039" lon="11.2656062"><ele>511.8</ele><time>2026-04-17T07:25:39.963Z</time></trkpt><trkpt lat="43.8571177" lon="11.2655233"><ele>507.0</ele><time>2026-04-17T07:25:40.963Z</time></trkpt><trkpt lat="43.8570139" lon="11.2654297"><ele>507.0</ele><time>2026-04-17T07:25:41.963Z</time></trkpt><trkpt lat="43.8569266" lon="11.2653254"><ele>507.00000000000006</ele><time>2026-04-17T07:25:42.967Z</time></trkpt><trkpt lat="43.8568408" lon="11.2652419"><ele>507.00000000000006</ele><time>2026-04-17T07:25:43.96Z</time></trkpt><trkpt lat="43.8567529" lon="11.2651536"><ele>507.0</ele><time>2026-04-17T07:25:44.963Z</time></trkpt><trkpt lat="43.856679" lon="11.2650661"><ele>507.0</ele><time>2026-04-17T07:25:45.957Z</time></trkpt><trkpt lat="43.8565947" lon="11.2650031"><ele>504.20000000000005</ele><time>2026-04-17T07:25:47.035Z</time></trkpt><trkpt lat="43.8564987" lon="11.2649524"><ele>501.40000000000003</ele><time>2026-04-17T07:25:47.961Z</time></trkpt><trkpt lat="43.8563985" lon="11.2649149"><ele>498.59999999999997</ele><time>2026-04-17T07:25:48.967Z</time></trkpt><trkpt lat="43.8563023" lon="11.2648729"><ele>495.79999999999995</ele><time>2026-04-17T07:25:49.935Z</time></trkpt><trkpt lat="43.8562222" lon="11.2648383"><ele>493.0</ele><time>2026-04-17T07:25:50.958Z</time></trkpt><trkpt lat="43.8561499" lon="11.2648032"><ele>493.0</ele><time>2026-04-17T07:25:51.956Z</time></trkpt><trkpt lat="43.8560878" lon="11.2647805"><ele>492.99999999999994</ele><time>2026-04-17T07:25:52.953Z</time></trkpt><trkpt lat="43.8559731" lon="11.2647599"><ele>492.99999999999994</ele><time>2026-04-17T07:25:54.952Z</time></trkpt><trkpt lat="43.8558599" lon="11.2647062"><ele>493.0</ele><time>2026-04-17T07:25:56.961Z</time></trkpt><trkpt lat="43.8558012" lon="11.2646478"><ele>493.0</ele><time>2026-04-17T07:25:57.954Z</time></trkpt><trkpt lat="43.8557126" lon="11.2645865"><ele>490.59999999999997</ele><time>2026-04-17T07:25:58.961Z</time></trkpt><trkpt lat="43.8556196" lon="11.2645436"><ele>488.19999999999993</ele><time>2026-04-17T07:25:59.946Z</time></trkpt><trkpt lat="43.8555139" lon="11.2645106"><ele>485.8</ele><time>2026-04-17T07:26:01.033Z</time></trkpt><trkpt lat="43.855413" lon="11.2644988"><ele>483.4</ele><time>2026-04-17T07:26:01.96Z</time></trkpt><trkpt lat="43.85531" lon="11.2645015"><ele>481.0</ele><time>2026-04-17T07:26:03.032Z</time></trkpt><trkpt lat="43.8552062" lon="11.2645215"><ele>478.83333333333337</ele><time>2026-04-17T07:26:03.963Z</time></trkpt><trkpt lat="43.8551111" lon="11.2645372"><ele>476.6666666666667</ele><time>2026-04-17T07:26:04.961Z</time></trkpt><trkpt lat="43.8550184" lon="11.2645475"><ele>474.5</ele><time>2026-04-17T07:26:05.963Z</time></trkpt><trkpt lat="43.8549359" lon="11.2645387"><ele>472.33333333333337</ele><time>2026-04-17T07:26:06.958Z</time></trkpt><trkpt lat="43.8548714" lon="11.2645228"><ele>470.1666666666667</ele><time>2026-04-17T07:26:07.961Z</time></trkpt><trkpt lat="43.8548056" lon="11.2644874"><ele>468.0</ele><time>2026-04-17T07:26:08.959Z</time></trkpt><trkpt lat="43.8547396" lon="11.2644379"><ele>468.0</ele><time>2026-04-17T07:26:09.96Z</time></trkpt><trkpt lat="43.8546767" lon="11.2643642"><ele>468.0</ele><time>2026-04-17T07:26:10.962Z</time></trkpt><trkpt lat="43.8546134" lon="11.2642758"><ele>468.0</ele><time>2026-04-17T07:26:11.966Z</time></trkpt><trkpt lat="43.8545477" lon="11.2641766"><ele>468.0</ele><time>2026-04-17T07:26:12.96Z</time></trkpt><trkpt lat="43.8544757" lon="11.2640903"><ele>468.0</ele><time>2026-04-17T07:26:13.963Z</time></trkpt><trkpt lat="43.8544139" lon="11.264019"><ele>468.0</ele><time>2026-04-17T07:26:14.964Z</time></trkpt><trkpt lat="43.8543432" lon="11.2639458"><ele>465.79999999999995</ele><time>2026-04-17T07:26:15.964Z</time></trkpt><trkpt lat="43.8542494" lon="11.2639011"><ele>463.59999999999997</ele><time>2026-04-17T07:26:16.95Z</time></trkpt><trkpt lat="43.8541567" lon="11.263872"><ele>461.40000000000003</ele><time>2026-04-17T07:26:17.941Z</time></trkpt><trkpt lat="43.8540566" lon="11.2638558"><ele>459.20000000000005</ele><time>2026-04-17T07:26:18.955Z</time></trkpt><trkpt lat="43.8539474" lon="11.2638269"><ele>457.0</ele><time>2026-04-17T07:26:19.961Z</time></trkpt><trkpt lat="43.85384" lon="11.2638057"><ele>457.0</ele><time>2026-04-17T07:26:20.955Z</time></trkpt><trkpt lat="43.8537287" lon="11.2637918"><ele>457.00000000000006</ele><time>2026-04-17T07:26:21.964Z</time></trkpt><trkpt lat="43.8536233" lon="11.2637778"><ele>457.00000000000006</ele><time>2026-04-17T07:26:22.965Z</time></trkpt><trkpt lat="43.8535283" lon="11.2637633"><ele>457.0</ele><time>2026-04-17T07:26:23.959Z</time></trkpt><trkpt lat="43.8534459" lon="11.2637568"><ele>457.0</ele><time>2026-04-17T07:26:24.964Z</time></trkpt><trkpt lat="43.8533633" lon="11.2637485"><ele>454.1666666666667</ele><time>2026-04-17T07:26:25.969Z</time></trkpt><trkpt lat="43.8532775" lon="11.2637416"><ele>451.33333333333337</ele><time>2026-04-17T07:26:26.961Z</time></trkpt><trkpt lat="43.8531923" lon="11.2637296"><ele>448.5</ele><time>2026-04-17T07:26:28.028Z</time></trkpt><trkpt lat="43.8531162" lon="11.2637226"><ele>445.66666666666663</ele><time>2026-04-17T07:26:28.962Z</time></trkpt><trkpt lat="43.8530488" lon="11.2637115"><ele>442.8333333333333</ele><time>2026-04-17T07:26:29.968Z</time></trkpt><trkpt lat="43.8529692" lon="11.2637066"><ele>440.0</ele><time>2026-04-17T07:26:30.95Z</time></trkpt><trkpt lat="43.8528824" lon="11.2637016"><ele>440.0</ele><time>2026-04-17T07:26:32.061Z</time></trkpt><trkpt lat="43.8527797" lon="11.2636949"><ele>440.0</ele><time>2026-04-17T07:26:33.033Z</time></trkpt><trkpt lat="43.8526736" lon="11.2636861"><ele>440.0</ele><time>2026-04-17T07:26:33.967Z</time></trkpt><trkpt lat="43.852558" lon="11.2636794"><ele>440.0</ele><time>2026-04-17T07:26:34.974Z</time></trkpt><trkpt lat="43.8524493" lon="11.2636805"><ele>440.0</ele><time>2026-04-17T07:26:35.964Z</time></trkpt><trkpt lat="43.8523528" lon="11.2636824"><ele>438.99999999999994</ele><time>2026-04-17T07:26:37.038Z</time></trkpt><trkpt lat="43.852281" lon="11.2636897"><ele>438.0</ele><time>2026-04-17T07:26:38.031Z</time></trkpt><trkpt lat="43.8522199" lon="11.26373"><ele>437.0</ele><time>2026-04-17T07:26:43.968Z</time></trkpt><trkpt lat="43.8522163" lon="11.2638311"><ele>436.0</ele><time>2026-04-17T07:26:52.944Z</time></trkpt><trkpt lat="43.8521838" lon="11.2639285"><ele>435.0</ele><time>2026-04-17T07:26:55.958Z</time></trkpt><trkpt lat="43.8521438" lon="11.2640052"><ele>433.99999999999994</ele><time>2026-04-17T07:26:57.961Z</time></trkpt><trkpt lat="43.8521027" lon="11.2640931"><ele>433.0</ele><time>2026-04-17T07:26:59.96Z</time></trkpt><trkpt lat="43.8520452" lon="11.2641793"><ele>433.33333333333337</ele><time>2026-04-17T07:27:02.958Z</time></trkpt><trkpt lat="43.8519937" lon="11.2642651"><ele>433.6666666666667</ele><time>2026-04-17T07:27:05.965Z</time></trkpt><trkpt lat="43.8519471" lon="11.2643511"><ele>434.0</ele><time>2026-04-17T07:27:08.969Z</time></trkpt><trkpt lat="43.8519199" lon="11.2644311"><ele>434.33333333333337</ele><time>2026-04-17T07:27:10.963Z</time></trkpt><trkpt lat="43.8518746" lon="11.264499"><ele>434.6666666666667</ele><time>2026-04-17T07:27:12.968Z</time></trkpt><trkpt lat="43.8518129" lon="11.2645882"><ele>435.0</ele><time>2026-04-17T07:27:14.941Z</time></trkpt><trkpt lat="43.8517524" lon="11.2646778"><ele>435.0</ele><time>2026-04-17T07:27:16.954Z</time></trkpt><trkpt lat="43.8516969" lon="11.2647685"><ele>435.0</ele><time>2026-04-17T07:27:18.952Z</time></trkpt><trkpt lat="43.8516386" lon="11.2648574"><ele>435.0</ele><time>2026-04-17T07:27:20.957Z</time></trkpt><trkpt lat="43.8515676" lon="11.2649318"><ele>435.0</ele><time>2026-04-17T07:27:22.958Z</time></trkpt><trkpt lat="43.8514749" lon="11.2649967"><ele>435.0</ele><time>2026-04-17T07:27:25.958Z</time></trkpt><trkpt lat="43.8513916" lon="11.2650424"><ele>434.8333333333333</ele><time>2026-04-17T07:27:27.966Z</time></trkpt><trkpt lat="43.8513136" lon="11.2651305"><ele>434.66666666666663</ele><time>2026-04-17T07:27:29.953Z</time></trkpt><trkpt lat="43.8512519" lon="11.2651962"><ele>434.5</ele><time>2026-04-17T07:27:31.959Z</time></trkpt><trkpt lat="43.8511841" lon="11.2652329"><ele>434.3333333333333</ele><time>2026-04-17T07:27:33.97Z</time></trkpt><trkpt lat="43.8511134" lon="11.2652705"><ele>434.16666666666663</ele><time>2026-04-17T07:27:35.963Z</time></trkpt><trkpt lat="43.8510206" lon="11.2653592"><ele>434.0</ele><time>2026-04-17T07:27:37.964Z</time></trkpt><trkpt lat="43.8509536" lon="11.2654896"><ele>433.99999999999994</ele><time>2026-04-17T07:27:39.958Z</time></trkpt><trkpt lat="43.8508965" lon="11.265587"><ele>434.0</ele><time>2026-04-17T07:27:41.964Z</time></trkpt><trkpt lat="43.850852" lon="11.2656738"><ele>434.0</ele><time>2026-04-17T07:27:44.962Z</time></trkpt><trkpt lat="43.8508336" lon="11.2655789"><ele>434.0</ele><time>2026-04-17T07:27:55.957Z</time></trkpt><trkpt lat="43.8508687" lon="11.2654622"><ele>433.99999999999994</ele><time>2026-04-17T07:27:57.965Z</time></trkpt><trkpt lat="43.8509452" lon="11.265372"><ele>434.0</ele><time>2026-04-17T07:27:59.963Z</time></trkpt><trkpt lat="43.8510025" lon="11.2653167"><ele>433.99999999999994</ele><time>2026-04-17T07:28:01.964Z</time></trkpt><trkpt lat="43.8510368" lon="11.2652322"><ele>434.0</ele><time>2026-04-17T07:28:03.945Z</time></trkpt><trkpt lat="43.85107" lon="11.2650723"><ele>434.0</ele><time>2026-04-17T07:28:05.966Z</time></trkpt><trkpt lat="43.8510879" lon="11.2649656"><ele>434.0</ele><time>2026-04-17T07:28:06.974Z</time></trkpt><trkpt lat="43.8511005" lon="11.2648557"><ele>433.99999999999994</ele><time>2026-04-17T07:28:07.962Z</time></trkpt><trkpt lat="43.851116" lon="11.2647346"><ele>434.0</ele><time>2026-04-17T07:28:08.956Z</time></trkpt><trkpt lat="43.8511284" lon="11.264596"><ele>434.2</ele><time>2026-04-17T07:28:09.963Z</time></trkpt><trkpt lat="43.8511357" lon="11.2644547"><ele>434.4</ele><time>2026-04-17T07:28:10.969Z</time></trkpt><trkpt lat="43.8511308" lon="11.264288"><ele>434.6</ele><time>2026-04-17T07:28:11.95Z</time></trkpt><trkpt lat="43.8511287" lon="11.2641424"><ele>434.8</ele><time>2026-04-17T07:28:12.958Z</time></trkpt><trkpt lat="43.8511266" lon="11.2640062"><ele>435.0</ele><time>2026-04-17T07:28:13.958Z</time></trkpt><trkpt lat="43.8511162" lon="11.2638826"><ele>435.5</ele><time>2026-04-17T07:28:14.954Z</time></trkpt><trkpt lat="43.851114" lon="11.2637806"><ele>436.0</ele><time>2026-04-17T07:28:15.962Z</time></trkpt><trkpt lat="43.8511167" lon="11.2636916"><ele>436.5</ele><time>2026-04-17T07:28:16.954Z</time></trkpt><trkpt lat="43.8511093" lon="11.2635575"><ele>437.0</ele><time>2026-04-17T07:28:18.966Z</time></trkpt><trkpt lat="43.8511036" lon="11.2634668"><ele>437.5</ele><time>2026-04-17T07:28:21.962Z</time></trkpt><trkpt lat="43.8510103" lon="11.2634145"><ele>438.0</ele><time>2026-04-17T07:28:24.94Z</time></trkpt><trkpt lat="43.8509433" lon="11.2634046"><ele>436.1666666666667</ele><time>2026-04-17T07:28:25.959Z</time></trkpt><trkpt lat="43.8508646" lon="11.2633828"><ele>434.33333333333337</ele><time>2026-04-17T07:28:26.959Z</time></trkpt><trkpt lat="43.8507764" lon="11.263353"><ele>432.5</ele><time>2026-04-17T07:28:27.957Z</time></trkpt><trkpt lat="43.8506945" lon="11.2633333"><ele>430.6666666666667</ele><time>2026-04-17T07:28:28.962Z</time></trkpt><trkpt lat="43.8506165" lon="11.2633121"><ele>428.83333333333337</ele><time>2026-04-17T07:28:29.965Z</time></trkpt><trkpt lat="43.8505522" lon="11.2632924"><ele>427.0</ele><time>2026-04-17T07:28:30.962Z</time></trkpt><trkpt lat="43.8504673" lon="11.2632217"><ele>428.8</ele><time>2026-04-17T07:28:32.959Z</time></trkpt><trkpt lat="43.8504278" lon="11.2630736"><ele>430.6</ele><time>2026-04-17T07:28:34.963Z</time></trkpt><trkpt lat="43.8503996" lon="11.2629635"><ele>432.40000000000003</ele><time>2026-04-17T07:28:35.948Z</time></trkpt><trkpt lat="43.850363" lon="11.2628427"><ele>434.20000000000005</ele><time>2026-04-17T07:28:36.959Z</time></trkpt><trkpt lat="43.8503235" lon="11.2627155"><ele>436.0</ele><time>2026-04-17T07:28:37.964Z</time></trkpt><trkpt lat="43.8502745" lon="11.2625869"><ele>436.0</ele><time>2026-04-17T07:28:38.971Z</time></trkpt><trkpt lat="43.8502189" lon="11.2624669"><ele>436.0</ele><time>2026-04-17T07:28:39.962Z</time></trkpt><trkpt lat="43.8501506" lon="11.2623491"><ele>436.0</ele><time>2026-04-17T07:28:40.964Z</time></trkpt><trkpt lat="43.8500761" lon="11.2622348"><ele>436.0</ele><time>2026-04-17T07:28:41.966Z</time></trkpt><trkpt lat="43.8500065" lon="11.2621163"><ele>436.0</ele><time>2026-04-17T07:28:42.961Z</time></trkpt><trkpt lat="43.8499453" lon="11.2620044"><ele>432.4</ele><time>2026-04-17T07:28:43.969Z</time></trkpt><trkpt lat="43.8498712" lon="11.2619005"><ele>428.8</ele><time>2026-04-17T07:28:44.96Z</time></trkpt><trkpt lat="43.8498045" lon="11.2617953"><ele>425.2</ele><time>2026-04-17T07:28:45.963Z</time></trkpt><trkpt lat="43.8497343" lon="11.2616831"><ele>421.59999999999997</ele><time>2026-04-17T07:28:46.972Z</time></trkpt><trkpt lat="43.8496838" lon="11.261555"><ele>418.0</ele><time>2026-04-17T07:28:47.968Z</time></trkpt><trkpt lat="43.8496456" lon="11.2614336"><ele>418.00000000000006</ele><time>2026-04-17T07:28:48.966Z</time></trkpt><trkpt lat="43.8496126" lon="11.2613076"><ele>418.0</ele><time>2026-04-17T07:28:49.968Z</time></trkpt><trkpt lat="43.8495983" lon="11.2611887"><ele>418.0</ele><time>2026-04-17T07:28:50.965Z</time></trkpt><trkpt lat="43.8496028" lon="11.2610686"><ele>418.0</ele><time>2026-04-17T07:28:51.966Z</time></trkpt><trkpt lat="43.8496003" lon="11.2609665"><ele>418.00000000000006</ele><time>2026-04-17T07:28:52.967Z</time></trkpt><trkpt lat="43.8496091" lon="11.2608565"><ele>418.0</ele><time>2026-04-17T07:28:53.949Z</time></trkpt><trkpt lat="43.8496174" lon="11.2607676"><ele>418.0</ele><time>2026-04-17T07:28:54.971Z</time></trkpt><trkpt lat="43.8495642" lon="11.2606363"><ele>418.0</ele><time>2026-04-17T07:28:56.967Z</time></trkpt><trkpt lat="43.8494525" lon="11.2605657"><ele>418.0</ele><time>2026-04-17T07:28:58.966Z</time></trkpt><trkpt lat="43.8493934" lon="11.2605279"><ele>418.0</ele><time>2026-04-17T07:28:59.965Z</time></trkpt><trkpt lat="43.8493213" lon="11.2604833"><ele>418.0</ele><time>2026-04-17T07:29:00.951Z</time></trkpt><trkpt lat="43.849245" lon="11.2604375"><ele>416.50000000000006</ele><time>2026-04-17T07:29:01.96Z</time></trkpt><trkpt lat="43.8491652" lon="11.2603817"><ele>415.0</ele><time>2026-04-17T07:29:02.957Z</time></trkpt><trkpt lat="43.8490857" lon="11.2603291"><ele>413.5</ele><time>2026-04-17T07:29:03.963Z</time></trkpt><trkpt lat="43.8490015" lon="11.2602885"><ele>412.0</ele><time>2026-04-17T07:29:05.004Z</time></trkpt><trkpt lat="43.8489158" lon="11.2602605"><ele>410.50000000000006</ele><time>2026-04-17T07:29:05.964Z</time></trkpt><trkpt lat="43.8488339" lon="11.2602404"><ele>409.0</ele><time>2026-04-17T07:29:06.968Z</time></trkpt><trkpt lat="43.8487527" lon="11.2602289"><ele>409.0</ele><time>2026-04-17T07:29:07.958Z</time></trkpt><trkpt lat="43.8486525" lon="11.2602126"><ele>409.0</ele><time>2026-04-17T07:29:08.955Z</time></trkpt><trkpt lat="43.8485471" lon="11.2602086"><ele>409.0</ele><time>2026-04-17T07:29:09.962Z</time></trkpt><trkpt lat="43.8484442" lon="11.2602176"><ele>409.0</ele><time>2026-04-17T07:29:10.963Z</time></trkpt><trkpt lat="43.8483532" lon="11.2602374"><ele>409.0</ele><time>2026-04-17T07:29:11.964Z</time></trkpt><trkpt lat="43.8482548" lon="11.2602335"><ele>408.6666666666667</ele><time>2026-04-17T07:29:12.965Z</time></trkpt><trkpt lat="43.8481716" lon="11.260215"><ele>408.33333333333337</ele><time>2026-04-17T07:29:13.969Z</time></trkpt><trkpt lat="43.848097" lon="11.2601653"><ele>408.0</ele><time>2026-04-17T07:29:14.976Z</time></trkpt><trkpt lat="43.8480284" lon="11.2601072"><ele>407.66666666666663</ele><time>2026-04-17T07:29:15.958Z</time></trkpt><trkpt lat="43.847961" lon="11.260015"><ele>407.3333333333333</ele><time>2026-04-17T07:29:16.96Z</time></trkpt><trkpt lat="43.847896" lon="11.2598989"><ele>407.0</ele><time>2026-04-17T07:29:17.956Z</time></trkpt><trkpt lat="43.8478291" lon="11.2597681"><ele>407.0</ele><time>2026-04-17T07:29:18.954Z</time></trkpt><trkpt lat="43.8477546" lon="11.2596509"><ele>407.0</ele><time>2026-04-17T07:29:19.954Z</time></trkpt><trkpt lat="43.8476724" lon="11.2595436"><ele>407.0</ele><time>2026-04-17T07:29:20.957Z</time></trkpt><trkpt lat="43.8475703" lon="11.2594444"><ele>407.0</ele><time>2026-04-17T07:29:21.96Z</time></trkpt><trkpt lat="43.847476" lon="11.2593586"><ele>403.0</ele><time>2026-04-17T07:29:22.967Z</time></trkpt><trkpt lat="43.8473826" lon="11.2592739"><ele>399.0</ele><time>2026-04-17T07:29:23.961Z</time></trkpt><trkpt lat="43.8472749" lon="11.2592122"><ele>395.0</ele><time>2026-04-17T07:29:24.955Z</time></trkpt><trkpt lat="43.8471564" lon="11.2591559"><ele>391.0</ele><time>2026-04-17T07:29:25.961Z</time></trkpt><trkpt lat="43.8470397" lon="11.2591265"><ele>391.0</ele><time>2026-04-17T07:29:26.961Z</time></trkpt><trkpt lat="43.8469242" lon="11.2591158"><ele>391.0</ele><time>2026-04-17T07:29:27.962Z</time></trkpt><trkpt lat="43.8468096" lon="11.2591281"><ele>391.0</ele><time>2026-04-17T07:29:28.963Z</time></trkpt><trkpt lat="43.8467067" lon="11.2591452"><ele>391.0</ele><time>2026-04-17T07:29:29.967Z</time></trkpt><trkpt lat="43.8466225" lon="11.2591758"><ele>391.0</ele><time>2026-04-17T07:29:30.958Z</time></trkpt><trkpt lat="43.8465424" lon="11.2592452"><ele>389.33333333333337</ele><time>2026-04-17T07:29:31.958Z</time></trkpt><trkpt lat="43.846477" lon="11.2593274"><ele>387.6666666666667</ele><time>2026-04-17T07:29:32.962Z</time></trkpt><trkpt lat="43.8464198" lon="11.2594197"><ele>386.0</ele><time>2026-04-17T07:29:33.96Z</time></trkpt><trkpt lat="43.8463553" lon="11.2595141"><ele>384.33333333333337</ele><time>2026-04-17T07:29:34.961Z</time></trkpt><trkpt lat="43.8462785" lon="11.2595807"><ele>382.6666666666667</ele><time>2026-04-17T07:29:35.953Z</time></trkpt><trkpt lat="43.8462164" lon="11.2596373"><ele>381.0</ele><time>2026-04-17T07:29:36.959Z</time></trkpt><trkpt lat="43.8461355" lon="11.2596914"><ele>381.0</ele><time>2026-04-17T07:29:37.957Z</time></trkpt><trkpt lat="43.8460659" lon="11.2597237"><ele>381.0</ele><time>2026-04-17T07:29:38.956Z</time></trkpt><trkpt lat="43.8459914" lon="11.2597418"><ele>381.0</ele><time>2026-04-17T07:29:39.959Z</time></trkpt><trkpt lat="43.8458883" lon="11.2598118"><ele>381.0</ele><time>2026-04-17T07:29:41.96Z</time></trkpt><trkpt lat="43.845853" lon="11.2599917"><ele>381.0</ele><time>2026-04-17T07:29:43.964Z</time></trkpt><trkpt lat="43.8458369" lon="11.260092"><ele>379.1666666666667</ele><time>2026-04-17T07:29:44.96Z</time></trkpt><trkpt lat="43.8458232" lon="11.2601958"><ele>377.3333333333333</ele><time>2026-04-17T07:29:45.961Z</time></trkpt><trkpt lat="43.84581" lon="11.2602954"><ele>375.5</ele><time>2026-04-17T07:29:46.956Z</time></trkpt><trkpt lat="43.8457933" lon="11.2604002"><ele>373.66666666666663</ele><time>2026-04-17T07:29:47.961Z</time></trkpt><trkpt lat="43.8457725" lon="11.2605183"><ele>371.8333333333333</ele><time>2026-04-17T07:29:48.955Z</time></trkpt><trkpt lat="43.8457421" lon="11.2606497"><ele>370.0</ele><time>2026-04-17T07:29:49.957Z</time></trkpt><trkpt lat="43.8457163" lon="11.260799"><ele>368.25</ele><time>2026-04-17T07:29:50.966Z</time></trkpt><trkpt lat="43.8456983" lon="11.2609551"><ele>366.5</ele><time>2026-04-17T07:29:51.948Z</time></trkpt><trkpt lat="43.8456931" lon="11.2611086"><ele>364.75</ele><time>2026-04-17T07:29:52.953Z</time></trkpt><trkpt lat="43.8456796" lon="11.2612634"><ele>363.0</ele><time>2026-04-17T07:29:53.968Z</time></trkpt><trkpt lat="43.8456573" lon="11.2614171"><ele>361.59999999999997</ele><time>2026-04-17T07:29:54.96Z</time></trkpt><trkpt lat="43.8456457" lon="11.2615487"><ele>360.2</ele><time>2026-04-17T07:29:55.954Z</time></trkpt><trkpt lat="43.8456313" lon="11.2616826"><ele>358.8</ele><time>2026-04-17T07:29:56.96Z</time></trkpt><trkpt lat="43.8456194" lon="11.2618178"><ele>357.4</ele><time>2026-04-17T07:29:57.969Z</time></trkpt><trkpt lat="43.8456082" lon="11.2619482"><ele>356.0</ele><time>2026-04-17T07:29:58.956Z</time></trkpt><trkpt lat="43.8455965" lon="11.2620737"><ele>356.0</ele><time>2026-04-17T07:29:59.958Z</time></trkpt><trkpt lat="43.8455825" lon="11.2621778"><ele>356.0</ele><time>2026-04-17T07:30:00.961Z</time></trkpt><trkpt lat="43.8455465" lon="11.2622811"><ele>356.0</ele><time>2026-04-17T07:30:02.966Z</time></trkpt><trkpt lat="43.8454518" lon="11.2623143"><ele>356.0</ele><time>2026-04-17T07:30:04.969Z</time></trkpt><trkpt lat="43.8453827" lon="11.2623113"><ele>356.0</ele><time>2026-04-17T07:30:05.959Z</time></trkpt><trkpt lat="43.8452985" lon="11.2623084"><ele>356.0</ele><time>2026-04-17T07:30:06.959Z</time></trkpt><trkpt lat="43.8452156" lon="11.2623003"><ele>356.0</ele><time>2026-04-17T07:30:07.961Z</time></trkpt><trkpt lat="43.8451377" lon="11.2622572"><ele>356.0</ele><time>2026-04-17T07:30:08.954Z</time></trkpt><trkpt lat="43.8450602" lon="11.2622019"><ele>356.0</ele><time>2026-04-17T07:30:09.966Z</time></trkpt><trkpt lat="43.8449778" lon="11.2621429"><ele>356.0</ele><time>2026-04-17T07:30:10.966Z</time></trkpt><trkpt lat="43.8448867" lon="11.2620837"><ele>356.0</ele><time>2026-04-17T07:30:11.962Z</time></trkpt><trkpt lat="43.8447927" lon="11.2620273"><ele>355.0</ele><time>2026-04-17T07:30:12.962Z</time></trkpt><trkpt lat="43.8447078" lon="11.2619652"><ele>354.0</ele><time>2026-04-17T07:30:13.961Z</time></trkpt><trkpt lat="43.8446108" lon="11.2619102"><ele>353.0</ele><time>2026-04-17T07:30:14.964Z</time></trkpt><trkpt lat="43.8445034" lon="11.261842"><ele>352.0</ele><time>2026-04-17T07:30:15.963Z</time></trkpt><trkpt lat="43.844391" lon="11.2617694"><ele>351.0</ele><time>2026-04-17T07:30:16.942Z</time></trkpt><trkpt lat="43.8442709" lon="11.2616959"><ele>350.25</ele><time>2026-04-17T07:30:17.969Z</time></trkpt><trkpt lat="43.8441485" lon="11.2616125"><ele>349.5</ele><time>2026-04-17T07:30:18.956Z</time></trkpt><trkpt lat="43.8440166" lon="11.2615348"><ele>348.75</ele><time>2026-04-17T07:30:19.966Z</time></trkpt><trkpt lat="43.8438839" lon="11.2614514"><ele>348.0</ele><time>2026-04-17T07:30:20.961Z</time></trkpt><trkpt lat="43.8437536" lon="11.2613696"><ele>348.0</ele><time>2026-04-17T07:30:21.967Z</time></trkpt><trkpt lat="43.8436204" lon="11.2612736"><ele>348.0</ele><time>2026-04-17T07:30:22.941Z</time></trkpt><trkpt lat="43.8434849" lon="11.2611816"><ele>348.0</ele><time>2026-04-17T07:30:23.942Z</time></trkpt><trkpt lat="43.8433516" lon="11.2610981"><ele>348.0</ele><time>2026-04-17T07:30:24.937Z</time></trkpt><trkpt lat="43.8432151" lon="11.2610188"><ele>346.75</ele><time>2026-04-17T07:30:25.941Z</time></trkpt><trkpt lat="43.8430829" lon="11.2609423"><ele>345.5</ele><time>2026-04-17T07:30:26.941Z</time></trkpt><trkpt lat="43.8429579" lon="11.2608869"><ele>344.25</ele><time>2026-04-17T07:30:27.956Z</time></trkpt><trkpt lat="43.8428501" lon="11.2608272"><ele>343.0</ele><time>2026-04-17T07:30:28.954Z</time></trkpt><trkpt lat="43.8427442" lon="11.2607567"><ele>343.0</ele><time>2026-04-17T07:30:29.947Z</time></trkpt><trkpt lat="43.8426386" lon="11.2606732"><ele>343.0</ele><time>2026-04-17T07:30:30.954Z</time></trkpt><trkpt lat="43.8425392" lon="11.2605873"><ele>343.0</ele><time>2026-04-17T07:30:31.944Z</time></trkpt><trkpt lat="43.8424544" lon="11.2605019"><ele>343.0</ele><time>2026-04-17T07:30:32.948Z</time></trkpt><trkpt lat="43.8423748" lon="11.2604036"><ele>344.3333333333333</ele><time>2026-04-17T07:30:33.965Z</time></trkpt><trkpt lat="43.8423204" lon="11.260339"><ele>345.66666666666663</ele><time>2026-04-17T07:30:34.954Z</time></trkpt><trkpt lat="43.842275" lon="11.2602673"><ele>347.0</ele><time>2026-04-17T07:30:35.965Z</time></trkpt><trkpt lat="43.8422303" lon="11.260185"><ele>348.3333333333333</ele><time>2026-04-17T07:30:36.961Z</time></trkpt><trkpt lat="43.8422022" lon="11.2600766"><ele>349.6666666666667</ele><time>2026-04-17T07:30:37.96Z</time></trkpt><trkpt lat="43.8422018" lon="11.2599506"><ele>351.0</ele><time>2026-04-17T07:30:38.965Z</time></trkpt><trkpt lat="43.8422086" lon="11.2598126"><ele>352.0</ele><time>2026-04-17T07:30:39.958Z</time></trkpt><trkpt lat="43.8422121" lon="11.2596503"><ele>353.0</ele><time>2026-04-17T07:30:40.957Z</time></trkpt><trkpt lat="43.8421974" lon="11.259493"><ele>354.0</ele><time>2026-04-17T07:30:41.972Z</time></trkpt><trkpt lat="43.8421678" lon="11.2593392"><ele>355.0</ele><time>2026-04-17T07:30:42.965Z</time></trkpt><trkpt lat="43.8421503" lon="11.2591884"><ele>355.0</ele><time>2026-04-17T07:30:43.964Z</time></trkpt><trkpt lat="43.842127" lon="11.259054"><ele>355.0</ele><time>2026-04-17T07:30:44.969Z</time></trkpt><trkpt lat="43.8420793" lon="11.2589385"><ele>355.0</ele><time>2026-04-17T07:30:45.957Z</time></trkpt><trkpt lat="43.8419919" lon="11.2588666"><ele>355.0</ele><time>2026-04-17T07:30:46.938Z</time></trkpt><trkpt lat="43.8418895" lon="11.2587899"><ele>355.0</ele><time>2026-04-17T07:30:47.962Z</time></trkpt><trkpt lat="43.8417985" lon="11.2586966"><ele>351.5</ele><time>2026-04-17T07:30:48.957Z</time></trkpt><trkpt lat="43.841707" lon="11.2585927"><ele>348.0</ele><time>2026-04-17T07:30:49.966Z</time></trkpt><trkpt lat="43.8416181" lon="11.2584732"><ele>344.5</ele><time>2026-04-17T07:30:50.961Z</time></trkpt><trkpt lat="43.8415464" lon="11.2583438"><ele>341.0</ele><time>2026-04-17T07:30:51.966Z</time></trkpt><trkpt lat="43.8414853" lon="11.2582145"><ele>341.75</ele><time>2026-04-17T07:30:52.967Z</time></trkpt><trkpt lat="43.8414376" lon="11.258077"><ele>342.5</ele><time>2026-04-17T07:30:53.961Z</time></trkpt><trkpt lat="43.8413889" lon="11.257927"><ele>343.25</ele><time>2026-04-17T07:30:54.96Z</time></trkpt><trkpt lat="43.8413416" lon="11.2577588"><ele>344.0</ele><time>2026-04-17T07:30:55.958Z</time></trkpt><trkpt lat="43.8412945" lon="11.2575802"><ele>344.0</ele><time>2026-04-17T07:30:56.956Z</time></trkpt><trkpt lat="43.8412344" lon="11.2574117"><ele>344.0</ele><time>2026-04-17T07:30:57.962Z</time></trkpt><trkpt lat="43.8411638" lon="11.2572411"><ele>344.0</ele><time>2026-04-17T07:30:58.952Z</time></trkpt><trkpt lat="43.8410867" lon="11.2570754"><ele>344.0</ele><time>2026-04-17T07:30:59.941Z</time></trkpt><trkpt lat="43.8409939" lon="11.2569435"><ele>343.6</ele><time>2026-04-17T07:31:00.964Z</time></trkpt><trkpt lat="43.840896" lon="11.2568349"><ele>343.2</ele><time>2026-04-17T07:31:01.961Z</time></trkpt><trkpt lat="43.8408174" lon="11.2567286"><ele>342.8</ele><time>2026-04-17T07:31:02.964Z</time></trkpt><trkpt lat="43.8407454" lon="11.2566536"><ele>342.40000000000003</ele><time>2026-04-17T07:31:03.954Z</time></trkpt><trkpt lat="43.8406815" lon="11.2565947"><ele>342.0</ele><time>2026-04-17T07:31:04.96Z</time></trkpt><trkpt lat="43.8406148" lon="11.2565898"><ele>342.0</ele><time>2026-04-17T07:31:05.976Z</time></trkpt><trkpt lat="43.8404889" lon="11.2566395"><ele>342.0</ele><time>2026-04-17T07:31:07.961Z</time></trkpt><trkpt lat="43.8403806" lon="11.2567142"><ele>342.0</ele><time>2026-04-17T07:31:09.967Z</time></trkpt><trkpt lat="43.8403206" lon="11.2567449"><ele>342.0</ele><time>2026-04-17T07:31:10.97Z</time></trkpt><trkpt lat="43.8402047" lon="11.2567696"><ele>342.0</ele><time>2026-04-17T07:31:12.951Z</time></trkpt><trkpt lat="43.8401374" lon="11.2567637"><ele>341.40000000000003</ele><time>2026-04-17T07:31:13.961Z</time></trkpt><trkpt lat="43.8400551" lon="11.2567317"><ele>340.8</ele><time>2026-04-17T07:31:14.959Z</time></trkpt><trkpt lat="43.8399589" lon="11.2566966"><ele>340.2</ele><time>2026-04-17T07:31:15.958Z</time></trkpt><trkpt lat="43.8398723" lon="11.2566594"><ele>339.6</ele><time>2026-04-17T07:31:16.965Z</time></trkpt><trkpt lat="43.8397848" lon="11.2566356"><ele>339.0</ele><time>2026-04-17T07:31:17.962Z</time></trkpt><trkpt lat="43.8396887" lon="11.2566049"><ele>339.0</ele><time>2026-04-17T07:31:18.97Z</time></trkpt><trkpt lat="43.8395955" lon="11.2565558"><ele>339.0</ele><time>2026-04-17T07:31:19.957Z</time></trkpt><trkpt lat="43.8394919" lon="11.2565111"><ele>339.0</ele><time>2026-04-17T07:31:20.957Z</time></trkpt><trkpt lat="43.839388" lon="11.2564726"><ele>339.0</ele><time>2026-04-17T07:31:21.964Z</time></trkpt><trkpt lat="43.8392861" lon="11.2564246"><ele>339.0</ele><time>2026-04-17T07:31:22.959Z</time></trkpt><trkpt lat="43.8391697" lon="11.2563442"><ele>339.25</ele><time>2026-04-17T07:31:23.966Z</time></trkpt><trkpt lat="43.8390743" lon="11.2562528"><ele>339.5</ele><time>2026-04-17T07:31:24.957Z</time></trkpt><trkpt lat="43.838983" lon="11.2561551"><ele>339.75</ele><time>2026-04-17T07:31:25.978Z</time></trkpt><trkpt lat="43.8389131" lon="11.2560428"><ele>340.0</ele><time>2026-04-17T07:31:26.969Z</time></trkpt><trkpt lat="43.8388579" lon="11.255905"><ele>340.0</ele><time>2026-04-17T07:31:27.972Z</time></trkpt><trkpt lat="43.838815" lon="11.2557583"><ele>340.0</ele><time>2026-04-17T07:31:28.964Z</time></trkpt><trkpt lat="43.8387539" lon="11.2556343"><ele>340.0</ele><time>2026-04-17T07:31:29.941Z</time></trkpt><trkpt lat="43.8386869" lon="11.2554922"><ele>340.0</ele><time>2026-04-17T07:31:30.952Z</time></trkpt><trkpt lat="43.838616" lon="11.2553406"><ele>341.0</ele><time>2026-04-17T07:31:31.972Z</time></trkpt><trkpt lat="43.8385468" lon="11.2552186"><ele>342.0</ele><time>2026-04-17T07:31:32.964Z</time></trkpt><trkpt lat="43.8384531" lon="11.2551"><ele>343.0</ele><time>2026-04-17T07:31:33.954Z</time></trkpt><trkpt lat="43.8383551" lon="11.2550089"><ele>344.0</ele><time>2026-04-17T07:31:34.961Z</time></trkpt><trkpt lat="43.8382385" lon="11.2549234"><ele>343.0</ele><time>2026-04-17T07:31:35.948Z</time></trkpt><trkpt lat="43.8381162" lon="11.254838"><ele>342.0</ele><time>2026-04-17T07:31:36.962Z</time></trkpt><trkpt lat="43.8379994" lon="11.2547397"><ele>341.0</ele><time>2026-04-17T07:31:37.955Z</time></trkpt><trkpt lat="43.837884" lon="11.2546584"><ele>340.0</ele><time>2026-04-17T07:31:38.96Z</time></trkpt><trkpt lat="43.8377737" lon="11.2546014"><ele>340.0</ele><time>2026-04-17T07:31:39.961Z</time></trkpt><trkpt lat="43.8376557" lon="11.2545597"><ele>340.0</ele><time>2026-04-17T07:31:40.959Z</time></trkpt><trkpt lat="43.8375346" lon="11.2545242"><ele>340.0</ele><time>2026-04-17T07:31:41.964Z</time></trkpt><trkpt lat="43.8374157" lon="11.2544825"><ele>340.0</ele><time>2026-04-17T07:31:42.963Z</time></trkpt><trkpt lat="43.8372762" lon="11.254456"><ele>336.75</ele><time>2026-04-17T07:31:43.957Z</time></trkpt><trkpt lat="43.8371439" lon="11.2544298"><ele>333.5</ele><time>2026-04-17T07:31:44.961Z</time></trkpt><trkpt lat="43.8370321" lon="11.2544588"><ele>330.25</ele><time>2026-04-17T07:31:45.972Z</time></trkpt><trkpt lat="43.8369272" lon="11.2544927"><ele>327.0</ele><time>2026-04-17T07:31:46.94Z</time></trkpt><trkpt lat="43.8368278" lon="11.2545058"><ele>326.5</ele><time>2026-04-17T07:31:47.963Z</time></trkpt><trkpt lat="43.836732" lon="11.2545187"><ele>326.0</ele><time>2026-04-17T07:31:48.965Z</time></trkpt><trkpt lat="43.8366542" lon="11.2544973"><ele>325.5</ele><time>2026-04-17T07:31:49.965Z</time></trkpt><trkpt lat="43.8365545" lon="11.2544462"><ele>325.0</ele><time>2026-04-17T07:31:50.972Z</time></trkpt><trkpt lat="43.8364811" lon="11.2543899"><ele>324.5</ele><time>2026-04-17T07:31:51.966Z</time></trkpt><trkpt lat="43.8364038" lon="11.2543569"><ele>324.0</ele><time>2026-04-17T07:31:52.969Z</time></trkpt><trkpt lat="43.8363317" lon="11.2543175"><ele>324.0</ele><time>2026-04-17T07:31:53.961Z</time></trkpt><trkpt lat="43.8362563" lon="11.2542645"><ele>324.0</ele><time>2026-04-17T07:31:54.97Z</time></trkpt><trkpt lat="43.8361717" lon="11.2542169"><ele>324.0</ele><time>2026-04-17T07:31:55.974Z</time></trkpt><trkpt lat="43.8360852" lon="11.2541583"><ele>324.0</ele><time>2026-04-17T07:31:56.963Z</time></trkpt><trkpt lat="43.8360007" lon="11.2540909"><ele>324.0</ele><time>2026-04-17T07:31:57.955Z</time></trkpt><trkpt lat="43.8359278" lon="11.2540293"><ele>322.59999999999997</ele><time>2026-04-17T07:31:58.97Z</time></trkpt><trkpt lat="43.835863" lon="11.2539561"><ele>321.2</ele><time>2026-04-17T07:31:59.972Z</time></trkpt><trkpt lat="43.8357944" lon="11.2538687"><ele>319.79999999999995</ele><time>2026-04-17T07:32:00.963Z</time></trkpt><trkpt lat="43.835722" lon="11.2537709"><ele>318.4</ele><time>2026-04-17T07:32:01.955Z</time></trkpt><trkpt lat="43.8356505" lon="11.2536697"><ele>317.0</ele><time>2026-04-17T07:32:02.961Z</time></trkpt><trkpt lat="43.8355868" lon="11.2535546"><ele>320.4</ele><time>2026-04-17T07:32:03.963Z</time></trkpt><trkpt lat="43.8355231" lon="11.2534437"><ele>323.79999999999995</ele><time>2026-04-17T07:32:04.958Z</time></trkpt><trkpt lat="43.83545" lon="11.2533492"><ele>327.2</ele><time>2026-04-17T07:32:05.959Z</time></trkpt><trkpt lat="43.8353947" lon="11.2532395"><ele>330.59999999999997</ele><time>2026-04-17T07:32:06.953Z</time></trkpt><trkpt lat="43.8353493" lon="11.2531233"><ele>334.0</ele><time>2026-04-17T07:32:07.963Z</time></trkpt><trkpt lat="43.8353233" lon="11.2530129"><ele>334.8333333333333</ele><time>2026-04-17T07:32:08.968Z</time></trkpt><trkpt lat="43.8353003" lon="11.2528892"><ele>335.66666666666663</ele><time>2026-04-17T07:32:09.957Z</time></trkpt><trkpt lat="43.8352857" lon="11.2527774"><ele>336.5</ele><time>2026-04-17T07:32:10.974Z</time></trkpt><trkpt lat="43.8352711" lon="11.2526601"><ele>337.3333333333333</ele><time>2026-04-17T07:32:11.958Z</time></trkpt><trkpt lat="43.8352657" lon="11.2525466"><ele>338.1666666666667</ele><time>2026-04-17T07:32:12.961Z</time></trkpt><trkpt lat="43.8352592" lon="11.2524391"><ele>339.0</ele><time>2026-04-17T07:32:13.96Z</time></trkpt><trkpt lat="43.8352485" lon="11.2523295"><ele>338.6</ele><time>2026-04-17T07:32:14.964Z</time></trkpt><trkpt lat="43.8352476" lon="11.2522242"><ele>338.2</ele><time>2026-04-17T07:32:15.969Z</time></trkpt><trkpt lat="43.8352392" lon="11.2520972"><ele>337.8</ele><time>2026-04-17T07:32:16.962Z</time></trkpt><trkpt lat="43.835237" lon="11.2519496"><ele>337.40000000000003</ele><time>2026-04-17T07:32:17.969Z</time></trkpt><trkpt lat="43.8352374" lon="11.2517962"><ele>337.0</ele><time>2026-04-17T07:32:18.968Z</time></trkpt><trkpt lat="43.8352402" lon="11.2516533"><ele>337.0</ele><time>2026-04-17T07:32:19.962Z</time></trkpt><trkpt lat="43.8352362" lon="11.2515165"><ele>337.0</ele><time>2026-04-17T07:32:20.966Z</time></trkpt><trkpt lat="43.8352188" lon="11.2513893"><ele>337.0</ele><time>2026-04-17T07:32:21.968Z</time></trkpt><trkpt lat="43.8351636" lon="11.2512869"><ele>337.0</ele><time>2026-04-17T07:32:22.963Z</time></trkpt><trkpt lat="43.8351051" lon="11.2512032"><ele>337.0</ele><time>2026-04-17T07:32:23.965Z</time></trkpt><trkpt lat="43.8350356" lon="11.2511315"><ele>333.8</ele><time>2026-04-17T07:32:24.961Z</time></trkpt><trkpt lat="43.8349417" lon="11.251057"><ele>330.6</ele><time>2026-04-17T07:32:25.962Z</time></trkpt><trkpt lat="43.834851" lon="11.2509854"><ele>327.40000000000003</ele><time>2026-04-17T07:32:26.962Z</time></trkpt><trkpt lat="43.834763" lon="11.25091"><ele>324.20000000000005</ele><time>2026-04-17T07:32:27.963Z</time></trkpt><trkpt lat="43.8346789" lon="11.250849"><ele>321.0</ele><time>2026-04-17T07:32:28.959Z</time></trkpt><trkpt lat="43.8346042" lon="11.2507927"><ele>321.0</ele><time>2026-04-17T07:32:29.971Z</time></trkpt><trkpt lat="43.8345395" lon="11.2507477"><ele>321.0</ele><time>2026-04-17T07:32:30.953Z</time></trkpt><trkpt lat="43.8344789" lon="11.2506882"><ele>321.0</ele><time>2026-04-17T07:32:31.969Z</time></trkpt><trkpt lat="43.8344262" lon="11.250593"><ele>321.0</ele><time>2026-04-17T07:32:32.96Z</time></trkpt><trkpt lat="43.8343636" lon="11.250488"><ele>321.0</ele><time>2026-04-17T07:32:33.959Z</time></trkpt><trkpt lat="43.834296" lon="11.250411"><ele>321.0</ele><time>2026-04-17T07:32:34.961Z</time></trkpt><trkpt lat="43.8342252" lon="11.2503152"><ele>319.6</ele><time>2026-04-17T07:32:35.963Z</time></trkpt><trkpt lat="43.8341591" lon="11.2502147"><ele>318.20000000000005</ele><time>2026-04-17T07:32:36.955Z</time></trkpt><trkpt lat="43.8340893" lon="11.2501037"><ele>316.79999999999995</ele><time>2026-04-17T07:32:37.958Z</time></trkpt><trkpt lat="43.8340213" lon="11.2499913"><ele>315.4</ele><time>2026-04-17T07:32:38.954Z</time></trkpt><trkpt lat="43.8339465" lon="11.2498924"><ele>314.0</ele><time>2026-04-17T07:32:39.955Z</time></trkpt><trkpt lat="43.8338665" lon="11.2498002"><ele>313.8</ele><time>2026-04-17T07:32:40.96Z</time></trkpt><trkpt lat="43.8337909" lon="11.2497014"><ele>313.59999999999997</ele><time>2026-04-17T07:32:41.958Z</time></trkpt><trkpt lat="43.8337329" lon="11.2496005"><ele>313.4</ele><time>2026-04-17T07:32:42.967Z</time></trkpt><trkpt lat="43.8336939" lon="11.2494912"><ele>313.2</ele><time>2026-04-17T07:32:43.956Z</time></trkpt><trkpt lat="43.833664" lon="11.2493606"><ele>313.0</ele><time>2026-04-17T07:32:44.965Z</time></trkpt><trkpt lat="43.8336431" lon="11.2492291"><ele>313.0</ele><time>2026-04-17T07:32:45.963Z</time></trkpt><trkpt lat="43.8336137" lon="11.2490891"><ele>313.0</ele><time>2026-04-17T07:32:46.946Z</time></trkpt><trkpt lat="43.833582" lon="11.2489491"><ele>313.0</ele><time>2026-04-17T07:32:47.956Z</time></trkpt><trkpt lat="43.8335517" lon="11.2488008"><ele>313.0</ele><time>2026-04-17T07:32:48.964Z</time></trkpt><trkpt lat="43.8335164" lon="11.2486503"><ele>313.0</ele><time>2026-04-17T07:32:49.97Z</time></trkpt><trkpt lat="43.8334795" lon="11.2485011"><ele>311.2</ele><time>2026-04-17T07:32:50.961Z</time></trkpt><trkpt lat="43.8334446" lon="11.2483665"><ele>309.4</ele><time>2026-04-17T07:32:51.961Z</time></trkpt><trkpt lat="43.8334074" lon="11.2482203"><ele>307.59999999999997</ele><time>2026-04-17T07:32:52.966Z</time></trkpt><trkpt lat="43.8333711" lon="11.2480856"><ele>305.8</ele><time>2026-04-17T07:32:53.971Z</time></trkpt><trkpt lat="43.8333356" lon="11.2479578"><ele>304.0</ele><time>2026-04-17T07:32:54.969Z</time></trkpt><trkpt lat="43.833294" lon="11.2478277"><ele>304.0</ele><time>2026-04-17T07:32:55.96Z</time></trkpt><trkpt lat="43.8332604" lon="11.2476981"><ele>304.0</ele><time>2026-04-17T07:32:56.963Z</time></trkpt><trkpt lat="43.8332265" lon="11.2475793"><ele>304.0</ele><time>2026-04-17T07:32:57.959Z</time></trkpt><trkpt lat="43.833195" lon="11.2474648"><ele>304.0</ele><time>2026-04-17T07:32:58.969Z</time></trkpt><trkpt lat="43.8331646" lon="11.2473534"><ele>304.0</ele><time>2026-04-17T07:32:59.961Z</time></trkpt><trkpt lat="43.8331356" lon="11.247247"><ele>304.0</ele><time>2026-04-17T07:33:00.956Z</time></trkpt><trkpt lat="43.8331099" lon="11.2471429"><ele>304.0</ele><time>2026-04-17T07:33:01.97Z</time></trkpt><trkpt lat="43.8330861" lon="11.2470575"><ele>304.0</ele><time>2026-04-17T07:33:02.96Z</time></trkpt><trkpt lat="43.8330063" lon="11.2469286"><ele>304.0</ele><time>2026-04-17T07:33:04.966Z</time></trkpt><trkpt lat="43.8329309" lon="11.246906"><ele>304.0</ele><time>2026-04-17T07:33:05.965Z</time></trkpt><trkpt lat="43.8328335" lon="11.2469072"><ele>304.0</ele><time>2026-04-17T07:33:06.948Z</time></trkpt><trkpt lat="43.8327339" lon="11.2469125"><ele>301.2</ele><time>2026-04-17T07:33:07.953Z</time></trkpt><trkpt lat="43.8326337" lon="11.2469123"><ele>298.4</ele><time>2026-04-17T07:33:08.964Z</time></trkpt><trkpt lat="43.8325439" lon="11.2469113"><ele>295.6</ele><time>2026-04-17T07:33:09.953Z</time></trkpt><trkpt lat="43.8324591" lon="11.2469"><ele>292.8</ele><time>2026-04-17T07:33:10.963Z</time></trkpt><trkpt lat="43.8323683" lon="11.2468914"><ele>290.0</ele><time>2026-04-17T07:33:11.961Z</time></trkpt><trkpt lat="43.8322822" lon="11.246882"><ele>290.0</ele><time>2026-04-17T07:33:12.958Z</time></trkpt><trkpt lat="43.8322" lon="11.2468739"><ele>290.0</ele><time>2026-04-17T07:33:13.965Z</time></trkpt><trkpt lat="43.8321251" lon="11.2468811"><ele>290.0</ele><time>2026-04-17T07:33:14.965Z</time></trkpt><trkpt lat="43.8320621" lon="11.2469461"><ele>290.0</ele><time>2026-04-17T07:33:15.969Z</time></trkpt><trkpt lat="43.8320347" lon="11.2470339"><ele>290.0</ele><time>2026-04-17T07:33:16.957Z</time></trkpt><trkpt lat="43.8320001" lon="11.2471338"><ele>290.0</ele><time>2026-04-17T07:33:17.949Z</time></trkpt><trkpt lat="43.8319647" lon="11.2472136"><ele>290.6666666666667</ele><time>2026-04-17T07:33:18.94Z</time></trkpt><trkpt lat="43.8319157" lon="11.2473042"><ele>291.33333333333337</ele><time>2026-04-17T07:33:19.962Z</time></trkpt><trkpt lat="43.8318617" lon="11.2473916"><ele>292.0</ele><time>2026-04-17T07:33:20.964Z</time></trkpt><trkpt lat="43.8318093" lon="11.2474594"><ele>292.6666666666667</ele><time>2026-04-17T07:33:21.958Z</time></trkpt><trkpt lat="43.831745" lon="11.2474824"><ele>293.3333333333333</ele><time>2026-04-17T07:33:22.957Z</time></trkpt><trkpt lat="43.8316573" lon="11.2474874"><ele>294.0</ele><time>2026-04-17T07:33:23.961Z</time></trkpt><trkpt lat="43.8315654" lon="11.2474663"><ele>292.2</ele><time>2026-04-17T07:33:24.965Z</time></trkpt><trkpt lat="43.8314814" lon="11.2474317"><ele>290.4</ele><time>2026-04-17T07:33:25.963Z</time></trkpt><trkpt lat="43.8313938" lon="11.2473936"><ele>288.6</ele><time>2026-04-17T07:33:26.966Z</time></trkpt><trkpt lat="43.8312951" lon="11.247346"><ele>286.8</ele><time>2026-04-17T07:33:27.966Z</time></trkpt><trkpt lat="43.8312018" lon="11.2472866"><ele>285.0</ele><time>2026-04-17T07:33:28.964Z</time></trkpt><trkpt lat="43.8311191" lon="11.2472346"><ele>284.1666666666667</ele><time>2026-04-17T07:33:29.962Z</time></trkpt><trkpt lat="43.8310588" lon="11.2471905"><ele>283.3333333333333</ele><time>2026-04-17T07:33:30.964Z</time></trkpt><trkpt lat="43.8309947" lon="11.2471457"><ele>282.5</ele><time>2026-04-17T07:33:31.968Z</time></trkpt><trkpt lat="43.8308947" lon="11.2470227"><ele>281.66666666666663</ele><time>2026-04-17T07:33:33.962Z</time></trkpt><trkpt lat="43.8308402" lon="11.2469471"><ele>280.8333333333333</ele><time>2026-04-17T07:33:34.961Z</time></trkpt><trkpt lat="43.830793" lon="11.2468622"><ele>280.0</ele><time>2026-04-17T07:33:35.962Z</time></trkpt><trkpt lat="43.8307533" lon="11.2467922"><ele>277.8</ele><time>2026-04-17T07:33:36.964Z</time></trkpt><trkpt lat="43.8307222" lon="11.246654"><ele>275.6</ele><time>2026-04-17T07:33:38.963Z</time></trkpt><trkpt lat="43.8307287" lon="11.2465209"><ele>273.4</ele><time>2026-04-17T07:33:40.955Z</time></trkpt><trkpt lat="43.8307256" lon="11.2463524"><ele>271.2</ele><time>2026-04-17T07:33:55.958Z</time></trkpt><trkpt lat="43.8307286" lon="11.2462538"><ele>269.0</ele><time>2026-04-17T07:33:56.963Z</time></trkpt><trkpt lat="43.8307224" lon="11.2461342"><ele>268.59999999999997</ele><time>2026-04-17T07:33:57.968Z</time></trkpt><trkpt lat="43.8307236" lon="11.2459979"><ele>268.2</ele><time>2026-04-17T07:33:58.967Z</time></trkpt><trkpt lat="43.8307212" lon="11.2458663"><ele>267.79999999999995</ele><time>2026-04-17T07:33:59.955Z</time></trkpt><trkpt lat="43.8307203" lon="11.2457593"><ele>267.4</ele><time>2026-04-17T07:34:00.966Z</time></trkpt><trkpt lat="43.8307335" lon="11.2456627"><ele>267.0</ele><time>2026-04-17T07:34:01.966Z</time></trkpt><trkpt lat="43.830795" lon="11.2455081"><ele>267.8333333333333</ele><time>2026-04-17T07:34:03.969Z</time></trkpt><trkpt lat="43.8308351" lon="11.2454277"><ele>268.6666666666667</ele><time>2026-04-17T07:34:04.958Z</time></trkpt><trkpt lat="43.8308691" lon="11.2453222"><ele>269.5</ele><time>2026-04-17T07:34:05.967Z</time></trkpt><trkpt lat="43.8309015" lon="11.24521"><ele>270.33333333333337</ele><time>2026-04-17T07:34:06.958Z</time></trkpt><trkpt lat="43.8309303" lon="11.2451142"><ele>271.1666666666667</ele><time>2026-04-17T07:34:07.972Z</time></trkpt><trkpt lat="43.8309437" lon="11.2450148"><ele>272.0</ele><time>2026-04-17T07:34:10.979Z</time></trkpt><trkpt lat="43.8310298" lon="11.2450632"><ele>274.57142857142856</ele><time>2026-04-17T07:34:18.959Z</time></trkpt><trkpt lat="43.8311075" lon="11.2451202"><ele>277.1428571428571</ele><time>2026-04-17T07:34:21.956Z</time></trkpt><trkpt lat="43.8311729" lon="11.2451497"><ele>279.7142857142857</ele><time>2026-04-17T07:34:23.963Z</time></trkpt><trkpt lat="43.8312436" lon="11.24518"><ele>282.2857142857143</ele><time>2026-04-17T07:34:25.973Z</time></trkpt><trkpt lat="43.8313065" lon="11.2452061"><ele>284.8571428571429</ele><time>2026-04-17T07:34:27.966Z</time></trkpt><trkpt lat="43.8313684" lon="11.2452256"><ele>287.42857142857144</ele><time>2026-04-17T07:34:29.96Z</time></trkpt><trkpt lat="43.8314339" lon="11.2452194"><ele>290.0</ele><time>2026-04-17T07:34:31.964Z</time></trkpt><trkpt lat="43.8314982" lon="11.2452385"><ele>290.0</ele><time>2026-04-17T07:34:33.962Z</time></trkpt><trkpt lat="43.8315943" lon="11.2452481"><ele>290.0</ele><time>2026-04-17T07:34:36.98Z</time></trkpt><trkpt lat="43.8316636" lon="11.2452614"><ele>290.0</ele><time>2026-04-17T07:34:38.965Z</time></trkpt><trkpt lat="43.8317379" lon="11.2453154"><ele>290.0</ele><time>2026-04-17T07:34:40.959Z</time></trkpt><trkpt lat="43.8318032" lon="11.2453488"><ele>290.0</ele><time>2026-04-17T07:34:42.961Z</time></trkpt><trkpt lat="43.8318818" lon="11.2453966"><ele>290.0</ele><time>2026-04-17T07:34:44.952Z</time></trkpt><trkpt lat="43.8319547" lon="11.2454295"><ele>290.42857142857144</ele><time>2026-04-17T07:34:46.956Z</time></trkpt><trkpt lat="43.8320246" lon="11.2454587"><ele>290.8571428571429</ele><time>2026-04-17T07:34:48.96Z</time></trkpt><trkpt lat="43.8320915" lon="11.2454956"><ele>291.2857142857143</ele><time>2026-04-17T07:34:50.961Z</time></trkpt><trkpt lat="43.8321561" lon="11.2455455"><ele>291.7142857142857</ele><time>2026-04-17T07:34:52.956Z</time></trkpt><trkpt lat="43.8322194" lon="11.2455885"><ele>292.1428571428571</ele><time>2026-04-17T07:34:54.957Z</time></trkpt><trkpt lat="43.8322519" lon="11.2456786"><ele>292.57142857142856</ele><time>2026-04-17T07:35:30.974Z</time></trkpt><trkpt lat="43.8322882" lon="11.2457578"><ele>293.0</ele><time>2026-04-17T07:35:42.961Z</time></trkpt><trkpt lat="43.8322344" lon="11.2458146"><ele>292.99999999999994</ele><time>2026-04-17T07:36:30.969Z</time></trkpt><trkpt lat="43.8322029" lon="11.2457122"><ele>293.0</ele><time>2026-04-17T07:37:26.958Z</time></trkpt><trkpt lat="43.8321502" lon="11.2456581"><ele>293.0</ele><time>2026-04-17T07:37:29.956Z</time></trkpt><trkpt lat="43.8320899" lon="11.2456142"><ele>293.0</ele><time>2026-04-17T07:37:32.954Z</time></trkpt><trkpt lat="43.8320276" lon="11.2455858"><ele>293.0</ele><time>2026-04-17T07:37:35.966Z</time></trkpt><trkpt lat="43.8319596" lon="11.2455465"><ele>292.99999999999994</ele><time>2026-04-17T07:37:38.953Z</time></trkpt><trkpt lat="43.8318879" lon="11.2455202"><ele>293.0</ele><time>2026-04-17T07:37:41.959Z</time></trkpt><trkpt lat="43.8318198" lon="11.2455111"><ele>292.5</ele><time>2026-04-17T07:37:43.967Z</time></trkpt><trkpt lat="43.8317474" lon="11.2454827"><ele>292.0</ele><time>2026-04-17T07:37:45.949Z</time></trkpt><trkpt lat="43.8316844" lon="11.2454512"><ele>291.5</ele><time>2026-04-17T07:37:47.953Z</time></trkpt><trkpt lat="43.8316141" lon="11.2454117"><ele>291.0</ele><time>2026-04-17T07:37:49.967Z</time></trkpt><trkpt lat="43.8315464" lon="11.2453733"><ele>290.5</ele><time>2026-04-17T07:37:51.962Z</time></trkpt><trkpt lat="43.8314725" lon="11.2453195"><ele>290.0</ele><time>2026-04-17T07:37:53.942Z</time></trkpt><trkpt lat="43.8314014" lon="11.2452641"><ele>290.0</ele><time>2026-04-17T07:37:55.957Z</time></trkpt><trkpt lat="43.8313359" lon="11.2452239"><ele>290.0</ele><time>2026-04-17T07:38:00.961Z</time></trkpt><trkpt lat="43.831266" lon="11.2451835"><ele>290.0</ele><time>2026-04-17T07:38:09.965Z</time></trkpt><trkpt lat="43.8311931" lon="11.2451202"><ele>290.0</ele><time>2026-04-17T07:38:12.977Z</time></trkpt><trkpt lat="43.831101" lon="11.2450606"><ele>290.0</ele><time>2026-04-17T07:38:14.953Z</time></trkpt><trkpt lat="43.8310211" lon="11.2450029"><ele>290.0</ele><time>2026-04-17T07:38:15.961Z</time></trkpt><trkpt lat="43.8309318" lon="11.2449314"><ele>290.2</ele><time>2026-04-17T07:38:16.955Z</time></trkpt><trkpt lat="43.830838" lon="11.2448501"><ele>290.4</ele><time>2026-04-17T07:38:17.963Z</time></trkpt><trkpt lat="43.8307655" lon="11.2447739"><ele>290.6</ele><time>2026-04-17T07:38:18.961Z</time></trkpt><trkpt lat="43.8306806" lon="11.2446821"><ele>290.8</ele><time>2026-04-17T07:38:19.967Z</time></trkpt><trkpt lat="43.830586" lon="11.2445829"><ele>291.0</ele><time>2026-04-17T07:38:20.963Z</time></trkpt><trkpt lat="43.8304895" lon="11.2444848"><ele>291.0</ele><time>2026-04-17T07:38:21.965Z</time></trkpt><trkpt lat="43.8303918" lon="11.2443875"><ele>291.0</ele><time>2026-04-17T07:38:22.966Z</time></trkpt><trkpt lat="43.8302836" lon="11.2442892"><ele>291.0</ele><time>2026-04-17T07:38:23.958Z</time></trkpt><trkpt lat="43.8301803" lon="11.2441909"><ele>291.0</ele><time>2026-04-17T07:38:24.972Z</time></trkpt><trkpt lat="43.8300674" lon="11.2440813"><ele>289.75</ele><time>2026-04-17T07:38:25.951Z</time></trkpt><trkpt lat="43.8299659" lon="11.2439792"><ele>288.5</ele><time>2026-04-17T07:38:26.956Z</time></trkpt><trkpt lat="43.8298637" lon="11.243878"><ele>287.25</ele><time>2026-04-17T07:38:27.966Z</time></trkpt><trkpt lat="43.8297674" lon="11.2437805"><ele>286.0</ele><time>2026-04-17T07:38:28.95Z</time></trkpt><trkpt lat="43.8296753" lon="11.2436845"><ele>286.0</ele><time>2026-04-17T07:38:29.953Z</time></trkpt><trkpt lat="43.8295836" lon="11.2435963"><ele>286.0</ele><time>2026-04-17T07:38:30.952Z</time></trkpt><trkpt lat="43.8295048" lon="11.2435095"><ele>286.0</ele><time>2026-04-17T07:38:31.953Z</time></trkpt><trkpt lat="43.8294305" lon="11.2434158"><ele>286.0</ele><time>2026-04-17T07:38:32.961Z</time></trkpt><trkpt lat="43.8293654" lon="11.2433175"><ele>286.0</ele><time>2026-04-17T07:38:33.966Z</time></trkpt><trkpt lat="43.8293014" lon="11.2432252"><ele>282.8</ele><time>2026-04-17T07:38:34.963Z</time></trkpt><trkpt lat="43.8292377" lon="11.2431288"><ele>279.6</ele><time>2026-04-17T07:38:35.977Z</time></trkpt><trkpt lat="43.8291798" lon="11.2430156"><ele>276.4</ele><time>2026-04-17T07:38:36.96Z</time></trkpt><trkpt lat="43.8291291" lon="11.2429061"><ele>273.2</ele><time>2026-04-17T07:38:37.961Z</time></trkpt><trkpt lat="43.8290843" lon="11.2427729"><ele>270.0</ele><time>2026-04-17T07:38:38.963Z</time></trkpt><trkpt lat="43.8290455" lon="11.2426438"><ele>270.0</ele><time>2026-04-17T07:38:39.962Z</time></trkpt><trkpt lat="43.8290127" lon="11.2425109"><ele>270.0</ele><time>2026-04-17T07:38:40.953Z</time></trkpt><trkpt lat="43.8289848" lon="11.2423675"><ele>270.0</ele><time>2026-04-17T07:38:41.964Z</time></trkpt><trkpt lat="43.8289628" lon="11.2422223"><ele>270.0</ele><time>2026-04-17T07:38:42.965Z</time></trkpt><trkpt lat="43.828941" lon="11.2420674"><ele>270.0</ele><time>2026-04-17T07:38:43.958Z</time></trkpt><trkpt lat="43.8289257" lon="11.2419319"><ele>268.6666666666667</ele><time>2026-04-17T07:38:44.958Z</time></trkpt><trkpt lat="43.8289102" lon="11.2418167"><ele>267.3333333333333</ele><time>2026-04-17T07:38:45.958Z</time></trkpt><trkpt lat="43.8288825" lon="11.2417139"><ele>266.0</ele><time>2026-04-17T07:38:46.964Z</time></trkpt><trkpt lat="43.8288318" lon="11.2416353"><ele>264.66666666666663</ele><time>2026-04-17T07:38:47.957Z</time></trkpt><trkpt lat="43.828774" lon="11.2415837"><ele>263.3333333333333</ele><time>2026-04-17T07:38:48.959Z</time></trkpt><trkpt lat="43.8287079" lon="11.241535"><ele>262.0</ele><time>2026-04-17T07:38:49.964Z</time></trkpt><trkpt lat="43.8286292" lon="11.2414834"><ele>259.0</ele><time>2026-04-17T07:38:50.965Z</time></trkpt><trkpt lat="43.8285462" lon="11.241435"><ele>256.0</ele><time>2026-04-17T07:38:51.97Z</time></trkpt><trkpt lat="43.8284615" lon="11.2413761"><ele>253.0</ele><time>2026-04-17T07:38:52.966Z</time></trkpt><trkpt lat="43.8283623" lon="11.2413075"><ele>250.0</ele><time>2026-04-17T07:38:53.957Z</time></trkpt><trkpt lat="43.8282764" lon="11.2412413"><ele>247.0</ele><time>2026-04-17T07:38:54.952Z</time></trkpt><trkpt lat="43.8281966" lon="11.2411881"><ele>245.85714285714286</ele><time>2026-04-17T07:38:55.943Z</time></trkpt><trkpt lat="43.828129" lon="11.2411454"><ele>244.71428571428572</ele><time>2026-04-17T07:38:56.95Z</time></trkpt><trkpt lat="43.8280672" lon="11.2410947"><ele>243.57142857142858</ele><time>2026-04-17T07:38:57.967Z</time></trkpt><trkpt lat="43.8280133" lon="11.2410336"><ele>242.42857142857144</ele><time>2026-04-17T07:38:58.962Z</time></trkpt><trkpt lat="43.8279608" lon="11.2409641"><ele>241.28571428571428</ele><time>2026-04-17T07:38:59.957Z</time></trkpt><trkpt lat="43.8279069" lon="11.240891"><ele>240.14285714285717</ele><time>2026-04-17T07:39:00.963Z</time></trkpt><trkpt lat="43.8278581" lon="11.2408157"><ele>239.00000000000003</ele><time>2026-04-17T07:39:01.962Z</time></trkpt><trkpt lat="43.8278093" lon="11.2407367"><ele>239.00000000000003</ele><time>2026-04-17T07:39:02.959Z</time></trkpt><trkpt lat="43.8277752" lon="11.2406574"><ele>239.0</ele><time>2026-04-17T07:39:03.964Z</time></trkpt><trkpt lat="43.8277436" lon="11.2405727"><ele>239.0</ele><time>2026-04-17T07:39:04.958Z</time></trkpt><trkpt lat="43.8276963" lon="11.240487"><ele>239.0</ele><time>2026-04-17T07:39:05.97Z</time></trkpt><trkpt lat="43.8276375" lon="11.2404023"><ele>239.00000000000003</ele><time>2026-04-17T07:39:06.969Z</time></trkpt><trkpt lat="43.8275687" lon="11.2403336"><ele>239.0</ele><time>2026-04-17T07:39:07.958Z</time></trkpt><trkpt lat="43.8275001" lon="11.2402436"><ele>236.0</ele><time>2026-04-17T07:39:08.966Z</time></trkpt><trkpt lat="43.8274181" lon="11.2401363"><ele>233.0</ele><time>2026-04-17T07:39:09.969Z</time></trkpt><trkpt lat="43.8273311" lon="11.2400299"><ele>230.0</ele><time>2026-04-17T07:39:10.969Z</time></trkpt><trkpt lat="43.8272392" lon="11.2399269"><ele>227.0</ele><time>2026-04-17T07:39:11.968Z</time></trkpt><trkpt lat="43.8271596" lon="11.2398363"><ele>225.2</ele><time>2026-04-17T07:39:12.959Z</time></trkpt><trkpt lat="43.8270744" lon="11.2397395"><ele>223.39999999999998</ele><time>2026-04-17T07:39:13.96Z</time></trkpt><trkpt lat="43.8269918" lon="11.239638"><ele>221.60000000000002</ele><time>2026-04-17T07:39:14.964Z</time></trkpt><trkpt lat="43.8269117" lon="11.2395337"><ele>219.8</ele><time>2026-04-17T07:39:15.964Z</time></trkpt><trkpt lat="43.8268354" lon="11.2394319"><ele>218.0</ele><time>2026-04-17T07:39:16.959Z</time></trkpt><trkpt lat="43.826752" lon="11.2393278"><ele>217.60000000000002</ele><time>2026-04-17T07:39:17.968Z</time></trkpt><trkpt lat="43.8266718" lon="11.2392279"><ele>217.20000000000002</ele><time>2026-04-17T07:39:18.956Z</time></trkpt><trkpt lat="43.8266027" lon="11.2391201"><ele>216.8</ele><time>2026-04-17T07:39:19.973Z</time></trkpt><trkpt lat="43.8265323" lon="11.2390001"><ele>216.4</ele><time>2026-04-17T07:39:20.965Z</time></trkpt><trkpt lat="43.826466" lon="11.238873"><ele>216.0</ele><time>2026-04-17T07:39:21.965Z</time></trkpt><trkpt lat="43.8264029" lon="11.2387466"><ele>213.5</ele><time>2026-04-17T07:39:22.962Z</time></trkpt><trkpt lat="43.8263451" lon="11.2386138"><ele>211.0</ele><time>2026-04-17T07:39:23.961Z</time></trkpt><trkpt lat="43.8262951" lon="11.238477"><ele>208.5</ele><time>2026-04-17T07:39:24.965Z</time></trkpt><trkpt lat="43.8262493" lon="11.2383338"><ele>206.0</ele><time>2026-04-17T07:39:25.974Z</time></trkpt><trkpt lat="43.8261944" lon="11.2381844"><ele>204.66666666666669</ele><time>2026-04-17T07:39:26.965Z</time></trkpt><trkpt lat="43.8261487" lon="11.2380576"><ele>203.33333333333334</ele><time>2026-04-17T07:39:27.961Z</time></trkpt><trkpt lat="43.8261088" lon="11.2379619"><ele>202.0</ele><time>2026-04-17T07:39:28.965Z</time></trkpt><trkpt lat="43.8260639" lon="11.237836"><ele>200.66666666666669</ele><time>2026-04-17T07:39:30.969Z</time></trkpt><trkpt lat="43.8261385" lon="11.2378016"><ele>199.33333333333334</ele><time>2026-04-17T07:39:34.976Z</time></trkpt><trkpt lat="43.8262017" lon="11.2377893"><ele>198.0</ele><time>2026-04-17T07:39:36.961Z</time></trkpt><trkpt lat="43.8262774" lon="11.2377675"><ele>198.0</ele><time>2026-04-17T07:39:39.957Z</time></trkpt><trkpt lat="43.8263437" lon="11.2377662"><ele>198.0</ele><time>2026-04-17T07:40:12.958Z</time></trkpt><trkpt lat="43.8264561" lon="11.2377544"><ele>198.0</ele><time>2026-04-17T07:40:15.959Z</time></trkpt><trkpt lat="43.8265603" lon="11.2377463"><ele>198.0</ele><time>2026-04-17T07:40:17.965Z</time></trkpt><trkpt lat="43.8266627" lon="11.2377284"><ele>198.0</ele><time>2026-04-17T07:40:19.969Z</time></trkpt><trkpt lat="43.8267873" lon="11.237706"><ele>199.33333333333334</ele><time>2026-04-17T07:40:21.974Z</time></trkpt><trkpt lat="43.8268545" lon="11.2376886"><ele>200.66666666666669</ele><time>2026-04-17T07:40:22.966Z</time></trkpt><trkpt lat="43.8269292" lon="11.2376701"><ele>202.0</ele><time>2026-04-17T07:40:23.976Z</time></trkpt><trkpt lat="43.827004" lon="11.2376573"><ele>203.33333333333334</ele><time>2026-04-17T07:40:24.953Z</time></trkpt><trkpt lat="43.827083" lon="11.2376404"><ele>204.66666666666669</ele><time>2026-04-17T07:40:25.968Z</time></trkpt><trkpt lat="43.8271654" lon="11.2376187"><ele>206.0</ele><time>2026-04-17T07:40:26.965Z</time></trkpt><trkpt lat="43.8272402" lon="11.2375912"><ele>206.00000000000003</ele><time>2026-04-17T07:40:27.968Z</time></trkpt><trkpt lat="43.8273159" lon="11.2375724"><ele>206.0</ele><time>2026-04-17T07:40:28.962Z</time></trkpt><trkpt lat="43.8273852" lon="11.2375577"><ele>206.0</ele><time>2026-04-17T07:40:29.966Z</time></trkpt><trkpt lat="43.8274545" lon="11.2375411"><ele>206.0</ele><time>2026-04-17T07:40:30.969Z</time></trkpt><trkpt lat="43.8275199" lon="11.2375196"><ele>206.00000000000003</ele><time>2026-04-17T07:40:31.966Z</time></trkpt><trkpt lat="43.8275893" lon="11.2374955"><ele>206.0</ele><time>2026-04-17T07:40:32.964Z</time></trkpt><trkpt lat="43.8276871" lon="11.237471"><ele>206.60000000000002</ele><time>2026-04-17T07:40:34.96Z</time></trkpt><trkpt lat="43.827786" lon="11.237438"><ele>207.2</ele><time>2026-04-17T07:40:36.962Z</time></trkpt><trkpt lat="43.8278687" lon="11.2373515"><ele>207.8</ele><time>2026-04-17T07:40:38.968Z</time></trkpt><trkpt lat="43.8279295" lon="11.2372245"><ele>208.39999999999998</ele><time>2026-04-17T07:40:40.968Z</time></trkpt><trkpt lat="43.8280023" lon="11.2371263"><ele>209.0</ele><time>2026-04-17T07:40:42.962Z</time></trkpt><trkpt lat="43.8280871" lon="11.2370857"><ele>208.14285714285714</ele><time>2026-04-17T07:40:44.975Z</time></trkpt><trkpt lat="43.8281518" lon="11.237078"><ele>207.28571428571428</ele><time>2026-04-17T07:40:45.975Z</time></trkpt><trkpt lat="43.8282195" lon="11.2370652"><ele>206.42857142857144</ele><time>2026-04-17T07:40:46.972Z</time></trkpt><trkpt lat="43.8282888" lon="11.2370338"><ele>205.57142857142856</ele><time>2026-04-17T07:40:47.96Z</time></trkpt><trkpt lat="43.828356" lon="11.2370036"><ele>204.71428571428572</ele><time>2026-04-17T07:40:48.962Z</time></trkpt><trkpt lat="43.8284269" lon="11.2369698"><ele>203.85714285714286</ele><time>2026-04-17T07:40:49.964Z</time></trkpt><trkpt lat="43.8284987" lon="11.236941"><ele>203.0</ele><time>2026-04-17T07:40:50.972Z</time></trkpt><trkpt lat="43.8285652" lon="11.2368992"><ele>205.00000000000003</ele><time>2026-04-17T07:40:51.97Z</time></trkpt><trkpt lat="43.8286241" lon="11.2368544"><ele>207.0</ele><time>2026-04-17T07:40:52.966Z</time></trkpt><trkpt lat="43.8286831" lon="11.2368076"><ele>209.0</ele><time>2026-04-17T07:40:53.957Z</time></trkpt><trkpt lat="43.8287364" lon="11.2367579"><ele>211.0</ele><time>2026-04-17T07:40:54.978Z</time></trkpt><trkpt lat="43.8287919" lon="11.2367143"><ele>213.00000000000003</ele><time>2026-04-17T07:40:55.958Z</time></trkpt><trkpt lat="43.8288913" lon="11.2366724"><ele>215.0</ele><time>2026-04-17T07:40:57.977Z</time></trkpt><trkpt lat="43.8289959" lon="11.2366863"><ele>215.0</ele><time>2026-04-17T07:40:59.97Z</time></trkpt><trkpt lat="43.8290929" lon="11.2366591"><ele>215.0</ele><time>2026-04-17T07:41:01.967Z</time></trkpt><trkpt lat="43.8291791" lon="11.236576"><ele>215.0</ele><time>2026-04-17T07:41:03.961Z</time></trkpt><trkpt lat="43.8292569" lon="11.2364575"><ele>215.0</ele><time>2026-04-17T07:41:05.961Z</time></trkpt><trkpt lat="43.8293425" lon="11.2363341"><ele>215.0</ele><time>2026-04-17T07:41:07.962Z</time></trkpt><trkpt lat="43.8293919" lon="11.2362799"><ele>215.83333333333334</ele><time>2026-04-17T07:41:08.951Z</time></trkpt><trkpt lat="43.8294418" lon="11.2362253"><ele>216.66666666666669</ele><time>2026-04-17T07:41:09.967Z</time></trkpt><trkpt lat="43.8295008" lon="11.2361725"><ele>217.5</ele><time>2026-04-17T07:41:10.958Z</time></trkpt><trkpt lat="43.8295623" lon="11.2361183"><ele>218.33333333333331</ele><time>2026-04-17T07:41:11.959Z</time></trkpt><trkpt lat="43.8296489" lon="11.2360199"><ele>219.16666666666666</ele><time>2026-04-17T07:41:13.97Z</time></trkpt><trkpt lat="43.8296922" lon="11.2359541"><ele>220.0</ele><time>2026-04-17T07:41:17.975Z</time></trkpt><trkpt lat="43.8296155" lon="11.2359129"><ele>220.0</ele><time>2026-04-17T07:41:20.95Z</time></trkpt><trkpt lat="43.8295247" lon="11.235838"><ele>220.0</ele><time>2026-04-17T07:41:22.961Z</time></trkpt><trkpt lat="43.8294272" lon="11.2357614"><ele>220.0</ele><time>2026-04-17T07:41:24.953Z</time></trkpt><trkpt lat="43.8293508" lon="11.2356904"><ele>220.0</ele><time>2026-04-17T07:41:26.963Z</time></trkpt><trkpt lat="43.8292711" lon="11.2356223"><ele>220.0</ele><time>2026-04-17T07:41:28.954Z</time></trkpt><trkpt lat="43.8291657" lon="11.2355416"><ele>217.0</ele><time>2026-04-17T07:41:30.953Z</time></trkpt><trkpt lat="43.8291125" lon="11.2354929"><ele>214.0</ele><time>2026-04-17T07:41:31.958Z</time></trkpt><trkpt lat="43.8290138" lon="11.2354115"><ele>211.0</ele><time>2026-04-17T07:41:33.959Z</time></trkpt><trkpt lat="43.8289141" lon="11.2353618"><ele>208.0</ele><time>2026-04-17T07:41:35.957Z</time></trkpt><trkpt lat="43.8287976" lon="11.2352723"><ele>205.0</ele><time>2026-04-17T07:41:37.945Z</time></trkpt><trkpt lat="43.8287284" lon="11.2352187"><ele>204.99999999999997</ele><time>2026-04-17T07:41:38.966Z</time></trkpt><trkpt lat="43.8286615" lon="11.2351686"><ele>205.0</ele><time>2026-04-17T07:41:39.973Z</time></trkpt><trkpt lat="43.8286041" lon="11.2351235"><ele>205.0</ele><time>2026-04-17T07:41:40.968Z</time></trkpt><trkpt lat="43.8285113" lon="11.2350528"><ele>205.0</ele><time>2026-04-17T07:41:42.973Z</time></trkpt><trkpt lat="43.8284532" lon="11.2349811"><ele>204.99999999999997</ele><time>2026-04-17T07:41:44.97Z</time></trkpt><trkpt lat="43.8284459" lon="11.2348943"><ele>205.0</ele><time>2026-04-17T07:41:46.961Z</time></trkpt><trkpt lat="43.8284544" lon="11.2347785"><ele>203.2857142857143</ele><time>2026-04-17T07:41:48.963Z</time></trkpt><trkpt lat="43.8284708" lon="11.2346803"><ele>201.57142857142856</ele><time>2026-04-17T07:41:49.962Z</time></trkpt><trkpt lat="43.8284886" lon="11.2345725"><ele>199.85714285714286</ele><time>2026-04-17T07:41:50.956Z</time></trkpt><trkpt lat="43.8284989" lon="11.2344813"><ele>198.14285714285717</ele><time>2026-04-17T07:41:51.96Z</time></trkpt><trkpt lat="43.828507" lon="11.2343848"><ele>196.42857142857144</ele><time>2026-04-17T07:41:52.971Z</time></trkpt><trkpt lat="43.8285256" lon="11.2342938"><ele>194.71428571428572</ele><time>2026-04-17T07:41:53.973Z</time></trkpt><trkpt lat="43.8285468" lon="11.2341965"><ele>193.0</ele><time>2026-04-17T07:41:54.966Z</time></trkpt><trkpt lat="43.8285836" lon="11.2341099"><ele>193.0</ele><time>2026-04-17T07:41:55.975Z</time></trkpt><trkpt lat="43.8286936" lon="11.2340008"><ele>193.0</ele><time>2026-04-17T07:41:57.972Z</time></trkpt><trkpt lat="43.8287749" lon="11.2339455"><ele>193.0</ele><time>2026-04-17T07:41:58.964Z</time></trkpt><trkpt lat="43.8288484" lon="11.2338889"><ele>193.0</ele><time>2026-04-17T07:41:59.967Z</time></trkpt><trkpt lat="43.8289015" lon="11.2338408"><ele>193.0</ele><time>2026-04-17T07:42:00.966Z</time></trkpt><trkpt lat="43.8289822" lon="11.2337172"><ele>192.66666666666666</ele><time>2026-04-17T07:42:02.957Z</time></trkpt><trkpt lat="43.8289271" lon="11.2335448"><ele>192.33333333333331</ele><time>2026-04-17T07:42:04.963Z</time></trkpt><trkpt lat="43.8288558" lon="11.2334829"><ele>192.0</ele><time>2026-04-17T07:42:05.971Z</time></trkpt><trkpt lat="43.828788" lon="11.2334436"><ele>191.66666666666666</ele><time>2026-04-17T07:42:06.967Z</time></trkpt><trkpt lat="43.828726" lon="11.2333864"><ele>191.33333333333331</ele><time>2026-04-17T07:42:07.953Z</time></trkpt><trkpt lat="43.8286556" lon="11.2333435"><ele>191.0</ele><time>2026-04-17T07:42:08.966Z</time></trkpt><trkpt lat="43.8285926" lon="11.2332931"><ele>191.0</ele><time>2026-04-17T07:42:09.957Z</time></trkpt><trkpt lat="43.8285378" lon="11.2332292"><ele>191.0</ele><time>2026-04-17T07:42:10.963Z</time></trkpt><trkpt lat="43.8284834" lon="11.2331641"><ele>191.0</ele><time>2026-04-17T07:42:11.955Z</time></trkpt><trkpt lat="43.8284348" lon="11.2330892"><ele>191.0</ele><time>2026-04-17T07:42:12.975Z</time></trkpt><trkpt lat="43.8283778" lon="11.2329938"><ele>191.0</ele><time>2026-04-17T07:42:13.948Z</time></trkpt><trkpt lat="43.8283276" lon="11.2328886"><ele>191.0</ele><time>2026-04-17T07:42:14.956Z</time></trkpt><trkpt lat="43.8282691" lon="11.2327851"><ele>190.60000000000002</ele><time>2026-04-17T07:42:15.957Z</time></trkpt><trkpt lat="43.8282149" lon="11.2326834"><ele>190.2</ele><time>2026-04-17T07:42:16.965Z</time></trkpt><trkpt lat="43.8281619" lon="11.2325732"><ele>189.8</ele><time>2026-04-17T07:42:17.949Z</time></trkpt><trkpt lat="43.8281129" lon="11.2324382"><ele>189.39999999999998</ele><time>2026-04-17T07:42:18.966Z</time></trkpt><trkpt lat="43.8280716" lon="11.232303"><ele>189.0</ele><time>2026-04-17T07:42:19.963Z</time></trkpt><trkpt lat="43.8280435" lon="11.2321753"><ele>189.0</ele><time>2026-04-17T07:42:20.966Z</time></trkpt><trkpt lat="43.8280084" lon="11.2320627"><ele>189.0</ele><time>2026-04-17T07:42:21.965Z</time></trkpt><trkpt lat="43.8279669" lon="11.2319576"><ele>189.0</ele><time>2026-04-17T07:42:22.951Z</time></trkpt><trkpt lat="43.8279148" lon="11.2318393"><ele>189.0</ele><time>2026-04-17T07:42:23.956Z</time></trkpt><trkpt lat="43.8278565" lon="11.2317145"><ele>189.0</ele><time>2026-04-17T07:42:24.963Z</time></trkpt><trkpt lat="43.8277913" lon="11.2315896"><ele>189.5</ele><time>2026-04-17T07:42:25.963Z</time></trkpt><trkpt lat="43.8277335" lon="11.2314705"><ele>190.0</ele><time>2026-04-17T07:42:26.956Z</time></trkpt><trkpt lat="43.827693" lon="11.2313686"><ele>190.5</ele><time>2026-04-17T07:42:27.956Z</time></trkpt><trkpt lat="43.8276634" lon="11.231284"><ele>191.0</ele><time>2026-04-17T07:42:28.958Z</time></trkpt><trkpt lat="43.8276401" lon="11.231188"><ele>191.5</ele><time>2026-04-17T07:42:29.97Z</time></trkpt><trkpt lat="43.8276311" lon="11.231062"><ele>192.0</ele><time>2026-04-17T07:42:30.972Z</time></trkpt><trkpt lat="43.8275985" lon="11.2309129"><ele>188.0</ele><time>2026-04-17T07:42:31.977Z</time></trkpt><trkpt lat="43.8275044" lon="11.230807"><ele>184.0</ele><time>2026-04-17T07:42:32.945Z</time></trkpt><trkpt lat="43.8274294" lon="11.2307098"><ele>180.0</ele><time>2026-04-17T07:42:33.964Z</time></trkpt><trkpt lat="43.8273681" lon="11.2305746"><ele>176.0</ele><time>2026-04-17T07:42:34.97Z</time></trkpt><trkpt lat="43.8273086" lon="11.2304368"><ele>176.0</ele><time>2026-04-17T07:42:35.961Z</time></trkpt><trkpt lat="43.8272428" lon="11.2302915"><ele>176.0</ele><time>2026-04-17T07:42:36.963Z</time></trkpt><trkpt lat="43.8271725" lon="11.2301676"><ele>176.0</ele><time>2026-04-17T07:42:37.968Z</time></trkpt><trkpt lat="43.8271034" lon="11.2300363"><ele>176.0</ele><time>2026-04-17T07:42:38.966Z</time></trkpt><trkpt lat="43.8270376" lon="11.2299074"><ele>176.0</ele><time>2026-04-17T07:42:39.976Z</time></trkpt><trkpt lat="43.8269787" lon="11.2297831"><ele>176.0</ele><time>2026-04-17T07:42:40.963Z</time></trkpt><trkpt lat="43.8269274" lon="11.2296563"><ele>176.0</ele><time>2026-04-17T07:42:41.958Z</time></trkpt><trkpt lat="43.8268825" lon="11.229556"><ele>176.0</ele><time>2026-04-17T07:42:42.963Z</time></trkpt><trkpt lat="43.826853" lon="11.2294709"><ele>176.0</ele><time>2026-04-17T07:42:43.971Z</time></trkpt><trkpt lat="43.8268398" lon="11.2293146"><ele>176.0</ele><time>2026-04-17T07:42:45.964Z</time></trkpt><trkpt lat="43.8269001" lon="11.2291519"><ele>176.0</ele><time>2026-04-17T07:42:47.967Z</time></trkpt><trkpt lat="43.826948" lon="11.2290494"><ele>176.0</ele><time>2026-04-17T07:42:48.971Z</time></trkpt><trkpt lat="43.8270056" lon="11.2289222"><ele>176.0</ele><time>2026-04-17T07:42:49.97Z</time></trkpt><trkpt lat="43.8270552" lon="11.2287926"><ele>176.0</ele><time>2026-04-17T07:42:50.973Z</time></trkpt><trkpt lat="43.8270997" lon="11.2286554"><ele>176.0</ele><time>2026-04-17T07:42:51.967Z</time></trkpt><trkpt lat="43.8271425" lon="11.228537"><ele>176.0</ele><time>2026-04-17T07:42:52.97Z</time></trkpt><trkpt lat="43.8271732" lon="11.2284239"><ele>176.0</ele><time>2026-04-17T07:42:53.976Z</time></trkpt><trkpt lat="43.8271911" lon="11.2283018"><ele>176.0</ele><time>2026-04-17T07:42:54.966Z</time></trkpt><trkpt lat="43.8272009" lon="11.2281833"><ele>176.0</ele><time>2026-04-17T07:42:55.971Z</time></trkpt><trkpt lat="43.8272152" lon="11.2280955"><ele>176.0</ele><time>2026-04-17T07:42:56.961Z</time></trkpt><trkpt lat="43.8272358" lon="11.2280079"><ele>175.66666666666666</ele><time>2026-04-17T07:42:57.964Z</time></trkpt><trkpt lat="43.8273172" lon="11.2278899"><ele>175.33333333333331</ele><time>2026-04-17T07:42:59.962Z</time></trkpt><trkpt lat="43.8273715" lon="11.2278284"><ele>175.0</ele><time>2026-04-17T07:43:00.968Z</time></trkpt><trkpt lat="43.8274212" lon="11.2277667"><ele>174.66666666666666</ele><time>2026-04-17T07:43:01.95Z</time></trkpt><trkpt lat="43.8275466" lon="11.2277684"><ele>174.33333333333334</ele><time>2026-04-17T07:43:03.964Z</time></trkpt><trkpt lat="43.8276004" lon="11.2278181"><ele>174.0</ele><time>2026-04-17T07:43:04.946Z</time></trkpt><trkpt lat="43.8277051" lon="11.2279049"><ele>175.83333333333334</ele><time>2026-04-17T07:43:06.97Z</time></trkpt><trkpt lat="43.8277629" lon="11.2279717"><ele>177.66666666666666</ele><time>2026-04-17T07:43:07.966Z</time></trkpt><trkpt lat="43.8278282" lon="11.2280229"><ele>179.5</ele><time>2026-04-17T07:43:08.974Z</time></trkpt><trkpt lat="43.8279002" lon="11.2280696"><ele>181.33333333333331</ele><time>2026-04-17T07:43:09.968Z</time></trkpt><trkpt lat="43.8279759" lon="11.2281086"><ele>183.16666666666666</ele><time>2026-04-17T07:43:10.952Z</time></trkpt><trkpt lat="43.8280537" lon="11.2281416"><ele>185.0</ele><time>2026-04-17T07:43:11.961Z</time></trkpt><trkpt lat="43.8281365" lon="11.228182"><ele>186.33333333333331</ele><time>2026-04-17T07:43:12.97Z</time></trkpt><trkpt lat="43.8282105" lon="11.2282302"><ele>187.66666666666666</ele><time>2026-04-17T07:43:13.963Z</time></trkpt><trkpt lat="43.8282913" lon="11.228277"><ele>189.0</ele><time>2026-04-17T07:43:14.955Z</time></trkpt><trkpt lat="43.8283696" lon="11.2283245"><ele>190.33333333333331</ele><time>2026-04-17T07:43:15.969Z</time></trkpt><trkpt lat="43.8284556" lon="11.2283754"><ele>191.66666666666666</ele><time>2026-04-17T07:43:16.968Z</time></trkpt><trkpt lat="43.8285371" lon="11.2284277"><ele>193.0</ele><time>2026-04-17T07:43:17.962Z</time></trkpt><trkpt lat="43.8286281" lon="11.2284782"><ele>195.2</ele><time>2026-04-17T07:43:18.962Z</time></trkpt><trkpt lat="43.8287269" lon="11.2285368"><ele>197.4</ele><time>2026-04-17T07:43:19.967Z</time></trkpt><trkpt lat="43.828822" lon="11.2285936"><ele>199.6</ele><time>2026-04-17T07:43:20.96Z</time></trkpt><trkpt lat="43.8289037" lon="11.2286597"><ele>201.79999999999998</ele><time>2026-04-17T07:43:21.965Z</time></trkpt><trkpt lat="43.8289721" lon="11.2287177"><ele>204.0</ele><time>2026-04-17T07:43:22.967Z</time></trkpt><trkpt lat="43.8290374" lon="11.2287618"><ele>204.0</ele><time>2026-04-17T07:43:23.97Z</time></trkpt><trkpt lat="43.8291235" lon="11.2288074"><ele>204.0</ele><time>2026-04-17T07:43:24.958Z</time></trkpt><trkpt lat="43.8292115" lon="11.2288542"><ele>204.0</ele><time>2026-04-17T07:43:25.963Z</time></trkpt><trkpt lat="43.8293024" lon="11.2289191"><ele>204.0</ele><time>2026-04-17T07:43:26.96Z</time></trkpt><trkpt lat="43.829401" lon="11.2289895"><ele>204.0</ele><time>2026-04-17T07:43:27.96Z</time></trkpt><trkpt lat="43.8294971" lon="11.2290604"><ele>206.6</ele><time>2026-04-17T07:43:28.96Z</time></trkpt><trkpt lat="43.8295889" lon="11.2291319"><ele>209.2</ele><time>2026-04-17T07:43:29.972Z</time></trkpt><trkpt lat="43.8296785" lon="11.2292027"><ele>211.79999999999998</ele><time>2026-04-17T07:43:30.962Z</time></trkpt><trkpt lat="43.8297785" lon="11.2292741"><ele>214.39999999999998</ele><time>2026-04-17T07:43:31.946Z</time></trkpt><trkpt lat="43.8298741" lon="11.2293454"><ele>217.0</ele><time>2026-04-17T07:43:32.963Z</time></trkpt><trkpt lat="43.8299744" lon="11.2294125"><ele>217.0</ele><time>2026-04-17T07:43:33.966Z</time></trkpt><trkpt lat="43.8300762" lon="11.2294852"><ele>217.0</ele><time>2026-04-17T07:43:34.962Z</time></trkpt><trkpt lat="43.8301691" lon="11.2295534"><ele>217.0</ele><time>2026-04-17T07:43:35.95Z</time></trkpt><trkpt lat="43.8302596" lon="11.2296141"><ele>217.0</ele><time>2026-04-17T07:43:36.964Z</time></trkpt><trkpt lat="43.8303573" lon="11.2296728"><ele>217.0</ele><time>2026-04-17T07:43:37.961Z</time></trkpt><trkpt lat="43.8304508" lon="11.2297221"><ele>217.16666666666666</ele><time>2026-04-17T07:43:38.967Z</time></trkpt><trkpt lat="43.8305419" lon="11.2297672"><ele>217.33333333333331</ele><time>2026-04-17T07:43:39.965Z</time></trkpt><trkpt lat="43.8306153" lon="11.2298087"><ele>217.5</ele><time>2026-04-17T07:43:40.964Z</time></trkpt><trkpt lat="43.8306742" lon="11.2298446"><ele>217.66666666666669</ele><time>2026-04-17T07:43:41.969Z</time></trkpt><trkpt lat="43.8307468" lon="11.2298804"><ele>217.83333333333334</ele><time>2026-04-17T07:43:43.946Z</time></trkpt><trkpt lat="43.8308146" lon="11.2298934"><ele>218.0</ele><time>2026-04-17T07:43:45.973Z</time></trkpt><trkpt lat="43.8308856" lon="11.2298934"><ele>218.50000000000003</ele><time>2026-04-17T07:43:47.963Z</time></trkpt><trkpt lat="43.8309543" lon="11.229874"><ele>219.0</ele><time>2026-04-17T07:43:50.971Z</time></trkpt><trkpt lat="43.8310319" lon="11.2298181"><ele>219.5</ele><time>2026-04-17T07:43:53.971Z</time></trkpt><trkpt lat="43.831094" lon="11.2297854"><ele>220.0</ele><time>2026-04-17T07:43:55.967Z</time></trkpt><trkpt lat="43.831185" lon="11.2297554"><ele>220.50000000000003</ele><time>2026-04-17T07:43:58.96Z</time></trkpt><trkpt lat="43.8312632" lon="11.2297036"><ele>221.0</ele><time>2026-04-17T07:44:00.962Z</time></trkpt><trkpt lat="43.8313542" lon="11.2296531"><ele>221.00000000000003</ele><time>2026-04-17T07:44:02.963Z</time></trkpt><trkpt lat="43.8314418" lon="11.2295984"><ele>221.0</ele><time>2026-04-17T07:44:04.969Z</time></trkpt><trkpt lat="43.8315032" lon="11.229525"><ele>221.0</ele><time>2026-04-17T07:44:06.957Z</time></trkpt><trkpt lat="43.8315798" lon="11.2294708"><ele>221.0</ele><time>2026-04-17T07:44:08.964Z</time></trkpt><trkpt lat="43.8316686" lon="11.2294777"><ele>221.00000000000003</ele><time>2026-04-17T07:44:10.965Z</time></trkpt><trkpt lat="43.8317459" lon="11.2294875"><ele>221.0</ele><time>2026-04-17T07:44:12.967Z</time></trkpt><trkpt lat="43.8318126" lon="11.2295056"><ele>221.00000000000003</ele><time>2026-04-17T07:44:14.951Z</time></trkpt><trkpt lat="43.8318736" lon="11.2295436"><ele>221.0</ele><time>2026-04-17T07:44:16.968Z</time></trkpt><trkpt lat="43.8319458" lon="11.2294864"><ele>221.0</ele><time>2026-04-17T07:44:19.96Z</time></trkpt><trkpt lat="43.8319004" lon="11.2293905"><ele>221.0</ele><time>2026-04-17T07:44:22.969Z</time></trkpt><trkpt lat="43.8318217" lon="11.2294044"><ele>221.00000000000003</ele><time>2026-04-17T07:44:25.966Z</time></trkpt><trkpt lat="43.8317536" lon="11.2294684"><ele>221.0</ele><time>2026-04-17T07:44:28.959Z</time></trkpt><trkpt lat="43.8316614" lon="11.2294869"><ele>221.00000000000003</ele><time>2026-04-17T07:44:31.967Z</time></trkpt><trkpt lat="43.8315848" lon="11.2295054"><ele>221.0</ele><time>2026-04-17T07:44:33.958Z</time></trkpt><trkpt lat="43.8315411" lon="11.2295685"><ele>221.0</ele><time>2026-04-17T07:44:35.957Z</time></trkpt><trkpt lat="43.8314885" lon="11.2296541"><ele>221.0</ele><time>2026-04-17T07:44:37.958Z</time></trkpt><trkpt lat="43.8314273" lon="11.2296995"><ele>221.00000000000003</ele><time>2026-04-17T07:44:39.943Z</time></trkpt><trkpt lat="43.8314037" lon="11.2297953"><ele>221.0</ele><time>2026-04-17T07:44:41.952Z</time></trkpt><trkpt lat="43.8314228" lon="11.2299113"><ele>223.2857142857143</ele><time>2026-04-17T07:44:44.949Z</time></trkpt><trkpt lat="43.8313601" lon="11.22986"><ele>225.57142857142856</ele><time>2026-04-17T07:44:49.958Z</time></trkpt><trkpt lat="43.8312727" lon="11.2298427"><ele>227.85714285714283</ele><time>2026-04-17T07:44:52.957Z</time></trkpt><trkpt lat="43.8312026" lon="11.2298757"><ele>230.14285714285714</ele><time>2026-04-17T07:44:56.956Z</time></trkpt><trkpt lat="43.8312071" lon="11.22998"><ele>232.42857142857142</ele><time>2026-04-17T07:45:01.952Z</time></trkpt><trkpt lat="43.8312086" lon="11.2300697"><ele>234.7142857142857</ele><time>2026-04-17T07:45:04.966Z</time></trkpt><trkpt lat="43.8312451" lon="11.2301506"><ele>236.99999999999997</ele><time>2026-04-17T07:45:07.961Z</time></trkpt><trkpt lat="43.8312853" lon="11.2302232"><ele>237.0</ele><time>2026-04-17T07:45:10.97Z</time></trkpt><trkpt lat="43.8313558" lon="11.2302905"><ele>237.0</ele><time>2026-04-17T07:45:13.963Z</time></trkpt><trkpt lat="43.8314248" lon="11.230334"><ele>237.0</ele><time>2026-04-17T07:45:15.961Z</time></trkpt><trkpt lat="43.8314905" lon="11.2303847"><ele>237.0</ele><time>2026-04-17T07:45:17.958Z</time></trkpt><trkpt lat="43.8315626" lon="11.230445"><ele>237.0</ele><time>2026-04-17T07:45:19.976Z</time></trkpt><trkpt lat="43.8316252" lon="11.2305266"><ele>237.0</ele><time>2026-04-17T07:45:21.96Z</time></trkpt><trkpt lat="43.831673" lon="11.2306059"><ele>239.5</ele><time>2026-04-17T07:45:23.963Z</time></trkpt><trkpt lat="43.8317176" lon="11.2306901"><ele>242.0</ele><time>2026-04-17T07:45:25.963Z</time></trkpt><trkpt lat="43.8317569" lon="11.2307684"><ele>244.5</ele><time>2026-04-17T07:45:27.959Z</time></trkpt><trkpt lat="43.8317897" lon="11.2308469"><ele>247.0</ele><time>2026-04-17T07:45:30.966Z</time></trkpt><trkpt lat="43.8318706" lon="11.230804"><ele>249.5</ele><time>2026-04-17T07:46:26.961Z</time></trkpt><trkpt lat="43.8319725" lon="11.2307349"><ele>252.0</ele><time>2026-04-17T07:46:28.969Z</time></trkpt><trkpt lat="43.8320647" lon="11.230689"><ele>250.16666666666666</ele><time>2026-04-17T07:46:30.963Z</time></trkpt><trkpt lat="43.8321591" lon="11.2306389"><ele>248.33333333333331</ele><time>2026-04-17T07:46:32.968Z</time></trkpt><trkpt lat="43.8322396" lon="11.2306007"><ele>246.5</ele><time>2026-04-17T07:46:34.969Z</time></trkpt><trkpt lat="43.8323133" lon="11.2305626"><ele>244.66666666666666</ele><time>2026-04-17T07:46:36.967Z</time></trkpt><trkpt lat="43.8324042" lon="11.2305323"><ele>242.83333333333331</ele><time>2026-04-17T07:46:39.954Z</time></trkpt><trkpt lat="43.8324875" lon="11.2305009"><ele>241.0</ele><time>2026-04-17T07:46:41.961Z</time></trkpt><trkpt lat="43.8325555" lon="11.2304692"><ele>240.99999999999997</ele><time>2026-04-17T07:46:43.972Z</time></trkpt><trkpt lat="43.8326278" lon="11.2304371"><ele>241.0</ele><time>2026-04-17T07:46:45.969Z</time></trkpt><trkpt lat="43.8326947" lon="11.2303961"><ele>241.0</ele><time>2026-04-17T07:46:47.948Z</time></trkpt><trkpt lat="43.832773" lon="11.2303721"><ele>241.0</ele><time>2026-04-17T07:46:49.962Z</time></trkpt><trkpt lat="43.8328688" lon="11.2303505"><ele>240.99999999999997</ele><time>2026-04-17T07:46:51.968Z</time></trkpt><trkpt lat="43.8329586" lon="11.2303279"><ele>241.0</ele><time>2026-04-17T07:46:53.963Z</time></trkpt><trkpt lat="43.8330431" lon="11.2303227"><ele>240.49999999999997</ele><time>2026-04-17T07:46:55.964Z</time></trkpt><trkpt lat="43.8331307" lon="11.2303235"><ele>240.0</ele><time>2026-04-17T07:46:57.967Z</time></trkpt><trkpt lat="43.8332086" lon="11.230319"><ele>239.5</ele><time>2026-04-17T07:46:59.964Z</time></trkpt><trkpt lat="43.8332814" lon="11.2303268"><ele>239.0</ele><time>2026-04-17T07:47:02.031Z</time></trkpt><trkpt lat="43.8333705" lon="11.230305"><ele>238.49999999999997</ele><time>2026-04-17T07:47:03.976Z</time></trkpt><trkpt lat="43.8334511" lon="11.2302728"><ele>238.0</ele><time>2026-04-17T07:47:05.971Z</time></trkpt><trkpt lat="43.8335185" lon="11.2302307"><ele>237.85714285714286</ele><time>2026-04-17T07:47:07.989Z</time></trkpt><trkpt lat="43.8335821" lon="11.2302001"><ele>237.71428571428572</ele><time>2026-04-17T07:47:09.977Z</time></trkpt><trkpt lat="43.833655" lon="11.2301827"><ele>237.57142857142856</ele><time>2026-04-17T07:47:12.032Z</time></trkpt><trkpt lat="43.8337266" lon="11.2301569"><ele>237.42857142857142</ele><time>2026-04-17T07:47:13.974Z</time></trkpt><trkpt lat="43.833792" lon="11.2301161"><ele>237.28571428571428</ele><time>2026-04-17T07:47:15.967Z</time></trkpt><trkpt lat="43.8338533" lon="11.2300683"><ele>237.1428571428571</ele><time>2026-04-17T07:47:17.958Z</time></trkpt><trkpt lat="43.8339154" lon="11.2300481"><ele>236.99999999999997</ele><time>2026-04-17T07:47:19.982Z</time></trkpt><trkpt lat="43.8339825" lon="11.2300253"><ele>237.0</ele><time>2026-04-17T07:47:21.961Z</time></trkpt><trkpt lat="43.8340408" lon="11.2299791"><ele>237.0</ele><time>2026-04-17T07:47:23.962Z</time></trkpt><trkpt lat="43.834103" lon="11.2299441"><ele>237.0</ele><time>2026-04-17T07:47:25.955Z</time></trkpt><trkpt lat="43.8341838" lon="11.2299122"><ele>237.0</ele><time>2026-04-17T07:47:27.942Z</time></trkpt><trkpt lat="43.8342662" lon="11.2298833"><ele>237.0</ele><time>2026-04-17T07:47:29.966Z</time></trkpt><trkpt lat="43.8343366" lon="11.2298347"><ele>237.0</ele><time>2026-04-17T07:47:32.039Z</time></trkpt><trkpt lat="43.8344467" lon="11.2298081"><ele>234.0</ele><time>2026-04-17T07:47:34.034Z</time></trkpt><trkpt lat="43.8345104" lon="11.2298074"><ele>231.0</ele><time>2026-04-17T07:47:35.029Z</time></trkpt><trkpt lat="43.8345774" lon="11.2298013"><ele>228.0</ele><time>2026-04-17T07:47:35.959Z</time></trkpt><trkpt lat="43.8346792" lon="11.2297968"><ele>225.0</ele><time>2026-04-17T07:47:37.965Z</time></trkpt><trkpt lat="43.8346886" lon="11.2297101"><ele>222.0</ele><time>2026-04-17T07:47:42.962Z</time></trkpt><trkpt lat="43.8346091" lon="11.2296584"><ele>219.0</ele><time>2026-04-17T07:47:45.951Z</time></trkpt><trkpt lat="43.8345179" lon="11.229587"><ele>219.0</ele><time>2026-04-17T07:47:47.97Z</time></trkpt><trkpt lat="43.8344299" lon="11.2295199"><ele>219.0</ele><time>2026-04-17T07:47:50.045Z</time></trkpt><trkpt lat="43.8343523" lon="11.2294606"><ele>219.0</ele><time>2026-04-17T07:47:52.034Z</time></trkpt><trkpt lat="43.8342797" lon="11.2293959"><ele>219.0</ele><time>2026-04-17T07:47:53.965Z</time></trkpt><trkpt lat="43.8342044" lon="11.2293368"><ele>219.0</ele><time>2026-04-17T07:47:55.96Z</time></trkpt><trkpt lat="43.8341319" lon="11.2292836"><ele>219.0</ele><time>2026-04-17T07:47:57.969Z</time></trkpt><trkpt lat="43.8340458" lon="11.2292266"><ele>219.2</ele><time>2026-04-17T07:48:00.964Z</time></trkpt><trkpt lat="43.8339763" lon="11.2291835"><ele>219.39999999999998</ele><time>2026-04-17T07:48:02.979Z</time></trkpt><trkpt lat="43.8339043" lon="11.229136"><ele>219.6</ele><time>2026-04-17T07:48:04.972Z</time></trkpt><trkpt lat="43.8338335" lon="11.2290817"><ele>219.8</ele><time>2026-04-17T07:48:06.973Z</time></trkpt><trkpt lat="43.8337384" lon="11.2290111"><ele>220.0</ele><time>2026-04-17T07:48:08.969Z</time></trkpt><trkpt lat="43.8336479" lon="11.2289193"><ele>217.6</ele><time>2026-04-17T07:48:10.977Z</time></trkpt><trkpt lat="43.8335493" lon="11.2288397"><ele>215.2</ele><time>2026-04-17T07:48:12.98Z</time></trkpt><trkpt lat="43.8334546" lon="11.2287555"><ele>212.8</ele><time>2026-04-17T07:48:14.966Z</time></trkpt><trkpt lat="43.8333598" lon="11.2286907"><ele>210.4</ele><time>2026-04-17T07:48:16.979Z</time></trkpt><trkpt lat="43.833269" lon="11.2286396"><ele>208.0</ele><time>2026-04-17T07:48:18.977Z</time></trkpt><trkpt lat="43.8331738" lon="11.2285795"><ele>207.8</ele><time>2026-04-17T07:48:20.978Z</time></trkpt><trkpt lat="43.8330786" lon="11.228521"><ele>207.60000000000002</ele><time>2026-04-17T07:48:22.97Z</time></trkpt><trkpt lat="43.8329862" lon="11.2284527"><ele>207.39999999999998</ele><time>2026-04-17T07:48:24.968Z</time></trkpt><trkpt lat="43.8329077" lon="11.228392"><ele>207.2</ele><time>2026-04-17T07:48:26.971Z</time></trkpt><trkpt lat="43.832827" lon="11.2283326"><ele>207.0</ele><time>2026-04-17T07:48:29.03Z</time></trkpt><trkpt lat="43.8327478" lon="11.228291"><ele>207.0</ele><time>2026-04-17T07:48:30.965Z</time></trkpt><trkpt lat="43.8326668" lon="11.2282437"><ele>207.0</ele><time>2026-04-17T07:48:32.956Z</time></trkpt><trkpt lat="43.8325784" lon="11.2282158"><ele>207.0</ele><time>2026-04-17T07:48:34.96Z</time></trkpt><trkpt lat="43.8324966" lon="11.2281816"><ele>207.0</ele><time>2026-04-17T07:48:36.972Z</time></trkpt><trkpt lat="43.8323898" lon="11.2281478"><ele>207.0</ele><time>2026-04-17T07:48:38.954Z</time></trkpt><trkpt lat="43.8322663" lon="11.2281375"><ele>207.39999999999998</ele><time>2026-04-17T07:48:41.032Z</time></trkpt><trkpt lat="43.8321423" lon="11.22814"><ele>207.79999999999998</ele><time>2026-04-17T07:48:42.95Z</time></trkpt><trkpt lat="43.8320731" lon="11.2281408"><ele>208.2</ele><time>2026-04-17T07:48:43.947Z</time></trkpt><trkpt lat="43.8320062" lon="11.228137"><ele>208.6</ele><time>2026-04-17T07:48:44.953Z</time></trkpt><trkpt lat="43.8318846" lon="11.2281414"><ele>209.0</ele><time>2026-04-17T07:48:46.965Z</time></trkpt><trkpt lat="43.8317587" lon="11.2281591"><ele>209.0</ele><time>2026-04-17T07:48:48.965Z</time></trkpt><trkpt lat="43.8316476" lon="11.2281651"><ele>209.0</ele><time>2026-04-17T07:48:50.949Z</time></trkpt><trkpt lat="43.8315541" lon="11.2281822"><ele>209.0</ele><time>2026-04-17T07:48:52.963Z</time></trkpt><trkpt lat="43.8314566" lon="11.2282095"><ele>209.0</ele><time>2026-04-17T07:48:54.963Z</time></trkpt><trkpt lat="43.8313599" lon="11.2282117"><ele>209.0</ele><time>2026-04-17T07:48:56.966Z</time></trkpt><trkpt lat="43.8313226" lon="11.2281306"><ele>207.0</ele><time>2026-04-17T07:48:59.972Z</time></trkpt><trkpt lat="43.8313549" lon="11.2280503"><ele>205.0</ele><time>2026-04-17T07:49:02.04Z</time></trkpt><trkpt lat="43.831407" lon="11.2279715"><ele>203.0</ele><time>2026-04-17T07:49:04.983Z</time></trkpt><trkpt lat="43.8314719" lon="11.2279227"><ele>201.0</ele><time>2026-04-17T07:49:07.971Z</time></trkpt><trkpt lat="43.8315461" lon="11.2278771"><ele>199.0</ele><time>2026-04-17T07:49:10.992Z</time></trkpt><trkpt lat="43.8316152" lon="11.2278279"><ele>197.0</ele><time>2026-04-17T07:49:13.971Z</time></trkpt><trkpt lat="43.831676" lon="11.2277752"><ele>195.0</ele><time>2026-04-17T07:49:16.963Z</time></trkpt><trkpt lat="43.8317478" lon="11.22771"><ele>195.0</ele><time>2026-04-17T07:49:19.962Z</time></trkpt><trkpt lat="43.8318007" lon="11.2276505"><ele>195.0</ele><time>2026-04-17T07:49:21.962Z</time></trkpt><trkpt lat="43.8318612" lon="11.227602"><ele>195.0</ele><time>2026-04-17T07:49:23.974Z</time></trkpt><trkpt lat="43.8319271" lon="11.2275578"><ele>195.0</ele><time>2026-04-17T07:49:25.968Z</time></trkpt><trkpt lat="43.8319825" lon="11.2275077"><ele>195.0</ele><time>2026-04-17T07:49:27.962Z</time></trkpt><trkpt lat="43.8320576" lon="11.2274518"><ele>195.0</ele><time>2026-04-17T07:49:30.963Z</time></trkpt><trkpt lat="43.832129" lon="11.2273624"><ele>192.5</ele><time>2026-04-17T07:49:33.963Z</time></trkpt><trkpt lat="43.8321779" lon="11.2272778"><ele>190.0</ele><time>2026-04-17T07:49:35.965Z</time></trkpt><trkpt lat="43.8322133" lon="11.2271871"><ele>187.5</ele><time>2026-04-17T07:49:37.978Z</time></trkpt><trkpt lat="43.8321936" lon="11.2270813"><ele>185.0</ele><time>2026-04-17T07:49:41.971Z</time></trkpt><trkpt lat="43.8321257" lon="11.2269892"><ele>182.5</ele><time>2026-04-17T07:49:45.026Z</time></trkpt><trkpt lat="43.8320571" lon="11.2269257"><ele>180.0</ele><time>2026-04-17T07:49:47.951Z</time></trkpt><trkpt lat="43.8319777" lon="11.2268609"><ele>180.0</ele><time>2026-04-17T07:49:50.961Z</time></trkpt><trkpt lat="43.8319172" lon="11.226815"><ele>180.0</ele><time>2026-04-17T07:49:52.959Z</time></trkpt><trkpt lat="43.8318559" lon="11.2267443"><ele>180.0</ele><time>2026-04-17T07:49:55.972Z</time></trkpt><trkpt lat="43.8318313" lon="11.2266627"><ele>180.0</ele><time>2026-04-17T07:49:57.956Z</time></trkpt><trkpt lat="43.8318243" lon="11.226571"><ele>180.0</ele><time>2026-04-17T07:50:00.952Z</time></trkpt><trkpt lat="43.8318776" lon="11.2265075"><ele>180.0</ele><time>2026-04-17T07:51:13.951Z</time></trkpt><trkpt lat="43.8319502" lon="11.2265139"><ele>180.0</ele><time>2026-04-17T07:51:15.959Z</time></trkpt><trkpt lat="43.8320306" lon="11.2265071"><ele>180.0</ele><time>2026-04-17T07:51:17.955Z</time></trkpt><trkpt lat="43.8320996" lon="11.2265127"><ele>180.0</ele><time>2026-04-17T07:51:19.95Z</time></trkpt><trkpt lat="43.8321908" lon="11.2265087"><ele>180.0</ele><time>2026-04-17T07:51:22.96Z</time></trkpt><trkpt lat="43.8322651" lon="11.2265204"><ele>180.0</ele><time>2026-04-17T07:51:24.961Z</time></trkpt><trkpt lat="43.8323317" lon="11.2265387"><ele>180.0</ele><time>2026-04-17T07:51:27.071Z</time></trkpt><trkpt lat="43.832403" lon="11.2265409"><ele>180.0</ele><time>2026-04-17T07:51:29.034Z</time></trkpt><trkpt lat="43.8324954" lon="11.2265584"><ele>180.0</ele><time>2026-04-17T07:51:30.97Z</time></trkpt><trkpt lat="43.8325873" lon="11.2265608"><ele>180.0</ele><time>2026-04-17T07:51:32.965Z</time></trkpt><trkpt lat="43.8326645" lon="11.2265872"><ele>180.0</ele><time>2026-04-17T07:51:34.958Z</time></trkpt><trkpt lat="43.8327317" lon="11.2266008"><ele>180.0</ele><time>2026-04-17T07:51:36.961Z</time></trkpt><trkpt lat="43.8328121" lon="11.2265717"><ele>180.0</ele><time>2026-04-17T07:51:40.043Z</time></trkpt><trkpt lat="43.8328674" lon="11.2265005"><ele>180.0</ele><time>2026-04-17T07:51:41.961Z</time></trkpt><trkpt lat="43.8329217" lon="11.2264262"><ele>177.0</ele><time>2026-04-17T07:51:43.973Z</time></trkpt><trkpt lat="43.8329823" lon="11.2263301"><ele>174.0</ele><time>2026-04-17T07:51:46.942Z</time></trkpt><trkpt lat="43.8330207" lon="11.2262572"><ele>171.0</ele><time>2026-04-17T07:51:48.968Z</time></trkpt><trkpt lat="43.8330838" lon="11.2262479"><ele>168.0</ele><time>2026-04-17T07:51:50.964Z</time></trkpt><trkpt lat="43.8331568" lon="11.2262768"><ele>165.0</ele><time>2026-04-17T07:51:52.97Z</time></trkpt><trkpt lat="43.8332514" lon="11.2263009"><ele>162.0</ele><time>2026-04-17T07:51:54.95Z</time></trkpt><trkpt lat="43.8333305" lon="11.2263144"><ele>162.0</ele><time>2026-04-17T07:51:56.952Z</time></trkpt><trkpt lat="43.8334257" lon="11.2263247"><ele>162.0</ele><time>2026-04-17T07:51:58.971Z</time></trkpt><trkpt lat="43.8335397" lon="11.2263116"><ele>162.0</ele><time>2026-04-17T07:52:00.963Z</time></trkpt><trkpt lat="43.8336182" lon="11.2263049"><ele>162.0</ele><time>2026-04-17T07:52:01.97Z</time></trkpt><trkpt lat="43.8336821" lon="11.2262814"><ele>162.0</ele><time>2026-04-17T07:52:02.969Z</time></trkpt><trkpt lat="43.8337788" lon="11.2262298"><ele>163.0</ele><time>2026-04-17T07:52:04.973Z</time></trkpt><trkpt lat="43.8338819" lon="11.2261661"><ele>164.0</ele><time>2026-04-17T07:52:06.971Z</time></trkpt><trkpt lat="43.833962" lon="11.22611"><ele>165.0</ele><time>2026-04-17T07:52:08.967Z</time></trkpt><trkpt lat="43.8340512" lon="11.226061"><ele>166.0</ele><time>2026-04-17T07:52:10.976Z</time></trkpt><trkpt lat="43.8341279" lon="11.2260141"><ele>167.0</ele><time>2026-04-17T07:52:12.967Z</time></trkpt><trkpt lat="43.8342051" lon="11.2259109"><ele>167.0</ele><time>2026-04-17T07:52:14.967Z</time></trkpt><trkpt lat="43.8343015" lon="11.2257854"><ele>167.0</ele><time>2026-04-17T07:52:16.964Z</time></trkpt><trkpt lat="43.8343614" lon="11.2257107"><ele>167.0</ele><time>2026-04-17T07:52:17.956Z</time></trkpt><trkpt lat="43.8344194" lon="11.2256575"><ele>167.0</ele><time>2026-04-17T07:52:18.967Z</time></trkpt><trkpt lat="43.8344928" lon="11.225592"><ele>167.0</ele><time>2026-04-17T07:52:19.966Z</time></trkpt><trkpt lat="43.834554" lon="11.2255322"><ele>167.0</ele><time>2026-04-17T07:52:20.964Z</time></trkpt><trkpt lat="43.8346548" lon="11.2254704"><ele>166.16666666666666</ele><time>2026-04-17T07:52:22.956Z</time></trkpt><trkpt lat="43.834763" lon="11.2254155"><ele>165.33333333333331</ele><time>2026-04-17T07:52:24.964Z</time></trkpt><trkpt lat="43.8348563" lon="11.2253375"><ele>164.5</ele><time>2026-04-17T07:52:26.963Z</time></trkpt><trkpt lat="43.8349044" lon="11.2252591"><ele>163.66666666666666</ele><time>2026-04-17T07:52:28.97Z</time></trkpt><trkpt lat="43.8349652" lon="11.2252051"><ele>162.83333333333334</ele><time>2026-04-17T07:52:31.031Z</time></trkpt><trkpt lat="43.835041" lon="11.2251897"><ele>162.0</ele><time>2026-04-17T07:52:33.958Z</time></trkpt><trkpt lat="43.8350935" lon="11.2252394"><ele>160.6</ele><time>2026-04-17T07:52:36.978Z</time></trkpt><trkpt lat="43.8351516" lon="11.2253419"><ele>159.2</ele><time>2026-04-17T07:52:40.037Z</time></trkpt><trkpt lat="43.8352391" lon="11.2253895"><ele>157.8</ele><time>2026-04-17T07:52:41.972Z</time></trkpt><trkpt lat="43.8353527" lon="11.2253994"><ele>156.4</ele><time>2026-04-17T07:52:43.964Z</time></trkpt><trkpt lat="43.8354837" lon="11.2253826"><ele>155.0</ele><time>2026-04-17T07:52:45.963Z</time></trkpt><trkpt lat="43.8355453" lon="11.2253531"><ele>155.0</ele><time>2026-04-17T07:52:46.97Z</time></trkpt><trkpt lat="43.8356074" lon="11.2252984"><ele>155.0</ele><time>2026-04-17T07:52:47.968Z</time></trkpt><trkpt lat="43.835661" lon="11.2252266"><ele>155.0</ele><time>2026-04-17T07:52:48.957Z</time></trkpt><trkpt lat="43.83571" lon="11.225141"><ele>155.0</ele><time>2026-04-17T07:52:50.028Z</time></trkpt><trkpt lat="43.8357656" lon="11.2250596"><ele>155.0</ele><time>2026-04-17T07:52:51.034Z</time></trkpt><trkpt lat="43.8358193" lon="11.2249804"><ele>155.0</ele><time>2026-04-17T07:52:52.039Z</time></trkpt><trkpt lat="43.8358848" lon="11.2249081"><ele>155.0</ele><time>2026-04-17T07:52:52.965Z</time></trkpt><trkpt lat="43.8359549" lon="11.2248593"><ele>155.0</ele><time>2026-04-17T07:52:53.975Z</time></trkpt><trkpt lat="43.8360163" lon="11.2248381"><ele>155.0</ele><time>2026-04-17T07:52:54.963Z</time></trkpt><trkpt lat="43.8361412" lon="11.2248435"><ele>155.0</ele><time>2026-04-17T07:52:56.967Z</time></trkpt><trkpt lat="43.8362595" lon="11.2248701"><ele>155.0</ele><time>2026-04-17T07:52:58.986Z</time></trkpt><trkpt lat="43.836326" lon="11.2248897"><ele>154.5</ele><time>2026-04-17T07:52:59.962Z</time></trkpt><trkpt lat="43.8363882" lon="11.2249228"><ele>154.0</ele><time>2026-04-17T07:53:00.968Z</time></trkpt><trkpt lat="43.8364934" lon="11.2249327"><ele>153.5</ele><time>2026-04-17T07:53:02.966Z</time></trkpt><trkpt lat="43.8365641" lon="11.2249197"><ele>153.0</ele><time>2026-04-17T07:53:04.962Z</time></trkpt><trkpt lat="43.8366207" lon="11.2248755"><ele>152.5</ele><time>2026-04-17T07:53:07.959Z</time></trkpt><trkpt lat="43.836676" lon="11.2247806"><ele>152.0</ele><time>2026-04-17T07:53:10.965Z</time></trkpt><trkpt lat="43.8367366" lon="11.2247158"><ele>150.79999999999998</ele><time>2026-04-17T07:53:12.968Z</time></trkpt><trkpt lat="43.8368321" lon="11.2246522"><ele>149.6</ele><time>2026-04-17T07:53:14.964Z</time></trkpt><trkpt lat="43.8369352" lon="11.2245991"><ele>148.39999999999998</ele><time>2026-04-17T07:53:16.964Z</time></trkpt><trkpt lat="43.8370359" lon="11.2245387"><ele>147.2</ele><time>2026-04-17T07:53:18.962Z</time></trkpt><trkpt lat="43.8371251" lon="11.2244816"><ele>146.0</ele><time>2026-04-17T07:53:20.965Z</time></trkpt><trkpt lat="43.8371994" lon="11.2244234"><ele>146.0</ele><time>2026-04-17T07:53:22.966Z</time></trkpt><trkpt lat="43.8372892" lon="11.2243419"><ele>146.0</ele><time>2026-04-17T07:53:24.969Z</time></trkpt><trkpt lat="43.8373679" lon="11.2242782"><ele>146.0</ele><time>2026-04-17T07:53:26.966Z</time></trkpt><trkpt lat="43.8374594" lon="11.2242443"><ele>146.0</ele><time>2026-04-17T07:53:28.974Z</time></trkpt><trkpt lat="43.8375452" lon="11.2242389"><ele>146.0</ele><time>2026-04-17T07:53:30.959Z</time></trkpt><trkpt lat="43.8376197" lon="11.2241817"><ele>147.33333333333331</ele><time>2026-04-17T07:53:32.958Z</time></trkpt><trkpt lat="43.8376758" lon="11.2240837"><ele>148.66666666666666</ele><time>2026-04-17T07:53:34.967Z</time></trkpt><trkpt lat="43.8377031" lon="11.223974"><ele>150.0</ele><time>2026-04-17T07:53:36.956Z</time></trkpt><trkpt lat="43.8377237" lon="11.2238295"><ele>151.33333333333334</ele><time>2026-04-17T07:53:38.953Z</time></trkpt><trkpt lat="43.8377405" lon="11.2237353"><ele>152.66666666666669</ele><time>2026-04-17T07:53:39.956Z</time></trkpt><trkpt lat="43.8377677" lon="11.2236416"><ele>154.0</ele><time>2026-04-17T07:53:40.948Z</time></trkpt><trkpt lat="43.8378003" lon="11.2235462"><ele>154.0</ele><time>2026-04-17T07:53:41.965Z</time></trkpt><trkpt lat="43.8378336" lon="11.2234674"><ele>154.0</ele><time>2026-04-17T07:53:42.966Z</time></trkpt><trkpt lat="43.8379021" lon="11.2233567"><ele>154.0</ele><time>2026-04-17T07:53:44.957Z</time></trkpt><trkpt lat="43.8379419" lon="11.2232522"><ele>154.0</ele><time>2026-04-17T07:53:46.942Z</time></trkpt><trkpt lat="43.838003" lon="11.2231592"><ele>154.0</ele><time>2026-04-17T07:53:48.969Z</time></trkpt><trkpt lat="43.8380486" lon="11.2230979"><ele>154.0</ele><time>2026-04-17T07:53:49.974Z</time></trkpt><trkpt lat="43.8380896" lon="11.2229743"><ele>153.66666666666669</ele><time>2026-04-17T07:53:51.967Z</time></trkpt><trkpt lat="43.838072" lon="11.2228565"><ele>153.33333333333334</ele><time>2026-04-17T07:53:53.962Z</time></trkpt><trkpt lat="43.8380564" lon="11.2227534"><ele>153.0</ele><time>2026-04-17T07:53:54.964Z</time></trkpt><trkpt lat="43.8380466" lon="11.2226458"><ele>152.66666666666666</ele><time>2026-04-17T07:53:55.977Z</time></trkpt><trkpt lat="43.8380497" lon="11.2225457"><ele>152.33333333333331</ele><time>2026-04-17T07:53:56.961Z</time></trkpt><trkpt lat="43.8380551" lon="11.2224412"><ele>152.0</ele><time>2026-04-17T07:53:57.965Z</time></trkpt><trkpt lat="43.8380628" lon="11.2223406"><ele>151.33333333333331</ele><time>2026-04-17T07:53:58.971Z</time></trkpt><trkpt lat="43.8380505" lon="11.2222115"><ele>150.66666666666666</ele><time>2026-04-17T07:54:00.962Z</time></trkpt><trkpt lat="43.8380581" lon="11.2221155"><ele>150.0</ele><time>2026-04-17T07:54:02.966Z</time></trkpt><trkpt lat="43.8380637" lon="11.2219836"><ele>149.33333333333334</ele><time>2026-04-17T07:54:04.975Z</time></trkpt><trkpt lat="43.8380642" lon="11.2218954"><ele>148.66666666666669</ele><time>2026-04-17T07:54:05.97Z</time></trkpt><trkpt lat="43.8380746" lon="11.2217884"><ele>148.0</ele><time>2026-04-17T07:54:06.958Z</time></trkpt><trkpt lat="43.8380897" lon="11.2216796"><ele>148.0</ele><time>2026-04-17T07:54:07.964Z</time></trkpt><trkpt lat="43.8381165" lon="11.2215699"><ele>148.0</ele><time>2026-04-17T07:54:08.958Z</time></trkpt><trkpt lat="43.8381423" lon="11.2214557"><ele>148.0</ele><time>2026-04-17T07:54:09.967Z</time></trkpt><trkpt lat="43.8381663" lon="11.2213541"><ele>148.0</ele><time>2026-04-17T07:54:10.964Z</time></trkpt><trkpt lat="43.8381863" lon="11.2212642"><ele>148.0</ele><time>2026-04-17T07:54:11.948Z</time></trkpt><trkpt lat="43.838214" lon="11.2211314"><ele>148.0</ele><time>2026-04-17T07:54:13.97Z</time></trkpt><trkpt lat="43.8382787" lon="11.221138"><ele>148.0</ele><time>2026-04-17T07:54:18.969Z</time></trkpt><trkpt lat="43.8383033" lon="11.2212497"><ele>148.0</ele><time>2026-04-17T07:54:20.959Z</time></trkpt><trkpt lat="43.8383393" lon="11.2214103"><ele>148.0</ele><time>2026-04-17T07:54:22.95Z</time></trkpt><trkpt lat="43.8383568" lon="11.221508"><ele>148.0</ele><time>2026-04-17T07:54:23.954Z</time></trkpt><trkpt lat="43.8383768" lon="11.221611"><ele>148.0</ele><time>2026-04-17T07:54:24.96Z</time></trkpt><trkpt lat="43.8384093" lon="11.2217207"><ele>148.0</ele><time>2026-04-17T07:54:25.965Z</time></trkpt><trkpt lat="43.8384418" lon="11.2218183"><ele>151.0</ele><time>2026-04-17T07:54:26.971Z</time></trkpt><trkpt lat="43.8384852" lon="11.2219297"><ele>154.0</ele><time>2026-04-17T07:54:27.961Z</time></trkpt><trkpt lat="43.8385337" lon="11.2220351"><ele>157.0</ele><time>2026-04-17T07:54:28.947Z</time></trkpt><trkpt lat="43.8385782" lon="11.2221387"><ele>160.0</ele><time>2026-04-17T07:54:29.963Z</time></trkpt><trkpt lat="43.8386258" lon="11.2222451"><ele>163.0</ele><time>2026-04-17T07:54:30.969Z</time></trkpt><trkpt lat="43.8386683" lon="11.222365"><ele>164.2</ele><time>2026-04-17T07:54:31.966Z</time></trkpt><trkpt lat="43.838699" lon="11.2224888"><ele>165.4</ele><time>2026-04-17T07:54:32.964Z</time></trkpt><trkpt lat="43.8387331" lon="11.2226197"><ele>166.6</ele><time>2026-04-17T07:54:33.975Z</time></trkpt><trkpt lat="43.8387658" lon="11.2227576"><ele>167.79999999999998</ele><time>2026-04-17T07:54:34.962Z</time></trkpt><trkpt lat="43.838804" lon="11.2229053"><ele>169.0</ele><time>2026-04-17T07:54:35.965Z</time></trkpt><trkpt lat="43.8388456" lon="11.2230509"><ele>170.5</ele><time>2026-04-17T07:54:36.97Z</time></trkpt><trkpt lat="43.838883" lon="11.2231942"><ele>172.0</ele><time>2026-04-17T07:54:37.97Z</time></trkpt><trkpt lat="43.8389176" lon="11.2233528"><ele>173.5</ele><time>2026-04-17T07:54:38.965Z</time></trkpt><trkpt lat="43.838952" lon="11.223508"><ele>175.0</ele><time>2026-04-17T07:54:39.959Z</time></trkpt><trkpt lat="43.8389904" lon="11.2236733"><ele>175.0</ele><time>2026-04-17T07:54:40.977Z</time></trkpt><trkpt lat="43.8390251" lon="11.2238395"><ele>175.0</ele><time>2026-04-17T07:54:41.962Z</time></trkpt><trkpt lat="43.8390632" lon="11.2239881"><ele>175.0</ele><time>2026-04-17T07:54:42.974Z</time></trkpt><trkpt lat="43.8391" lon="11.2241182"><ele>175.0</ele><time>2026-04-17T07:54:43.96Z</time></trkpt><trkpt lat="43.839131" lon="11.224233"><ele>175.0</ele><time>2026-04-17T07:54:44.958Z</time></trkpt><trkpt lat="43.83915" lon="11.2243291"><ele>176.4</ele><time>2026-04-17T07:54:45.959Z</time></trkpt><trkpt lat="43.8391942" lon="11.2244544"><ele>177.8</ele><time>2026-04-17T07:54:47.967Z</time></trkpt><trkpt lat="43.8392707" lon="11.2243938"><ele>179.2</ele><time>2026-04-17T07:54:50.031Z</time></trkpt><trkpt lat="43.8393249" lon="11.2242592"><ele>180.6</ele><time>2026-04-17T07:54:51.962Z</time></trkpt><trkpt lat="43.8393536" lon="11.224179"><ele>182.0</ele><time>2026-04-17T07:54:52.965Z</time></trkpt><trkpt lat="43.8394045" lon="11.224075"><ele>186.83333333333331</ele><time>2026-04-17T07:54:55.004Z</time></trkpt><trkpt lat="43.8394613" lon="11.224138"><ele>191.66666666666666</ele><time>2026-04-17T07:54:56.941Z</time></trkpt><trkpt lat="43.8394728" lon="11.2242858"><ele>196.5</ele><time>2026-04-17T07:54:58.956Z</time></trkpt><trkpt lat="43.8394865" lon="11.2243801"><ele>201.33333333333331</ele><time>2026-04-17T07:54:59.957Z</time></trkpt><trkpt lat="43.8395117" lon="11.224462"><ele>206.16666666666666</ele><time>2026-04-17T07:55:00.96Z</time></trkpt><trkpt lat="43.8395359" lon="11.2245432"><ele>211.0</ele><time>2026-04-17T07:55:02.032Z</time></trkpt><trkpt lat="43.8395469" lon="11.2247012"><ele>210.99999999999997</ele><time>2026-04-17T07:55:03.976Z</time></trkpt><trkpt lat="43.8395523" lon="11.2247931"><ele>211.0</ele><time>2026-04-17T07:55:05.022Z</time></trkpt><trkpt lat="43.839576" lon="11.2248965"><ele>211.0</ele><time>2026-04-17T07:55:05.967Z</time></trkpt><trkpt lat="43.8396121" lon="11.2249845"><ele>211.0</ele><time>2026-04-17T07:55:06.964Z</time></trkpt><trkpt lat="43.8396389" lon="11.2250745"><ele>210.99999999999997</ele><time>2026-04-17T07:55:07.973Z</time></trkpt><trkpt lat="43.8396617" lon="11.2252276"><ele>211.0</ele><time>2026-04-17T07:55:08.967Z</time></trkpt><trkpt lat="43.8396772" lon="11.2253812"><ele>211.8</ele><time>2026-04-17T07:55:09.974Z</time></trkpt><trkpt lat="43.8396869" lon="11.2255212"><ele>212.60000000000002</ele><time>2026-04-17T07:55:10.957Z</time></trkpt><trkpt lat="43.8396821" lon="11.2256552"><ele>213.4</ele><time>2026-04-17T07:55:11.972Z</time></trkpt><trkpt lat="43.8396645" lon="11.2257742"><ele>214.2</ele><time>2026-04-17T07:55:12.979Z</time></trkpt><trkpt lat="43.8396388" lon="11.2258879"><ele>215.0</ele><time>2026-04-17T07:55:13.978Z</time></trkpt><trkpt lat="43.8396062" lon="11.2260025"><ele>215.0</ele><time>2026-04-17T07:55:14.975Z</time></trkpt><trkpt lat="43.839556" lon="11.2261367"><ele>215.0</ele><time>2026-04-17T07:55:15.976Z</time></trkpt><trkpt lat="43.8395153" lon="11.2262689"><ele>215.0</ele><time>2026-04-17T07:55:16.974Z</time></trkpt><trkpt lat="43.8394691" lon="11.226403"><ele>215.0</ele><time>2026-04-17T07:55:17.974Z</time></trkpt><trkpt lat="43.8394181" lon="11.226547"><ele>215.0</ele><time>2026-04-17T07:55:19.023Z</time></trkpt><trkpt lat="43.8393813" lon="11.2266719"><ele>215.66666666666669</ele><time>2026-04-17T07:55:19.984Z</time></trkpt><trkpt lat="43.8393474" lon="11.2267753"><ele>216.33333333333334</ele><time>2026-04-17T07:55:20.97Z</time></trkpt><trkpt lat="43.8392906" lon="11.2268949"><ele>217.0</ele><time>2026-04-17T07:55:22.983Z</time></trkpt><trkpt lat="43.8391858" lon="11.2269181"><ele>217.66666666666669</ele><time>2026-04-17T07:55:25.034Z</time></trkpt><trkpt lat="43.8391179" lon="11.2269146"><ele>218.33333333333334</ele><time>2026-04-17T07:55:25.974Z</time></trkpt><trkpt lat="43.8390489" lon="11.2269017"><ele>219.0</ele><time>2026-04-17T07:55:26.97Z</time></trkpt><trkpt lat="43.8389697" lon="11.2268908"><ele>216.0</ele><time>2026-04-17T07:55:27.968Z</time></trkpt><trkpt lat="43.8388752" lon="11.2268784"><ele>212.99999999999997</ele><time>2026-04-17T07:55:28.97Z</time></trkpt><trkpt lat="43.8387832" lon="11.2268722"><ele>210.0</ele><time>2026-04-17T07:55:29.973Z</time></trkpt><trkpt lat="43.838693" lon="11.226855"><ele>207.0</ele><time>2026-04-17T07:55:31.027Z</time></trkpt><trkpt lat="43.8386003" lon="11.2268374"><ele>204.0</ele><time>2026-04-17T07:55:32.01Z</time></trkpt><trkpt lat="43.8385079" lon="11.2268151"><ele>205.0</ele><time>2026-04-17T07:55:32.959Z</time></trkpt><trkpt lat="43.838422" lon="11.2267951"><ele>206.0</ele><time>2026-04-17T07:55:33.969Z</time></trkpt><trkpt lat="43.8383346" lon="11.2267744"><ele>207.0</ele><time>2026-04-17T07:55:34.966Z</time></trkpt><trkpt lat="43.8382485" lon="11.2267566"><ele>208.0</ele><time>2026-04-17T07:55:35.958Z</time></trkpt><trkpt lat="43.8381733" lon="11.2267276"><ele>209.0</ele><time>2026-04-17T07:55:36.958Z</time></trkpt><trkpt lat="43.8381041" lon="11.2267069"><ele>210.0</ele><time>2026-04-17T07:55:37.954Z</time></trkpt><trkpt lat="43.8380035" lon="11.2267387"><ele>210.0</ele><time>2026-04-17T07:55:39.971Z</time></trkpt><trkpt lat="43.8379587" lon="11.2268683"><ele>210.0</ele><time>2026-04-17T07:55:42.027Z</time></trkpt><trkpt lat="43.8379381" lon="11.2269531"><ele>210.0</ele><time>2026-04-17T07:55:42.947Z</time></trkpt><trkpt lat="43.8379295" lon="11.2270474"><ele>210.0</ele><time>2026-04-17T07:55:43.966Z</time></trkpt><trkpt lat="43.8379345" lon="11.227141"><ele>210.0</ele><time>2026-04-17T07:55:44.987Z</time></trkpt><trkpt lat="43.8379513" lon="11.2272348"><ele>210.0</ele><time>2026-04-17T07:55:45.968Z</time></trkpt><trkpt lat="43.8379674" lon="11.2273247"><ele>210.0</ele><time>2026-04-17T07:55:46.969Z</time></trkpt><trkpt lat="43.8379876" lon="11.2274075"><ele>213.16666666666666</ele><time>2026-04-17T07:55:47.963Z</time></trkpt><trkpt lat="43.8380246" lon="11.2274909"><ele>216.33333333333331</ele><time>2026-04-17T07:55:48.961Z</time></trkpt><trkpt lat="43.8380793" lon="11.227557"><ele>219.5</ele><time>2026-04-17T07:55:49.958Z</time></trkpt><trkpt lat="43.8381362" lon="11.2276214"><ele>222.66666666666666</ele><time>2026-04-17T07:55:50.963Z</time></trkpt><trkpt lat="43.8381991" lon="11.2276823"><ele>225.83333333333331</ele><time>2026-04-17T07:55:52.012Z</time></trkpt><trkpt lat="43.8382668" lon="11.2277417"><ele>229.0</ele><time>2026-04-17T07:55:52.964Z</time></trkpt><trkpt lat="43.8383347" lon="11.2278001"><ele>228.99999999999997</ele><time>2026-04-17T07:55:53.972Z</time></trkpt><trkpt lat="43.8384026" lon="11.2278766"><ele>229.0</ele><time>2026-04-17T07:55:54.98Z</time></trkpt><trkpt lat="43.8384541" lon="11.2279623"><ele>229.0</ele><time>2026-04-17T07:55:55.958Z</time></trkpt><trkpt lat="43.8385005" lon="11.2280571"><ele>229.0</ele><time>2026-04-17T07:55:56.944Z</time></trkpt><trkpt lat="43.8385403" lon="11.2281594"><ele>228.99999999999997</ele><time>2026-04-17T07:55:57.969Z</time></trkpt><trkpt lat="43.8385712" lon="11.22826"><ele>229.0</ele><time>2026-04-17T07:55:58.977Z</time></trkpt><trkpt lat="43.8385984" lon="11.2283529"><ele>231.16666666666666</ele><time>2026-04-17T07:55:59.965Z</time></trkpt><trkpt lat="43.8386117" lon="11.2284451"><ele>233.33333333333331</ele><time>2026-04-17T07:56:00.963Z</time></trkpt><trkpt lat="43.8386233" lon="11.2286032"><ele>235.5</ele><time>2026-04-17T07:56:02.961Z</time></trkpt><trkpt lat="43.8386325" lon="11.2287244"><ele>237.66666666666669</ele><time>2026-04-17T07:56:05.035Z</time></trkpt><trkpt lat="43.8386444" lon="11.2288314"><ele>239.83333333333334</ele><time>2026-04-17T07:56:07.051Z</time></trkpt><trkpt lat="43.8386659" lon="11.2289587"><ele>242.0</ele><time>2026-04-17T07:56:08.972Z</time></trkpt><trkpt lat="43.8386925" lon="11.2290538"><ele>245.16666666666669</ele><time>2026-04-17T07:56:11.031Z</time></trkpt><trkpt lat="43.8387387" lon="11.2291296"><ele>248.33333333333334</ele><time>2026-04-17T07:56:13.946Z</time></trkpt><trkpt lat="43.8388125" lon="11.2291384"><ele>251.5</ele><time>2026-04-17T07:56:17.969Z</time></trkpt><trkpt lat="43.8388336" lon="11.229235"><ele>254.66666666666669</ele><time>2026-04-17T07:56:20.96Z</time></trkpt><trkpt lat="43.8388345" lon="11.2293284"><ele>257.8333333333333</ele><time>2026-04-17T07:56:22.979Z</time></trkpt><trkpt lat="43.8388928" lon="11.2294504"><ele>261.0</ele><time>2026-04-17T07:56:25.981Z</time></trkpt><trkpt lat="43.8389659" lon="11.229521"><ele>261.0</ele><time>2026-04-17T07:56:27.984Z</time></trkpt><trkpt lat="43.8390163" lon="11.2295963"><ele>261.0</ele><time>2026-04-17T07:56:30.035Z</time></trkpt><trkpt lat="43.8390645" lon="11.229686"><ele>261.0</ele><time>2026-04-17T07:56:32.981Z</time></trkpt><trkpt lat="43.8391054" lon="11.2297526"><ele>261.0</ele><time>2026-04-17T07:56:34.971Z</time></trkpt><trkpt lat="43.83915" lon="11.2298398"><ele>261.0</ele><time>2026-04-17T07:56:36.983Z</time></trkpt><trkpt lat="43.8391959" lon="11.229914"><ele>261.0</ele><time>2026-04-17T07:56:39.963Z</time></trkpt><trkpt lat="43.8392779" lon="11.2299548"><ele>265.0</ele><time>2026-04-17T07:56:44.03Z</time></trkpt><trkpt lat="43.8393611" lon="11.230021"><ele>269.0</ele><time>2026-04-17T07:56:46.964Z</time></trkpt><trkpt lat="43.8394212" lon="11.2300714"><ele>273.0</ele><time>2026-04-17T07:56:48.959Z</time></trkpt><trkpt lat="43.8395031" lon="11.2301236"><ele>277.0</ele><time>2026-04-17T07:56:52.023Z</time></trkpt><trkpt lat="43.8395759" lon="11.2301938"><ele>281.0</ele><time>2026-04-17T07:56:54.945Z</time></trkpt><trkpt lat="43.8396388" lon="11.2302332"><ele>285.0</ele><time>2026-04-17T07:56:56.952Z</time></trkpt><trkpt lat="43.8397155" lon="11.2302479"><ele>285.0</ele><time>2026-04-17T07:56:58.943Z</time></trkpt><trkpt lat="43.8397822" lon="11.2302268"><ele>285.0</ele><time>2026-04-17T07:57:00.96Z</time></trkpt><trkpt lat="43.8398675" lon="11.2302446"><ele>285.0</ele><time>2026-04-17T07:57:02.959Z</time></trkpt><trkpt lat="43.839946" lon="11.2302847"><ele>285.0</ele><time>2026-04-17T07:57:04.962Z</time></trkpt><trkpt lat="43.8400257" lon="11.2303187"><ele>285.0</ele><time>2026-04-17T07:57:06.955Z</time></trkpt><trkpt lat="43.8401064" lon="11.2303594"><ele>285.0</ele><time>2026-04-17T07:57:08.965Z</time></trkpt><trkpt lat="43.8401926" lon="11.2304087"><ele>287.0</ele><time>2026-04-17T07:57:10.967Z</time></trkpt><trkpt lat="43.8402726" lon="11.2304774"><ele>289.0</ele><time>2026-04-17T07:57:12.962Z</time></trkpt><trkpt lat="43.8403316" lon="11.2305411"><ele>291.0</ele><time>2026-04-17T07:57:14.97Z</time></trkpt><trkpt lat="43.8404015" lon="11.2306225"><ele>293.0</ele><time>2026-04-17T07:57:17.962Z</time></trkpt><trkpt lat="43.8404515" lon="11.2306781"><ele>295.0</ele><time>2026-04-17T07:57:19.95Z</time></trkpt><trkpt lat="43.8405302" lon="11.2307256"><ele>297.0</ele><time>2026-04-17T07:57:22.961Z</time></trkpt><trkpt lat="43.8405876" lon="11.2307621"><ele>298.1666666666667</ele><time>2026-04-17T07:57:24.962Z</time></trkpt><trkpt lat="43.8406302" lon="11.2308275"><ele>299.3333333333333</ele><time>2026-04-17T07:57:26.943Z</time></trkpt><trkpt lat="43.8407158" lon="11.2308847"><ele>300.5</ele><time>2026-04-17T07:57:29.956Z</time></trkpt><trkpt lat="43.8408004" lon="11.2309645"><ele>301.66666666666663</ele><time>2026-04-17T07:57:31.958Z</time></trkpt><trkpt lat="43.8408623" lon="11.2310091"><ele>302.8333333333333</ele><time>2026-04-17T07:57:33.962Z</time></trkpt><trkpt lat="43.8409327" lon="11.2310364"><ele>304.0</ele><time>2026-04-17T07:57:35.958Z</time></trkpt><trkpt lat="43.8409872" lon="11.2310809"><ele>307.8333333333333</ele><time>2026-04-17T07:57:37.954Z</time></trkpt><trkpt lat="43.8410565" lon="11.2311612"><ele>311.66666666666663</ele><time>2026-04-17T07:57:40.952Z</time></trkpt><trkpt lat="43.8411056" lon="11.2312333"><ele>315.5</ele><time>2026-04-17T07:57:42.964Z</time></trkpt><trkpt lat="43.8411467" lon="11.2313017"><ele>319.3333333333333</ele><time>2026-04-17T07:57:44.966Z</time></trkpt><trkpt lat="43.8412033" lon="11.231364"><ele>323.1666666666667</ele><time>2026-04-17T07:57:46.966Z</time></trkpt><trkpt lat="43.841288" lon="11.2314042"><ele>327.0</ele><time>2026-04-17T07:57:48.962Z</time></trkpt><trkpt lat="43.8413603" lon="11.231425"><ele>327.0</ele><time>2026-04-17T07:57:51.029Z</time></trkpt><trkpt lat="43.8414276" lon="11.2314337"><ele>327.0</ele><time>2026-04-17T07:57:52.977Z</time></trkpt><trkpt lat="43.8414899" lon="11.2314752"><ele>327.0</ele><time>2026-04-17T07:57:54.976Z</time></trkpt><trkpt lat="43.8415275" lon="11.2315508"><ele>327.0</ele><time>2026-04-17T07:57:56.972Z</time></trkpt><trkpt lat="43.8415686" lon="11.2316264"><ele>327.0</ele><time>2026-04-17T07:57:58.966Z</time></trkpt><trkpt lat="43.8416268" lon="11.2316883"><ele>327.0</ele><time>2026-04-17T07:58:00.976Z</time></trkpt><trkpt lat="43.8416865" lon="11.2317654"><ele>327.0</ele><time>2026-04-17T07:58:02.976Z</time></trkpt><trkpt lat="43.8417546" lon="11.231835"><ele>333.20000000000005</ele><time>2026-04-17T07:58:04.966Z</time></trkpt><trkpt lat="43.8418257" lon="11.2319098"><ele>339.4</ele><time>2026-04-17T07:58:06.972Z</time></trkpt><trkpt lat="43.8418996" lon="11.231982"><ele>345.6</ele><time>2026-04-17T07:58:08.974Z</time></trkpt><trkpt lat="43.8419782" lon="11.2320594"><ele>351.79999999999995</ele><time>2026-04-17T07:58:10.972Z</time></trkpt><trkpt lat="43.8420716" lon="11.2321292"><ele>358.0</ele><time>2026-04-17T07:58:12.97Z</time></trkpt><trkpt lat="43.8421467" lon="11.2321786"><ele>358.0</ele><time>2026-04-17T07:58:15.013Z</time></trkpt><trkpt lat="43.84222" lon="11.2322452"><ele>358.0</ele><time>2026-04-17T07:58:16.971Z</time></trkpt><trkpt lat="43.8422925" lon="11.2323338"><ele>358.0</ele><time>2026-04-17T07:58:18.979Z</time></trkpt><trkpt lat="43.84235" lon="11.232448"><ele>358.0</ele><time>2026-04-17T07:58:20.975Z</time></trkpt><trkpt lat="43.8423795" lon="11.2325886"><ele>358.0</ele><time>2026-04-17T07:58:22.966Z</time></trkpt><trkpt lat="43.8424042" lon="11.2327511"><ele>360.0</ele><time>2026-04-17T07:58:24.978Z</time></trkpt><trkpt lat="43.8424403" lon="11.2328291"><ele>362.0</ele><time>2026-04-17T07:58:25.973Z</time></trkpt><trkpt lat="43.842481" lon="11.2328971"><ele>364.0</ele><time>2026-04-17T07:58:26.976Z</time></trkpt><trkpt lat="43.8425296" lon="11.2330395"><ele>366.0</ele><time>2026-04-17T07:58:28.975Z</time></trkpt><trkpt lat="43.8425813" lon="11.2331772"><ele>368.0</ele><time>2026-04-17T07:58:30.988Z</time></trkpt><trkpt lat="43.8426585" lon="11.2332915"><ele>368.0</ele><time>2026-04-17T07:58:32.96Z</time></trkpt><trkpt lat="43.8427331" lon="11.2333907"><ele>368.0</ele><time>2026-04-17T07:58:34.944Z</time></trkpt><trkpt lat="43.8428009" lon="11.2334753"><ele>368.0</ele><time>2026-04-17T07:58:36.958Z</time></trkpt><trkpt lat="43.8428558" lon="11.2335355"><ele>368.0</ele><time>2026-04-17T07:58:38.957Z</time></trkpt><trkpt lat="43.8429206" lon="11.2336372"><ele>368.0</ele><time>2026-04-17T07:58:41.972Z</time></trkpt><trkpt lat="43.8429612" lon="11.2337202"><ele>368.0</ele><time>2026-04-17T07:58:43.965Z</time></trkpt><trkpt lat="43.8430069" lon="11.2337951"><ele>368.0</ele><time>2026-04-17T07:58:45.948Z</time></trkpt><trkpt lat="43.8430542" lon="11.2338575"><ele>368.0</ele><time>2026-04-17T07:58:47.957Z</time></trkpt><trkpt lat="43.843104" lon="11.2339407"><ele>368.0</ele><time>2026-04-17T07:58:50.965Z</time></trkpt><trkpt lat="43.8431057" lon="11.2340333"><ele>368.0</ele><time>2026-04-17T07:58:52.946Z</time></trkpt><trkpt lat="43.8431008" lon="11.2341376"><ele>368.0</ele><time>2026-04-17T07:58:54.944Z</time></trkpt><trkpt lat="43.8431355" lon="11.2342514"><ele>368.0</ele><time>2026-04-17T07:58:56.965Z</time></trkpt><trkpt lat="43.8431906" lon="11.234312"><ele>368.0</ele><time>2026-04-17T07:58:58.96Z</time></trkpt><trkpt lat="43.8432237" lon="11.2343945"><ele>367.33333333333337</ele><time>2026-04-17T07:59:00.961Z</time></trkpt><trkpt lat="43.8432776" lon="11.2344725"><ele>366.6666666666667</ele><time>2026-04-17T07:59:02.981Z</time></trkpt><trkpt lat="43.8433333" lon="11.2345413"><ele>366.0</ele><time>2026-04-17T07:59:04.974Z</time></trkpt><trkpt lat="43.8433767" lon="11.2346293"><ele>365.3333333333333</ele><time>2026-04-17T07:59:06.964Z</time></trkpt><trkpt lat="43.8433909" lon="11.2347593"><ele>364.66666666666663</ele><time>2026-04-17T07:59:08.973Z</time></trkpt><trkpt lat="43.8433863" lon="11.234887"><ele>364.0</ele><time>2026-04-17T07:59:10.988Z</time></trkpt><trkpt lat="43.8434111" lon="11.2350032"><ele>363.8333333333333</ele><time>2026-04-17T07:59:12.969Z</time></trkpt><trkpt lat="43.8434573" lon="11.2350711"><ele>363.66666666666663</ele><time>2026-04-17T07:59:14.956Z</time></trkpt><trkpt lat="43.8435399" lon="11.2351339"><ele>363.5</ele><time>2026-04-17T07:59:17.967Z</time></trkpt><trkpt lat="43.8435884" lon="11.2352204"><ele>363.3333333333333</ele><time>2026-04-17T07:59:19.974Z</time></trkpt><trkpt lat="43.8436248" lon="11.2353193"><ele>363.1666666666667</ele><time>2026-04-17T07:59:21.964Z</time></trkpt><trkpt lat="43.8436533" lon="11.2354433"><ele>363.0</ele><time>2026-04-17T07:59:23.978Z</time></trkpt><trkpt lat="43.8436657" lon="11.2355467"><ele>368.59999999999997</ele><time>2026-04-17T07:59:24.963Z</time></trkpt><trkpt lat="43.843687" lon="11.2356398"><ele>374.2</ele><time>2026-04-17T07:59:25.953Z</time></trkpt><trkpt lat="43.843711" lon="11.2357607"><ele>379.8</ele><time>2026-04-17T07:59:26.968Z</time></trkpt><trkpt lat="43.8437486" lon="11.2358995"><ele>385.4</ele><time>2026-04-17T07:59:27.974Z</time></trkpt><trkpt lat="43.843787" lon="11.2360543"><ele>391.0</ele><time>2026-04-17T07:59:28.972Z</time></trkpt><trkpt lat="43.8438203" lon="11.2362041"><ele>391.0</ele><time>2026-04-17T07:59:29.963Z</time></trkpt><trkpt lat="43.8438421" lon="11.2363633"><ele>391.0</ele><time>2026-04-17T07:59:30.991Z</time></trkpt><trkpt lat="43.8438588" lon="11.2365291"><ele>391.0</ele><time>2026-04-17T07:59:32.032Z</time></trkpt><trkpt lat="43.8438749" lon="11.2366767"><ele>391.0</ele><time>2026-04-17T07:59:32.955Z</time></trkpt><trkpt lat="43.8439014" lon="11.2367873"><ele>391.0</ele><time>2026-04-17T07:59:33.952Z</time></trkpt><trkpt lat="43.8439261" lon="11.2368695"><ele>390.0</ele><time>2026-04-17T07:59:34.97Z</time></trkpt><trkpt lat="43.8440007" lon="11.2370105"><ele>389.0</ele><time>2026-04-17T07:59:37.027Z</time></trkpt><trkpt lat="43.8440677" lon="11.237181"><ele>388.0</ele><time>2026-04-17T07:59:38.967Z</time></trkpt><trkpt lat="43.8441135" lon="11.2372862"><ele>387.0</ele><time>2026-04-17T07:59:39.963Z</time></trkpt><trkpt lat="43.8441537" lon="11.2373853"><ele>386.0</ele><time>2026-04-17T07:59:41.018Z</time></trkpt><trkpt lat="43.8442017" lon="11.2374697"><ele>384.66666666666663</ele><time>2026-04-17T07:59:42.035Z</time></trkpt><trkpt lat="43.8442515" lon="11.2375722"><ele>383.3333333333333</ele><time>2026-04-17T07:59:42.96Z</time></trkpt><trkpt lat="43.8443026" lon="11.2376805"><ele>382.0</ele><time>2026-04-17T07:59:43.971Z</time></trkpt><trkpt lat="43.8443436" lon="11.2377946"><ele>380.66666666666663</ele><time>2026-04-17T07:59:44.98Z</time></trkpt><trkpt lat="43.8443695" lon="11.2378955"><ele>379.3333333333333</ele><time>2026-04-17T07:59:46.026Z</time></trkpt><trkpt lat="43.8444018" lon="11.2379949"><ele>378.0</ele><time>2026-04-17T07:59:47.012Z</time></trkpt><trkpt lat="43.8444318" lon="11.2380943"><ele>381.6666666666667</ele><time>2026-04-17T07:59:47.947Z</time></trkpt><trkpt lat="43.8444621" lon="11.2381948"><ele>385.33333333333337</ele><time>2026-04-17T07:59:48.966Z</time></trkpt><trkpt lat="43.8445059" lon="11.2382938"><ele>389.0</ele><time>2026-04-17T07:59:50.032Z</time></trkpt><trkpt lat="43.8445448" lon="11.2383914"><ele>392.6666666666667</ele><time>2026-04-17T07:59:51.036Z</time></trkpt><trkpt lat="43.8445774" lon="11.2384764"><ele>396.33333333333337</ele><time>2026-04-17T07:59:52.04Z</time></trkpt><trkpt lat="43.8446427" lon="11.2386134"><ele>400.0</ele><time>2026-04-17T07:59:53.983Z</time></trkpt><trkpt lat="43.8446819" lon="11.2387258"><ele>400.00000000000006</ele><time>2026-04-17T07:59:56.03Z</time></trkpt><trkpt lat="43.8446888" lon="11.2388374"><ele>400.0</ele><time>2026-04-17T07:59:57.959Z</time></trkpt><trkpt lat="43.8446924" lon="11.2389258"><ele>400.0</ele><time>2026-04-17T07:59:59.962Z</time></trkpt><trkpt lat="43.8446841" lon="11.2390244"><ele>400.0</ele><time>2026-04-17T08:00:03.962Z</time></trkpt><trkpt lat="43.8447136" lon="11.2391061"><ele>400.0</ele><time>2026-04-17T08:00:08.985Z</time></trkpt><trkpt lat="43.844779" lon="11.2391169"><ele>400.00000000000006</ele><time>2026-04-17T08:09:45.947Z</time></trkpt><trkpt lat="43.8447109" lon="11.2391125"><ele>400.0</ele><time>2026-04-17T08:10:42.948Z</time></trkpt><trkpt lat="43.8446892" lon="11.2390252"><ele>399.5714285714286</ele><time>2026-04-17T08:14:21.954Z</time></trkpt><trkpt lat="43.8446285" lon="11.2390624"><ele>399.14285714285717</ele><time>2026-04-17T08:14:24.947Z</time></trkpt><trkpt lat="43.8445717" lon="11.2391093"><ele>398.7142857142857</ele><time>2026-04-17T08:14:26.949Z</time></trkpt><trkpt lat="43.844498" lon="11.2391211"><ele>398.28571428571433</ele><time>2026-04-17T08:14:28.973Z</time></trkpt><trkpt lat="43.84443" lon="11.2390986"><ele>397.85714285714283</ele><time>2026-04-17T08:14:30.96Z</time></trkpt><trkpt lat="43.8443618" lon="11.2390407"><ele>397.42857142857144</ele><time>2026-04-17T08:14:32.961Z</time></trkpt><trkpt lat="43.8443199" lon="11.2389735"><ele>397.0</ele><time>2026-04-17T08:14:33.963Z</time></trkpt><trkpt lat="43.8442133" lon="11.2388822"><ele>392.20000000000005</ele><time>2026-04-17T08:14:35.966Z</time></trkpt><trkpt lat="43.8441314" lon="11.2388505"><ele>387.4</ele><time>2026-04-17T08:14:37.978Z</time></trkpt><trkpt lat="43.8440332" lon="11.2388256"><ele>382.6</ele><time>2026-04-17T08:14:39.945Z</time></trkpt><trkpt lat="43.8439232" lon="11.2387831"><ele>377.79999999999995</ele><time>2026-04-17T08:14:41.971Z</time></trkpt><trkpt lat="43.8438146" lon="11.2387211"><ele>373.0</ele><time>2026-04-17T08:14:43.957Z</time></trkpt><trkpt lat="43.8437445" lon="11.2387051"><ele>373.0</ele><time>2026-04-17T08:14:44.953Z</time></trkpt><trkpt lat="43.843676" lon="11.238699"><ele>373.0</ele><time>2026-04-17T08:14:45.965Z</time></trkpt><trkpt lat="43.8436039" lon="11.2386812"><ele>373.0</ele><time>2026-04-17T08:14:46.986Z</time></trkpt><trkpt lat="43.843536" lon="11.2386602"><ele>373.0</ele><time>2026-04-17T08:14:47.964Z</time></trkpt><trkpt lat="43.8434689" lon="11.2386367"><ele>373.0</ele><time>2026-04-17T08:14:48.966Z</time></trkpt><trkpt lat="43.8433992" lon="11.238623"><ele>373.0</ele><time>2026-04-17T08:14:49.964Z</time></trkpt><trkpt lat="43.8432894" lon="11.2385978"><ele>372.0</ele><time>2026-04-17T08:14:51.965Z</time></trkpt><trkpt lat="43.8431758" lon="11.2385443"><ele>371.0</ele><time>2026-04-17T08:14:53.969Z</time></trkpt><trkpt lat="43.8430599" lon="11.2384825"><ele>370.0</ele><time>2026-04-17T08:14:55.951Z</time></trkpt><trkpt lat="43.8429972" lon="11.2384476"><ele>369.0</ele><time>2026-04-17T08:14:56.963Z</time></trkpt><trkpt lat="43.842935" lon="11.2384008"><ele>368.0</ele><time>2026-04-17T08:14:57.963Z</time></trkpt><trkpt lat="43.8428766" lon="11.2383546"><ele>368.0</ele><time>2026-04-17T08:14:58.962Z</time></trkpt><trkpt lat="43.8427678" lon="11.2382834"><ele>368.0</ele><time>2026-04-17T08:15:00.949Z</time></trkpt><trkpt lat="43.8426656" lon="11.2381752"><ele>368.0</ele><time>2026-04-17T08:15:02.952Z</time></trkpt><trkpt lat="43.8426134" lon="11.2381107"><ele>368.0</ele><time>2026-04-17T08:15:03.969Z</time></trkpt><trkpt lat="43.8425131" lon="11.2380084"><ele>368.0</ele><time>2026-04-17T08:15:05.967Z</time></trkpt><trkpt lat="43.8424531" lon="11.2379736"><ele>364.33333333333337</ele><time>2026-04-17T08:15:06.953Z</time></trkpt><trkpt lat="43.8423898" lon="11.2379546"><ele>360.6666666666667</ele><time>2026-04-17T08:15:07.947Z</time></trkpt><trkpt lat="43.842319" lon="11.2379367"><ele>357.0</ele><time>2026-04-17T08:15:08.972Z</time></trkpt><trkpt lat="43.8422488" lon="11.23794"><ele>353.3333333333333</ele><time>2026-04-17T08:15:09.972Z</time></trkpt><trkpt lat="43.842186" lon="11.2379603"><ele>349.66666666666663</ele><time>2026-04-17T08:15:10.954Z</time></trkpt><trkpt lat="43.8420775" lon="11.2379865"><ele>346.0</ele><time>2026-04-17T08:15:12.968Z</time></trkpt><trkpt lat="43.8419745" lon="11.2380249"><ele>346.0</ele><time>2026-04-17T08:15:14.97Z</time></trkpt><trkpt lat="43.841874" lon="11.2380683"><ele>346.0</ele><time>2026-04-17T08:15:16.967Z</time></trkpt><trkpt lat="43.8417753" lon="11.2380975"><ele>346.0</ele><time>2026-04-17T08:15:18.957Z</time></trkpt><trkpt lat="43.8416771" lon="11.2381431"><ele>346.0</ele><time>2026-04-17T08:15:20.964Z</time></trkpt><trkpt lat="43.8415797" lon="11.2381975"><ele>346.0</ele><time>2026-04-17T08:15:22.964Z</time></trkpt><trkpt lat="43.8414938" lon="11.2382322"><ele>346.0</ele><time>2026-04-17T08:15:24.962Z</time></trkpt><trkpt lat="43.8413953" lon="11.2382195"><ele>346.0</ele><time>2026-04-17T08:15:26.96Z</time></trkpt><trkpt lat="43.8412912" lon="11.2381554"><ele>346.0</ele><time>2026-04-17T08:15:28.958Z</time></trkpt><trkpt lat="43.8412372" lon="11.2381088"><ele>346.0</ele><time>2026-04-17T08:15:29.962Z</time></trkpt><trkpt lat="43.8411242" lon="11.2380088"><ele>346.0</ele><time>2026-04-17T08:15:31.955Z</time></trkpt><trkpt lat="43.8410646" lon="11.2379551"><ele>346.0</ele><time>2026-04-17T08:15:32.957Z</time></trkpt><trkpt lat="43.8410126" lon="11.237902"><ele>346.0</ele><time>2026-04-17T08:15:33.959Z</time></trkpt><trkpt lat="43.840961" lon="11.2378472"><ele>346.0</ele><time>2026-04-17T08:15:34.966Z</time></trkpt><trkpt lat="43.840864" lon="11.2377486"><ele>346.0</ele><time>2026-04-17T08:15:36.953Z</time></trkpt><trkpt lat="43.8408112" lon="11.2376996"><ele>346.0</ele><time>2026-04-17T08:15:37.968Z</time></trkpt><trkpt lat="43.8407194" lon="11.2376079"><ele>346.0</ele><time>2026-04-17T08:15:39.961Z</time></trkpt><trkpt lat="43.8406396" lon="11.2375071"><ele>346.0</ele><time>2026-04-17T08:15:41.959Z</time></trkpt><trkpt lat="43.840557" lon="11.2374261"><ele>346.0</ele><time>2026-04-17T08:15:43.968Z</time></trkpt><trkpt lat="43.840483" lon="11.237295"><ele>346.0</ele><time>2026-04-17T08:15:45.964Z</time></trkpt><trkpt lat="43.8404461" lon="11.2372141"><ele>346.0</ele><time>2026-04-17T08:15:46.967Z</time></trkpt><trkpt lat="43.8404139" lon="11.2371323"><ele>346.0</ele><time>2026-04-17T08:15:47.96Z</time></trkpt><trkpt lat="43.8403677" lon="11.2370044"><ele>344.66666666666663</ele><time>2026-04-17T08:15:49.943Z</time></trkpt><trkpt lat="43.8403141" lon="11.2369471"><ele>343.3333333333333</ele><time>2026-04-17T08:15:51.963Z</time></trkpt><trkpt lat="43.8402492" lon="11.2369783"><ele>342.0</ele><time>2026-04-17T08:15:53.957Z</time></trkpt><trkpt lat="43.8401437" lon="11.2370194"><ele>340.6666666666667</ele><time>2026-04-17T08:15:55.965Z</time></trkpt><trkpt lat="43.8400808" lon="11.2370481"><ele>339.33333333333337</ele><time>2026-04-17T08:15:56.963Z</time></trkpt><trkpt lat="43.8399734" lon="11.2370881"><ele>338.0</ele><time>2026-04-17T08:15:58.959Z</time></trkpt><trkpt lat="43.8398747" lon="11.2371192"><ele>338.0</ele><time>2026-04-17T08:16:00.963Z</time></trkpt><trkpt lat="43.8397778" lon="11.2371519"><ele>338.0</ele><time>2026-04-17T08:16:02.951Z</time></trkpt><trkpt lat="43.8396931" lon="11.2371714"><ele>338.0</ele><time>2026-04-17T08:16:04.989Z</time></trkpt><trkpt lat="43.8396131" lon="11.2371464"><ele>338.0</ele><time>2026-04-17T08:16:06.962Z</time></trkpt><trkpt lat="43.8395046" lon="11.2371122"><ele>338.0</ele><time>2026-04-17T08:16:08.961Z</time></trkpt><trkpt lat="43.839382" lon="11.2370735"><ele>338.0</ele><time>2026-04-17T08:16:10.946Z</time></trkpt><trkpt lat="43.8393142" lon="11.2370433"><ele>338.0</ele><time>2026-04-17T08:16:11.958Z</time></trkpt><trkpt lat="43.8392055" lon="11.2370092"><ele>338.0</ele><time>2026-04-17T08:16:13.967Z</time></trkpt><trkpt lat="43.83908" lon="11.2369786"><ele>338.0</ele><time>2026-04-17T08:16:15.96Z</time></trkpt><trkpt lat="43.8390132" lon="11.2369597"><ele>338.0</ele><time>2026-04-17T08:16:16.959Z</time></trkpt><trkpt lat="43.8389374" lon="11.236937"><ele>337.83333333333337</ele><time>2026-04-17T08:16:17.957Z</time></trkpt><trkpt lat="43.8388522" lon="11.2369023"><ele>337.6666666666667</ele><time>2026-04-17T08:16:18.957Z</time></trkpt><trkpt lat="43.8387743" lon="11.2368739"><ele>337.5</ele><time>2026-04-17T08:16:20.008Z</time></trkpt><trkpt lat="43.8386968" lon="11.2368448"><ele>337.3333333333333</ele><time>2026-04-17T08:16:20.954Z</time></trkpt><trkpt lat="43.8386156" lon="11.2368025"><ele>337.16666666666663</ele><time>2026-04-17T08:16:21.959Z</time></trkpt><trkpt lat="43.8385369" lon="11.236762"><ele>337.0</ele><time>2026-04-17T08:16:22.947Z</time></trkpt><trkpt lat="43.8384629" lon="11.2367258"><ele>338.16666666666663</ele><time>2026-04-17T08:16:23.96Z</time></trkpt><trkpt lat="43.8383971" lon="11.2366848"><ele>339.3333333333333</ele><time>2026-04-17T08:16:24.971Z</time></trkpt><trkpt lat="43.8383318" lon="11.2366514"><ele>340.5</ele><time>2026-04-17T08:16:25.965Z</time></trkpt><trkpt lat="43.8382624" lon="11.2366123"><ele>341.6666666666667</ele><time>2026-04-17T08:16:27.033Z</time></trkpt><trkpt lat="43.8381943" lon="11.2365724"><ele>342.83333333333337</ele><time>2026-04-17T08:16:27.963Z</time></trkpt><trkpt lat="43.8381152" lon="11.2365232"><ele>344.0</ele><time>2026-04-17T08:16:28.966Z</time></trkpt><trkpt lat="43.8380317" lon="11.236471"><ele>342.5</ele><time>2026-04-17T08:16:29.969Z</time></trkpt><trkpt lat="43.8379496" lon="11.2364244"><ele>341.0</ele><time>2026-04-17T08:16:30.948Z</time></trkpt><trkpt lat="43.837877" lon="11.2363883"><ele>339.5</ele><time>2026-04-17T08:16:31.967Z</time></trkpt><trkpt lat="43.8378156" lon="11.2363486"><ele>338.0</ele><time>2026-04-17T08:16:32.95Z</time></trkpt><trkpt lat="43.8377514" lon="11.2363049"><ele>336.5</ele><time>2026-04-17T08:16:34.041Z</time></trkpt><trkpt lat="43.8376875" lon="11.2362704"><ele>335.0</ele><time>2026-04-17T08:16:35.018Z</time></trkpt><trkpt lat="43.8376105" lon="11.2362204"><ele>335.0</ele><time>2026-04-17T08:16:35.965Z</time></trkpt><trkpt lat="43.8375324" lon="11.2361644"><ele>335.0</ele><time>2026-04-17T08:16:36.964Z</time></trkpt><trkpt lat="43.8374537" lon="11.2361113"><ele>335.0</ele><time>2026-04-17T08:16:37.973Z</time></trkpt><trkpt lat="43.8373811" lon="11.2360679"><ele>335.0</ele><time>2026-04-17T08:16:39.027Z</time></trkpt><trkpt lat="43.8373084" lon="11.2360229"><ele>335.0</ele><time>2026-04-17T08:16:40.004Z</time></trkpt><trkpt lat="43.8372355" lon="11.2359817"><ele>335.0</ele><time>2026-04-17T08:16:40.964Z</time></trkpt><trkpt lat="43.8371573" lon="11.2359353"><ele>335.0</ele><time>2026-04-17T08:16:41.96Z</time></trkpt><trkpt lat="43.8370925" lon="11.2358855"><ele>335.0</ele><time>2026-04-17T08:16:42.964Z</time></trkpt><trkpt lat="43.8370315" lon="11.2358408"><ele>335.0</ele><time>2026-04-17T08:16:44.035Z</time></trkpt><trkpt lat="43.8369715" lon="11.2357928"><ele>335.0</ele><time>2026-04-17T08:16:45.036Z</time></trkpt><trkpt lat="43.8369145" lon="11.2357417"><ele>335.0</ele><time>2026-04-17T08:16:45.966Z</time></trkpt><trkpt lat="43.836815" lon="11.2356711"><ele>335.0</ele><time>2026-04-17T08:16:48.043Z</time></trkpt><trkpt lat="43.8367299" lon="11.2356639"><ele>335.33333333333337</ele><time>2026-04-17T08:16:50.973Z</time></trkpt><trkpt lat="43.8366469" lon="11.2356969"><ele>335.6666666666667</ele><time>2026-04-17T08:16:54.965Z</time></trkpt><trkpt lat="43.8365602" lon="11.2357133"><ele>336.0</ele><time>2026-04-17T08:16:57.968Z</time></trkpt><trkpt lat="43.8364801" lon="11.2357684"><ele>336.3333333333333</ele><time>2026-04-17T08:17:00.964Z</time></trkpt><trkpt lat="43.8364093" lon="11.2358192"><ele>336.66666666666663</ele><time>2026-04-17T08:17:03.967Z</time></trkpt><trkpt lat="43.8363387" lon="11.2358741"><ele>337.0</ele><time>2026-04-17T08:17:06.96Z</time></trkpt><trkpt lat="43.8362773" lon="11.2359338"><ele>337.0</ele><time>2026-04-17T08:17:09.036Z</time></trkpt><trkpt lat="43.8362103" lon="11.2359867"><ele>337.0</ele><time>2026-04-17T08:17:11.973Z</time></trkpt><trkpt lat="43.8361434" lon="11.2360421"><ele>337.0</ele><time>2026-04-17T08:17:14.964Z</time></trkpt><trkpt lat="43.8360895" lon="11.2360885"><ele>337.0</ele><time>2026-04-17T08:17:16.971Z</time></trkpt><trkpt lat="43.8360116" lon="11.2361605"><ele>337.0</ele><time>2026-04-17T08:17:20.031Z</time></trkpt><trkpt lat="43.8359568" lon="11.2362294"><ele>337.0</ele><time>2026-04-17T08:17:21.959Z</time></trkpt><trkpt lat="43.8359074" lon="11.2363098"><ele>336.14285714285717</ele><time>2026-04-17T08:17:23.962Z</time></trkpt><trkpt lat="43.8358539" lon="11.2363738"><ele>335.2857142857143</ele><time>2026-04-17T08:17:25.95Z</time></trkpt><trkpt lat="43.8358027" lon="11.2364655"><ele>334.42857142857144</ele><time>2026-04-17T08:17:29.03Z</time></trkpt><trkpt lat="43.8357622" lon="11.2365362"><ele>333.57142857142856</ele><time>2026-04-17T08:17:30.964Z</time></trkpt><trkpt lat="43.8357153" lon="11.2366021"><ele>332.7142857142857</ele><time>2026-04-17T08:17:48.012Z</time></trkpt><trkpt lat="43.8356839" lon="11.2366785"><ele>331.8571428571429</ele><time>2026-04-17T08:17:50.975Z</time></trkpt><trkpt lat="43.8356382" lon="11.2367719"><ele>331.0</ele><time>2026-04-17T08:17:52.948Z</time></trkpt><trkpt lat="43.8355847" lon="11.2368952"><ele>334.8</ele><time>2026-04-17T08:17:54.965Z</time></trkpt><trkpt lat="43.8355366" lon="11.2370179"><ele>338.6</ele><time>2026-04-17T08:17:56.974Z</time></trkpt><trkpt lat="43.8354832" lon="11.2371225"><ele>342.4</ele><time>2026-04-17T08:17:58.97Z</time></trkpt><trkpt lat="43.8354147" lon="11.237224"><ele>346.2</ele><time>2026-04-17T08:18:00.961Z</time></trkpt><trkpt lat="43.8353385" lon="11.2373254"><ele>350.0</ele><time>2026-04-17T08:18:02.962Z</time></trkpt><trkpt lat="43.8352646" lon="11.2374362"><ele>349.33333333333337</ele><time>2026-04-17T08:18:04.971Z</time></trkpt><trkpt lat="43.8352077" lon="11.2375338"><ele>348.6666666666667</ele><time>2026-04-17T08:18:06.972Z</time></trkpt><trkpt lat="43.8351561" lon="11.2376284"><ele>348.0</ele><time>2026-04-17T08:18:09.963Z</time></trkpt><trkpt lat="43.8351095" lon="11.2377359"><ele>347.3333333333333</ele><time>2026-04-17T08:18:12.97Z</time></trkpt><trkpt lat="43.8350691" lon="11.2378089"><ele>346.66666666666663</ele><time>2026-04-17T08:18:15.035Z</time></trkpt><trkpt lat="43.8350375" lon="11.2378975"><ele>346.0</ele><time>2026-04-17T08:18:17.974Z</time></trkpt><trkpt lat="43.8350966" lon="11.2379728"><ele>346.0</ele><time>2026-04-17T08:18:21.991Z</time></trkpt><trkpt lat="43.8351259" lon="11.2380555"><ele>346.0</ele><time>2026-04-17T08:18:25.985Z</time></trkpt><trkpt lat="43.8351639" lon="11.2381547"><ele>346.0</ele><time>2026-04-17T08:18:29.98Z</time></trkpt><trkpt lat="43.8351875" lon="11.2382388"><ele>346.0</ele><time>2026-04-17T08:18:33.055Z</time></trkpt><trkpt lat="43.8351817" lon="11.238363"><ele>346.0</ele><time>2026-04-17T08:18:37.967Z</time></trkpt><trkpt lat="43.8352148" lon="11.2384389"><ele>346.0</ele><time>2026-04-17T08:18:39.968Z</time></trkpt><trkpt lat="43.8352548" lon="11.2385219"><ele>346.0</ele><time>2026-04-17T08:18:41.98Z</time></trkpt><trkpt lat="43.8353203" lon="11.238618"><ele>349.5</ele><time>2026-04-17T08:18:43.971Z</time></trkpt><trkpt lat="43.8353849" lon="11.2387344"><ele>353.0</ele><time>2026-04-17T08:18:45.967Z</time></trkpt><trkpt lat="43.8354514" lon="11.2388154"><ele>356.5</ele><time>2026-04-17T08:18:48.013Z</time></trkpt><trkpt lat="43.8355206" lon="11.2389067"><ele>360.0</ele><time>2026-04-17T08:18:50.965Z</time></trkpt><trkpt lat="43.8355725" lon="11.238993"><ele>363.5</ele><time>2026-04-17T08:18:53.015Z</time></trkpt><trkpt lat="43.8356143" lon="11.2390796"><ele>367.0</ele><time>2026-04-17T08:18:54.955Z</time></trkpt><trkpt lat="43.835667" lon="11.2391881"><ele>367.0</ele><time>2026-04-17T08:18:56.968Z</time></trkpt><trkpt lat="43.8357252" lon="11.2392789"><ele>367.0</ele><time>2026-04-17T08:18:58.956Z</time></trkpt><trkpt lat="43.8357554" lon="11.2393619"><ele>367.0</ele><time>2026-04-17T08:19:00.946Z</time></trkpt><trkpt lat="43.8357699" lon="11.2394499"><ele>367.0</ele><time>2026-04-17T08:19:02.959Z</time></trkpt><trkpt lat="43.8357717" lon="11.2395632"><ele>367.0</ele><time>2026-04-17T08:19:05.96Z</time></trkpt><trkpt lat="43.8357523" lon="11.2396585"><ele>367.0</ele><time>2026-04-17T08:19:08.961Z</time></trkpt><trkpt lat="43.8357524" lon="11.2397463"><ele>367.0</ele><time>2026-04-17T08:19:11.963Z</time></trkpt><trkpt lat="43.8357573" lon="11.2398462"><ele>367.0</ele><time>2026-04-17T08:19:14.955Z</time></trkpt><trkpt lat="43.8357767" lon="11.2399654"><ele>367.0</ele><time>2026-04-17T08:19:18.027Z</time></trkpt><trkpt lat="43.8358013" lon="11.2400531"><ele>367.0</ele><time>2026-04-17T08:19:19.98Z</time></trkpt><trkpt lat="43.8358313" lon="11.2401581"><ele>367.0</ele><time>2026-04-17T08:19:21.973Z</time></trkpt><trkpt lat="43.8358667" lon="11.2402637"><ele>367.0</ele><time>2026-04-17T08:19:23.979Z</time></trkpt><trkpt lat="43.8359005" lon="11.2403858"><ele>367.0</ele><time>2026-04-17T08:19:25.958Z</time></trkpt><trkpt lat="43.8359593" lon="11.2405259"><ele>370.6</ele><time>2026-04-17T08:19:27.976Z</time></trkpt><trkpt lat="43.8360225" lon="11.2406549"><ele>374.20000000000005</ele><time>2026-04-17T08:19:29.967Z</time></trkpt><trkpt lat="43.836083" lon="11.2407641"><ele>377.8</ele><time>2026-04-17T08:19:31.973Z</time></trkpt><trkpt lat="43.8361409" lon="11.2409062"><ele>381.4</ele><time>2026-04-17T08:19:33.983Z</time></trkpt><trkpt lat="43.8361877" lon="11.2409957"><ele>385.0</ele><time>2026-04-17T08:19:35.975Z</time></trkpt><trkpt lat="43.8362306" lon="11.2410656"><ele>385.00000000000006</ele><time>2026-04-17T08:19:37.98Z</time></trkpt><trkpt lat="43.8362753" lon="11.2411583"><ele>385.0</ele><time>2026-04-17T08:19:40.967Z</time></trkpt><trkpt lat="43.8362934" lon="11.2412422"><ele>385.0</ele><time>2026-04-17T08:19:43.985Z</time></trkpt><trkpt lat="43.8362789" lon="11.2413762"><ele>385.0</ele><time>2026-04-17T08:19:46.964Z</time></trkpt><trkpt lat="43.8362685" lon="11.241496"><ele>385.00000000000006</ele><time>2026-04-17T08:19:48.969Z</time></trkpt><trkpt lat="43.8362753" lon="11.2416511"><ele>385.0</ele><time>2026-04-17T08:19:50.974Z</time></trkpt><trkpt lat="43.8362848" lon="11.2418029"><ele>384.85714285714283</ele><time>2026-04-17T08:19:52.982Z</time></trkpt><trkpt lat="43.8362929" lon="11.241914"><ele>384.7142857142857</ele><time>2026-04-17T08:19:54.968Z</time></trkpt><trkpt lat="43.8362886" lon="11.2420027"><ele>384.57142857142856</ele><time>2026-04-17T08:19:56.97Z</time></trkpt><trkpt lat="43.836283" lon="11.242125"><ele>384.42857142857144</ele><time>2026-04-17T08:19:59.973Z</time></trkpt><trkpt lat="43.8362855" lon="11.2422193"><ele>384.2857142857143</ele><time>2026-04-17T08:20:03.034Z</time></trkpt><trkpt lat="43.8362644" lon="11.2423208"><ele>384.1428571428571</ele><time>2026-04-17T08:20:05.961Z</time></trkpt><trkpt lat="43.8362377" lon="11.2424109"><ele>384.0</ele><time>2026-04-17T08:20:08.958Z</time></trkpt><trkpt lat="43.8362226" lon="11.2424977"><ele>384.6666666666667</ele><time>2026-04-17T08:20:12.029Z</time></trkpt><trkpt lat="43.8362115" lon="11.2425896"><ele>385.33333333333337</ele><time>2026-04-17T08:20:15.962Z</time></trkpt><trkpt lat="43.8361816" lon="11.2426889"><ele>386.0</ele><time>2026-04-17T08:20:18.972Z</time></trkpt><trkpt lat="43.8361678" lon="11.2427823"><ele>386.6666666666667</ele><time>2026-04-17T08:20:21.976Z</time></trkpt><trkpt lat="43.8361345" lon="11.2428897"><ele>387.33333333333337</ele><time>2026-04-17T08:20:25.966Z</time></trkpt><trkpt lat="43.8361136" lon="11.2430035"><ele>388.0</ele><time>2026-04-17T08:20:28.971Z</time></trkpt><trkpt lat="43.8360927" lon="11.2431087"><ele>388.00000000000006</ele><time>2026-04-17T08:20:31.979Z</time></trkpt><trkpt lat="43.8360665" lon="11.24323"><ele>388.0</ele><time>2026-04-17T08:20:34.961Z</time></trkpt><trkpt lat="43.8360358" lon="11.2433432"><ele>388.0</ele><time>2026-04-17T08:20:37.974Z</time></trkpt><trkpt lat="43.8359954" lon="11.2434536"><ele>388.0</ele><time>2026-04-17T08:20:40.967Z</time></trkpt><trkpt lat="43.8359629" lon="11.2435309"><ele>388.00000000000006</ele><time>2026-04-17T08:20:42.966Z</time></trkpt><trkpt lat="43.8359459" lon="11.2436214"><ele>388.0</ele><time>2026-04-17T08:20:45.958Z</time></trkpt><trkpt lat="43.8360034" lon="11.2437152"><ele>389.6666666666667</ele><time>2026-04-17T08:20:50.968Z</time></trkpt><trkpt lat="43.8360437" lon="11.2438069"><ele>391.33333333333337</ele><time>2026-04-17T08:20:53.967Z</time></trkpt><trkpt lat="43.8360731" lon="11.2438842"><ele>393.0</ele><time>2026-04-17T08:20:56.963Z</time></trkpt><trkpt lat="43.8360764" lon="11.2439765"><ele>394.66666666666663</ele><time>2026-04-17T08:21:00.016Z</time></trkpt><trkpt lat="43.8361256" lon="11.2440777"><ele>396.3333333333333</ele><time>2026-04-17T08:21:02.964Z</time></trkpt><trkpt lat="43.8361884" lon="11.2441767"><ele>398.0</ele><time>2026-04-17T08:21:05.959Z</time></trkpt><trkpt lat="43.8362373" lon="11.2442369"><ele>398.2857142857143</ele><time>2026-04-17T08:21:07.978Z</time></trkpt><trkpt lat="43.8362871" lon="11.2442954"><ele>398.57142857142856</ele><time>2026-04-17T08:21:10.021Z</time></trkpt><trkpt lat="43.8363428" lon="11.2443598"><ele>398.8571428571429</ele><time>2026-04-17T08:21:11.971Z</time></trkpt><trkpt lat="43.8363913" lon="11.2444295"><ele>399.1428571428571</ele><time>2026-04-17T08:21:13.955Z</time></trkpt><trkpt lat="43.8364454" lon="11.2444902"><ele>399.42857142857144</ele><time>2026-04-17T08:21:15.958Z</time></trkpt><trkpt lat="43.8364922" lon="11.2445537"><ele>399.7142857142857</ele><time>2026-04-17T08:21:17.96Z</time></trkpt><trkpt lat="43.8365348" lon="11.2446229"><ele>400.0</ele><time>2026-04-17T08:21:20.045Z</time></trkpt><trkpt lat="43.8365828" lon="11.2446919"><ele>400.0</ele><time>2026-04-17T08:21:21.967Z</time></trkpt><trkpt lat="43.8366346" lon="11.2447696"><ele>400.0</ele><time>2026-04-17T08:21:23.963Z</time></trkpt><trkpt lat="43.8366963" lon="11.2448409"><ele>400.0</ele><time>2026-04-17T08:21:25.954Z</time></trkpt><trkpt lat="43.8367389" lon="11.2449443"><ele>400.0</ele><time>2026-04-17T08:21:28.962Z</time></trkpt><trkpt lat="43.836729" lon="11.2450795"><ele>400.0</ele><time>2026-04-17T08:21:31.964Z</time></trkpt><trkpt lat="43.8367099" lon="11.2452412"><ele>398.0</ele><time>2026-04-17T08:21:33.963Z</time></trkpt><trkpt lat="43.8366949" lon="11.2453272"><ele>396.0</ele><time>2026-04-17T08:21:34.957Z</time></trkpt><trkpt lat="43.8366786" lon="11.2454712"><ele>394.0</ele><time>2026-04-17T08:21:36.961Z</time></trkpt><trkpt lat="43.8366539" lon="11.2455885"><ele>392.0</ele><time>2026-04-17T08:21:38.955Z</time></trkpt><trkpt lat="43.836634" lon="11.2457294"><ele>390.0</ele><time>2026-04-17T08:21:40.963Z</time></trkpt><trkpt lat="43.8365903" lon="11.2458733"><ele>390.0</ele><time>2026-04-17T08:21:42.976Z</time></trkpt><trkpt lat="43.8365377" lon="11.245987"><ele>390.0</ele><time>2026-04-17T08:21:44.961Z</time></trkpt><trkpt lat="43.8364802" lon="11.2461109"><ele>390.0</ele><time>2026-04-17T08:21:46.966Z</time></trkpt><trkpt lat="43.8364123" lon="11.2462177"><ele>390.0</ele><time>2026-04-17T08:21:48.962Z</time></trkpt><trkpt lat="43.8363444" lon="11.2463055"><ele>390.0</ele><time>2026-04-17T08:21:50.958Z</time></trkpt><trkpt lat="43.836259" lon="11.2464035"><ele>391.0</ele><time>2026-04-17T08:21:52.965Z</time></trkpt><trkpt lat="43.8361852" lon="11.2465154"><ele>392.0</ele><time>2026-04-17T08:21:54.955Z</time></trkpt><trkpt lat="43.8361245" lon="11.24663"><ele>393.0</ele><time>2026-04-17T08:21:56.96Z</time></trkpt><trkpt lat="43.8360835" lon="11.2467583"><ele>394.0</ele><time>2026-04-17T08:21:58.965Z</time></trkpt><trkpt lat="43.8360973" lon="11.2468961"><ele>395.0</ele><time>2026-04-17T08:22:00.965Z</time></trkpt><trkpt lat="43.8361289" lon="11.2470305"><ele>395.0</ele><time>2026-04-17T08:22:02.964Z</time></trkpt><trkpt lat="43.8361696" lon="11.247169"><ele>395.0</ele><time>2026-04-17T08:22:04.963Z</time></trkpt><trkpt lat="43.8362249" lon="11.2472892"><ele>395.0</ele><time>2026-04-17T08:22:06.967Z</time></trkpt><trkpt lat="43.8362991" lon="11.2474036"><ele>395.0</ele><time>2026-04-17T08:22:08.964Z</time></trkpt><trkpt lat="43.8363658" lon="11.2475335"><ele>395.0</ele><time>2026-04-17T08:22:10.963Z</time></trkpt><trkpt lat="43.8364058" lon="11.2476082"><ele>393.4</ele><time>2026-04-17T08:22:11.974Z</time></trkpt><trkpt lat="43.8364443" lon="11.2476784"><ele>391.8</ele><time>2026-04-17T08:22:12.97Z</time></trkpt><trkpt lat="43.8364889" lon="11.2477425"><ele>390.20000000000005</ele><time>2026-04-17T08:22:13.963Z</time></trkpt><trkpt lat="43.8365799" lon="11.2478502"><ele>388.6</ele><time>2026-04-17T08:22:15.977Z</time></trkpt><trkpt lat="43.8366703" lon="11.2479513"><ele>387.0</ele><time>2026-04-17T08:22:17.964Z</time></trkpt><trkpt lat="43.8367648" lon="11.2480428"><ele>387.6666666666667</ele><time>2026-04-17T08:22:19.962Z</time></trkpt><trkpt lat="43.8368508" lon="11.248136"><ele>388.33333333333337</ele><time>2026-04-17T08:22:21.944Z</time></trkpt><trkpt lat="43.8368983" lon="11.2481942"><ele>389.0</ele><time>2026-04-17T08:22:22.96Z</time></trkpt><trkpt lat="43.8369499" lon="11.2482595"><ele>389.6666666666667</ele><time>2026-04-17T08:22:23.964Z</time></trkpt><trkpt lat="43.8369974" lon="11.2483187"><ele>390.33333333333337</ele><time>2026-04-17T08:22:24.977Z</time></trkpt><trkpt lat="43.8370769" lon="11.2484187"><ele>391.0</ele><time>2026-04-17T08:22:26.968Z</time></trkpt><trkpt lat="43.8371282" lon="11.248485"><ele>391.00000000000006</ele><time>2026-04-17T08:22:28.966Z</time></trkpt><trkpt lat="43.837174" lon="11.2485485"><ele>391.0</ele><time>2026-04-17T08:22:31.948Z</time></trkpt><trkpt lat="43.8372178" lon="11.2486277"><ele>391.0</ele><time>2026-04-17T08:23:19.966Z</time></trkpt><trkpt lat="43.8372953" lon="11.2487068"><ele>391.0</ele><time>2026-04-17T08:23:22.967Z</time></trkpt><trkpt lat="43.837368" lon="11.2487785"><ele>391.00000000000006</ele><time>2026-04-17T08:23:24.973Z</time></trkpt><trkpt lat="43.83738" lon="11.2488892"><ele>391.0</ele><time>2026-04-17T08:23:27.962Z</time></trkpt><trkpt lat="43.8372825" lon="11.2488326"><ele>391.0</ele><time>2026-04-17T08:23:30.952Z</time></trkpt><trkpt lat="43.8371937" lon="11.2487476"><ele>391.0</ele><time>2026-04-17T08:23:32.959Z</time></trkpt><trkpt lat="43.8370857" lon="11.2486595"><ele>391.0</ele><time>2026-04-17T08:23:34.958Z</time></trkpt><trkpt lat="43.8370261" lon="11.2486065"><ele>391.0</ele><time>2026-04-17T08:23:35.966Z</time></trkpt><trkpt lat="43.8369599" lon="11.2485535"><ele>391.0</ele><time>2026-04-17T08:23:36.958Z</time></trkpt><trkpt lat="43.8368938" lon="11.2485036"><ele>391.00000000000006</ele><time>2026-04-17T08:23:37.957Z</time></trkpt><trkpt lat="43.8368253" lon="11.2484516"><ele>391.0</ele><time>2026-04-17T08:23:38.967Z</time></trkpt><trkpt lat="43.8367591" lon="11.2484015"><ele>391.0</ele><time>2026-04-17T08:23:39.966Z</time></trkpt><trkpt lat="43.8366876" lon="11.2483483"><ele>391.0</ele><time>2026-04-17T08:23:40.952Z</time></trkpt><trkpt lat="43.836619" lon="11.2482955"><ele>391.00000000000006</ele><time>2026-04-17T08:23:41.964Z</time></trkpt><trkpt lat="43.8365527" lon="11.2482438"><ele>391.0</ele><time>2026-04-17T08:23:42.96Z</time></trkpt><trkpt lat="43.8364817" lon="11.2481862"><ele>390.33333333333337</ele><time>2026-04-17T08:23:43.959Z</time></trkpt><trkpt lat="43.8364132" lon="11.2481375"><ele>389.6666666666667</ele><time>2026-04-17T08:23:44.968Z</time></trkpt><trkpt lat="43.8363403" lon="11.2480901"><ele>389.0</ele><time>2026-04-17T08:23:45.969Z</time></trkpt><trkpt lat="43.8362672" lon="11.2480481"><ele>388.33333333333337</ele><time>2026-04-17T08:23:46.969Z</time></trkpt><trkpt lat="43.8361983" lon="11.2480044"><ele>387.6666666666667</ele><time>2026-04-17T08:23:47.968Z</time></trkpt><trkpt lat="43.8361264" lon="11.2479649"><ele>387.0</ele><time>2026-04-17T08:23:48.968Z</time></trkpt><trkpt lat="43.8360645" lon="11.2479357"><ele>387.0</ele><time>2026-04-17T08:23:49.969Z</time></trkpt><trkpt lat="43.8360054" lon="11.2479025"><ele>387.0</ele><time>2026-04-17T08:23:50.97Z</time></trkpt><trkpt lat="43.8359414" lon="11.2478539"><ele>387.0</ele><time>2026-04-17T08:23:51.965Z</time></trkpt><trkpt lat="43.8358823" lon="11.2478015"><ele>387.0</ele><time>2026-04-17T08:23:52.963Z</time></trkpt><trkpt lat="43.8358217" lon="11.2477518"><ele>387.0</ele><time>2026-04-17T08:23:53.967Z</time></trkpt><trkpt lat="43.835752" lon="11.2477113"><ele>387.0</ele><time>2026-04-17T08:23:54.964Z</time></trkpt><trkpt lat="43.8356866" lon="11.2476691"><ele>387.0</ele><time>2026-04-17T08:23:55.968Z</time></trkpt><trkpt lat="43.8356089" lon="11.247624"><ele>383.1666666666667</ele><time>2026-04-17T08:23:56.968Z</time></trkpt><trkpt lat="43.8355411" lon="11.2475819"><ele>379.3333333333333</ele><time>2026-04-17T08:23:57.967Z</time></trkpt><trkpt lat="43.8354744" lon="11.2475263"><ele>375.5</ele><time>2026-04-17T08:23:58.958Z</time></trkpt><trkpt lat="43.8354145" lon="11.2474711"><ele>371.66666666666663</ele><time>2026-04-17T08:23:59.962Z</time></trkpt><trkpt lat="43.83535" lon="11.2474216"><ele>367.8333333333333</ele><time>2026-04-17T08:24:00.964Z</time></trkpt><trkpt lat="43.8352848" lon="11.2473647"><ele>364.0</ele><time>2026-04-17T08:24:01.96Z</time></trkpt><trkpt lat="43.835217" lon="11.2473058"><ele>365.16666666666663</ele><time>2026-04-17T08:24:02.968Z</time></trkpt><trkpt lat="43.8351538" lon="11.2472417"><ele>366.3333333333333</ele><time>2026-04-17T08:24:03.953Z</time></trkpt><trkpt lat="43.8350901" lon="11.2471754"><ele>367.5</ele><time>2026-04-17T08:24:04.969Z</time></trkpt><trkpt lat="43.8350366" lon="11.2471156"><ele>368.6666666666667</ele><time>2026-04-17T08:24:05.964Z</time></trkpt><trkpt lat="43.8349844" lon="11.2470547"><ele>369.83333333333337</ele><time>2026-04-17T08:24:06.962Z</time></trkpt><trkpt lat="43.8349328" lon="11.2469963"><ele>371.0</ele><time>2026-04-17T08:24:07.948Z</time></trkpt><trkpt lat="43.834852" lon="11.2468806"><ele>366.6666666666667</ele><time>2026-04-17T08:24:09.959Z</time></trkpt><trkpt lat="43.8348318" lon="11.2467275"><ele>362.33333333333337</ele><time>2026-04-17T08:24:11.966Z</time></trkpt><trkpt lat="43.8348342" lon="11.2466363"><ele>358.0</ele><time>2026-04-17T08:24:12.964Z</time></trkpt><trkpt lat="43.8348349" lon="11.2465369"><ele>353.6666666666667</ele><time>2026-04-17T08:24:13.971Z</time></trkpt><trkpt lat="43.8348729" lon="11.2463652"><ele>349.3333333333333</ele><time>2026-04-17T08:24:15.958Z</time></trkpt><trkpt lat="43.834899" lon="11.2462802"><ele>345.0</ele><time>2026-04-17T08:24:16.965Z</time></trkpt><trkpt lat="43.8349335" lon="11.2461976"><ele>344.5</ele><time>2026-04-17T08:24:17.976Z</time></trkpt><trkpt lat="43.8349737" lon="11.2461187"><ele>344.0</ele><time>2026-04-17T08:24:18.968Z</time></trkpt><trkpt lat="43.8350288" lon="11.2459867"><ele>343.5</ele><time>2026-04-17T08:24:20.969Z</time></trkpt><trkpt lat="43.8350107" lon="11.2459006"><ele>343.0</ele><time>2026-04-17T08:24:22.969Z</time></trkpt><trkpt lat="43.834916" lon="11.2459104"><ele>342.5</ele><time>2026-04-17T08:24:24.948Z</time></trkpt><trkpt lat="43.8348564" lon="11.2459629"><ele>342.0</ele><time>2026-04-17T08:24:25.957Z</time></trkpt><trkpt lat="43.8347925" lon="11.2460231"><ele>342.0</ele><time>2026-04-17T08:24:26.964Z</time></trkpt><trkpt lat="43.8347158" lon="11.2460765"><ele>342.0</ele><time>2026-04-17T08:24:27.964Z</time></trkpt><trkpt lat="43.834621" lon="11.2461131"><ele>342.0</ele><time>2026-04-17T08:24:28.966Z</time></trkpt><trkpt lat="43.8345293" lon="11.2461547"><ele>342.0</ele><time>2026-04-17T08:24:29.953Z</time></trkpt><trkpt lat="43.8344401" lon="11.2461935"><ele>342.0</ele><time>2026-04-17T08:24:30.96Z</time></trkpt><trkpt lat="43.8343545" lon="11.2462376"><ele>339.0</ele><time>2026-04-17T08:24:31.947Z</time></trkpt><trkpt lat="43.8342712" lon="11.2462898"><ele>336.0</ele><time>2026-04-17T08:24:32.964Z</time></trkpt><trkpt lat="43.83419" lon="11.2463271"><ele>333.0</ele><time>2026-04-17T08:24:33.971Z</time></trkpt><trkpt lat="43.8341127" lon="11.2463712"><ele>330.0</ele><time>2026-04-17T08:24:34.967Z</time></trkpt><trkpt lat="43.8340254" lon="11.2464079"><ele>327.0</ele><time>2026-04-17T08:24:35.972Z</time></trkpt><trkpt lat="43.8339293" lon="11.2464366"><ele>326.40000000000003</ele><time>2026-04-17T08:24:36.946Z</time></trkpt><trkpt lat="43.833827" lon="11.2464677"><ele>325.8</ele><time>2026-04-17T08:24:37.952Z</time></trkpt><trkpt lat="43.8337269" lon="11.2464973"><ele>325.2</ele><time>2026-04-17T08:24:38.966Z</time></trkpt><trkpt lat="43.8336268" lon="11.2465308"><ele>324.6</ele><time>2026-04-17T08:24:39.965Z</time></trkpt><trkpt lat="43.8335291" lon="11.2465714"><ele>324.0</ele><time>2026-04-17T08:24:40.952Z</time></trkpt><trkpt lat="43.8334309" lon="11.2466037"><ele>320.6666666666667</ele><time>2026-04-17T08:24:41.96Z</time></trkpt><trkpt lat="43.8333539" lon="11.2466334"><ele>317.3333333333333</ele><time>2026-04-17T08:24:42.96Z</time></trkpt><trkpt lat="43.833278" lon="11.2466705"><ele>314.0</ele><time>2026-04-17T08:24:43.951Z</time></trkpt><trkpt lat="43.8332056" lon="11.2467176"><ele>310.66666666666663</ele><time>2026-04-17T08:24:44.962Z</time></trkpt><trkpt lat="43.8331485" lon="11.2467828"><ele>307.3333333333333</ele><time>2026-04-17T08:24:45.959Z</time></trkpt><trkpt lat="43.8330541" lon="11.2468768"><ele>304.0</ele><time>2026-04-17T08:24:47.96Z</time></trkpt><trkpt lat="43.8329498" lon="11.2469087"><ele>304.0</ele><time>2026-04-17T08:24:49.977Z</time></trkpt><trkpt lat="43.8328162" lon="11.2469175"><ele>304.0</ele><time>2026-04-17T08:24:51.962Z</time></trkpt><trkpt lat="43.8327401" lon="11.2469128"><ele>304.0</ele><time>2026-04-17T08:24:52.959Z</time></trkpt><trkpt lat="43.83267" lon="11.2469066"><ele>304.0</ele><time>2026-04-17T08:24:53.966Z</time></trkpt><trkpt lat="43.8325679" lon="11.2468902"><ele>304.0</ele><time>2026-04-17T08:24:55.97Z</time></trkpt><trkpt lat="43.832475" lon="11.2468833"><ele>301.2</ele><time>2026-04-17T08:24:57.94Z</time></trkpt><trkpt lat="43.8323672" lon="11.2468835"><ele>298.4</ele><time>2026-04-17T08:24:59.937Z</time></trkpt><trkpt lat="43.8322553" lon="11.2468734"><ele>295.6</ele><time>2026-04-17T08:25:01.958Z</time></trkpt><trkpt lat="43.832153" lon="11.2468689"><ele>292.8</ele><time>2026-04-17T08:25:03.96Z</time></trkpt><trkpt lat="43.8320861" lon="11.2468971"><ele>290.0</ele><time>2026-04-17T08:25:05.969Z</time></trkpt><trkpt lat="43.8320342" lon="11.2469982"><ele>290.0</ele><time>2026-04-17T08:25:08.954Z</time></trkpt><trkpt lat="43.8319719" lon="11.2471332"><ele>290.0</ele><time>2026-04-17T08:25:10.968Z</time></trkpt><trkpt lat="43.8319163" lon="11.2472671"><ele>290.0</ele><time>2026-04-17T08:25:12.961Z</time></trkpt><trkpt lat="43.8318592" lon="11.2473865"><ele>290.0</ele><time>2026-04-17T08:25:14.957Z</time></trkpt><trkpt lat="43.8317825" lon="11.2474762"><ele>290.0</ele><time>2026-04-17T08:25:16.965Z</time></trkpt><trkpt lat="43.8316865" lon="11.2474998"><ele>289.1666666666667</ele><time>2026-04-17T08:25:18.955Z</time></trkpt><trkpt lat="43.8315979" lon="11.2474719"><ele>288.33333333333337</ele><time>2026-04-17T08:25:20.971Z</time></trkpt><trkpt lat="43.8314806" lon="11.2474237"><ele>287.5</ele><time>2026-04-17T08:25:22.961Z</time></trkpt><trkpt lat="43.8314119" lon="11.2473847"><ele>286.6666666666667</ele><time>2026-04-17T08:25:23.954Z</time></trkpt><trkpt lat="43.8313441" lon="11.2473472"><ele>285.8333333333333</ele><time>2026-04-17T08:25:24.966Z</time></trkpt><trkpt lat="43.8312676" lon="11.2472984"><ele>285.0</ele><time>2026-04-17T08:25:25.966Z</time></trkpt><trkpt lat="43.8311888" lon="11.24725"><ele>284.1666666666667</ele><time>2026-04-17T08:25:26.972Z</time></trkpt><trkpt lat="43.8311179" lon="11.2471976"><ele>283.3333333333333</ele><time>2026-04-17T08:25:27.959Z</time></trkpt><trkpt lat="43.831049" lon="11.2471584"><ele>282.5</ele><time>2026-04-17T08:25:28.948Z</time></trkpt><trkpt lat="43.8309889" lon="11.2471222"><ele>281.66666666666663</ele><time>2026-04-17T08:25:29.949Z</time></trkpt><trkpt lat="43.8308997" lon="11.2469931"><ele>280.8333333333333</ele><time>2026-04-17T08:25:31.96Z</time></trkpt><trkpt lat="43.8308604" lon="11.2469233"><ele>280.0</ele><time>2026-04-17T08:25:32.959Z</time></trkpt><trkpt lat="43.8308212" lon="11.2468473"><ele>277.8</ele><time>2026-04-17T08:25:33.964Z</time></trkpt><trkpt lat="43.830748" lon="11.2467339"><ele>275.6</ele><time>2026-04-17T08:25:35.966Z</time></trkpt><trkpt lat="43.8307041" lon="11.2466248"><ele>273.4</ele><time>2026-04-17T08:25:37.961Z</time></trkpt><trkpt lat="43.8307101" lon="11.2464388"><ele>271.2</ele><time>2026-04-17T08:25:39.966Z</time></trkpt><trkpt lat="43.8307205" lon="11.2463182"><ele>269.0</ele><time>2026-04-17T08:25:40.957Z</time></trkpt><trkpt lat="43.8307225" lon="11.246196"><ele>268.6666666666667</ele><time>2026-04-17T08:25:41.967Z</time></trkpt><trkpt lat="43.8307218" lon="11.2460738"><ele>268.33333333333337</ele><time>2026-04-17T08:25:42.969Z</time></trkpt><trkpt lat="43.8307249" lon="11.245959"><ele>268.0</ele><time>2026-04-17T08:25:43.953Z</time></trkpt><trkpt lat="43.8307291" lon="11.2458531"><ele>267.6666666666667</ele><time>2026-04-17T08:25:44.972Z</time></trkpt><trkpt lat="43.8307288" lon="11.2457611"><ele>267.3333333333333</ele><time>2026-04-17T08:25:45.957Z</time></trkpt><trkpt lat="43.8307715" lon="11.2456046"><ele>267.0</ele><time>2026-04-17T08:25:47.969Z</time></trkpt><trkpt lat="43.8308513" lon="11.2454523"><ele>267.8333333333333</ele><time>2026-04-17T08:25:49.971Z</time></trkpt><trkpt lat="43.8308888" lon="11.2453559"><ele>268.6666666666667</ele><time>2026-04-17T08:25:50.966Z</time></trkpt><trkpt lat="43.8309194" lon="11.2452553"><ele>269.5</ele><time>2026-04-17T08:25:51.962Z</time></trkpt><trkpt lat="43.8309477" lon="11.2451583"><ele>270.33333333333337</ele><time>2026-04-17T08:25:52.963Z</time></trkpt><trkpt lat="43.8309608" lon="11.2450284"><ele>271.1666666666667</ele><time>2026-04-17T08:25:54.971Z</time></trkpt><trkpt lat="43.8308955" lon="11.244941"><ele>272.0</ele><time>2026-04-17T08:25:56.957Z</time></trkpt><trkpt lat="43.8308098" lon="11.2448923"><ele>272.0</ele><time>2026-04-17T08:25:58.956Z</time></trkpt><trkpt lat="43.8307164" lon="11.2448092"><ele>272.0</ele><time>2026-04-17T08:26:00.956Z</time></trkpt><trkpt lat="43.8306632" lon="11.2447465"><ele>272.0</ele><time>2026-04-17T08:26:01.965Z</time></trkpt><trkpt lat="43.8305949" lon="11.2446826"><ele>272.0</ele><time>2026-04-17T08:26:02.963Z</time></trkpt><trkpt lat="43.8305278" lon="11.2446228"><ele>272.0</ele><time>2026-04-17T08:26:03.974Z</time></trkpt><trkpt lat="43.8304584" lon="11.2445565"><ele>272.0</ele><time>2026-04-17T08:26:04.961Z</time></trkpt><trkpt lat="43.8303899" lon="11.2444886"><ele>271.0</ele><time>2026-04-17T08:26:05.961Z</time></trkpt><trkpt lat="43.8303127" lon="11.2444162"><ele>270.0</ele><time>2026-04-17T08:26:06.957Z</time></trkpt><trkpt lat="43.8302392" lon="11.2443453"><ele>269.0</ele><time>2026-04-17T08:26:07.958Z</time></trkpt><trkpt lat="43.8301617" lon="11.2442738"><ele>268.0</ele><time>2026-04-17T08:26:08.964Z</time></trkpt><trkpt lat="43.8300842" lon="11.2441984"><ele>267.0</ele><time>2026-04-17T08:26:09.957Z</time></trkpt><trkpt lat="43.8300071" lon="11.244124"><ele>267.0</ele><time>2026-04-17T08:26:10.975Z</time></trkpt><trkpt lat="43.8299267" lon="11.2440428"><ele>267.0</ele><time>2026-04-17T08:26:11.96Z</time></trkpt><trkpt lat="43.8298379" lon="11.2439522"><ele>267.0</ele><time>2026-04-17T08:26:12.964Z</time></trkpt><trkpt lat="43.8297545" lon="11.2438682"><ele>267.0</ele><time>2026-04-17T08:26:13.964Z</time></trkpt><trkpt lat="43.8296784" lon="11.2437803"><ele>267.0</ele><time>2026-04-17T08:26:14.96Z</time></trkpt><trkpt lat="43.829606" lon="11.2436994"><ele>266.1666666666667</ele><time>2026-04-17T08:26:15.964Z</time></trkpt><trkpt lat="43.8295405" lon="11.2436268"><ele>265.3333333333333</ele><time>2026-04-17T08:26:16.967Z</time></trkpt><trkpt lat="43.829481" lon="11.2435546"><ele>264.5</ele><time>2026-04-17T08:26:17.966Z</time></trkpt><trkpt lat="43.8294211" lon="11.243482"><ele>263.66666666666663</ele><time>2026-04-17T08:26:18.96Z</time></trkpt><trkpt lat="43.8293685" lon="11.2434044"><ele>262.8333333333333</ele><time>2026-04-17T08:26:19.963Z</time></trkpt><trkpt lat="43.8293135" lon="11.2433268"><ele>262.0</ele><time>2026-04-17T08:26:20.975Z</time></trkpt><trkpt lat="43.8292635" lon="11.2432484"><ele>262.0</ele><time>2026-04-17T08:26:21.958Z</time></trkpt><trkpt lat="43.8292217" lon="11.2431715"><ele>262.0</ele><time>2026-04-17T08:26:22.967Z</time></trkpt><trkpt lat="43.829178" lon="11.243089"><ele>262.0</ele><time>2026-04-17T08:26:23.956Z</time></trkpt><trkpt lat="43.8291352" lon="11.2430014"><ele>262.0</ele><time>2026-04-17T08:26:24.963Z</time></trkpt><trkpt lat="43.8290985" lon="11.2429036"><ele>262.0</ele><time>2026-04-17T08:26:25.982Z</time></trkpt><trkpt lat="43.8290727" lon="11.2428117"><ele>262.0</ele><time>2026-04-17T08:26:26.962Z</time></trkpt><trkpt lat="43.8290268" lon="11.2427005"><ele>263.14285714285717</ele><time>2026-04-17T08:26:28.964Z</time></trkpt><trkpt lat="43.8290035" lon="11.2426099"><ele>264.28571428571433</ele><time>2026-04-17T08:26:31.964Z</time></trkpt><trkpt lat="43.8289921" lon="11.2425151"><ele>265.42857142857144</ele><time>2026-04-17T08:26:33.945Z</time></trkpt><trkpt lat="43.8289926" lon="11.2424278"><ele>266.57142857142856</ele><time>2026-04-17T08:26:35.969Z</time></trkpt><trkpt lat="43.8289304" lon="11.2424416"><ele>267.71428571428567</ele><time>2026-04-17T08:26:39.954Z</time></trkpt><trkpt lat="43.8289263" lon="11.2425482"><ele>268.85714285714283</ele><time>2026-04-17T08:26:43.963Z</time></trkpt><trkpt lat="43.8290004" lon="11.242625"><ele>270.0</ele><time>2026-04-17T08:26:46.95Z</time></trkpt><trkpt lat="43.8290578" lon="11.2426762"><ele>270.0</ele><time>2026-04-17T08:26:48.951Z</time></trkpt><trkpt lat="43.8291301" lon="11.2427449"><ele>270.0</ele><time>2026-04-17T08:26:51.947Z</time></trkpt><trkpt lat="43.8291901" lon="11.2427755"><ele>270.0</ele><time>2026-04-17T08:26:53.976Z</time></trkpt><trkpt lat="43.8292586" lon="11.2428499"><ele>270.0</ele><time>2026-04-17T08:26:56.959Z</time></trkpt><trkpt lat="43.82933" lon="11.2429248"><ele>270.0</ele><time>2026-04-17T08:26:59.97Z</time></trkpt><trkpt lat="43.8293931" lon="11.2429826"><ele>270.0</ele><time>2026-04-17T08:27:02.954Z</time></trkpt><trkpt lat="43.8294734" lon="11.2429981"><ele>272.1428571428571</ele><time>2026-04-17T08:27:05.972Z</time></trkpt><trkpt lat="43.829536" lon="11.2430273"><ele>274.2857142857143</ele><time>2026-04-17T08:27:08.966Z</time></trkpt><trkpt lat="43.8295924" lon="11.2430673"><ele>276.42857142857144</ele><time>2026-04-17T08:27:11.97Z</time></trkpt><trkpt lat="43.8296574" lon="11.2430838"><ele>278.57142857142856</ele><time>2026-04-17T08:27:14.951Z</time></trkpt><trkpt lat="43.8297257" lon="11.24307"><ele>280.7142857142857</ele><time>2026-04-17T08:27:17.958Z</time></trkpt><trkpt lat="43.8298053" lon="11.2430855"><ele>282.85714285714283</ele><time>2026-04-17T08:27:20.956Z</time></trkpt><trkpt lat="43.8298637" lon="11.2431221"><ele>285.0</ele><time>2026-04-17T08:27:23.966Z</time></trkpt><trkpt lat="43.8299376" lon="11.2431155"><ele>285.0</ele><time>2026-04-17T08:27:27.961Z</time></trkpt><trkpt lat="43.8299999" lon="11.2431"><ele>285.0</ele><time>2026-04-17T08:27:31.966Z</time></trkpt><trkpt lat="43.8300857" lon="11.2431254"><ele>285.0</ele><time>2026-04-17T08:27:35.963Z</time></trkpt><trkpt lat="43.8301651" lon="11.2431776"><ele>285.0</ele><time>2026-04-17T08:27:38.947Z</time></trkpt><trkpt lat="43.8302343" lon="11.2432139"><ele>285.0</ele><time>2026-04-17T08:27:40.966Z</time></trkpt><trkpt lat="43.8302936" lon="11.2432645"><ele>285.0</ele><time>2026-04-17T08:27:42.963Z</time></trkpt><trkpt lat="43.8303447" lon="11.2433344"><ele>288.6666666666667</ele><time>2026-04-17T08:27:45.039Z</time></trkpt><trkpt lat="43.8304153" lon="11.2434148"><ele>292.3333333333333</ele><time>2026-04-17T08:27:47.961Z</time></trkpt><trkpt lat="43.8305006" lon="11.2434406"><ele>296.0</ele><time>2026-04-17T08:27:50.966Z</time></trkpt><trkpt lat="43.8305896" lon="11.243437"><ele>299.66666666666663</ele><time>2026-04-17T08:27:53.957Z</time></trkpt><trkpt lat="43.8306766" lon="11.2434319"><ele>303.3333333333333</ele><time>2026-04-17T08:27:56.966Z</time></trkpt><trkpt lat="43.8307598" lon="11.2434306"><ele>307.0</ele><time>2026-04-17T08:27:59.962Z</time></trkpt><trkpt lat="43.8308469" lon="11.2434653"><ele>306.99999999999994</ele><time>2026-04-17T08:28:03.017Z</time></trkpt><trkpt lat="43.8309152" lon="11.2434884"><ele>307.0</ele><time>2026-04-17T08:28:05.032Z</time></trkpt><trkpt lat="43.8310042" lon="11.2435384"><ele>307.0</ele><time>2026-04-17T08:28:07.96Z</time></trkpt><trkpt lat="43.8310615" lon="11.2435765"><ele>307.0</ele><time>2026-04-17T08:28:09.967Z</time></trkpt><trkpt lat="43.8311233" lon="11.2436081"><ele>307.0</ele><time>2026-04-17T08:28:11.972Z</time></trkpt><trkpt lat="43.8311893" lon="11.2436421"><ele>306.99999999999994</ele><time>2026-04-17T08:28:14.016Z</time></trkpt><trkpt lat="43.831247" lon="11.2436789"><ele>307.0</ele><time>2026-04-17T08:28:15.955Z</time></trkpt><trkpt lat="43.8313336" lon="11.2437198"><ele>309.8333333333333</ele><time>2026-04-17T08:28:18.971Z</time></trkpt><trkpt lat="43.8314095" lon="11.2437335"><ele>312.66666666666663</ele><time>2026-04-17T08:28:23.036Z</time></trkpt><trkpt lat="43.8314813" lon="11.243707"><ele>315.5</ele><time>2026-04-17T08:28:25.969Z</time></trkpt><trkpt lat="43.831543" lon="11.2436598"><ele>318.3333333333333</ele><time>2026-04-17T08:28:28.966Z</time></trkpt><trkpt lat="43.8316136" lon="11.2435919"><ele>321.1666666666667</ele><time>2026-04-17T08:28:33.028Z</time></trkpt><trkpt lat="43.8316759" lon="11.2435255"><ele>324.0</ele><time>2026-04-17T08:28:35.957Z</time></trkpt><trkpt lat="43.8317356" lon="11.2434801"><ele>326.8333333333333</ele><time>2026-04-17T08:28:38.966Z</time></trkpt><trkpt lat="43.8318165" lon="11.2435093"><ele>329.6666666666667</ele><time>2026-04-17T08:28:42.96Z</time></trkpt><trkpt lat="43.8318871" lon="11.2435608"><ele>332.5</ele><time>2026-04-17T08:28:45.962Z</time></trkpt><trkpt lat="43.8319558" lon="11.2435942"><ele>335.33333333333337</ele><time>2026-04-17T08:28:48.96Z</time></trkpt><trkpt lat="43.8320238" lon="11.2436174"><ele>338.1666666666667</ele><time>2026-04-17T08:28:53.944Z</time></trkpt><trkpt lat="43.8320898" lon="11.2436783"><ele>341.0</ele><time>2026-04-17T08:28:58.937Z</time></trkpt><trkpt lat="43.8321506" lon="11.2437313"><ele>341.0</ele><time>2026-04-17T08:29:01.962Z</time></trkpt><trkpt lat="43.8322222" lon="11.2437835"><ele>341.0</ele><time>2026-04-17T08:29:05.97Z</time></trkpt><trkpt lat="43.8322773" lon="11.2438357"><ele>341.0</ele><time>2026-04-17T08:29:08.965Z</time></trkpt><trkpt lat="43.8323503" lon="11.2438601"><ele>341.0</ele><time>2026-04-17T08:29:13.967Z</time></trkpt><trkpt lat="43.8324126" lon="11.2438925"><ele>341.0</ele><time>2026-04-17T08:29:16.97Z</time></trkpt><trkpt lat="43.8324849" lon="11.243907"><ele>341.0</ele><time>2026-04-17T08:29:21.963Z</time></trkpt><trkpt lat="43.832557" lon="11.2439155"><ele>341.0</ele><time>2026-04-17T08:29:26.96Z</time></trkpt><trkpt lat="43.8326319" lon="11.2439597"><ele>343.0</ele><time>2026-04-17T08:29:29.964Z</time></trkpt><trkpt lat="43.8326991" lon="11.2440055"><ele>345.0</ele><time>2026-04-17T08:29:32.999Z</time></trkpt><trkpt lat="43.8327633" lon="11.2440435"><ele>347.0</ele><time>2026-04-17T08:29:35.967Z</time></trkpt><trkpt lat="43.8328257" lon="11.2440662"><ele>349.0</ele><time>2026-04-17T08:29:39.03Z</time></trkpt><trkpt lat="43.8328953" lon="11.2440878"><ele>351.0</ele><time>2026-04-17T08:29:42.974Z</time></trkpt><trkpt lat="43.8329616" lon="11.2440808"><ele>353.0</ele><time>2026-04-17T08:29:46.963Z</time></trkpt><trkpt lat="43.8330236" lon="11.2440408"><ele>355.0</ele><time>2026-04-17T08:29:50.968Z</time></trkpt><trkpt lat="43.8330911" lon="11.2440087"><ele>355.0</ele><time>2026-04-17T08:29:54.972Z</time></trkpt><trkpt lat="43.8331772" lon="11.2440219"><ele>355.0</ele><time>2026-04-17T08:29:58.965Z</time></trkpt><trkpt lat="43.8332698" lon="11.243994"><ele>355.0</ele><time>2026-04-17T08:30:01.963Z</time></trkpt><trkpt lat="43.8333361" lon="11.2439582"><ele>355.0</ele><time>2026-04-17T08:30:03.972Z</time></trkpt><trkpt lat="43.8334273" lon="11.243928"><ele>355.0</ele><time>2026-04-17T08:30:06.977Z</time></trkpt><trkpt lat="43.8335183" lon="11.243912"><ele>355.0</ele><time>2026-04-17T08:30:08.968Z</time></trkpt><trkpt lat="43.8335917" lon="11.2439157"><ele>357.16666666666663</ele><time>2026-04-17T08:30:09.963Z</time></trkpt><trkpt lat="43.8336588" lon="11.2439199"><ele>359.3333333333333</ele><time>2026-04-17T08:30:10.971Z</time></trkpt><trkpt lat="43.833771" lon="11.2439406"><ele>361.5</ele><time>2026-04-17T08:30:12.964Z</time></trkpt><trkpt lat="43.8338456" lon="11.2439469"><ele>363.6666666666667</ele><time>2026-04-17T08:30:14.002Z</time></trkpt><trkpt lat="43.833909" lon="11.2439419"><ele>365.83333333333337</ele><time>2026-04-17T08:30:14.97Z</time></trkpt><trkpt lat="43.8340242" lon="11.2439147"><ele>368.0</ele><time>2026-04-17T08:30:16.97Z</time></trkpt><trkpt lat="43.8341202" lon="11.2438633"><ele>368.0</ele><time>2026-04-17T08:30:18.97Z</time></trkpt><trkpt lat="43.8342337" lon="11.2438626"><ele>368.0</ele><time>2026-04-17T08:30:20.968Z</time></trkpt><trkpt lat="43.8343458" lon="11.2438369"><ele>368.0</ele><time>2026-04-17T08:30:22.97Z</time></trkpt><trkpt lat="43.8344546" lon="11.2438286"><ele>368.0</ele><time>2026-04-17T08:30:24.952Z</time></trkpt><trkpt lat="43.8345724" lon="11.2438143"><ele>369.59999999999997</ele><time>2026-04-17T08:30:26.967Z</time></trkpt><trkpt lat="43.8346829" lon="11.2438067"><ele>371.2</ele><time>2026-04-17T08:30:29.017Z</time></trkpt><trkpt lat="43.8347795" lon="11.2437863"><ele>372.8</ele><time>2026-04-17T08:30:30.973Z</time></trkpt><trkpt lat="43.8348828" lon="11.2437929"><ele>374.4</ele><time>2026-04-17T08:30:33.061Z</time></trkpt><trkpt lat="43.8350012" lon="11.2438196"><ele>376.0</ele><time>2026-04-17T08:30:34.965Z</time></trkpt><trkpt lat="43.8350935" lon="11.2438539"><ele>378.0</ele><time>2026-04-17T08:30:36.968Z</time></trkpt><trkpt lat="43.8351765" lon="11.2438626"><ele>380.0</ele><time>2026-04-17T08:30:39.015Z</time></trkpt><trkpt lat="43.8352508" lon="11.2438759"><ele>382.0</ele><time>2026-04-17T08:30:40.966Z</time></trkpt><trkpt lat="43.8353366" lon="11.2438857"><ele>384.0</ele><time>2026-04-17T08:30:42.965Z</time></trkpt><trkpt lat="43.8354278" lon="11.2439258"><ele>386.00000000000006</ele><time>2026-04-17T08:30:45.031Z</time></trkpt><trkpt lat="43.8355353" lon="11.2439452"><ele>388.0</ele><time>2026-04-17T08:30:47.033Z</time></trkpt><trkpt lat="43.8356342" lon="11.2439877"><ele>388.0</ele><time>2026-04-17T08:30:48.946Z</time></trkpt><trkpt lat="43.8357333" lon="11.2440032"><ele>388.0</ele><time>2026-04-17T08:30:50.967Z</time></trkpt><trkpt lat="43.8358426" lon="11.2440295"><ele>388.0</ele><time>2026-04-17T08:30:52.964Z</time></trkpt><trkpt lat="43.8359394" lon="11.2440976"><ele>388.0</ele><time>2026-04-17T08:30:54.97Z</time></trkpt><trkpt lat="43.8360294" lon="11.2442072"><ele>388.0</ele><time>2026-04-17T08:30:56.956Z</time></trkpt><trkpt lat="43.8360783" lon="11.2442695"><ele>389.7142857142857</ele><time>2026-04-17T08:30:57.969Z</time></trkpt><trkpt lat="43.8361279" lon="11.2443324"><ele>391.42857142857144</ele><time>2026-04-17T08:30:58.973Z</time></trkpt><trkpt lat="43.8361749" lon="11.2443987"><ele>393.14285714285717</ele><time>2026-04-17T08:30:59.968Z</time></trkpt><trkpt lat="43.8362259" lon="11.2444574"><ele>394.8571428571429</ele><time>2026-04-17T08:31:00.961Z</time></trkpt><trkpt lat="43.8362788" lon="11.2445201"><ele>396.57142857142856</ele><time>2026-04-17T08:31:01.966Z</time></trkpt><trkpt lat="43.8363307" lon="11.2445872"><ele>398.28571428571433</ele><time>2026-04-17T08:31:02.972Z</time></trkpt><trkpt lat="43.8363747" lon="11.2446638"><ele>400.0</ele><time>2026-04-17T08:31:03.965Z</time></trkpt><trkpt lat="43.8364123" lon="11.2447383"><ele>398.0</ele><time>2026-04-17T08:31:04.962Z</time></trkpt><trkpt lat="43.8364592" lon="11.2448027"><ele>396.0</ele><time>2026-04-17T08:31:05.961Z</time></trkpt><trkpt lat="43.836511" lon="11.2448585"><ele>394.0</ele><time>2026-04-17T08:31:06.965Z</time></trkpt><trkpt lat="43.8365926" lon="11.2449766"><ele>392.0</ele><time>2026-04-17T08:31:08.969Z</time></trkpt><trkpt lat="43.8366568" lon="11.2450862"><ele>390.0</ele><time>2026-04-17T08:31:10.97Z</time></trkpt><trkpt lat="43.8366998" lon="11.2452144"><ele>390.0</ele><time>2026-04-17T08:31:12.952Z</time></trkpt><trkpt lat="43.8366963" lon="11.2453714"><ele>390.0</ele><time>2026-04-17T08:31:15.034Z</time></trkpt><trkpt lat="43.8366646" lon="11.2455409"><ele>390.0</ele><time>2026-04-17T08:31:17.037Z</time></trkpt><trkpt lat="43.836653" lon="11.2456982"><ele>390.0</ele><time>2026-04-17T08:31:18.955Z</time></trkpt><trkpt lat="43.8366155" lon="11.2458564"><ele>390.0</ele><time>2026-04-17T08:31:20.983Z</time></trkpt><trkpt lat="43.8365657" lon="11.2459962"><ele>390.0</ele><time>2026-04-17T08:31:22.994Z</time></trkpt><trkpt lat="43.8364887" lon="11.2461135"><ele>390.0</ele><time>2026-04-17T08:31:25.029Z</time></trkpt><trkpt lat="43.8363998" lon="11.2462289"><ele>390.0</ele><time>2026-04-17T08:31:26.991Z</time></trkpt><trkpt lat="43.8363061" lon="11.246325"><ele>390.0</ele><time>2026-04-17T08:31:28.997Z</time></trkpt><trkpt lat="43.8362127" lon="11.2464357"><ele>390.0</ele><time>2026-04-17T08:31:30.971Z</time></trkpt><trkpt lat="43.8361409" lon="11.2465482"><ele>390.0</ele><time>2026-04-17T08:31:32.975Z</time></trkpt><trkpt lat="43.8360907" lon="11.2466645"><ele>390.0</ele><time>2026-04-17T08:31:34.976Z</time></trkpt><trkpt lat="43.8360906" lon="11.2467911"><ele>390.0</ele><time>2026-04-17T08:31:36.974Z</time></trkpt><trkpt lat="43.8361112" lon="11.2469221"><ele>389.4</ele><time>2026-04-17T08:31:38.983Z</time></trkpt><trkpt lat="43.8361538" lon="11.2470488"><ele>388.8</ele><time>2026-04-17T08:31:40.969Z</time></trkpt><trkpt lat="43.8362103" lon="11.2471772"><ele>388.20000000000005</ele><time>2026-04-17T08:31:42.977Z</time></trkpt><trkpt lat="43.8362742" lon="11.2472955"><ele>387.6</ele><time>2026-04-17T08:31:45.048Z</time></trkpt><trkpt lat="43.836334" lon="11.2474001"><ele>387.0</ele><time>2026-04-17T08:31:46.985Z</time></trkpt><trkpt lat="43.8363944" lon="11.2475055"><ele>387.0</ele><time>2026-04-17T08:31:48.995Z</time></trkpt><trkpt lat="43.8364384" lon="11.2475684"><ele>387.0</ele><time>2026-04-17T08:31:49.964Z</time></trkpt><trkpt lat="43.8365253" lon="11.2476852"><ele>387.0</ele><time>2026-04-17T08:31:51.962Z</time></trkpt><trkpt lat="43.8365788" lon="11.2477516"><ele>387.0</ele><time>2026-04-17T08:31:52.976Z</time></trkpt><trkpt lat="43.8366345" lon="11.2478143"><ele>387.0</ele><time>2026-04-17T08:31:53.986Z</time></trkpt><trkpt lat="43.8366906" lon="11.2478736"><ele>387.0</ele><time>2026-04-17T08:31:54.98Z</time></trkpt><trkpt lat="43.8367461" lon="11.2479225"><ele>388.0</ele><time>2026-04-17T08:31:55.98Z</time></trkpt><trkpt lat="43.8368445" lon="11.2480329"><ele>389.0</ele><time>2026-04-17T08:31:57.978Z</time></trkpt><trkpt lat="43.8369372" lon="11.2481427"><ele>390.0</ele><time>2026-04-17T08:31:59.983Z</time></trkpt><trkpt lat="43.8370295" lon="11.248239"><ele>391.0</ele><time>2026-04-17T08:32:01.995Z</time></trkpt><trkpt lat="43.8371095" lon="11.2483248"><ele>391.00000000000006</ele><time>2026-04-17T08:32:03.99Z</time></trkpt><trkpt lat="43.8371814" lon="11.2484042"><ele>391.0</ele><time>2026-04-17T08:32:05.971Z</time></trkpt><trkpt lat="43.8372487" lon="11.2484426"><ele>391.0</ele><time>2026-04-17T08:32:06.983Z</time></trkpt><trkpt lat="43.8373121" lon="11.2484952"><ele>391.0</ele><time>2026-04-17T08:32:09.042Z</time></trkpt><trkpt lat="43.8373489" lon="11.248578"><ele>391.00000000000006</ele><time>2026-04-17T08:32:10.967Z</time></trkpt><trkpt lat="43.8373426" lon="11.2486706"><ele>391.0</ele><time>2026-04-17T08:32:12.963Z</time></trkpt><trkpt lat="43.8372647" lon="11.2487233"><ele>391.0</ele><time>2026-04-17T08:32:15.962Z</time></trkpt><trkpt lat="43.8371748" lon="11.2486804"><ele>391.0</ele><time>2026-04-17T08:32:19.041Z</time></trkpt><trkpt lat="43.837102" lon="11.248632"><ele>391.0</ele><time>2026-04-17T08:32:20.959Z</time></trkpt><trkpt lat="43.8370194" lon="11.2485614"><ele>391.0</ele><time>2026-04-17T08:32:23.006Z</time></trkpt><trkpt lat="43.8369161" lon="11.2484938"><ele>391.0</ele><time>2026-04-17T08:32:24.968Z</time></trkpt><trkpt lat="43.8368577" lon="11.2484581"><ele>387.33333333333337</ele><time>2026-04-17T08:32:25.959Z</time></trkpt><trkpt lat="43.8367977" lon="11.2484197"><ele>383.6666666666667</ele><time>2026-04-17T08:32:26.979Z</time></trkpt><trkpt lat="43.8366881" lon="11.2483544"><ele>380.0</ele><time>2026-04-17T08:32:28.959Z</time></trkpt><trkpt lat="43.836579" lon="11.2482853"><ele>376.33333333333337</ele><time>2026-04-17T08:32:30.959Z</time></trkpt><trkpt lat="43.836521" lon="11.2482312"><ele>372.6666666666667</ele><time>2026-04-17T08:32:31.965Z</time></trkpt><trkpt lat="43.8364654" lon="11.2481849"><ele>369.0</ele><time>2026-04-17T08:32:32.965Z</time></trkpt><trkpt lat="43.8364091" lon="11.2481394"><ele>368.0</ele><time>2026-04-17T08:32:33.964Z</time></trkpt><trkpt lat="43.8363504" lon="11.2480898"><ele>367.0</ele><time>2026-04-17T08:32:34.956Z</time></trkpt><trkpt lat="43.8362347" lon="11.2480149"><ele>366.0</ele><time>2026-04-17T08:32:36.965Z</time></trkpt><trkpt lat="43.8361726" lon="11.2479741"><ele>365.0</ele><time>2026-04-17T08:32:37.959Z</time></trkpt><trkpt lat="43.8360572" lon="11.2479064"><ele>364.0</ele><time>2026-04-17T08:32:39.966Z</time></trkpt><trkpt lat="43.8359484" lon="11.2478347"><ele>364.0</ele><time>2026-04-17T08:32:42.023Z</time></trkpt><trkpt lat="43.8358843" lon="11.2477865"><ele>364.0</ele><time>2026-04-17T08:32:43.039Z</time></trkpt><trkpt lat="43.8358202" lon="11.2477488"><ele>364.0</ele><time>2026-04-17T08:32:44.017Z</time></trkpt><trkpt lat="43.8357033" lon="11.2476982"><ele>364.0</ele><time>2026-04-17T08:32:45.965Z</time></trkpt><trkpt lat="43.8355908" lon="11.2476392"><ele>364.0</ele><time>2026-04-17T08:32:47.965Z</time></trkpt><trkpt lat="43.8354962" lon="11.2475607"><ele>364.0</ele><time>2026-04-17T08:32:50.036Z</time></trkpt><trkpt lat="43.8353897" lon="11.2474768"><ele>364.0</ele><time>2026-04-17T08:32:51.97Z</time></trkpt><trkpt lat="43.8353285" lon="11.2474408"><ele>364.0</ele><time>2026-04-17T08:32:53.002Z</time></trkpt><trkpt lat="43.8352204" lon="11.2473492"><ele>364.0</ele><time>2026-04-17T08:32:54.961Z</time></trkpt><trkpt lat="43.8351155" lon="11.2472646"><ele>364.0</ele><time>2026-04-17T08:32:56.973Z</time></trkpt><trkpt lat="43.8350644" lon="11.2472061"><ele>360.2</ele><time>2026-04-17T08:32:57.965Z</time></trkpt><trkpt lat="43.8349775" lon="11.2470935"><ele>356.4</ele><time>2026-04-17T08:32:59.961Z</time></trkpt><trkpt lat="43.834896" lon="11.2469813"><ele>352.6</ele><time>2026-04-17T08:33:01.961Z</time></trkpt><trkpt lat="43.8348556" lon="11.2468873"><ele>348.8</ele><time>2026-04-17T08:33:03.964Z</time></trkpt><trkpt lat="43.8348611" lon="11.2467946"><ele>345.0</ele><time>2026-04-17T08:33:05.96Z</time></trkpt><trkpt lat="43.8348822" lon="11.2466942"><ele>345.0</ele><time>2026-04-17T08:33:07.968Z</time></trkpt><trkpt lat="43.8349357" lon="11.2466057"><ele>345.0</ele><time>2026-04-17T08:33:09.966Z</time></trkpt><trkpt lat="43.8349838" lon="11.2465405"><ele>345.0</ele><time>2026-04-17T08:33:12.014Z</time></trkpt><trkpt lat="43.8350248" lon="11.2464648"><ele>345.0</ele><time>2026-04-17T08:33:14.991Z</time></trkpt><trkpt lat="43.8350214" lon="11.2463595"><ele>345.0</ele><time>2026-04-17T08:33:17.956Z</time></trkpt><trkpt lat="43.834935" lon="11.2462685"><ele>345.0</ele><time>2026-04-17T08:33:20.967Z</time></trkpt><trkpt lat="43.8348332" lon="11.2462617"><ele>344.5</ele><time>2026-04-17T08:33:22.983Z</time></trkpt><trkpt lat="43.8347723" lon="11.2462841"><ele>344.0</ele><time>2026-04-17T08:33:23.96Z</time></trkpt><trkpt lat="43.8347107" lon="11.2463034"><ele>343.5</ele><time>2026-04-17T08:33:24.973Z</time></trkpt><trkpt lat="43.83464" lon="11.2463219"><ele>343.0</ele><time>2026-04-17T08:33:25.968Z</time></trkpt><trkpt lat="43.8345687" lon="11.2463536"><ele>342.5</ele><time>2026-04-17T08:33:27.029Z</time></trkpt><trkpt lat="43.8345081" lon="11.2463804"><ele>342.0</ele><time>2026-04-17T08:33:28.029Z</time></trkpt><trkpt lat="43.8343749" lon="11.2463998"><ele>339.5</ele><time>2026-04-17T08:33:30.035Z</time></trkpt><trkpt lat="43.8342997" lon="11.2464037"><ele>337.0</ele><time>2026-04-17T08:33:30.969Z</time></trkpt><trkpt lat="43.8342186" lon="11.246397"><ele>334.5</ele><time>2026-04-17T08:33:31.975Z</time></trkpt><trkpt lat="43.8341364" lon="11.246407"><ele>332.0</ele><time>2026-04-17T08:33:32.98Z</time></trkpt><trkpt lat="43.8340598" lon="11.2464089"><ele>329.5</ele><time>2026-04-17T08:33:33.971Z</time></trkpt><trkpt lat="43.8339865" lon="11.2464191"><ele>327.0</ele><time>2026-04-17T08:33:35.035Z</time></trkpt><trkpt lat="43.8339094" lon="11.2464344"><ele>327.0</ele><time>2026-04-17T08:33:35.971Z</time></trkpt><trkpt lat="43.8338462" lon="11.24644"><ele>327.0</ele><time>2026-04-17T08:33:36.977Z</time></trkpt><trkpt lat="43.8337633" lon="11.2464749"><ele>327.0</ele><time>2026-04-17T08:33:37.99Z</time></trkpt><trkpt lat="43.8336932" lon="11.2465225"><ele>327.0</ele><time>2026-04-17T08:33:38.987Z</time></trkpt><trkpt lat="43.83362" lon="11.2465606"><ele>327.0</ele><time>2026-04-17T08:33:39.984Z</time></trkpt><trkpt lat="43.8335604" lon="11.2465899"><ele>327.0</ele><time>2026-04-17T08:33:40.957Z</time></trkpt><trkpt lat="43.8334994" lon="11.2466296"><ele>327.0</ele><time>2026-04-17T08:33:42.033Z</time></trkpt><trkpt lat="43.8334459" lon="11.2466881"><ele>322.40000000000003</ele><time>2026-04-17T08:33:42.992Z</time></trkpt><trkpt lat="43.8333791" lon="11.2467389"><ele>317.8</ele><time>2026-04-17T08:33:44.035Z</time></trkpt><trkpt lat="43.8332727" lon="11.2467796"><ele>313.2</ele><time>2026-04-17T08:33:45.949Z</time></trkpt><trkpt lat="43.8331758" lon="11.246813"><ele>308.6</ele><time>2026-04-17T08:33:47.975Z</time></trkpt><trkpt lat="43.8330164" lon="11.2468463"><ele>304.0</ele><time>2026-04-17T08:33:50.035Z</time></trkpt><trkpt lat="43.8329181" lon="11.2468366"><ele>304.0</ele><time>2026-04-17T08:33:50.962Z</time></trkpt><trkpt lat="43.8328412" lon="11.2468337"><ele>304.0</ele><time>2026-04-17T08:33:51.97Z</time></trkpt><trkpt lat="43.8327615" lon="11.24683"><ele>304.0</ele><time>2026-04-17T08:33:52.976Z</time></trkpt><trkpt lat="43.8326765" lon="11.2468179"><ele>304.0</ele><time>2026-04-17T08:33:54.058Z</time></trkpt><trkpt lat="43.8326001" lon="11.2468151"><ele>304.0</ele><time>2026-04-17T08:33:55.033Z</time></trkpt><trkpt lat="43.8325129" lon="11.2468187"><ele>304.0</ele><time>2026-04-17T08:33:55.966Z</time></trkpt><trkpt lat="43.8324428" lon="11.2468183"><ele>302.0</ele><time>2026-04-17T08:33:56.967Z</time></trkpt><trkpt lat="43.8323661" lon="11.2468184"><ele>300.0</ele><time>2026-04-17T08:33:57.99Z</time></trkpt><trkpt lat="43.8322961" lon="11.2468382"><ele>298.0</ele><time>2026-04-17T08:33:58.967Z</time></trkpt><trkpt lat="43.8322356" lon="11.2468771"><ele>296.0</ele><time>2026-04-17T08:33:59.966Z</time></trkpt><trkpt lat="43.8321844" lon="11.2469326"><ele>294.0</ele><time>2026-04-17T08:34:00.971Z</time></trkpt><trkpt lat="43.8321374" lon="11.2470209"><ele>292.0</ele><time>2026-04-17T08:34:01.956Z</time></trkpt><trkpt lat="43.8320843" lon="11.2471074"><ele>290.0</ele><time>2026-04-17T08:34:02.943Z</time></trkpt><trkpt lat="43.8320294" lon="11.2471995"><ele>290.0</ele><time>2026-04-17T08:34:03.958Z</time></trkpt><trkpt lat="43.8319726" lon="11.2472839"><ele>290.0</ele><time>2026-04-17T08:34:04.961Z</time></trkpt><trkpt lat="43.8319066" lon="11.2473695"><ele>290.0</ele><time>2026-04-17T08:34:05.96Z</time></trkpt><trkpt lat="43.831838" lon="11.2474471"><ele>290.0</ele><time>2026-04-17T08:34:06.964Z</time></trkpt><trkpt lat="43.8317735" lon="11.2474839"><ele>290.0</ele><time>2026-04-17T08:34:07.959Z</time></trkpt><trkpt lat="43.8316957" lon="11.247484"><ele>290.0</ele><time>2026-04-17T08:34:08.968Z</time></trkpt><trkpt lat="43.8316217" lon="11.2474506"><ele>289.0</ele><time>2026-04-17T08:34:09.942Z</time></trkpt><trkpt lat="43.8315312" lon="11.2474242"><ele>288.0</ele><time>2026-04-17T08:34:10.965Z</time></trkpt><trkpt lat="43.8314433" lon="11.2473804"><ele>287.0</ele><time>2026-04-17T08:34:11.967Z</time></trkpt><trkpt lat="43.8313464" lon="11.2473247"><ele>286.0</ele><time>2026-04-17T08:34:12.956Z</time></trkpt><trkpt lat="43.8312489" lon="11.2472776"><ele>285.0</ele><time>2026-04-17T08:34:13.961Z</time></trkpt><trkpt lat="43.8311651" lon="11.247233"><ele>284.1666666666667</ele><time>2026-04-17T08:34:14.973Z</time></trkpt><trkpt lat="43.8310928" lon="11.2471909"><ele>283.3333333333333</ele><time>2026-04-17T08:34:15.96Z</time></trkpt><trkpt lat="43.8310217" lon="11.2471482"><ele>282.5</ele><time>2026-04-17T08:34:16.971Z</time></trkpt><trkpt lat="43.8309555" lon="11.2470877"><ele>281.66666666666663</ele><time>2026-04-17T08:34:17.955Z</time></trkpt><trkpt lat="43.8309004" lon="11.2470095"><ele>280.8333333333333</ele><time>2026-04-17T08:34:18.971Z</time></trkpt><trkpt lat="43.8308564" lon="11.2469244"><ele>280.0</ele><time>2026-04-17T08:34:19.964Z</time></trkpt><trkpt lat="43.8308112" lon="11.2468407"><ele>277.8</ele><time>2026-04-17T08:34:20.964Z</time></trkpt><trkpt lat="43.8307648" lon="11.246775"><ele>275.6</ele><time>2026-04-17T08:34:21.966Z</time></trkpt><trkpt lat="43.8307156" lon="11.2466462"><ele>273.4</ele><time>2026-04-17T08:34:23.968Z</time></trkpt><trkpt lat="43.8307224" lon="11.2464607"><ele>271.2</ele><time>2026-04-17T08:34:25.97Z</time></trkpt><trkpt lat="43.8307257" lon="11.2463462"><ele>269.0</ele><time>2026-04-17T08:34:26.971Z</time></trkpt><trkpt lat="43.8307277" lon="11.2462301"><ele>268.59999999999997</ele><time>2026-04-17T08:34:27.972Z</time></trkpt><trkpt lat="43.8307347" lon="11.2461037"><ele>268.2</ele><time>2026-04-17T08:34:28.965Z</time></trkpt><trkpt lat="43.8307339" lon="11.245973"><ele>267.79999999999995</ele><time>2026-04-17T08:34:29.967Z</time></trkpt><trkpt lat="43.8307399" lon="11.2458533"><ele>267.4</ele><time>2026-04-17T08:34:30.966Z</time></trkpt><trkpt lat="43.8307414" lon="11.2457477"><ele>267.0</ele><time>2026-04-17T08:34:31.968Z</time></trkpt><trkpt lat="43.8307744" lon="11.2455858"><ele>267.8333333333333</ele><time>2026-04-17T08:34:33.97Z</time></trkpt><trkpt lat="43.8308137" lon="11.2455133"><ele>268.6666666666667</ele><time>2026-04-17T08:34:34.96Z</time></trkpt><trkpt lat="43.8308566" lon="11.2454275"><ele>269.5</ele><time>2026-04-17T08:34:35.96Z</time></trkpt><trkpt lat="43.8308974" lon="11.2453347"><ele>270.33333333333337</ele><time>2026-04-17T08:34:37.017Z</time></trkpt><trkpt lat="43.8309349" lon="11.2452311"><ele>271.1666666666667</ele><time>2026-04-17T08:34:38.012Z</time></trkpt><trkpt lat="43.8309577" lon="11.2451238"><ele>272.0</ele><time>2026-04-17T08:34:38.964Z</time></trkpt><trkpt lat="43.8309369" lon="11.2449653"><ele>272.0</ele><time>2026-04-17T08:34:40.953Z</time></trkpt><trkpt lat="43.8308535" lon="11.2448628"><ele>272.0</ele><time>2026-04-17T08:34:42.982Z</time></trkpt><trkpt lat="43.8307884" lon="11.2448231"><ele>272.0</ele><time>2026-04-17T08:34:44.032Z</time></trkpt><trkpt lat="43.8307149" lon="11.2447633"><ele>272.0</ele><time>2026-04-17T08:34:45.04Z</time></trkpt><trkpt lat="43.8306343" lon="11.2446845"><ele>272.0</ele><time>2026-04-17T08:34:45.969Z</time></trkpt><trkpt lat="43.8305495" lon="11.244609"><ele>276.75</ele><time>2026-04-17T08:34:46.972Z</time></trkpt><trkpt lat="43.8304611" lon="11.2445277"><ele>281.5</ele><time>2026-04-17T08:34:47.992Z</time></trkpt><trkpt lat="43.8303679" lon="11.2444335"><ele>286.25</ele><time>2026-04-17T08:34:48.988Z</time></trkpt><trkpt lat="43.8302739" lon="11.2443466"><ele>291.0</ele><time>2026-04-17T08:34:49.978Z</time></trkpt><trkpt lat="43.8301763" lon="11.2442593"><ele>290.0</ele><time>2026-04-17T08:34:50.969Z</time></trkpt><trkpt lat="43.8300799" lon="11.2441636"><ele>289.0</ele><time>2026-04-17T08:34:52.037Z</time></trkpt><trkpt lat="43.8299831" lon="11.2440678"><ele>288.0</ele><time>2026-04-17T08:34:53.041Z</time></trkpt><trkpt lat="43.8298918" lon="11.2439665"><ele>287.0</ele><time>2026-04-17T08:34:53.985Z</time></trkpt><trkpt lat="43.8298159" lon="11.2438889"><ele>286.0</ele><time>2026-04-17T08:34:55.03Z</time></trkpt><trkpt lat="43.8297408" lon="11.2438109"><ele>286.0</ele><time>2026-04-17T08:34:55.976Z</time></trkpt><trkpt lat="43.8296692" lon="11.2437456"><ele>286.0</ele><time>2026-04-17T08:34:56.977Z</time></trkpt><trkpt lat="43.8295991" lon="11.2436739"><ele>286.0</ele><time>2026-04-17T08:34:57.996Z</time></trkpt><trkpt lat="43.8295264" lon="11.2435997"><ele>286.0</ele><time>2026-04-17T08:34:59.029Z</time></trkpt><trkpt lat="43.829455" lon="11.24352"><ele>286.0</ele><time>2026-04-17T08:35:00.022Z</time></trkpt><trkpt lat="43.829383" lon="11.2434423"><ele>286.0</ele><time>2026-04-17T08:35:00.943Z</time></trkpt><trkpt lat="43.8293042" lon="11.2433508"><ele>282.8</ele><time>2026-04-17T08:35:01.939Z</time></trkpt><trkpt lat="43.8292308" lon="11.2432504"><ele>279.6</ele><time>2026-04-17T08:35:02.953Z</time></trkpt><trkpt lat="43.8291694" lon="11.2431387"><ele>276.4</ele><time>2026-04-17T08:35:03.953Z</time></trkpt><trkpt lat="43.829117" lon="11.2430102"><ele>273.2</ele><time>2026-04-17T08:35:04.957Z</time></trkpt><trkpt lat="43.8290777" lon="11.2428745"><ele>270.0</ele><time>2026-04-17T08:35:05.949Z</time></trkpt><trkpt lat="43.8290398" lon="11.2427502"><ele>270.0</ele><time>2026-04-17T08:35:06.941Z</time></trkpt><trkpt lat="43.8290035" lon="11.2426126"><ele>270.0</ele><time>2026-04-17T08:35:07.958Z</time></trkpt><trkpt lat="43.8289706" lon="11.2424733"><ele>270.0</ele><time>2026-04-17T08:35:08.972Z</time></trkpt><trkpt lat="43.8289348" lon="11.2423269"><ele>270.0</ele><time>2026-04-17T08:35:10.003Z</time></trkpt><trkpt lat="43.8289" lon="11.2421692"><ele>270.0</ele><time>2026-04-17T08:35:10.957Z</time></trkpt><trkpt lat="43.8288667" lon="11.2420119"><ele>268.6666666666667</ele><time>2026-04-17T08:35:11.959Z</time></trkpt><trkpt lat="43.8288495" lon="11.2418567"><ele>267.3333333333333</ele><time>2026-04-17T08:35:12.963Z</time></trkpt><trkpt lat="43.8288285" lon="11.2417239"><ele>266.0</ele><time>2026-04-17T08:35:13.946Z</time></trkpt><trkpt lat="43.8288075" lon="11.2416157"><ele>264.66666666666663</ele><time>2026-04-17T08:35:14.967Z</time></trkpt><trkpt lat="43.8287684" lon="11.2415353"><ele>263.3333333333333</ele><time>2026-04-17T08:35:15.959Z</time></trkpt><trkpt lat="43.8286962" lon="11.24148"><ele>262.0</ele><time>2026-04-17T08:35:16.964Z</time></trkpt><trkpt lat="43.8286127" lon="11.2414296"><ele>259.0</ele><time>2026-04-17T08:35:17.961Z</time></trkpt><trkpt lat="43.8285257" lon="11.2413646"><ele>256.0</ele><time>2026-04-17T08:35:18.96Z</time></trkpt><trkpt lat="43.8284386" lon="11.2413158"><ele>253.0</ele><time>2026-04-17T08:35:19.957Z</time></trkpt><trkpt lat="43.8283482" lon="11.2412674"><ele>250.0</ele><time>2026-04-17T08:35:20.961Z</time></trkpt><trkpt lat="43.8282646" lon="11.2412108"><ele>247.0</ele><time>2026-04-17T08:35:21.964Z</time></trkpt><trkpt lat="43.828188" lon="11.241161"><ele>245.85714285714286</ele><time>2026-04-17T08:35:22.968Z</time></trkpt><trkpt lat="43.8281136" lon="11.2411185"><ele>244.71428571428572</ele><time>2026-04-17T08:35:23.938Z</time></trkpt><trkpt lat="43.8280533" lon="11.2410689"><ele>243.57142857142858</ele><time>2026-04-17T08:35:24.952Z</time></trkpt><trkpt lat="43.8279999" lon="11.2410206"><ele>242.42857142857144</ele><time>2026-04-17T08:35:25.949Z</time></trkpt><trkpt lat="43.8279506" lon="11.2409649"><ele>241.28571428571428</ele><time>2026-04-17T08:35:26.952Z</time></trkpt><trkpt lat="43.8278945" lon="11.2409024"><ele>240.14285714285717</ele><time>2026-04-17T08:35:27.95Z</time></trkpt><trkpt lat="43.8278445" lon="11.2408258"><ele>239.00000000000003</ele><time>2026-04-17T08:35:28.946Z</time></trkpt><trkpt lat="43.8278011" lon="11.2407303"><ele>237.16666666666669</ele><time>2026-04-17T08:35:29.963Z</time></trkpt><trkpt lat="43.8277625" lon="11.2406295"><ele>235.33333333333334</ele><time>2026-04-17T08:35:30.966Z</time></trkpt><trkpt lat="43.8277245" lon="11.2405323"><ele>233.5</ele><time>2026-04-17T08:35:31.959Z</time></trkpt><trkpt lat="43.8276849" lon="11.2404363"><ele>231.66666666666669</ele><time>2026-04-17T08:35:32.964Z</time></trkpt><trkpt lat="43.8276254" lon="11.2403416"><ele>229.83333333333334</ele><time>2026-04-17T08:35:33.97Z</time></trkpt><trkpt lat="43.8275453" lon="11.2402586"><ele>228.0</ele><time>2026-04-17T08:35:34.957Z</time></trkpt><trkpt lat="43.8274652" lon="11.2401635"><ele>227.8</ele><time>2026-04-17T08:35:35.956Z</time></trkpt><trkpt lat="43.827386" lon="11.2400622"><ele>227.60000000000002</ele><time>2026-04-17T08:35:36.964Z</time></trkpt><trkpt lat="43.8273045" lon="11.2399749"><ele>227.39999999999998</ele><time>2026-04-17T08:35:37.955Z</time></trkpt><trkpt lat="43.8272235" lon="11.2398809"><ele>227.2</ele><time>2026-04-17T08:35:38.965Z</time></trkpt><trkpt lat="43.8271407" lon="11.2397855"><ele>227.0</ele><time>2026-04-17T08:35:39.957Z</time></trkpt><trkpt lat="43.8270581" lon="11.2396851"><ele>225.2</ele><time>2026-04-17T08:35:40.959Z</time></trkpt><trkpt lat="43.8269819" lon="11.2395844"><ele>223.39999999999998</ele><time>2026-04-17T08:35:41.964Z</time></trkpt><trkpt lat="43.8269025" lon="11.2394792"><ele>221.60000000000002</ele><time>2026-04-17T08:35:42.972Z</time></trkpt><trkpt lat="43.826823" lon="11.2393722"><ele>219.8</ele><time>2026-04-17T08:35:43.959Z</time></trkpt><trkpt lat="43.826745" lon="11.2392714"><ele>218.0</ele><time>2026-04-17T08:35:44.957Z</time></trkpt><trkpt lat="43.8266582" lon="11.2391629"><ele>217.5</ele><time>2026-04-17T08:35:45.983Z</time></trkpt><trkpt lat="43.8265787" lon="11.2390399"><ele>217.0</ele><time>2026-04-17T08:35:46.952Z</time></trkpt><trkpt lat="43.8265081" lon="11.2389021"><ele>216.5</ele><time>2026-04-17T08:35:47.954Z</time></trkpt><trkpt lat="43.8264432" lon="11.2387537"><ele>216.0</ele><time>2026-04-17T08:35:48.964Z</time></trkpt><trkpt lat="43.8263784" lon="11.2386056"><ele>213.5</ele><time>2026-04-17T08:35:49.967Z</time></trkpt><trkpt lat="43.8263209" lon="11.2384585"><ele>211.0</ele><time>2026-04-17T08:35:50.961Z</time></trkpt><trkpt lat="43.8262644" lon="11.2383114"><ele>208.5</ele><time>2026-04-17T08:35:51.964Z</time></trkpt><trkpt lat="43.8262066" lon="11.2381637"><ele>206.0</ele><time>2026-04-17T08:35:52.961Z</time></trkpt><trkpt lat="43.8261488" lon="11.238023"><ele>204.4</ele><time>2026-04-17T08:35:53.965Z</time></trkpt><trkpt lat="43.8260909" lon="11.2378854"><ele>202.8</ele><time>2026-04-17T08:35:54.966Z</time></trkpt><trkpt lat="43.8260293" lon="11.23775"><ele>201.20000000000002</ele><time>2026-04-17T08:35:55.958Z</time></trkpt><trkpt lat="43.8259614" lon="11.2376365"><ele>199.60000000000002</ele><time>2026-04-17T08:35:56.959Z</time></trkpt><trkpt lat="43.8258814" lon="11.2375329"><ele>198.0</ele><time>2026-04-17T08:35:57.971Z</time></trkpt><trkpt lat="43.8257979" lon="11.2374421"><ele>197.8</ele><time>2026-04-17T08:35:58.953Z</time></trkpt><trkpt lat="43.8257265" lon="11.2373648"><ele>197.60000000000002</ele><time>2026-04-17T08:35:59.956Z</time></trkpt><trkpt lat="43.8256702" lon="11.2373075"><ele>197.39999999999998</ele><time>2026-04-17T08:36:00.976Z</time></trkpt><trkpt lat="43.8256076" lon="11.2372207"><ele>197.2</ele><time>2026-04-17T08:36:02.964Z</time></trkpt><trkpt lat="43.8256763" lon="11.2371127"><ele>197.0</ele><time>2026-04-17T08:36:05.96Z</time></trkpt><trkpt lat="43.8257853" lon="11.2370173"><ele>195.8</ele><time>2026-04-17T08:36:07.963Z</time></trkpt><trkpt lat="43.8258573" lon="11.2369702"><ele>194.6</ele><time>2026-04-17T08:36:08.956Z</time></trkpt><trkpt lat="43.8259464" lon="11.2369176"><ele>193.4</ele><time>2026-04-17T08:36:09.966Z</time></trkpt><trkpt lat="43.8260446" lon="11.2368407"><ele>192.20000000000002</ele><time>2026-04-17T08:36:10.958Z</time></trkpt><trkpt lat="43.8261473" lon="11.2367682"><ele>191.0</ele><time>2026-04-17T08:36:11.974Z</time></trkpt><trkpt lat="43.8262461" lon="11.2366935"><ele>191.0</ele><time>2026-04-17T08:36:12.958Z</time></trkpt><trkpt lat="43.8263483" lon="11.2366081"><ele>191.0</ele><time>2026-04-17T08:36:13.955Z</time></trkpt><trkpt lat="43.8264449" lon="11.2365298"><ele>191.0</ele><time>2026-04-17T08:36:14.96Z</time></trkpt><trkpt lat="43.8265271" lon="11.2364598"><ele>191.0</ele><time>2026-04-17T08:36:15.969Z</time></trkpt><trkpt lat="43.8266075" lon="11.2363958"><ele>191.0</ele><time>2026-04-17T08:36:16.995Z</time></trkpt><trkpt lat="43.8266819" lon="11.2363144"><ele>191.5</ele><time>2026-04-17T08:36:17.961Z</time></trkpt><trkpt lat="43.8267515" lon="11.2362176"><ele>192.0</ele><time>2026-04-17T08:36:18.962Z</time></trkpt><trkpt lat="43.8268089" lon="11.2361214"><ele>192.5</ele><time>2026-04-17T08:36:19.959Z</time></trkpt><trkpt lat="43.8268523" lon="11.2360492"><ele>193.0</ele><time>2026-04-17T08:36:20.939Z</time></trkpt><trkpt lat="43.8268873" lon="11.235971"><ele>193.50000000000003</ele><time>2026-04-17T08:36:22.975Z</time></trkpt><trkpt lat="43.8269167" lon="11.2358923"><ele>194.0</ele><time>2026-04-17T08:36:26.964Z</time></trkpt><trkpt lat="43.8269718" lon="11.2358434"><ele>194.0</ele><time>2026-04-17T08:36:28.962Z</time></trkpt><trkpt lat="43.8270573" lon="11.2358004"><ele>194.0</ele><time>2026-04-17T08:36:30.965Z</time></trkpt><trkpt lat="43.827169" lon="11.235757"><ele>194.0</ele><time>2026-04-17T08:36:32.967Z</time></trkpt><trkpt lat="43.8272588" lon="11.235732"><ele>194.0</ele><time>2026-04-17T08:36:34.961Z</time></trkpt><trkpt lat="43.8273462" lon="11.2357602"><ele>194.0</ele><time>2026-04-17T08:36:36.965Z</time></trkpt><trkpt lat="43.8274203" lon="11.2357683"><ele>194.0</ele><time>2026-04-17T08:36:37.965Z</time></trkpt><trkpt lat="43.8275024" lon="11.23573"><ele>194.0</ele><time>2026-04-17T08:36:38.964Z</time></trkpt><trkpt lat="43.8275815" lon="11.2356524"><ele>194.0</ele><time>2026-04-17T08:36:39.952Z</time></trkpt><trkpt lat="43.8276753" lon="11.2355894"><ele>194.0</ele><time>2026-04-17T08:36:40.964Z</time></trkpt><trkpt lat="43.827771" lon="11.2355232"><ele>194.0</ele><time>2026-04-17T08:36:41.964Z</time></trkpt><trkpt lat="43.8278686" lon="11.2354545"><ele>194.0</ele><time>2026-04-17T08:36:42.961Z</time></trkpt><trkpt lat="43.8279656" lon="11.2353748"><ele>194.0</ele><time>2026-04-17T08:36:43.953Z</time></trkpt><trkpt lat="43.8280713" lon="11.2352961"><ele>194.0</ele><time>2026-04-17T08:36:44.961Z</time></trkpt><trkpt lat="43.8281775" lon="11.2352152"><ele>194.0</ele><time>2026-04-17T08:36:45.962Z</time></trkpt><trkpt lat="43.8282741" lon="11.2351405"><ele>194.0</ele><time>2026-04-17T08:36:46.959Z</time></trkpt><trkpt lat="43.8283601" lon="11.2350779"><ele>194.0</ele><time>2026-04-17T08:36:47.967Z</time></trkpt><trkpt lat="43.8284194" lon="11.2350192"><ele>194.0</ele><time>2026-04-17T08:36:48.968Z</time></trkpt><trkpt lat="43.8284475" lon="11.2348745"><ele>194.0</ele><time>2026-04-17T08:36:50.967Z</time></trkpt><trkpt lat="43.8284682" lon="11.2347101"><ele>194.0</ele><time>2026-04-17T08:36:52.942Z</time></trkpt><trkpt lat="43.8284801" lon="11.2346231"><ele>193.85714285714286</ele><time>2026-04-17T08:36:53.957Z</time></trkpt><trkpt lat="43.8284915" lon="11.2345348"><ele>193.71428571428572</ele><time>2026-04-17T08:36:54.964Z</time></trkpt><trkpt lat="43.8285132" lon="11.234446"><ele>193.57142857142858</ele><time>2026-04-17T08:36:55.957Z</time></trkpt><trkpt lat="43.828535" lon="11.2343545"><ele>193.42857142857144</ele><time>2026-04-17T08:36:56.971Z</time></trkpt><trkpt lat="43.8285642" lon="11.2342559"><ele>193.28571428571428</ele><time>2026-04-17T08:36:57.98Z</time></trkpt><trkpt lat="43.8286025" lon="11.2341703"><ele>193.14285714285717</ele><time>2026-04-17T08:36:58.972Z</time></trkpt><trkpt lat="43.8286504" lon="11.2340932"><ele>193.0</ele><time>2026-04-17T08:36:59.963Z</time></trkpt><trkpt lat="43.8287069" lon="11.2340251"><ele>192.60000000000002</ele><time>2026-04-17T08:37:00.965Z</time></trkpt><trkpt lat="43.8287753" lon="11.2339691"><ele>192.20000000000002</ele><time>2026-04-17T08:37:01.971Z</time></trkpt><trkpt lat="43.828842" lon="11.2339202"><ele>191.8</ele><time>2026-04-17T08:37:02.97Z</time></trkpt><trkpt lat="43.8289334" lon="11.2338162"><ele>191.4</ele><time>2026-04-17T08:37:04.967Z</time></trkpt><trkpt lat="43.8289402" lon="11.2336446"><ele>191.0</ele><time>2026-04-17T08:37:06.964Z</time></trkpt><trkpt lat="43.8288823" lon="11.2335719"><ele>191.0</ele><time>2026-04-17T08:37:07.969Z</time></trkpt><trkpt lat="43.8287703" lon="11.2334875"><ele>191.0</ele><time>2026-04-17T08:37:09.033Z</time></trkpt><trkpt lat="43.8286499" lon="11.2333706"><ele>191.0</ele><time>2026-04-17T08:37:10.034Z</time></trkpt><trkpt lat="43.8285538" lon="11.2332585"><ele>191.0</ele><time>2026-04-17T08:37:10.976Z</time></trkpt><trkpt lat="43.8284683" lon="11.2331377"><ele>189.4</ele><time>2026-04-17T08:37:11.981Z</time></trkpt><trkpt lat="43.8283912" lon="11.2330216"><ele>187.8</ele><time>2026-04-17T08:37:12.996Z</time></trkpt><trkpt lat="43.8283244" lon="11.2328961"><ele>186.20000000000002</ele><time>2026-04-17T08:37:14.036Z</time></trkpt><trkpt lat="43.8282552" lon="11.2327784"><ele>184.60000000000002</ele><time>2026-04-17T08:37:15.029Z</time></trkpt><trkpt lat="43.8281939" lon="11.232671"><ele>183.0</ele><time>2026-04-17T08:37:15.971Z</time></trkpt><trkpt lat="43.8281409" lon="11.2325637"><ele>183.0</ele><time>2026-04-17T08:37:16.979Z</time></trkpt><trkpt lat="43.828094" lon="11.2324451"><ele>183.0</ele><time>2026-04-17T08:37:17.993Z</time></trkpt><trkpt lat="43.8280562" lon="11.2323058"><ele>183.0</ele><time>2026-04-17T08:37:18.986Z</time></trkpt><trkpt lat="43.8280226" lon="11.2321754"><ele>183.0</ele><time>2026-04-17T08:37:20.052Z</time></trkpt><trkpt lat="43.8279756" lon="11.2320534"><ele>183.0</ele><time>2026-04-17T08:37:20.982Z</time></trkpt><trkpt lat="43.8279206" lon="11.2319345"><ele>184.2</ele><time>2026-04-17T08:37:21.974Z</time></trkpt><trkpt lat="43.8278628" lon="11.2318076"><ele>185.4</ele><time>2026-04-17T08:37:22.975Z</time></trkpt><trkpt lat="43.8277972" lon="11.2316814"><ele>186.6</ele><time>2026-04-17T08:37:23.983Z</time></trkpt><trkpt lat="43.8277344" lon="11.231564"><ele>187.79999999999998</ele><time>2026-04-17T08:37:24.974Z</time></trkpt><trkpt lat="43.8276828" lon="11.2314649"><ele>189.0</ele><time>2026-04-17T08:37:25.971Z</time></trkpt><trkpt lat="43.8276437" lon="11.2313628"><ele>189.6</ele><time>2026-04-17T08:37:26.98Z</time></trkpt><trkpt lat="43.8276384" lon="11.231275"><ele>190.2</ele><time>2026-04-17T08:37:27.966Z</time></trkpt><trkpt lat="43.8276478" lon="11.2311543"><ele>190.79999999999998</ele><time>2026-04-17T08:37:28.97Z</time></trkpt><trkpt lat="43.827644" lon="11.2310086"><ele>191.39999999999998</ele><time>2026-04-17T08:37:29.968Z</time></trkpt><trkpt lat="43.8275911" lon="11.2308893"><ele>192.0</ele><time>2026-04-17T08:37:30.981Z</time></trkpt><trkpt lat="43.8275014" lon="11.2307862"><ele>188.0</ele><time>2026-04-17T08:37:31.967Z</time></trkpt><trkpt lat="43.8274197" lon="11.2306729"><ele>184.0</ele><time>2026-04-17T08:37:32.973Z</time></trkpt><trkpt lat="43.8273532" lon="11.2305432"><ele>180.0</ele><time>2026-04-17T08:37:33.979Z</time></trkpt><trkpt lat="43.8272922" lon="11.2304051"><ele>176.0</ele><time>2026-04-17T08:37:34.987Z</time></trkpt><trkpt lat="43.8272252" lon="11.2302646"><ele>176.0</ele><time>2026-04-17T08:37:35.984Z</time></trkpt><trkpt lat="43.8271611" lon="11.2301381"><ele>176.0</ele><time>2026-04-17T08:37:36.974Z</time></trkpt><trkpt lat="43.8270974" lon="11.2300126"><ele>176.0</ele><time>2026-04-17T08:37:37.982Z</time></trkpt><trkpt lat="43.8270394" lon="11.2298928"><ele>176.0</ele><time>2026-04-17T08:37:38.982Z</time></trkpt><trkpt lat="43.8269879" lon="11.22978"><ele>176.0</ele><time>2026-04-17T08:37:40.032Z</time></trkpt><trkpt lat="43.8269397" lon="11.229671"><ele>176.0</ele><time>2026-04-17T08:37:40.964Z</time></trkpt><trkpt lat="43.8269003" lon="11.229572"><ele>176.0</ele><time>2026-04-17T08:37:41.969Z</time></trkpt><trkpt lat="43.8268735" lon="11.2294917"><ele>176.0</ele><time>2026-04-17T08:37:42.953Z</time></trkpt><trkpt lat="43.8268753" lon="11.2293158"><ele>176.0</ele><time>2026-04-17T08:37:45.032Z</time></trkpt><trkpt lat="43.8269151" lon="11.2292125"><ele>176.0</ele><time>2026-04-17T08:37:45.965Z</time></trkpt><trkpt lat="43.8269573" lon="11.229105"><ele>176.0</ele><time>2026-04-17T08:37:46.974Z</time></trkpt><trkpt lat="43.8270006" lon="11.228983"><ele>176.0</ele><time>2026-04-17T08:37:47.966Z</time></trkpt><trkpt lat="43.8270469" lon="11.2288509"><ele>176.0</ele><time>2026-04-17T08:37:49.012Z</time></trkpt><trkpt lat="43.827092" lon="11.228713"><ele>176.0</ele><time>2026-04-17T08:37:50.027Z</time></trkpt><trkpt lat="43.8271403" lon="11.228594"><ele>176.0</ele><time>2026-04-17T08:37:50.957Z</time></trkpt><trkpt lat="43.827171" lon="11.2284651"><ele>176.0</ele><time>2026-04-17T08:37:51.964Z</time></trkpt><trkpt lat="43.8271856" lon="11.2283369"><ele>176.0</ele><time>2026-04-17T08:37:52.96Z</time></trkpt><trkpt lat="43.8271931" lon="11.2282248"><ele>176.0</ele><time>2026-04-17T08:37:53.959Z</time></trkpt><trkpt lat="43.8272035" lon="11.2281164"><ele>176.0</ele><time>2026-04-17T08:37:54.962Z</time></trkpt><trkpt lat="43.8272236" lon="11.228011"><ele>176.0</ele><time>2026-04-17T08:37:55.958Z</time></trkpt><trkpt lat="43.8272578" lon="11.2279179"><ele>176.0</ele><time>2026-04-17T08:37:56.96Z</time></trkpt><trkpt lat="43.8273013" lon="11.2278406"><ele>176.0</ele><time>2026-04-17T08:37:57.964Z</time></trkpt><trkpt lat="43.827353" lon="11.227776"><ele>175.83333333333331</ele><time>2026-04-17T08:37:58.965Z</time></trkpt><trkpt lat="43.8274034" lon="11.2277108"><ele>175.66666666666666</ele><time>2026-04-17T08:37:59.967Z</time></trkpt><trkpt lat="43.8274552" lon="11.2276325"><ele>175.5</ele><time>2026-04-17T08:38:00.967Z</time></trkpt><trkpt lat="43.827507" lon="11.2275264"><ele>175.33333333333334</ele><time>2026-04-17T08:38:02.014Z</time></trkpt><trkpt lat="43.8275633" lon="11.2274106"><ele>175.16666666666669</ele><time>2026-04-17T08:38:03.018Z</time></trkpt><trkpt lat="43.8276307" lon="11.2272946"><ele>175.0</ele><time>2026-04-17T08:38:03.96Z</time></trkpt><trkpt lat="43.8277078" lon="11.2271669"><ele>175.0</ele><time>2026-04-17T08:38:04.964Z</time></trkpt><trkpt lat="43.8277863" lon="11.2270313"><ele>175.0</ele><time>2026-04-17T08:38:05.945Z</time></trkpt><trkpt lat="43.8278616" lon="11.2268948"><ele>175.0</ele><time>2026-04-17T08:38:06.957Z</time></trkpt><trkpt lat="43.8279297" lon="11.2267599"><ele>175.0</ele><time>2026-04-17T08:38:07.961Z</time></trkpt><trkpt lat="43.827996" lon="11.2266357"><ele>175.0</ele><time>2026-04-17T08:38:08.964Z</time></trkpt><trkpt lat="43.8280552" lon="11.2265112"><ele>175.0</ele><time>2026-04-17T08:38:10.028Z</time></trkpt><trkpt lat="43.8281168" lon="11.2263986"><ele>175.0</ele><time>2026-04-17T08:38:10.966Z</time></trkpt><trkpt lat="43.8281776" lon="11.226295"><ele>175.0</ele><time>2026-04-17T08:38:11.959Z</time></trkpt><trkpt lat="43.8282402" lon="11.2261948"><ele>175.0</ele><time>2026-04-17T08:38:13.022Z</time></trkpt><trkpt lat="43.8283081" lon="11.2261062"><ele>173.16666666666669</ele><time>2026-04-17T08:38:13.974Z</time></trkpt><trkpt lat="43.8283891" lon="11.2260365"><ele>171.33333333333334</ele><time>2026-04-17T08:38:14.965Z</time></trkpt><trkpt lat="43.8284634" lon="11.2259827"><ele>169.5</ele><time>2026-04-17T08:38:15.965Z</time></trkpt><trkpt lat="43.828532" lon="11.225933"><ele>167.66666666666666</ele><time>2026-04-17T08:38:16.968Z</time></trkpt><trkpt lat="43.8285976" lon="11.225947"><ele>165.83333333333331</ele><time>2026-04-17T08:38:17.961Z</time></trkpt><trkpt lat="43.828675" lon="11.2259952"><ele>164.0</ele><time>2026-04-17T08:38:18.959Z</time></trkpt><trkpt lat="43.8287532" lon="11.2260648"><ele>163.0</ele><time>2026-04-17T08:38:20.045Z</time></trkpt><trkpt lat="43.8288398" lon="11.2261305"><ele>162.0</ele><time>2026-04-17T08:38:20.955Z</time></trkpt><trkpt lat="43.8289376" lon="11.2262033"><ele>161.0</ele><time>2026-04-17T08:38:21.97Z</time></trkpt><trkpt lat="43.8290516" lon="11.2262775"><ele>160.0</ele><time>2026-04-17T08:38:22.97Z</time></trkpt><trkpt lat="43.8291584" lon="11.226351"><ele>160.0</ele><time>2026-04-17T08:38:24.042Z</time></trkpt><trkpt lat="43.8292685" lon="11.2264018"><ele>160.0</ele><time>2026-04-17T08:38:25.015Z</time></trkpt><trkpt lat="43.8293896" lon="11.226416"><ele>160.0</ele><time>2026-04-17T08:38:25.959Z</time></trkpt><trkpt lat="43.8295305" lon="11.2263882"><ele>160.0</ele><time>2026-04-17T08:38:26.991Z</time></trkpt><trkpt lat="43.8296675" lon="11.2263339"><ele>159.33333333333334</ele><time>2026-04-17T08:38:27.969Z</time></trkpt><trkpt lat="43.8298167" lon="11.226256"><ele>158.66666666666666</ele><time>2026-04-17T08:38:29.02Z</time></trkpt><trkpt lat="43.8299605" lon="11.2261588"><ele>158.0</ele><time>2026-04-17T08:38:30.031Z</time></trkpt><trkpt lat="43.8300663" lon="11.2259826"><ele>158.0</ele><time>2026-04-17T08:38:30.963Z</time></trkpt><trkpt lat="43.8301648" lon="11.2258123"><ele>158.0</ele><time>2026-04-17T08:38:31.961Z</time></trkpt><trkpt lat="43.8302484" lon="11.2256204"><ele>158.0</ele><time>2026-04-17T08:38:32.977Z</time></trkpt><trkpt lat="43.8303062" lon="11.2254069"><ele>158.0</ele><time>2026-04-17T08:38:34.032Z</time></trkpt><trkpt lat="43.8303638" lon="11.2252056"><ele>158.0</ele><time>2026-04-17T08:38:34.988Z</time></trkpt><trkpt lat="43.8304068" lon="11.2250049"><ele>158.0</ele><time>2026-04-17T08:38:35.961Z</time></trkpt><trkpt lat="43.830449" lon="11.2248091"><ele>155.0</ele><time>2026-04-17T08:38:36.957Z</time></trkpt><trkpt lat="43.8304857" lon="11.2246192"><ele>152.0</ele><time>2026-04-17T08:38:38.008Z</time></trkpt><trkpt lat="43.8305151" lon="11.2244339"><ele>149.0</ele><time>2026-04-17T08:38:39.01Z</time></trkpt><trkpt lat="43.8305406" lon="11.2242599"><ele>146.0</ele><time>2026-04-17T08:38:40.035Z</time></trkpt><trkpt lat="43.830561" lon="11.2241236"><ele>146.0</ele><time>2026-04-17T08:38:40.968Z</time></trkpt><trkpt lat="43.8305756" lon="11.2240369"><ele>146.0</ele><time>2026-04-17T08:38:41.984Z</time></trkpt><trkpt lat="43.8306309" lon="11.2239834"><ele>146.0</ele><time>2026-04-17T08:38:44.966Z</time></trkpt><trkpt lat="43.8306873" lon="11.2240512"><ele>146.0</ele><time>2026-04-17T08:38:46.979Z</time></trkpt><trkpt lat="43.8307489" lon="11.2241621"><ele>146.0</ele><time>2026-04-17T08:38:48.965Z</time></trkpt><trkpt lat="43.8307977" lon="11.2242915"><ele>146.0</ele><time>2026-04-17T08:38:51.005Z</time></trkpt><trkpt lat="43.8308419" lon="11.224426"><ele>146.0</ele><time>2026-04-17T08:38:52.973Z</time></trkpt><trkpt lat="43.8308866" lon="11.2245844"><ele>146.0</ele><time>2026-04-17T08:38:54.994Z</time></trkpt><trkpt lat="43.8308942" lon="11.2246863"><ele>146.0</ele><time>2026-04-17T08:38:55.967Z</time></trkpt><trkpt lat="43.8309007" lon="11.2247896"><ele>146.0</ele><time>2026-04-17T08:38:56.98Z</time></trkpt><trkpt lat="43.8309082" lon="11.2249338"><ele>146.0</ele><time>2026-04-17T08:38:58.976Z</time></trkpt><trkpt lat="43.8309357" lon="11.2250527"><ele>148.0</ele><time>2026-04-17T08:39:00.955Z</time></trkpt><trkpt lat="43.8309859" lon="11.2251849"><ele>150.0</ele><time>2026-04-17T08:39:02.962Z</time></trkpt><trkpt lat="43.8310522" lon="11.2253034"><ele>152.0</ele><time>2026-04-17T08:39:04.986Z</time></trkpt><trkpt lat="43.8311308" lon="11.2254052"><ele>154.0</ele><time>2026-04-17T08:39:06.978Z</time></trkpt><trkpt lat="43.8312012" lon="11.2255074"><ele>156.0</ele><time>2026-04-17T08:39:08.975Z</time></trkpt><trkpt lat="43.8312479" lon="11.2256187"><ele>158.66666666666666</ele><time>2026-04-17T08:39:10.98Z</time></trkpt><trkpt lat="43.8312897" lon="11.225691"><ele>161.33333333333334</ele><time>2026-04-17T08:39:12.978Z</time></trkpt><trkpt lat="43.8313389" lon="11.2257623"><ele>164.0</ele><time>2026-04-17T08:39:14.982Z</time></trkpt><trkpt lat="43.8314078" lon="11.2258482"><ele>166.66666666666669</ele><time>2026-04-17T08:39:16.982Z</time></trkpt><trkpt lat="43.8314614" lon="11.2259677"><ele>169.33333333333334</ele><time>2026-04-17T08:39:18.977Z</time></trkpt><trkpt lat="43.8315058" lon="11.2260437"><ele>172.0</ele><time>2026-04-17T08:39:22.044Z</time></trkpt><trkpt lat="43.8315869" lon="11.2260213"><ele>172.0</ele><time>2026-04-17T08:39:29.966Z</time></trkpt><trkpt lat="43.8316648" lon="11.2260481"><ele>172.0</ele><time>2026-04-17T08:39:34.023Z</time></trkpt><trkpt lat="43.831751" lon="11.226086"><ele>172.0</ele><time>2026-04-17T08:39:36.965Z</time></trkpt><trkpt lat="43.8318298" lon="11.2261468"><ele>172.0</ele><time>2026-04-17T08:39:39.967Z</time></trkpt><trkpt lat="43.8318896" lon="11.2261993"><ele>172.0</ele><time>2026-04-17T08:39:41.955Z</time></trkpt><trkpt lat="43.8319677" lon="11.2262411"><ele>172.0</ele><time>2026-04-17T08:39:43.967Z</time></trkpt><trkpt lat="43.8320441" lon="11.2262789"><ele>171.39999999999998</ele><time>2026-04-17T08:39:46.008Z</time></trkpt><trkpt lat="43.8321387" lon="11.2263239"><ele>170.79999999999998</ele><time>2026-04-17T08:39:47.973Z</time></trkpt><trkpt lat="43.8322524" lon="11.2263809"><ele>170.2</ele><time>2026-04-17T08:39:49.96Z</time></trkpt><trkpt lat="43.8323478" lon="11.226437"><ele>169.6</ele><time>2026-04-17T08:39:51.965Z</time></trkpt><trkpt lat="43.8324264" lon="11.2264832"><ele>169.0</ele><time>2026-04-17T08:39:53.977Z</time></trkpt><trkpt lat="43.8324907" lon="11.2264987"><ele>167.83333333333334</ele><time>2026-04-17T08:39:55.967Z</time></trkpt><trkpt lat="43.8325665" lon="11.2265022"><ele>166.66666666666669</ele><time>2026-04-17T08:39:58.963Z</time></trkpt><trkpt lat="43.8326498" lon="11.2264372"><ele>165.5</ele><time>2026-04-17T08:40:01.954Z</time></trkpt><trkpt lat="43.8327233" lon="11.2263764"><ele>164.33333333333334</ele><time>2026-04-17T08:40:03.955Z</time></trkpt><trkpt lat="43.8327894" lon="11.2263322"><ele>163.16666666666666</ele><time>2026-04-17T08:40:05.965Z</time></trkpt><trkpt lat="43.8328593" lon="11.2262904"><ele>162.0</ele><time>2026-04-17T08:40:07.954Z</time></trkpt><trkpt lat="43.8329361" lon="11.2262479"><ele>162.0</ele><time>2026-04-17T08:40:09.976Z</time></trkpt><trkpt lat="43.8330204" lon="11.2262516"><ele>162.0</ele><time>2026-04-17T08:40:12.963Z</time></trkpt><trkpt lat="43.8331146" lon="11.2262769"><ele>162.0</ele><time>2026-04-17T08:40:14.963Z</time></trkpt><trkpt lat="43.8332266" lon="11.2263009"><ele>162.0</ele><time>2026-04-17T08:40:16.967Z</time></trkpt><trkpt lat="43.8333419" lon="11.2263005"><ele>162.0</ele><time>2026-04-17T08:40:18.971Z</time></trkpt><trkpt lat="43.8334175" lon="11.2262912"><ele>163.0</ele><time>2026-04-17T08:40:19.97Z</time></trkpt><trkpt lat="43.8335011" lon="11.2263001"><ele>164.0</ele><time>2026-04-17T08:40:20.963Z</time></trkpt><trkpt lat="43.8336299" lon="11.2262637"><ele>165.0</ele><time>2026-04-17T08:40:22.967Z</time></trkpt><trkpt lat="43.8336951" lon="11.2262376"><ele>166.0</ele><time>2026-04-17T08:40:23.952Z</time></trkpt><trkpt lat="43.8337706" lon="11.2262153"><ele>167.0</ele><time>2026-04-17T08:40:24.962Z</time></trkpt><trkpt lat="43.833881" lon="11.2261622"><ele>167.0</ele><time>2026-04-17T08:40:26.971Z</time></trkpt><trkpt lat="43.8339813" lon="11.2261182"><ele>167.0</ele><time>2026-04-17T08:40:28.967Z</time></trkpt><trkpt lat="43.8340853" lon="11.2260858"><ele>167.0</ele><time>2026-04-17T08:40:30.965Z</time></trkpt><trkpt lat="43.8341804" lon="11.2260177"><ele>167.0</ele><time>2026-04-17T08:40:32.964Z</time></trkpt><trkpt lat="43.8342716" lon="11.2259237"><ele>167.0</ele><time>2026-04-17T08:40:34.968Z</time></trkpt><trkpt lat="43.8343239" lon="11.2258696"><ele>166.66666666666666</ele><time>2026-04-17T08:40:35.962Z</time></trkpt><trkpt lat="43.8343806" lon="11.2258098"><ele>166.33333333333331</ele><time>2026-04-17T08:40:36.968Z</time></trkpt><trkpt lat="43.8344382" lon="11.2257564"><ele>166.0</ele><time>2026-04-17T08:40:37.966Z</time></trkpt><trkpt lat="43.8345011" lon="11.2256955"><ele>165.66666666666666</ele><time>2026-04-17T08:40:38.972Z</time></trkpt><trkpt lat="43.8345685" lon="11.2256372"><ele>165.33333333333334</ele><time>2026-04-17T08:40:40.038Z</time></trkpt><trkpt lat="43.8346227" lon="11.2255763"><ele>165.0</ele><time>2026-04-17T08:40:41.035Z</time></trkpt><trkpt lat="43.8347249" lon="11.2255035"><ele>164.5</ele><time>2026-04-17T08:40:42.951Z</time></trkpt><trkpt lat="43.8347986" lon="11.2254367"><ele>164.0</ele><time>2026-04-17T08:40:44.967Z</time></trkpt><trkpt lat="43.8348393" lon="11.2253613"><ele>163.5</ele><time>2026-04-17T08:40:45.955Z</time></trkpt><trkpt lat="43.8349097" lon="11.225238"><ele>163.0</ele><time>2026-04-17T08:40:48.032Z</time></trkpt><trkpt lat="43.8349808" lon="11.2252113"><ele>162.5</ele><time>2026-04-17T08:40:50.037Z</time></trkpt><trkpt lat="43.8350468" lon="11.2252253"><ele>162.0</ele><time>2026-04-17T08:40:52.944Z</time></trkpt><trkpt lat="43.8350945" lon="11.2253047"><ele>160.6</ele><time>2026-04-17T08:40:54.992Z</time></trkpt><trkpt lat="43.8351768" lon="11.2253927"><ele>159.2</ele><time>2026-04-17T08:40:57.008Z</time></trkpt><trkpt lat="43.8352947" lon="11.2253977"><ele>157.8</ele><time>2026-04-17T08:40:58.961Z</time></trkpt><trkpt lat="43.8353703" lon="11.2253903"><ele>156.4</ele><time>2026-04-17T08:40:59.967Z</time></trkpt><trkpt lat="43.8354426" lon="11.2253739"><ele>155.0</ele><time>2026-04-17T08:41:01.014Z</time></trkpt><trkpt lat="43.8355214" lon="11.2253451"><ele>155.0</ele><time>2026-04-17T08:41:01.97Z</time></trkpt><trkpt lat="43.8355957" lon="11.2252773"><ele>155.0</ele><time>2026-04-17T08:41:03.033Z</time></trkpt><trkpt lat="43.8356724" lon="11.2252075"><ele>155.0</ele><time>2026-04-17T08:41:04.03Z</time></trkpt><trkpt lat="43.8357405" lon="11.2251056"><ele>155.0</ele><time>2026-04-17T08:41:04.945Z</time></trkpt><trkpt lat="43.8357962" lon="11.2250055"><ele>155.0</ele><time>2026-04-17T08:41:05.989Z</time></trkpt><trkpt lat="43.8358633" lon="11.2249265"><ele>155.0</ele><time>2026-04-17T08:41:06.968Z</time></trkpt><trkpt lat="43.8359372" lon="11.2248536"><ele>155.0</ele><time>2026-04-17T08:41:08.03Z</time></trkpt><trkpt lat="43.8360136" lon="11.2248151"><ele>155.0</ele><time>2026-04-17T08:41:09.031Z</time></trkpt><trkpt lat="43.8360919" lon="11.2248081"><ele>155.0</ele><time>2026-04-17T08:41:09.958Z</time></trkpt><trkpt lat="43.8361657" lon="11.2248314"><ele>155.0</ele><time>2026-04-17T08:41:10.951Z</time></trkpt><trkpt lat="43.8362338" lon="11.2248728"><ele>155.0</ele><time>2026-04-17T08:41:11.971Z</time></trkpt><trkpt lat="43.8363081" lon="11.2248995"><ele>154.5</ele><time>2026-04-17T08:41:12.963Z</time></trkpt><trkpt lat="43.8363774" lon="11.2249165"><ele>154.0</ele><time>2026-04-17T08:41:14.018Z</time></trkpt><trkpt lat="43.8364428" lon="11.2249202"><ele>153.5</ele><time>2026-04-17T08:41:14.959Z</time></trkpt><trkpt lat="43.8365558" lon="11.2249071"><ele>153.0</ele><time>2026-04-17T08:41:16.944Z</time></trkpt><trkpt lat="43.8366303" lon="11.2248879"><ele>152.5</ele><time>2026-04-17T08:41:18.96Z</time></trkpt><trkpt lat="43.8366969" lon="11.2248222"><ele>152.0</ele><time>2026-04-17T08:41:21.944Z</time></trkpt><trkpt lat="43.8367687" lon="11.2247359"><ele>150.79999999999998</ele><time>2026-04-17T08:41:23.961Z</time></trkpt><trkpt lat="43.8368479" lon="11.2246633"><ele>149.6</ele><time>2026-04-17T08:41:25.945Z</time></trkpt><trkpt lat="43.8369263" lon="11.2245647"><ele>148.39999999999998</ele><time>2026-04-17T08:41:27.948Z</time></trkpt><trkpt lat="43.8370219" lon="11.224497"><ele>147.2</ele><time>2026-04-17T08:41:29.954Z</time></trkpt><trkpt lat="43.8371132" lon="11.2244547"><ele>146.0</ele><time>2026-04-17T08:41:31.947Z</time></trkpt><trkpt lat="43.8371914" lon="11.224394"><ele>146.0</ele><time>2026-04-17T08:41:33.943Z</time></trkpt><trkpt lat="43.8372781" lon="11.2243208"><ele>146.0</ele><time>2026-04-17T08:41:35.962Z</time></trkpt><trkpt lat="43.8373654" lon="11.224241"><ele>146.0</ele><time>2026-04-17T08:41:37.946Z</time></trkpt><trkpt lat="43.837454" lon="11.2241712"><ele>146.0</ele><time>2026-04-17T08:41:39.941Z</time></trkpt><trkpt lat="43.8375319" lon="11.2241417"><ele>146.0</ele><time>2026-04-17T08:41:41.956Z</time></trkpt><trkpt lat="43.8376156" lon="11.2240972"><ele>147.6</ele><time>2026-04-17T08:41:43.938Z</time></trkpt><trkpt lat="43.8376551" lon="11.2240165"><ele>149.2</ele><time>2026-04-17T08:41:45.972Z</time></trkpt><trkpt lat="43.8376467" lon="11.2238748"><ele>150.8</ele><time>2026-04-17T08:41:47.964Z</time></trkpt><trkpt lat="43.8376513" lon="11.2237176"><ele>152.4</ele><time>2026-04-17T08:41:49.968Z</time></trkpt><trkpt lat="43.8376795" lon="11.2235667"><ele>154.0</ele><time>2026-04-17T08:41:51.969Z</time></trkpt><trkpt lat="43.8377119" lon="11.223489"><ele>154.0</ele><time>2026-04-17T08:41:53.02Z</time></trkpt><trkpt lat="43.8377386" lon="11.2234096"><ele>154.0</ele><time>2026-04-17T08:41:53.971Z</time></trkpt><trkpt lat="43.8378109" lon="11.2232746"><ele>154.0</ele><time>2026-04-17T08:41:55.968Z</time></trkpt><trkpt lat="43.8379007" lon="11.2231485"><ele>154.0</ele><time>2026-04-17T08:41:58.049Z</time></trkpt><trkpt lat="43.837991" lon="11.223052"><ele>154.0</ele><time>2026-04-17T08:42:00.011Z</time></trkpt><trkpt lat="43.838042" lon="11.2229577"><ele>153.71428571428572</ele><time>2026-04-17T08:42:01.96Z</time></trkpt><trkpt lat="43.8380275" lon="11.2228501"><ele>153.42857142857144</ele><time>2026-04-17T08:42:03.968Z</time></trkpt><trkpt lat="43.8380093" lon="11.2227537"><ele>153.14285714285714</ele><time>2026-04-17T08:42:05.039Z</time></trkpt><trkpt lat="43.8379979" lon="11.2226555"><ele>152.85714285714286</ele><time>2026-04-17T08:42:05.973Z</time></trkpt><trkpt lat="43.8380015" lon="11.2225536"><ele>152.57142857142858</ele><time>2026-04-17T08:42:06.971Z</time></trkpt><trkpt lat="43.838004" lon="11.2224567"><ele>152.28571428571428</ele><time>2026-04-17T08:42:07.967Z</time></trkpt><trkpt lat="43.838003" lon="11.2223557"><ele>152.0</ele><time>2026-04-17T08:42:08.971Z</time></trkpt><trkpt lat="43.837995" lon="11.2222134"><ele>151.33333333333331</ele><time>2026-04-17T08:42:11.034Z</time></trkpt><trkpt lat="43.8380235" lon="11.2220869"><ele>150.66666666666666</ele><time>2026-04-17T08:42:13.974Z</time></trkpt><trkpt lat="43.8380417" lon="11.2219272"><ele>150.0</ele><time>2026-04-17T08:42:15.979Z</time></trkpt><trkpt lat="43.8380479" lon="11.2218327"><ele>149.33333333333334</ele><time>2026-04-17T08:42:17.015Z</time></trkpt><trkpt lat="43.8380647" lon="11.2217366"><ele>148.66666666666669</ele><time>2026-04-17T08:42:17.963Z</time></trkpt><trkpt lat="43.8380847" lon="11.2216458"><ele>148.0</ele><time>2026-04-17T08:42:18.969Z</time></trkpt><trkpt lat="43.8381081" lon="11.2215501"><ele>147.16666666666669</ele><time>2026-04-17T08:42:19.979Z</time></trkpt><trkpt lat="43.8381368" lon="11.2214538"><ele>146.33333333333334</ele><time>2026-04-17T08:42:20.973Z</time></trkpt><trkpt lat="43.8381622" lon="11.2213628"><ele>145.5</ele><time>2026-04-17T08:42:21.974Z</time></trkpt><trkpt lat="43.8381796" lon="11.2212776"><ele>144.66666666666666</ele><time>2026-04-17T08:42:22.963Z</time></trkpt><trkpt lat="43.8382268" lon="11.221124"><ele>143.83333333333331</ele><time>2026-04-17T08:42:25.026Z</time></trkpt><trkpt lat="43.8382646" lon="11.2209855"><ele>143.0</ele><time>2026-04-17T08:42:26.949Z</time></trkpt><trkpt lat="43.8382628" lon="11.2208052"><ele>143.0</ele><time>2026-04-17T08:42:28.969Z</time></trkpt><trkpt lat="43.8382396" lon="11.2207062"><ele>143.0</ele><time>2026-04-17T08:42:29.966Z</time></trkpt><trkpt lat="43.8382062" lon="11.2205941"><ele>143.0</ele><time>2026-04-17T08:42:30.97Z</time></trkpt><trkpt lat="43.8381476" lon="11.220487"><ele>143.0</ele><time>2026-04-17T08:42:31.943Z</time></trkpt><trkpt lat="43.8380989" lon="11.2203759"><ele>143.0</ele><time>2026-04-17T08:42:32.958Z</time></trkpt><trkpt lat="43.8380689" lon="11.2202682"><ele>143.0</ele><time>2026-04-17T08:42:34.04Z</time></trkpt><trkpt lat="43.8380498" lon="11.2201506"><ele>143.83333333333331</ele><time>2026-04-17T08:42:34.954Z</time></trkpt><trkpt lat="43.838041" lon="11.2200332"><ele>144.66666666666666</ele><time>2026-04-17T08:42:35.965Z</time></trkpt><trkpt lat="43.8380255" lon="11.2199183"><ele>145.5</ele><time>2026-04-17T08:42:36.962Z</time></trkpt><trkpt lat="43.8380124" lon="11.2198138"><ele>146.33333333333334</ele><time>2026-04-17T08:42:38.056Z</time></trkpt><trkpt lat="43.8379992" lon="11.2196986"><ele>147.16666666666669</ele><time>2026-04-17T08:42:39.033Z</time></trkpt><trkpt lat="43.8379868" lon="11.2195755"><ele>148.0</ele><time>2026-04-17T08:42:40.035Z</time></trkpt><trkpt lat="43.837965" lon="11.2194559"><ele>148.66666666666669</ele><time>2026-04-17T08:42:41.022Z</time></trkpt><trkpt lat="43.8379434" lon="11.2193397"><ele>149.33333333333334</ele><time>2026-04-17T08:42:41.96Z</time></trkpt><trkpt lat="43.8379262" lon="11.2192202"><ele>150.0</ele><time>2026-04-17T08:42:42.944Z</time></trkpt><trkpt lat="43.8379138" lon="11.2191061"><ele>150.66666666666666</ele><time>2026-04-17T08:42:43.961Z</time></trkpt><trkpt lat="43.8379025" lon="11.2189985"><ele>151.33333333333331</ele><time>2026-04-17T08:42:44.971Z</time></trkpt><trkpt lat="43.8378852" lon="11.218899"><ele>152.0</ele><time>2026-04-17T08:42:45.97Z</time></trkpt><trkpt lat="43.8378649" lon="11.2188039"><ele>152.0</ele><time>2026-04-17T08:42:46.972Z</time></trkpt><trkpt lat="43.8378396" lon="11.218722"><ele>152.0</ele><time>2026-04-17T08:42:47.968Z</time></trkpt><trkpt lat="43.8378121" lon="11.2186337"><ele>152.0</ele><time>2026-04-17T08:42:49.062Z</time></trkpt><trkpt lat="43.8377818" lon="11.2185451"><ele>152.0</ele><time>2026-04-17T08:42:50.008Z</time></trkpt><trkpt lat="43.8377532" lon="11.2184478"><ele>152.0</ele><time>2026-04-17T08:42:50.967Z</time></trkpt><trkpt lat="43.8377217" lon="11.2183529"><ele>152.0</ele><time>2026-04-17T08:42:51.966Z</time></trkpt><trkpt lat="43.8376922" lon="11.2182608"><ele>152.0</ele><time>2026-04-17T08:42:52.979Z</time></trkpt><trkpt lat="43.8376776" lon="11.218164"><ele>148.4</ele><time>2026-04-17T08:42:54.053Z</time></trkpt><trkpt lat="43.8376495" lon="11.2179794"><ele>144.79999999999998</ele><time>2026-04-17T08:42:56.019Z</time></trkpt><trkpt lat="43.837634" lon="11.2178894"><ele>141.2</ele><time>2026-04-17T08:42:56.964Z</time></trkpt><trkpt lat="43.8376264" lon="11.2177476"><ele>137.6</ele><time>2026-04-17T08:42:58.968Z</time></trkpt><trkpt lat="43.8377186" lon="11.2176067"><ele>134.0</ele><time>2026-04-17T08:43:00.974Z</time></trkpt><trkpt lat="43.8377744" lon="11.2175281"><ele>134.0</ele><time>2026-04-17T08:43:01.974Z</time></trkpt><trkpt lat="43.8378372" lon="11.217458"><ele>134.0</ele><time>2026-04-17T08:43:02.962Z</time></trkpt><trkpt lat="43.8379003" lon="11.2173965"><ele>134.0</ele><time>2026-04-17T08:43:03.965Z</time></trkpt><trkpt lat="43.8379629" lon="11.2173485"><ele>134.0</ele><time>2026-04-17T08:43:05.028Z</time></trkpt><trkpt lat="43.8380264" lon="11.2173039"><ele>134.0</ele><time>2026-04-17T08:43:06.042Z</time></trkpt><trkpt lat="43.8380876" lon="11.2172605"><ele>134.0</ele><time>2026-04-17T08:43:06.962Z</time></trkpt><trkpt lat="43.8381475" lon="11.217205"><ele>134.0</ele><time>2026-04-17T08:43:07.962Z</time></trkpt><trkpt lat="43.8382014" lon="11.2171476"><ele>134.16666666666666</ele><time>2026-04-17T08:43:08.983Z</time></trkpt><trkpt lat="43.8382524" lon="11.217079"><ele>134.33333333333331</ele><time>2026-04-17T08:43:09.963Z</time></trkpt><trkpt lat="43.8382992" lon="11.2170154"><ele>134.5</ele><time>2026-04-17T08:43:10.962Z</time></trkpt><trkpt lat="43.838344" lon="11.2169429"><ele>134.66666666666666</ele><time>2026-04-17T08:43:11.968Z</time></trkpt><trkpt lat="43.8383969" lon="11.2168637"><ele>134.83333333333334</ele><time>2026-04-17T08:43:13.01Z</time></trkpt><trkpt lat="43.8384544" lon="11.2167798"><ele>135.0</ele><time>2026-04-17T08:43:14.031Z</time></trkpt><trkpt lat="43.8385074" lon="11.2166878"><ele>135.0</ele><time>2026-04-17T08:43:14.965Z</time></trkpt><trkpt lat="43.8385601" lon="11.2166021"><ele>135.0</ele><time>2026-04-17T08:43:16.036Z</time></trkpt><trkpt lat="43.838612" lon="11.2165165"><ele>135.0</ele><time>2026-04-17T08:43:16.968Z</time></trkpt><trkpt lat="43.8386624" lon="11.2164314"><ele>135.0</ele><time>2026-04-17T08:43:17.974Z</time></trkpt><trkpt lat="43.8387142" lon="11.2163574"><ele>135.0</ele><time>2026-04-17T08:43:18.964Z</time></trkpt><trkpt lat="43.8387581" lon="11.2162625"><ele>135.0</ele><time>2026-04-17T08:43:20.029Z</time></trkpt><trkpt lat="43.8388021" lon="11.216178"><ele>133.83333333333334</ele><time>2026-04-17T08:43:21.03Z</time></trkpt><trkpt lat="43.8388463" lon="11.2160988"><ele>132.66666666666666</ele><time>2026-04-17T08:43:21.97Z</time></trkpt><trkpt lat="43.8388881" lon="11.2160219"><ele>131.5</ele><time>2026-04-17T08:43:22.964Z</time></trkpt><trkpt lat="43.8389271" lon="11.2159477"><ele>130.33333333333331</ele><time>2026-04-17T08:43:23.968Z</time></trkpt><trkpt lat="43.8389938" lon="11.2158244"><ele>129.16666666666666</ele><time>2026-04-17T08:43:26.024Z</time></trkpt><trkpt lat="43.8390578" lon="11.2157537"><ele>128.0</ele><time>2026-04-17T08:43:27.972Z</time></trkpt><trkpt lat="43.8391162" lon="11.2157112"><ele>126.99999999999999</ele><time>2026-04-17T08:43:29.972Z</time></trkpt><trkpt lat="43.8391844" lon="11.2156474"><ele>126.0</ele><time>2026-04-17T08:43:31.973Z</time></trkpt><trkpt lat="43.8392633" lon="11.2155563"><ele>125.0</ele><time>2026-04-17T08:43:34.029Z</time></trkpt><trkpt lat="43.8393201" lon="11.215468"><ele>124.0</ele><time>2026-04-17T08:43:36.034Z</time></trkpt><trkpt lat="43.8393912" lon="11.2154305"><ele>122.99999999999999</ele><time>2026-04-17T08:43:37.977Z</time></trkpt><trkpt lat="43.8394637" lon="11.2154121"><ele>122.0</ele><time>2026-04-17T08:43:39.961Z</time></trkpt><trkpt lat="43.8395504" lon="11.2153556"><ele>121.99999999999999</ele><time>2026-04-17T08:43:41.963Z</time></trkpt><trkpt lat="43.8396691" lon="11.2152988"><ele>122.0</ele><time>2026-04-17T08:43:43.968Z</time></trkpt><trkpt lat="43.8397336" lon="11.2152646"><ele>122.0</ele><time>2026-04-17T08:43:44.97Z</time></trkpt><trkpt lat="43.8398036" lon="11.2152329"><ele>122.0</ele><time>2026-04-17T08:43:45.978Z</time></trkpt><trkpt lat="43.8398692" lon="11.2152011"><ele>121.99999999999999</ele><time>2026-04-17T08:43:46.972Z</time></trkpt><trkpt lat="43.8399396" lon="11.2151669"><ele>122.0</ele><time>2026-04-17T08:43:48.05Z</time></trkpt><trkpt lat="43.8400012" lon="11.2151168"><ele>121.99999999999999</ele><time>2026-04-17T08:43:48.968Z</time></trkpt><trkpt lat="43.8400656" lon="11.2150682"><ele>122.0</ele><time>2026-04-17T08:43:49.96Z</time></trkpt><trkpt lat="43.8401324" lon="11.2150203"><ele>122.0</ele><time>2026-04-17T08:43:50.963Z</time></trkpt><trkpt lat="43.8402079" lon="11.2149833"><ele>122.0</ele><time>2026-04-17T08:43:51.969Z</time></trkpt><trkpt lat="43.8402835" lon="11.2149507"><ele>121.99999999999999</ele><time>2026-04-17T08:43:52.969Z</time></trkpt><trkpt lat="43.8403571" lon="11.2149194"><ele>122.0</ele><time>2026-04-17T08:43:54.038Z</time></trkpt><trkpt lat="43.8404306" lon="11.2148793"><ele>121.99999999999999</ele><time>2026-04-17T08:43:55.033Z</time></trkpt><trkpt lat="43.8405037" lon="11.2148437"><ele>122.0</ele><time>2026-04-17T08:43:56.03Z</time></trkpt><trkpt lat="43.8405784" lon="11.2148164"><ele>122.0</ele><time>2026-04-17T08:43:56.962Z</time></trkpt><trkpt lat="43.8406495" lon="11.2147943"><ele>122.0</ele><time>2026-04-17T08:43:57.962Z</time></trkpt><trkpt lat="43.8407268" lon="11.2147635"><ele>121.99999999999999</ele><time>2026-04-17T08:43:58.952Z</time></trkpt><trkpt lat="43.8407985" lon="11.2147325"><ele>122.0</ele><time>2026-04-17T08:43:59.954Z</time></trkpt><trkpt lat="43.8408648" lon="11.2147067"><ele>121.99999999999999</ele><time>2026-04-17T08:44:00.956Z</time></trkpt><trkpt lat="43.8409331" lon="11.2146865"><ele>122.0</ele><time>2026-04-17T08:44:01.954Z</time></trkpt><trkpt lat="43.8409908" lon="11.2146458"><ele>122.0</ele><time>2026-04-17T08:44:02.973Z</time></trkpt><trkpt lat="43.8410897" lon="11.2145876"><ele>122.0</ele><time>2026-04-17T08:44:05.028Z</time></trkpt><trkpt lat="43.8412016" lon="11.2145551"><ele>121.99999999999999</ele><time>2026-04-17T08:44:06.973Z</time></trkpt><trkpt lat="43.8412654" lon="11.214561"><ele>122.0</ele><time>2026-04-17T08:44:07.977Z</time></trkpt><trkpt lat="43.8413809" lon="11.2145906"><ele>122.83333333333333</ele><time>2026-04-17T08:44:10.029Z</time></trkpt><trkpt lat="43.8414511" lon="11.2146031"><ele>123.66666666666666</ele><time>2026-04-17T08:44:11.034Z</time></trkpt><trkpt lat="43.8415333" lon="11.2146135"><ele>124.5</ele><time>2026-04-17T08:44:11.96Z</time></trkpt><trkpt lat="43.8416153" lon="11.2146198"><ele>125.33333333333334</ele><time>2026-04-17T08:44:12.954Z</time></trkpt><trkpt lat="43.8416859" lon="11.2146132"><ele>126.16666666666667</ele><time>2026-04-17T08:44:14.033Z</time></trkpt><trkpt lat="43.8418036" lon="11.2146082"><ele>127.0</ele><time>2026-04-17T08:44:16.031Z</time></trkpt><trkpt lat="43.8418897" lon="11.2145938"><ele>127.00000000000001</ele><time>2026-04-17T08:44:17.946Z</time></trkpt><trkpt lat="43.8419591" lon="11.2145913"><ele>127.0</ele><time>2026-04-17T08:44:21.964Z</time></trkpt><trkpt lat="43.8420183" lon="11.2146266"><ele>127.0</ele><time>2026-04-17T08:44:28.968Z</time></trkpt><trkpt lat="43.8420916" lon="11.2146116"><ele>127.0</ele><time>2026-04-17T08:45:06.961Z</time></trkpt><trkpt lat="43.8421811" lon="11.2146368"><ele>127.00000000000001</ele><time>2026-04-17T08:45:08.959Z</time></trkpt><trkpt lat="43.8422963" lon="11.2146966"><ele>127.0</ele><time>2026-04-17T08:45:10.949Z</time></trkpt><trkpt lat="43.8423581" lon="11.2147196"><ele>127.00000000000001</ele><time>2026-04-17T08:45:11.939Z</time></trkpt><trkpt lat="43.8424211" lon="11.2147355"><ele>127.0</ele><time>2026-04-17T08:45:12.955Z</time></trkpt><trkpt lat="43.8424897" lon="11.2147589"><ele>127.0</ele><time>2026-04-17T08:45:13.956Z</time></trkpt><trkpt lat="43.8425571" lon="11.2147928"><ele>127.0</ele><time>2026-04-17T08:45:14.959Z</time></trkpt><trkpt lat="43.8426238" lon="11.2148204"><ele>127.00000000000001</ele><time>2026-04-17T08:45:15.955Z</time></trkpt><trkpt lat="43.8427274" lon="11.2149048"><ele>127.0</ele><time>2026-04-17T08:45:17.96Z</time></trkpt><trkpt lat="43.8428284" lon="11.2149323"><ele>128.0</ele><time>2026-04-17T08:45:19.969Z</time></trkpt><trkpt lat="43.842961" lon="11.2149267"><ele>129.0</ele><time>2026-04-17T08:45:21.96Z</time></trkpt><trkpt lat="43.8430452" lon="11.2149152"><ele>130.0</ele><time>2026-04-17T08:45:22.964Z</time></trkpt><trkpt lat="43.8431217" lon="11.2148994"><ele>131.0</ele><time>2026-04-17T08:45:23.954Z</time></trkpt><trkpt lat="43.8431852" lon="11.2148791"><ele>132.0</ele><time>2026-04-17T08:45:24.955Z</time></trkpt><trkpt lat="43.8432925" lon="11.2148078"><ele>132.0</ele><time>2026-04-17T08:45:26.959Z</time></trkpt><trkpt lat="43.8433497" lon="11.2147565"><ele>132.0</ele><time>2026-04-17T08:45:27.958Z</time></trkpt><trkpt lat="43.843421" lon="11.2146352"><ele>132.0</ele><time>2026-04-17T08:45:29.968Z</time></trkpt><trkpt lat="43.8434572" lon="11.2145611"><ele>132.0</ele><time>2026-04-17T08:45:30.954Z</time></trkpt><trkpt lat="43.8435016" lon="11.2144845"><ele>132.0</ele><time>2026-04-17T08:45:31.96Z</time></trkpt><trkpt lat="43.8435418" lon="11.2144088"><ele>132.0</ele><time>2026-04-17T08:45:32.973Z</time></trkpt><trkpt lat="43.8435748" lon="11.2143316"><ele>132.0</ele><time>2026-04-17T08:45:33.964Z</time></trkpt><trkpt lat="43.8436177" lon="11.2142312"><ele>131.79999999999998</ele><time>2026-04-17T08:45:35.967Z</time></trkpt><trkpt lat="43.8436031" lon="11.2141383"><ele>131.6</ele><time>2026-04-17T08:45:37.956Z</time></trkpt><trkpt lat="43.843545" lon="11.2140271"><ele>131.39999999999998</ele><time>2026-04-17T08:45:39.968Z</time></trkpt><trkpt lat="43.843482" lon="11.2138996"><ele>131.2</ele><time>2026-04-17T08:45:41.954Z</time></trkpt><trkpt lat="43.8434225" lon="11.213781"><ele>131.0</ele><time>2026-04-17T08:45:43.975Z</time></trkpt><trkpt lat="43.8433702" lon="11.2137042"><ele>129.83333333333331</ele><time>2026-04-17T08:45:45.945Z</time></trkpt><trkpt lat="43.843309" lon="11.2136675"><ele>128.66666666666666</ele><time>2026-04-17T08:45:48.96Z</time></trkpt><trkpt lat="43.8432843" lon="11.2135845"><ele>127.5</ele><time>2026-04-17T08:45:52.958Z</time></trkpt><trkpt lat="43.8432607" lon="11.2134869"><ele>126.33333333333334</ele><time>2026-04-17T08:45:54.97Z</time></trkpt><trkpt lat="43.8431872" lon="11.2133951"><ele>125.16666666666667</ele><time>2026-04-17T08:45:56.953Z</time></trkpt><trkpt lat="43.8431047" lon="11.2132826"><ele>124.0</ele><time>2026-04-17T08:45:58.952Z</time></trkpt><trkpt lat="43.8430625" lon="11.2132177"><ele>122.66666666666667</ele><time>2026-04-17T08:45:59.967Z</time></trkpt><trkpt lat="43.8429847" lon="11.2130882"><ele>121.33333333333334</ele><time>2026-04-17T08:46:01.953Z</time></trkpt><trkpt lat="43.8429452" lon="11.2130198"><ele>120.0</ele><time>2026-04-17T08:46:02.953Z</time></trkpt><trkpt lat="43.8429043" lon="11.2129441"><ele>118.66666666666666</ele><time>2026-04-17T08:46:03.963Z</time></trkpt><trkpt lat="43.8428694" lon="11.2128649"><ele>117.33333333333333</ele><time>2026-04-17T08:46:04.958Z</time></trkpt><trkpt lat="43.8428317" lon="11.2127865"><ele>116.0</ele><time>2026-04-17T08:46:05.964Z</time></trkpt><trkpt lat="43.8427871" lon="11.2127146"><ele>116.0</ele><time>2026-04-17T08:46:06.955Z</time></trkpt><trkpt lat="43.8427372" lon="11.2126372"><ele>116.0</ele><time>2026-04-17T08:46:07.956Z</time></trkpt><trkpt lat="43.8426902" lon="11.2125575"><ele>116.0</ele><time>2026-04-17T08:46:08.959Z</time></trkpt><trkpt lat="43.8426472" lon="11.2124907"><ele>116.0</ele><time>2026-04-17T08:46:09.958Z</time></trkpt><trkpt lat="43.8425747" lon="11.2123528"><ele>116.0</ele><time>2026-04-17T08:46:12.037Z</time></trkpt><trkpt lat="43.8425068" lon="11.2122184"><ele>114.4</ele><time>2026-04-17T08:46:13.958Z</time></trkpt><trkpt lat="43.8424395" lon="11.2121069"><ele>112.8</ele><time>2026-04-17T08:46:15.968Z</time></trkpt><trkpt lat="43.8423711" lon="11.2120001"><ele>111.20000000000002</ele><time>2026-04-17T08:46:17.965Z</time></trkpt><trkpt lat="43.8423013" lon="11.2118958"><ele>109.60000000000001</ele><time>2026-04-17T08:46:19.962Z</time></trkpt><trkpt lat="43.842233" lon="11.2117934"><ele>108.0</ele><time>2026-04-17T08:46:21.964Z</time></trkpt><trkpt lat="43.8421694" lon="11.2116886"><ele>108.0</ele><time>2026-04-17T08:46:23.937Z</time></trkpt><trkpt lat="43.8421116" lon="11.2115813"><ele>108.00000000000001</ele><time>2026-04-17T08:46:26.026Z</time></trkpt><trkpt lat="43.8420499" lon="11.211481"><ele>108.00000000000001</ele><time>2026-04-17T08:46:27.972Z</time></trkpt><trkpt lat="43.8419946" lon="11.2113825"><ele>108.0</ele><time>2026-04-17T08:46:29.973Z</time></trkpt><trkpt lat="43.8419283" lon="11.2112798"><ele>108.0</ele><time>2026-04-17T08:46:32.035Z</time></trkpt><trkpt lat="43.8418566" lon="11.2111707"><ele>106.2</ele><time>2026-04-17T08:46:33.966Z</time></trkpt><trkpt lat="43.8417839" lon="11.2110671"><ele>104.4</ele><time>2026-04-17T08:46:35.987Z</time></trkpt><trkpt lat="43.8417144" lon="11.2109534"><ele>102.60000000000001</ele><time>2026-04-17T08:46:37.956Z</time></trkpt><trkpt lat="43.8416368" lon="11.2108234"><ele>100.80000000000001</ele><time>2026-04-17T08:46:39.956Z</time></trkpt><trkpt lat="43.8415641" lon="11.2107018"><ele>99.0</ele><time>2026-04-17T08:46:41.949Z</time></trkpt><trkpt lat="43.8414846" lon="11.2105834"><ele>98.4</ele><time>2026-04-17T08:46:43.959Z</time></trkpt><trkpt lat="43.8414331" lon="11.210488"><ele>97.80000000000001</ele><time>2026-04-17T08:46:45.957Z</time></trkpt><trkpt lat="43.8414216" lon="11.2103707"><ele>97.19999999999999</ele><time>2026-04-17T08:46:47.954Z</time></trkpt><trkpt lat="43.8414355" lon="11.2102196"><ele>96.6</ele><time>2026-04-17T08:46:49.959Z</time></trkpt><trkpt lat="43.8414522" lon="11.2100687"><ele>96.0</ele><time>2026-04-17T08:46:52.039Z</time></trkpt><trkpt lat="43.8414432" lon="11.2099401"><ele>96.0</ele><time>2026-04-17T08:46:53.971Z</time></trkpt><trkpt lat="43.8414901" lon="11.2098653"><ele>96.0</ele><time>2026-04-17T08:46:56.011Z</time></trkpt><trkpt lat="43.8415629" lon="11.2097833"><ele>96.0</ele><time>2026-04-17T08:46:57.973Z</time></trkpt><trkpt lat="43.841652" lon="11.2096943"><ele>96.0</ele><time>2026-04-17T08:46:59.963Z</time></trkpt><trkpt lat="43.8417255" lon="11.2096305"><ele>96.0</ele><time>2026-04-17T08:47:02.036Z</time></trkpt><trkpt lat="43.8417917" lon="11.2095463"><ele>95.6</ele><time>2026-04-17T08:47:03.959Z</time></trkpt><trkpt lat="43.8417922" lon="11.209397"><ele>95.19999999999999</ele><time>2026-04-17T08:47:05.98Z</time></trkpt><trkpt lat="43.8417904" lon="11.2092494"><ele>94.80000000000001</ele><time>2026-04-17T08:47:07.968Z</time></trkpt><trkpt lat="43.8417996" lon="11.2091199"><ele>94.4</ele><time>2026-04-17T08:47:09.967Z</time></trkpt><trkpt lat="43.8418023" lon="11.2090054"><ele>94.0</ele><time>2026-04-17T08:47:12.969Z</time></trkpt><trkpt lat="43.8417904" lon="11.2089186"><ele>94.2</ele><time>2026-04-17T08:47:14.973Z</time></trkpt><trkpt lat="43.8418088" lon="11.2087919"><ele>94.4</ele><time>2026-04-17T08:47:16.971Z</time></trkpt><trkpt lat="43.8418513" lon="11.2086401"><ele>94.6</ele><time>2026-04-17T08:47:18.96Z</time></trkpt><trkpt lat="43.841871" lon="11.2084725"><ele>94.8</ele><time>2026-04-17T08:47:20.973Z</time></trkpt><trkpt lat="43.8418914" lon="11.2083194"><ele>95.0</ele><time>2026-04-17T08:47:22.983Z</time></trkpt><trkpt lat="43.8418919" lon="11.2081844"><ele>94.6</ele><time>2026-04-17T08:47:24.966Z</time></trkpt><trkpt lat="43.8419081" lon="11.2080568"><ele>94.2</ele><time>2026-04-17T08:47:26.97Z</time></trkpt><trkpt lat="43.8419292" lon="11.2079427"><ele>93.80000000000001</ele><time>2026-04-17T08:47:28.967Z</time></trkpt><trkpt lat="43.8419957" lon="11.2078508"><ele>93.4</ele><time>2026-04-17T08:47:31.036Z</time></trkpt><trkpt lat="43.8420862" lon="11.2077757"><ele>93.0</ele><time>2026-04-17T08:47:32.961Z</time></trkpt><trkpt lat="43.8421781" lon="11.2077177"><ele>93.0</ele><time>2026-04-17T08:47:34.951Z</time></trkpt><trkpt lat="43.8422319" lon="11.2077711"><ele>93.0</ele><time>2026-04-17T08:47:36.959Z</time></trkpt><trkpt lat="43.8423098" lon="11.2079119"><ele>93.0</ele><time>2026-04-17T08:47:38.97Z</time></trkpt><trkpt lat="43.8423656" lon="11.2079813"><ele>93.0</ele><time>2026-04-17T08:47:39.963Z</time></trkpt><trkpt lat="43.8424344" lon="11.2080651"><ele>93.0</ele><time>2026-04-17T08:47:41.03Z</time></trkpt><trkpt lat="43.842508" lon="11.2081523"><ele>93.4</ele><time>2026-04-17T08:47:41.978Z</time></trkpt><trkpt lat="43.8425849" lon="11.2082481"><ele>93.80000000000001</ele><time>2026-04-17T08:47:43.04Z</time></trkpt><trkpt lat="43.8426632" lon="11.2083409"><ele>94.2</ele><time>2026-04-17T08:47:43.991Z</time></trkpt><trkpt lat="43.8427411" lon="11.2084355"><ele>94.6</ele><time>2026-04-17T08:47:44.993Z</time></trkpt><trkpt lat="43.8428143" lon="11.2085385"><ele>95.0</ele><time>2026-04-17T08:47:45.988Z</time></trkpt><trkpt lat="43.8428859" lon="11.2086321"><ele>95.4</ele><time>2026-04-17T08:47:46.987Z</time></trkpt><trkpt lat="43.8429615" lon="11.2087346"><ele>95.8</ele><time>2026-04-17T08:47:48.029Z</time></trkpt><trkpt lat="43.8430389" lon="11.2088399"><ele>96.19999999999999</ele><time>2026-04-17T08:47:48.979Z</time></trkpt><trkpt lat="43.8431125" lon="11.2089459"><ele>96.6</ele><time>2026-04-17T08:47:49.985Z</time></trkpt><trkpt lat="43.8431862" lon="11.2090525"><ele>97.0</ele><time>2026-04-17T08:47:50.993Z</time></trkpt><trkpt lat="43.8432627" lon="11.2091532"><ele>97.8</ele><time>2026-04-17T08:47:52.032Z</time></trkpt><trkpt lat="43.8433509" lon="11.2092338"><ele>98.6</ele><time>2026-04-17T08:47:53.032Z</time></trkpt><trkpt lat="43.8434506" lon="11.209281"><ele>99.39999999999999</ele><time>2026-04-17T08:47:53.969Z</time></trkpt><trkpt lat="43.8435578" lon="11.2093208"><ele>100.19999999999999</ele><time>2026-04-17T08:47:55.05Z</time></trkpt><trkpt lat="43.8436645" lon="11.2093578"><ele>101.0</ele><time>2026-04-17T08:47:56.028Z</time></trkpt><trkpt lat="43.8437712" lon="11.2093994"><ele>101.8</ele><time>2026-04-17T08:47:56.985Z</time></trkpt><trkpt lat="43.8438782" lon="11.2094384"><ele>102.6</ele><time>2026-04-17T08:47:57.958Z</time></trkpt><trkpt lat="43.8439808" lon="11.2094841"><ele>103.4</ele><time>2026-04-17T08:47:58.968Z</time></trkpt><trkpt lat="43.8440844" lon="11.2095303"><ele>104.2</ele><time>2026-04-17T08:47:59.97Z</time></trkpt><trkpt lat="43.8441877" lon="11.2095845"><ele>105.0</ele><time>2026-04-17T08:48:01.014Z</time></trkpt><trkpt lat="43.8442876" lon="11.2096476"><ele>106.2</ele><time>2026-04-17T08:48:01.971Z</time></trkpt><trkpt lat="43.8443907" lon="11.2097127"><ele>107.4</ele><time>2026-04-17T08:48:03.029Z</time></trkpt><trkpt lat="43.8444859" lon="11.2097747"><ele>108.6</ele><time>2026-04-17T08:48:03.968Z</time></trkpt><trkpt lat="43.8445839" lon="11.2098334"><ele>109.8</ele><time>2026-04-17T08:48:04.961Z</time></trkpt><trkpt lat="43.8446792" lon="11.2098958"><ele>111.0</ele><time>2026-04-17T08:48:05.955Z</time></trkpt><trkpt lat="43.8447811" lon="11.2099479"><ele>111.0</ele><time>2026-04-17T08:48:06.969Z</time></trkpt><trkpt lat="43.8448779" lon="11.2100103"><ele>111.0</ele><time>2026-04-17T08:48:07.96Z</time></trkpt><trkpt lat="43.8449665" lon="11.2100807"><ele>111.0</ele><time>2026-04-17T08:48:08.976Z</time></trkpt><trkpt lat="43.8450483" lon="11.2101462"><ele>111.0</ele><time>2026-04-17T08:48:09.965Z</time></trkpt><trkpt lat="43.8451193" lon="11.2101975"><ele>111.0</ele><time>2026-04-17T08:48:10.97Z</time></trkpt><trkpt lat="43.8452016" lon="11.2102736"><ele>112.66666666666667</ele><time>2026-04-17T08:48:13.035Z</time></trkpt><trkpt lat="43.8452695" lon="11.2102886"><ele>114.33333333333334</ele><time>2026-04-17T08:48:22.973Z</time></trkpt><trkpt lat="43.8453555" lon="11.210341"><ele>116.0</ele><time>2026-04-17T08:48:25.977Z</time></trkpt><trkpt lat="43.8454544" lon="11.2103974"><ele>117.66666666666667</ele><time>2026-04-17T08:48:27.951Z</time></trkpt><trkpt lat="43.8455151" lon="11.2104367"><ele>119.33333333333334</ele><time>2026-04-17T08:48:28.964Z</time></trkpt><trkpt lat="43.8455848" lon="11.210461"><ele>121.0</ele><time>2026-04-17T08:48:29.974Z</time></trkpt><trkpt lat="43.8456679" lon="11.2104523"><ele>121.00000000000001</ele><time>2026-04-17T08:48:31.029Z</time></trkpt><trkpt lat="43.8457559" lon="11.2104151"><ele>121.0</ele><time>2026-04-17T08:48:31.951Z</time></trkpt><trkpt lat="43.8458444" lon="11.2103732"><ele>121.0</ele><time>2026-04-17T08:48:33.024Z</time></trkpt><trkpt lat="43.8459286" lon="11.210356"><ele>121.0</ele><time>2026-04-17T08:48:33.965Z</time></trkpt><trkpt lat="43.8460033" lon="11.2103483"><ele>121.00000000000001</ele><time>2026-04-17T08:48:34.969Z</time></trkpt><trkpt lat="43.8460501" lon="11.2102333"><ele>121.0</ele><time>2026-04-17T08:48:37.975Z</time></trkpt><trkpt lat="43.8460382" lon="11.2100679"><ele>121.83333333333334</ele><time>2026-04-17T08:48:39.971Z</time></trkpt><trkpt lat="43.8460304" lon="11.2099749"><ele>122.66666666666667</ele><time>2026-04-17T08:48:41.027Z</time></trkpt><trkpt lat="43.8460162" lon="11.2098886"><ele>123.5</ele><time>2026-04-17T08:48:42.018Z</time></trkpt><trkpt lat="43.8459943" lon="11.2097386"><ele>124.33333333333334</ele><time>2026-04-17T08:48:43.973Z</time></trkpt><trkpt lat="43.8459969" lon="11.2095924"><ele>125.16666666666667</ele><time>2026-04-17T08:48:45.969Z</time></trkpt><trkpt lat="43.8459893" lon="11.2095056"><ele>126.0</ele><time>2026-04-17T08:48:46.968Z</time></trkpt><trkpt lat="43.8459564" lon="11.2094057"><ele>126.0</ele><time>2026-04-17T08:48:47.98Z</time></trkpt><trkpt lat="43.8459235" lon="11.2093177"><ele>126.0</ele><time>2026-04-17T08:48:48.968Z</time></trkpt><trkpt lat="43.8458904" lon="11.2092269"><ele>126.0</ele><time>2026-04-17T08:48:50.025Z</time></trkpt><trkpt lat="43.8458618" lon="11.2091365"><ele>126.0</ele><time>2026-04-17T08:48:51.038Z</time></trkpt><trkpt lat="43.8458415" lon="11.2090536"><ele>126.0</ele><time>2026-04-17T08:48:52.034Z</time></trkpt><trkpt lat="43.8458448" lon="11.208918"><ele>126.0</ele><time>2026-04-17T08:48:53.954Z</time></trkpt><trkpt lat="43.845875" lon="11.2087813"><ele>126.33333333333333</ele><time>2026-04-17T08:48:55.959Z</time></trkpt><trkpt lat="43.8459026" lon="11.2086419"><ele>126.66666666666666</ele><time>2026-04-17T08:48:57.953Z</time></trkpt><trkpt lat="43.8458988" lon="11.2085521"><ele>127.0</ele><time>2026-04-17T08:48:58.956Z</time></trkpt><trkpt lat="43.8458952" lon="11.2084575"><ele>127.33333333333333</ele><time>2026-04-17T08:48:59.958Z</time></trkpt><trkpt lat="43.8459039" lon="11.2083547"><ele>127.66666666666666</ele><time>2026-04-17T08:49:00.99Z</time></trkpt><trkpt lat="43.8459168" lon="11.2082507"><ele>128.0</ele><time>2026-04-17T08:49:01.951Z</time></trkpt><trkpt lat="43.8459248" lon="11.2081461"><ele>127.99999999999999</ele><time>2026-04-17T08:49:02.956Z</time></trkpt><trkpt lat="43.8459468" lon="11.2080452"><ele>128.0</ele><time>2026-04-17T08:49:03.96Z</time></trkpt><trkpt lat="43.8459702" lon="11.2079415"><ele>128.0</ele><time>2026-04-17T08:49:05.037Z</time></trkpt><trkpt lat="43.845992" lon="11.2078422"><ele>128.0</ele><time>2026-04-17T08:49:05.957Z</time></trkpt><trkpt lat="43.8460593" lon="11.207734"><ele>127.99999999999999</ele><time>2026-04-17T08:49:07.961Z</time></trkpt><trkpt lat="43.8461499" lon="11.2077338"><ele>128.0</ele><time>2026-04-17T08:49:09.983Z</time></trkpt><trkpt lat="43.8462603" lon="11.2078124"><ele>130.0</ele><time>2026-04-17T08:49:11.952Z</time></trkpt><trkpt lat="43.8463183" lon="11.2078529"><ele>132.0</ele><time>2026-04-17T08:49:12.956Z</time></trkpt><trkpt lat="43.8463804" lon="11.207902"><ele>134.0</ele><time>2026-04-17T08:49:13.959Z</time></trkpt><trkpt lat="43.8464446" lon="11.2079467"><ele>136.0</ele><time>2026-04-17T08:49:14.962Z</time></trkpt><trkpt lat="43.8465086" lon="11.20799"><ele>138.0</ele><time>2026-04-17T08:49:15.96Z</time></trkpt><trkpt lat="43.8465714" lon="11.208029"><ele>140.0</ele><time>2026-04-17T08:49:16.95Z</time></trkpt><trkpt lat="43.8466361" lon="11.2080691"><ele>142.0</ele><time>2026-04-17T08:49:17.958Z</time></trkpt><trkpt lat="43.846697" lon="11.2081129"><ele>142.0</ele><time>2026-04-17T08:49:18.956Z</time></trkpt><trkpt lat="43.8467603" lon="11.2081487"><ele>142.0</ele><time>2026-04-17T08:49:19.958Z</time></trkpt><trkpt lat="43.8468216" lon="11.2081878"><ele>142.0</ele><time>2026-04-17T08:49:20.961Z</time></trkpt><trkpt lat="43.8468816" lon="11.2082216"><ele>142.0</ele><time>2026-04-17T08:49:21.957Z</time></trkpt><trkpt lat="43.8469448" lon="11.2082657"><ele>142.0</ele><time>2026-04-17T08:49:23.033Z</time></trkpt><trkpt lat="43.8470108" lon="11.208314"><ele>142.0</ele><time>2026-04-17T08:49:23.96Z</time></trkpt><trkpt lat="43.8470784" lon="11.2083491"><ele>142.0</ele><time>2026-04-17T08:49:24.97Z</time></trkpt><trkpt lat="43.8471441" lon="11.2083709"><ele>145.4</ele><time>2026-04-17T08:49:25.978Z</time></trkpt><trkpt lat="43.8472264" lon="11.2083644"><ele>148.79999999999998</ele><time>2026-04-17T08:49:26.96Z</time></trkpt><trkpt lat="43.8473352" lon="11.2083486"><ele>152.2</ele><time>2026-04-17T08:49:27.955Z</time></trkpt><trkpt lat="43.8474434" lon="11.2083367"><ele>155.6</ele><time>2026-04-17T08:49:28.964Z</time></trkpt><trkpt lat="43.8475555" lon="11.2083212"><ele>159.0</ele><time>2026-04-17T08:49:29.963Z</time></trkpt><trkpt lat="43.8476744" lon="11.2083007"><ele>161.75</ele><time>2026-04-17T08:49:31.012Z</time></trkpt><trkpt lat="43.8477997" lon="11.2082877"><ele>164.5</ele><time>2026-04-17T08:49:32.019Z</time></trkpt><trkpt lat="43.8479227" lon="11.2082768"><ele>167.25</ele><time>2026-04-17T08:49:32.955Z</time></trkpt><trkpt lat="43.848037" lon="11.2082626"><ele>170.0</ele><time>2026-04-17T08:49:33.965Z</time></trkpt><trkpt lat="43.8481538" lon="11.2082524"><ele>170.0</ele><time>2026-04-17T08:49:34.958Z</time></trkpt><trkpt lat="43.8482701" lon="11.2082419"><ele>170.0</ele><time>2026-04-17T08:49:35.967Z</time></trkpt><trkpt lat="43.8483868" lon="11.20823"><ele>170.0</ele><time>2026-04-17T08:49:36.957Z</time></trkpt><trkpt lat="43.8485022" lon="11.2082105"><ele>170.0</ele><time>2026-04-17T08:49:37.972Z</time></trkpt><trkpt lat="43.8486196" lon="11.2082031"><ele>172.75</ele><time>2026-04-17T08:49:38.967Z</time></trkpt><trkpt lat="43.8487346" lon="11.2081902"><ele>175.5</ele><time>2026-04-17T08:49:39.969Z</time></trkpt><trkpt lat="43.8488578" lon="11.2081831"><ele>178.25</ele><time>2026-04-17T08:49:40.967Z</time></trkpt><trkpt lat="43.8489765" lon="11.2081716"><ele>181.0</ele><time>2026-04-17T08:49:42.029Z</time></trkpt><trkpt lat="43.8490965" lon="11.2081673"><ele>180.0</ele><time>2026-04-17T08:49:43.045Z</time></trkpt><trkpt lat="43.849207" lon="11.2081565"><ele>179.0</ele><time>2026-04-17T08:49:43.963Z</time></trkpt><trkpt lat="43.849315" lon="11.2081392"><ele>178.0</ele><time>2026-04-17T08:49:44.966Z</time></trkpt><trkpt lat="43.8494206" lon="11.2081145"><ele>177.0</ele><time>2026-04-17T08:49:45.971Z</time></trkpt><trkpt lat="43.8495081" lon="11.2080799"><ele>176.0</ele><time>2026-04-17T08:49:47.039Z</time></trkpt><trkpt lat="43.8495973" lon="11.2080358"><ele>179.5</ele><time>2026-04-17T08:49:47.96Z</time></trkpt><trkpt lat="43.8496819" lon="11.2079945"><ele>183.0</ele><time>2026-04-17T08:49:48.979Z</time></trkpt><trkpt lat="43.8497661" lon="11.2079529"><ele>186.5</ele><time>2026-04-17T08:49:49.971Z</time></trkpt><trkpt lat="43.8498477" lon="11.2079009"><ele>190.0</ele><time>2026-04-17T08:49:50.955Z</time></trkpt><trkpt lat="43.8499213" lon="11.2078405"><ele>193.50000000000003</ele><time>2026-04-17T08:49:51.954Z</time></trkpt><trkpt lat="43.8499802" lon="11.2077645"><ele>197.0</ele><time>2026-04-17T08:49:52.956Z</time></trkpt><trkpt lat="43.8500244" lon="11.207679"><ele>197.0</ele><time>2026-04-17T08:49:53.954Z</time></trkpt><trkpt lat="43.8500644" lon="11.207571"><ele>197.0</ele><time>2026-04-17T08:49:54.96Z</time></trkpt><trkpt lat="43.8500937" lon="11.2074673"><ele>197.0</ele><time>2026-04-17T08:49:55.958Z</time></trkpt><trkpt lat="43.8501139" lon="11.2073724"><ele>197.0</ele><time>2026-04-17T08:49:56.954Z</time></trkpt><trkpt lat="43.8501385" lon="11.2072863"><ele>197.0</ele><time>2026-04-17T08:49:57.942Z</time></trkpt><trkpt lat="43.8501727" lon="11.2072025"><ele>197.0</ele><time>2026-04-17T08:49:58.959Z</time></trkpt><trkpt lat="43.8502206" lon="11.2071265"><ele>197.0</ele><time>2026-04-17T08:49:59.95Z</time></trkpt><trkpt lat="43.8503088" lon="11.2070226"><ele>199.00000000000003</ele><time>2026-04-17T08:50:01.958Z</time></trkpt><trkpt lat="43.8504223" lon="11.2069353"><ele>201.0</ele><time>2026-04-17T08:50:03.965Z</time></trkpt><trkpt lat="43.8504906" lon="11.2068817"><ele>203.0</ele><time>2026-04-17T08:50:05.029Z</time></trkpt><trkpt lat="43.8505592" lon="11.2068339"><ele>205.0</ele><time>2026-04-17T08:50:05.961Z</time></trkpt><trkpt lat="43.8506332" lon="11.2067824"><ele>207.00000000000003</ele><time>2026-04-17T08:50:06.952Z</time></trkpt><trkpt lat="43.8507017" lon="11.2067329"><ele>209.0</ele><time>2026-04-17T08:50:07.954Z</time></trkpt><trkpt lat="43.8507675" lon="11.2066881"><ele>209.0</ele><time>2026-04-17T08:50:08.932Z</time></trkpt><trkpt lat="43.8508276" lon="11.2066427"><ele>209.0</ele><time>2026-04-17T08:50:09.961Z</time></trkpt><trkpt lat="43.8508892" lon="11.2066086"><ele>209.0</ele><time>2026-04-17T08:50:10.95Z</time></trkpt><trkpt lat="43.8509635" lon="11.2065858"><ele>209.0</ele><time>2026-04-17T08:50:12.046Z</time></trkpt><trkpt lat="43.8510396" lon="11.2065705"><ele>209.0</ele><time>2026-04-17T08:50:13.035Z</time></trkpt><trkpt lat="43.8511164" lon="11.2065563"><ele>209.0</ele><time>2026-04-17T08:50:13.964Z</time></trkpt><trkpt lat="43.8511964" lon="11.2065382"><ele>209.0</ele><time>2026-04-17T08:50:14.976Z</time></trkpt><trkpt lat="43.851274" lon="11.2065195"><ele>210.00000000000003</ele><time>2026-04-17T08:50:15.985Z</time></trkpt><trkpt lat="43.8513505" lon="11.2064952"><ele>211.0</ele><time>2026-04-17T08:50:16.941Z</time></trkpt><trkpt lat="43.8514183" lon="11.2064745"><ele>212.0</ele><time>2026-04-17T08:50:17.966Z</time></trkpt><trkpt lat="43.851523" lon="11.2064335"><ele>213.0</ele><time>2026-04-17T08:50:20.034Z</time></trkpt><trkpt lat="43.851609" lon="11.2064778"><ele>214.00000000000003</ele><time>2026-04-17T08:50:22.023Z</time></trkpt><trkpt lat="43.8516563" lon="11.2065445"><ele>215.0</ele><time>2026-04-17T08:50:23.025Z</time></trkpt><trkpt lat="43.851705" lon="11.2066089"><ele>216.16666666666669</ele><time>2026-04-17T08:50:23.975Z</time></trkpt><trkpt lat="43.8517633" lon="11.2066692"><ele>217.33333333333334</ele><time>2026-04-17T08:50:24.972Z</time></trkpt><trkpt lat="43.85183" lon="11.2067283"><ele>218.5</ele><time>2026-04-17T08:50:25.98Z</time></trkpt><trkpt lat="43.8519005" lon="11.2067868"><ele>219.66666666666669</ele><time>2026-04-17T08:50:27.04Z</time></trkpt><trkpt lat="43.8519684" lon="11.2068464"><ele>220.83333333333334</ele><time>2026-04-17T08:50:27.952Z</time></trkpt><trkpt lat="43.852037" lon="11.2069028"><ele>222.0</ele><time>2026-04-17T08:50:28.953Z</time></trkpt><trkpt lat="43.8521016" lon="11.2069684"><ele>222.83333333333334</ele><time>2026-04-17T08:50:29.967Z</time></trkpt><trkpt lat="43.8521663" lon="11.2070337"><ele>223.66666666666669</ele><time>2026-04-17T08:50:31.004Z</time></trkpt><trkpt lat="43.8522299" lon="11.2070875"><ele>224.5</ele><time>2026-04-17T08:50:32.006Z</time></trkpt><trkpt lat="43.8522967" lon="11.2071365"><ele>225.33333333333334</ele><time>2026-04-17T08:50:33.003Z</time></trkpt><trkpt lat="43.8523606" lon="11.2071924"><ele>226.16666666666669</ele><time>2026-04-17T08:50:33.955Z</time></trkpt><trkpt lat="43.8524241" lon="11.2072519"><ele>227.0</ele><time>2026-04-17T08:50:34.954Z</time></trkpt><trkpt lat="43.852486" lon="11.207305"><ele>228.71428571428572</ele><time>2026-04-17T08:50:35.963Z</time></trkpt><trkpt lat="43.85255" lon="11.2073524"><ele>230.42857142857144</ele><time>2026-04-17T08:50:36.959Z</time></trkpt><trkpt lat="43.8526119" lon="11.2073984"><ele>232.14285714285717</ele><time>2026-04-17T08:50:37.963Z</time></trkpt><trkpt lat="43.8526707" lon="11.2074504"><ele>233.8571428571429</ele><time>2026-04-17T08:50:39.002Z</time></trkpt><trkpt lat="43.8527265" lon="11.2075041"><ele>235.57142857142858</ele><time>2026-04-17T08:50:40.008Z</time></trkpt><trkpt lat="43.8527803" lon="11.2075613"><ele>237.28571428571433</ele><time>2026-04-17T08:50:40.957Z</time></trkpt><trkpt lat="43.8528394" lon="11.2076166"><ele>239.00000000000003</ele><time>2026-04-17T08:50:42.03Z</time></trkpt><trkpt lat="43.8529001" lon="11.2076746"><ele>239.66666666666669</ele><time>2026-04-17T08:50:43.027Z</time></trkpt><trkpt lat="43.8529566" lon="11.207736"><ele>240.33333333333334</ele><time>2026-04-17T08:50:43.959Z</time></trkpt><trkpt lat="43.8530145" lon="11.2077861"><ele>241.0</ele><time>2026-04-17T08:50:44.96Z</time></trkpt><trkpt lat="43.8530711" lon="11.2078363"><ele>241.66666666666669</ele><time>2026-04-17T08:50:45.968Z</time></trkpt><trkpt lat="43.8531262" lon="11.2078853"><ele>242.33333333333334</ele><time>2026-04-17T08:50:46.963Z</time></trkpt><trkpt lat="43.8532046" lon="11.2079739"><ele>243.0</ele><time>2026-04-17T08:50:48.982Z</time></trkpt><trkpt lat="43.8532631" lon="11.2080458"><ele>243.0</ele><time>2026-04-17T08:50:51.968Z</time></trkpt><trkpt lat="43.853283" lon="11.2081315"><ele>243.0</ele><time>2026-04-17T08:50:59.964Z</time></trkpt><trkpt lat="43.8532329" lon="11.2082217"><ele>243.0</ele><time>2026-04-17T08:51:03.962Z</time></trkpt><trkpt lat="43.853202" lon="11.2083162"><ele>243.0</ele><time>2026-04-17T08:51:05.962Z</time></trkpt><trkpt lat="43.8531642" lon="11.2084159"><ele>243.0</ele><time>2026-04-17T08:51:07.968Z</time></trkpt><trkpt lat="43.8531158" lon="11.2085239"><ele>243.0</ele><time>2026-04-17T08:51:09.963Z</time></trkpt><trkpt lat="43.8530748" lon="11.208623"><ele>244.0</ele><time>2026-04-17T08:51:11.952Z</time></trkpt><trkpt lat="43.8530288" lon="11.2087433"><ele>245.0</ele><time>2026-04-17T08:51:13.963Z</time></trkpt><trkpt lat="43.8529828" lon="11.2088804"><ele>246.0</ele><time>2026-04-17T08:51:15.963Z</time></trkpt><trkpt lat="43.8529286" lon="11.2090324"><ele>247.0</ele><time>2026-04-17T08:51:17.974Z</time></trkpt><trkpt lat="43.8528987" lon="11.2091131"><ele>248.0</ele><time>2026-04-17T08:51:18.968Z</time></trkpt><trkpt lat="43.8528669" lon="11.2091939"><ele>249.16666666666669</ele><time>2026-04-17T08:51:19.979Z</time></trkpt><trkpt lat="43.8528206" lon="11.209333"><ele>250.33333333333334</ele><time>2026-04-17T08:51:21.968Z</time></trkpt><trkpt lat="43.8527833" lon="11.209414"><ele>251.5</ele><time>2026-04-17T08:51:23.956Z</time></trkpt><trkpt lat="43.8527491" lon="11.2095176"><ele>252.66666666666669</ele><time>2026-04-17T08:51:26.969Z</time></trkpt><trkpt lat="43.8527283" lon="11.2096032"><ele>253.83333333333334</ele><time>2026-04-17T08:51:28.967Z</time></trkpt><trkpt lat="43.8527002" lon="11.2097038"><ele>255.0</ele><time>2026-04-17T08:51:31.96Z</time></trkpt><trkpt lat="43.8527448" lon="11.209776"><ele>255.0</ele><time>2026-04-17T08:51:35.959Z</time></trkpt><trkpt lat="43.8528063" lon="11.2098095"><ele>255.00000000000003</ele><time>2026-04-17T08:51:38.974Z</time></trkpt><trkpt lat="43.8528725" lon="11.2098814"><ele>255.0</ele><time>2026-04-17T08:51:42.961Z</time></trkpt><trkpt lat="43.8529397" lon="11.2099358"><ele>255.0</ele><time>2026-04-17T08:51:46.962Z</time></trkpt><trkpt lat="43.8529993" lon="11.2099016"><ele>255.00000000000003</ele><time>2026-04-17T08:51:50.97Z</time></trkpt><trkpt lat="43.8530584" lon="11.2098375"><ele>255.0</ele><time>2026-04-17T08:51:53.956Z</time></trkpt><trkpt lat="43.8531276" lon="11.2098148"><ele>255.0</ele><time>2026-04-17T08:51:56.949Z</time></trkpt><trkpt lat="43.853204" lon="11.2098452"><ele>255.33333333333334</ele><time>2026-04-17T08:52:00.97Z</time></trkpt><trkpt lat="43.8532772" lon="11.2098803"><ele>255.66666666666669</ele><time>2026-04-17T08:52:04.961Z</time></trkpt><trkpt lat="43.8533456" lon="11.2099234"><ele>256.0</ele><time>2026-04-17T08:52:08.97Z</time></trkpt><trkpt lat="43.8534135" lon="11.2099555"><ele>256.33333333333337</ele><time>2026-04-17T08:52:12.963Z</time></trkpt><trkpt lat="43.8534784" lon="11.2099797"><ele>256.6666666666667</ele><time>2026-04-17T08:52:18.967Z</time></trkpt><trkpt lat="43.8535528" lon="11.2100191"><ele>257.0</ele><time>2026-04-17T08:52:22.973Z</time></trkpt><trkpt lat="43.8536465" lon="11.2100614"><ele>258.6</ele><time>2026-04-17T08:52:28.965Z</time></trkpt><trkpt lat="43.8537915" lon="11.2101165"><ele>260.2</ele><time>2026-04-17T08:52:44.965Z</time></trkpt><trkpt lat="43.8538843" lon="11.2101558"><ele>261.8</ele><time>2026-04-17T08:52:50.952Z</time></trkpt><trkpt lat="43.8539459" lon="11.2101891"><ele>263.4</ele><time>2026-04-17T08:52:53.943Z</time></trkpt><trkpt lat="43.854011" lon="11.2102422"><ele>265.0</ele><time>2026-04-17T08:53:00.962Z</time></trkpt><trkpt lat="43.8540747" lon="11.2102736"><ele>264.99999999999994</ele><time>2026-04-17T08:53:05.968Z</time></trkpt><trkpt lat="43.8541427" lon="11.2102888"><ele>265.0</ele><time>2026-04-17T08:53:10.962Z</time></trkpt><trkpt lat="43.8542258" lon="11.2103058"><ele>265.0</ele><time>2026-04-17T08:53:17.967Z</time></trkpt><trkpt lat="43.8542955" lon="11.2102851"><ele>265.0</ele><time>2026-04-17T08:53:24.958Z</time></trkpt><trkpt lat="43.8543619" lon="11.2102627"><ele>265.0</ele><time>2026-04-17T08:53:31.955Z</time></trkpt><trkpt lat="43.8544352" lon="11.2102464"><ele>264.99999999999994</ele><time>2026-04-17T08:53:37.965Z</time></trkpt><trkpt lat="43.8545085" lon="11.2102433"><ele>265.0</ele><time>2026-04-17T08:53:44.942Z</time></trkpt><trkpt lat="43.8545847" lon="11.2102585"><ele>268.2</ele><time>2026-04-17T08:53:51.958Z</time></trkpt><trkpt lat="43.8546468" lon="11.2102381"><ele>271.4</ele><time>2026-04-17T08:53:56.961Z</time></trkpt><trkpt lat="43.8547735" lon="11.2102229"><ele>274.6</ele><time>2026-04-17T08:54:08.968Z</time></trkpt><trkpt lat="43.8548536" lon="11.2102233"><ele>277.8</ele><time>2026-04-17T08:54:13.964Z</time></trkpt><trkpt lat="43.8549298" lon="11.2102101"><ele>281.0</ele><time>2026-04-17T08:54:16.959Z</time></trkpt><trkpt lat="43.8550497" lon="11.2101384"><ele>285.0</ele><time>2026-04-17T08:54:19.965Z</time></trkpt><trkpt lat="43.855128" lon="11.2101397"><ele>289.0</ele><time>2026-04-17T08:54:21.998Z</time></trkpt><trkpt lat="43.8552184" lon="11.2101563"><ele>293.0</ele><time>2026-04-17T08:54:24.963Z</time></trkpt><trkpt lat="43.8553179" lon="11.2101933"><ele>297.0</ele><time>2026-04-17T08:54:26.957Z</time></trkpt><trkpt lat="43.8553852" lon="11.2102038"><ele>301.0</ele><time>2026-04-17T08:54:58.96Z</time></trkpt><trkpt lat="43.8554212" lon="11.2102824"><ele>305.0</ele><time>2026-04-17T08:55:06.977Z</time></trkpt><trkpt lat="43.8554585" lon="11.2103679"><ele>305.0</ele><time>2026-04-17T08:55:09.019Z</time></trkpt><trkpt lat="43.8555076" lon="11.2104761"><ele>305.0</ele><time>2026-04-17T08:55:11.976Z</time></trkpt><trkpt lat="43.8555635" lon="11.2105635"><ele>305.0</ele><time>2026-04-17T08:55:14.966Z</time></trkpt><trkpt lat="43.8556268" lon="11.2106083"><ele>305.0</ele><time>2026-04-17T08:55:19.039Z</time></trkpt><trkpt lat="43.8556926" lon="11.2106642"><ele>305.0</ele><time>2026-04-17T08:55:22.967Z</time></trkpt><trkpt lat="43.8557465" lon="11.2107114"><ele>305.0</ele><time>2026-04-17T08:55:26.02Z</time></trkpt><trkpt lat="43.85584" lon="11.2107348"><ele>305.33333333333337</ele><time>2026-04-17T08:55:28.951Z</time></trkpt><trkpt lat="43.8559186" lon="11.210762"><ele>305.6666666666667</ele><time>2026-04-17T08:55:31.956Z</time></trkpt><trkpt lat="43.8559923" lon="11.210782"><ele>306.0</ele><time>2026-04-17T08:55:35.028Z</time></trkpt><trkpt lat="43.8560753" lon="11.2108169"><ele>306.3333333333333</ele><time>2026-04-17T08:55:37.967Z</time></trkpt><trkpt lat="43.8561541" lon="11.2108443"><ele>306.66666666666663</ele><time>2026-04-17T08:55:41.029Z</time></trkpt><trkpt lat="43.8562234" lon="11.2108474"><ele>307.0</ele><time>2026-04-17T08:55:43.953Z</time></trkpt><trkpt lat="43.8562902" lon="11.2108665"><ele>307.0</ele><time>2026-04-17T08:55:46.966Z</time></trkpt><trkpt lat="43.8563602" lon="11.2108936"><ele>307.0</ele><time>2026-04-17T08:55:49.974Z</time></trkpt><trkpt lat="43.8564443" lon="11.2109076"><ele>307.0</ele><time>2026-04-17T08:55:54.046Z</time></trkpt><trkpt lat="43.8565188" lon="11.2109127"><ele>307.0</ele><time>2026-04-17T08:55:57.978Z</time></trkpt><trkpt lat="43.8565982" lon="11.2109386"><ele>307.0</ele><time>2026-04-17T08:56:01.964Z</time></trkpt><trkpt lat="43.8566654" lon="11.2109511"><ele>307.0</ele><time>2026-04-17T08:56:04.966Z</time></trkpt><trkpt lat="43.8567401" lon="11.210952"><ele>309.0</ele><time>2026-04-17T08:56:07.947Z</time></trkpt><trkpt lat="43.8568192" lon="11.2109607"><ele>311.0</ele><time>2026-04-17T08:56:10.959Z</time></trkpt><trkpt lat="43.8568892" lon="11.2110145"><ele>313.0</ele><time>2026-04-17T08:56:12.967Z</time></trkpt><trkpt lat="43.8569623" lon="11.2110635"><ele>315.0</ele><time>2026-04-17T08:56:14.963Z</time></trkpt><trkpt lat="43.8570258" lon="11.2111035"><ele>317.0</ele><time>2026-04-17T08:56:16.947Z</time></trkpt><trkpt lat="43.8571063" lon="11.211142"><ele>319.0</ele><time>2026-04-17T08:56:19.967Z</time></trkpt><trkpt lat="43.8571819" lon="11.2111663"><ele>319.0</ele><time>2026-04-17T08:56:22.95Z</time></trkpt><trkpt lat="43.8572793" lon="11.211207"><ele>319.0</ele><time>2026-04-17T08:56:27.971Z</time></trkpt><trkpt lat="43.8573579" lon="11.2112456"><ele>319.0</ele><time>2026-04-17T08:56:30.973Z</time></trkpt><trkpt lat="43.8574441" lon="11.2112599"><ele>319.0</ele><time>2026-04-17T08:56:33.963Z</time></trkpt><trkpt lat="43.8575227" lon="11.211285"><ele>319.0</ele><time>2026-04-17T08:56:39.975Z</time></trkpt><trkpt lat="43.8575863" lon="11.2113024"><ele>319.0</ele><time>2026-04-17T08:56:49.953Z</time></trkpt><trkpt lat="43.8576621" lon="11.2113259"><ele>320.42857142857144</ele><time>2026-04-17T08:57:14.969Z</time></trkpt><trkpt lat="43.8577273" lon="11.2113224"><ele>321.85714285714283</ele><time>2026-04-17T08:57:19.961Z</time></trkpt><trkpt lat="43.8577928" lon="11.2113267"><ele>323.2857142857143</ele><time>2026-04-17T08:57:24.972Z</time></trkpt><trkpt lat="43.8578683" lon="11.2113518"><ele>324.7142857142857</ele><time>2026-04-17T08:57:28.968Z</time></trkpt><trkpt lat="43.8579487" lon="11.2113825"><ele>326.1428571428571</ele><time>2026-04-17T08:57:32.965Z</time></trkpt><trkpt lat="43.8580222" lon="11.2114232"><ele>327.57142857142856</ele><time>2026-04-17T08:57:35.963Z</time></trkpt><trkpt lat="43.858093" lon="11.21143"><ele>329.0</ele><time>2026-04-17T08:57:38.952Z</time></trkpt><trkpt lat="43.8581706" lon="11.2114413"><ele>329.0</ele><time>2026-04-17T08:57:42.932Z</time></trkpt><trkpt lat="43.8582378" lon="11.211436"><ele>329.0</ele><time>2026-04-17T08:57:44.967Z</time></trkpt><trkpt lat="43.8582796" lon="11.2113495"><ele>329.0</ele><time>2026-04-17T08:57:50.96Z</time></trkpt><trkpt lat="43.8583305" lon="11.2112875"><ele>329.0</ele><time>2026-04-17T08:57:52.966Z</time></trkpt><trkpt lat="43.8583814" lon="11.2112175"><ele>329.0</ele><time>2026-04-17T08:57:54.982Z</time></trkpt><trkpt lat="43.8584344" lon="11.2111142"><ele>329.0</ele><time>2026-04-17T08:57:57.966Z</time></trkpt><trkpt lat="43.8584821" lon="11.2110107"><ele>328.0</ele><time>2026-04-17T08:58:00.96Z</time></trkpt><trkpt lat="43.8585025" lon="11.2109189"><ele>327.0</ele><time>2026-04-17T08:58:03.973Z</time></trkpt><trkpt lat="43.8585261" lon="11.2108185"><ele>326.0</ele><time>2026-04-17T08:58:06.973Z</time></trkpt><trkpt lat="43.8585136" lon="11.2106969"><ele>325.0</ele><time>2026-04-17T08:58:09.966Z</time></trkpt><trkpt lat="43.8585006" lon="11.2106035"><ele>324.0</ele><time>2026-04-17T08:58:11.971Z</time></trkpt><trkpt lat="43.8585099" lon="11.2105033"><ele>323.0</ele><time>2026-04-17T08:58:15.96Z</time></trkpt><trkpt lat="43.858533" lon="11.2103839"><ele>323.0</ele><time>2026-04-17T08:58:18.968Z</time></trkpt><trkpt lat="43.8585425" lon="11.2102798"><ele>323.0</ele><time>2026-04-17T08:58:20.974Z</time></trkpt><trkpt lat="43.8585547" lon="11.2101821"><ele>323.0</ele><time>2026-04-17T08:58:22.966Z</time></trkpt><trkpt lat="43.8585667" lon="11.210065"><ele>323.0</ele><time>2026-04-17T08:58:25.955Z</time></trkpt><trkpt lat="43.8585847" lon="11.2099669"><ele>323.0</ele><time>2026-04-17T08:58:28.967Z</time></trkpt><trkpt lat="43.8586454" lon="11.2098608"><ele>323.0</ele><time>2026-04-17T08:58:31.961Z</time></trkpt><trkpt lat="43.858683" lon="11.2097897"><ele>323.5</ele><time>2026-04-17T08:58:32.968Z</time></trkpt><trkpt lat="43.8587284" lon="11.2097277"><ele>324.0</ele><time>2026-04-17T08:58:33.968Z</time></trkpt><trkpt lat="43.8588062" lon="11.2096196"><ele>324.5</ele><time>2026-04-17T08:58:35.966Z</time></trkpt><trkpt lat="43.858857" lon="11.2095364"><ele>325.0</ele><time>2026-04-17T08:58:37.968Z</time></trkpt><trkpt lat="43.8589066" lon="11.2094509"><ele>325.5</ele><time>2026-04-17T08:58:40.965Z</time></trkpt><trkpt lat="43.8589532" lon="11.2093539"><ele>326.0</ele><time>2026-04-17T08:58:43.982Z</time></trkpt><trkpt lat="43.8589994" lon="11.2092382"><ele>326.0</ele><time>2026-04-17T08:58:46.961Z</time></trkpt><trkpt lat="43.859032" lon="11.2091237"><ele>326.0</ele><time>2026-04-17T08:58:49.967Z</time></trkpt><trkpt lat="43.8590377" lon="11.209036"><ele>326.0</ele><time>2026-04-17T08:58:51.973Z</time></trkpt><trkpt lat="43.8590324" lon="11.2089329"><ele>326.0</ele><time>2026-04-17T08:58:54.966Z</time></trkpt><trkpt lat="43.8590338" lon="11.2088365"><ele>326.0</ele><time>2026-04-17T08:58:58.969Z</time></trkpt><trkpt lat="43.8589976" lon="11.2087423"><ele>326.0</ele><time>2026-04-17T08:59:05.97Z</time></trkpt><trkpt lat="43.8589557" lon="11.2086592"><ele>326.0</ele><time>2026-04-17T08:59:09.963Z</time></trkpt><trkpt lat="43.8589441" lon="11.2085568"><ele>325.5</ele><time>2026-04-17T08:59:13.956Z</time></trkpt><trkpt lat="43.8589107" lon="11.2084629"><ele>325.0</ele><time>2026-04-17T08:59:16.965Z</time></trkpt><trkpt lat="43.8588846" lon="11.2083478"><ele>324.5</ele><time>2026-04-17T08:59:19.964Z</time></trkpt><trkpt lat="43.8588613" lon="11.2082348"><ele>324.0</ele><time>2026-04-17T08:59:21.969Z</time></trkpt><trkpt lat="43.8588408" lon="11.2081289"><ele>323.5</ele><time>2026-04-17T08:59:23.963Z</time></trkpt><trkpt lat="43.8588131" lon="11.2080202"><ele>323.0</ele><time>2026-04-17T08:59:25.962Z</time></trkpt><trkpt lat="43.8587876" lon="11.2079119"><ele>321.5714285714286</ele><time>2026-04-17T08:59:27.971Z</time></trkpt><trkpt lat="43.8587696" lon="11.2078054"><ele>320.14285714285717</ele><time>2026-04-17T08:59:29.962Z</time></trkpt><trkpt lat="43.8587488" lon="11.2077198"><ele>318.7142857142857</ele><time>2026-04-17T08:59:31.969Z</time></trkpt><trkpt lat="43.8587284" lon="11.2076359"><ele>317.28571428571433</ele><time>2026-04-17T08:59:33.963Z</time></trkpt><trkpt lat="43.8587036" lon="11.2075414"><ele>315.8571428571429</ele><time>2026-04-17T08:59:35.977Z</time></trkpt><trkpt lat="43.8586881" lon="11.2074537"><ele>314.42857142857144</ele><time>2026-04-17T08:59:37.953Z</time></trkpt><trkpt lat="43.8586624" lon="11.2073439"><ele>313.0</ele><time>2026-04-17T08:59:40.969Z</time></trkpt><trkpt lat="43.8586657" lon="11.2072354"><ele>312.0</ele><time>2026-04-17T08:59:44.97Z</time></trkpt><trkpt lat="43.8586473" lon="11.2071343"><ele>311.0</ele><time>2026-04-17T08:59:48.948Z</time></trkpt><trkpt lat="43.8586147" lon="11.2070357"><ele>310.0</ele><time>2026-04-17T08:59:51.968Z</time></trkpt><trkpt lat="43.8585707" lon="11.2069094"><ele>309.0</ele><time>2026-04-17T08:59:54.967Z</time></trkpt><trkpt lat="43.8585442" lon="11.2068275"><ele>308.0</ele><time>2026-04-17T08:59:56.971Z</time></trkpt><trkpt lat="43.8584981" lon="11.2067161"><ele>307.0</ele><time>2026-04-17T08:59:59.969Z</time></trkpt><trkpt lat="43.8584769" lon="11.2066288"><ele>308.3333333333333</ele><time>2026-04-17T09:00:01.966Z</time></trkpt><trkpt lat="43.8584507" lon="11.2065383"><ele>309.66666666666663</ele><time>2026-04-17T09:00:03.969Z</time></trkpt><trkpt lat="43.8584182" lon="11.2064369"><ele>311.0</ele><time>2026-04-17T09:00:06.971Z</time></trkpt><trkpt lat="43.8583813" lon="11.2063458"><ele>312.3333333333333</ele><time>2026-04-17T09:00:09.971Z</time></trkpt><trkpt lat="43.8583521" lon="11.206242"><ele>313.6666666666667</ele><time>2026-04-17T09:00:12.986Z</time></trkpt><trkpt lat="43.8583018" lon="11.2061311"><ele>315.0</ele><time>2026-04-17T09:00:15.97Z</time></trkpt><trkpt lat="43.8582581" lon="11.2060262"><ele>315.0</ele><time>2026-04-17T09:00:18.979Z</time></trkpt><trkpt lat="43.8582139" lon="11.205958"><ele>315.0</ele><time>2026-04-17T09:00:21.973Z</time></trkpt><trkpt lat="43.8581734" lon="11.2058811"><ele>315.0</ele><time>2026-04-17T09:00:24.966Z</time></trkpt><trkpt lat="43.8581231" lon="11.2057538"><ele>315.0</ele><time>2026-04-17T09:00:29.972Z</time></trkpt><trkpt lat="43.8580684" lon="11.205597"><ele>315.0</ele><time>2026-04-17T09:00:34.968Z</time></trkpt><trkpt lat="43.8580058" lon="11.2054949"><ele>314.0</ele><time>2026-04-17T09:00:40.965Z</time></trkpt><trkpt lat="43.8579435" lon="11.2054309"><ele>313.0</ele><time>2026-04-17T09:00:43.963Z</time></trkpt><trkpt lat="43.8578814" lon="11.205367"><ele>312.0</ele><time>2026-04-17T09:00:46.965Z</time></trkpt><trkpt lat="43.8578306" lon="11.2053115"><ele>311.0</ele><time>2026-04-17T09:00:49.962Z</time></trkpt><trkpt lat="43.8577779" lon="11.2052381"><ele>310.0</ele><time>2026-04-17T09:00:52.969Z</time></trkpt><trkpt lat="43.8577121" lon="11.2051546"><ele>309.0</ele><time>2026-04-17T09:00:55.966Z</time></trkpt><trkpt lat="43.8576495" lon="11.2050809"><ele>309.6666666666667</ele><time>2026-04-17T09:00:58.965Z</time></trkpt><trkpt lat="43.8575904" lon="11.2049797"><ele>310.3333333333333</ele><time>2026-04-17T09:01:01.961Z</time></trkpt><trkpt lat="43.8575345" lon="11.2048845"><ele>311.0</ele><time>2026-04-17T09:01:04.976Z</time></trkpt><trkpt lat="43.8574864" lon="11.2048153"><ele>311.66666666666663</ele><time>2026-04-17T09:01:06.971Z</time></trkpt><trkpt lat="43.8574474" lon="11.2047306"><ele>312.3333333333333</ele><time>2026-04-17T09:01:09.968Z</time></trkpt><trkpt lat="43.8574161" lon="11.2046415"><ele>313.0</ele><time>2026-04-17T09:01:13.951Z</time></trkpt><trkpt lat="43.8574278" lon="11.2045177"><ele>310.8333333333333</ele><time>2026-04-17T09:01:16.971Z</time></trkpt><trkpt lat="43.8574618" lon="11.2044374"><ele>308.66666666666663</ele><time>2026-04-17T09:01:18.966Z</time></trkpt><trkpt lat="43.8574898" lon="11.2043193"><ele>306.5</ele><time>2026-04-17T09:01:21.966Z</time></trkpt><trkpt lat="43.8574927" lon="11.2042223"><ele>304.3333333333333</ele><time>2026-04-17T09:01:23.969Z</time></trkpt><trkpt lat="43.8574732" lon="11.2041109"><ele>302.1666666666667</ele><time>2026-04-17T09:01:25.949Z</time></trkpt><trkpt lat="43.8574469" lon="11.203988"><ele>300.0</ele><time>2026-04-17T09:01:27.966Z</time></trkpt><trkpt lat="43.8574339" lon="11.203883"><ele>299.0</ele><time>2026-04-17T09:01:29.989Z</time></trkpt><trkpt lat="43.857423" lon="11.2037823"><ele>298.0</ele><time>2026-04-17T09:01:31.964Z</time></trkpt><trkpt lat="43.8573954" lon="11.2036643"><ele>297.0</ele><time>2026-04-17T09:01:34.959Z</time></trkpt><trkpt lat="43.857377" lon="11.2035592"><ele>296.0</ele><time>2026-04-17T09:01:37.974Z</time></trkpt><trkpt lat="43.8573414" lon="11.2034553"><ele>295.0</ele><time>2026-04-17T09:01:41.975Z</time></trkpt><trkpt lat="43.8573291" lon="11.2033653"><ele>294.0</ele><time>2026-04-17T09:01:44.955Z</time></trkpt><trkpt lat="43.8573062" lon="11.2032647"><ele>294.2857142857143</ele><time>2026-04-17T09:01:48.964Z</time></trkpt><trkpt lat="43.8572924" lon="11.2031519"><ele>294.57142857142856</ele><time>2026-04-17T09:01:51.967Z</time></trkpt><trkpt lat="43.8572705" lon="11.2030349"><ele>294.8571428571429</ele><time>2026-04-17T09:01:54.971Z</time></trkpt><trkpt lat="43.8572618" lon="11.2029462"><ele>295.1428571428571</ele><time>2026-04-17T09:01:56.967Z</time></trkpt><trkpt lat="43.8572404" lon="11.2028601"><ele>295.42857142857144</ele><time>2026-04-17T09:01:58.969Z</time></trkpt><trkpt lat="43.857212" lon="11.2027592"><ele>295.7142857142857</ele><time>2026-04-17T09:02:01.959Z</time></trkpt><trkpt lat="43.8571954" lon="11.2026692"><ele>296.0</ele><time>2026-04-17T09:02:03.975Z</time></trkpt><trkpt lat="43.8571802" lon="11.2025758"><ele>296.0</ele><time>2026-04-17T09:02:05.964Z</time></trkpt><trkpt lat="43.8571576" lon="11.2024625"><ele>296.0</ele><time>2026-04-17T09:02:08.959Z</time></trkpt><trkpt lat="43.8571556" lon="11.2023734"><ele>296.0</ele><time>2026-04-17T09:02:10.965Z</time></trkpt><trkpt lat="43.8571572" lon="11.2022539"><ele>296.0</ele><time>2026-04-17T09:02:13.973Z</time></trkpt><trkpt lat="43.8571246" lon="11.2021237"><ele>296.0</ele><time>2026-04-17T09:02:16.96Z</time></trkpt><trkpt lat="43.8571006" lon="11.202039"><ele>296.0</ele><time>2026-04-17T09:02:18.958Z</time></trkpt><trkpt lat="43.8570938" lon="11.2019239"><ele>296.40000000000003</ele><time>2026-04-17T09:02:21.962Z</time></trkpt><trkpt lat="43.8570868" lon="11.2017844"><ele>296.8</ele><time>2026-04-17T09:02:24.965Z</time></trkpt><trkpt lat="43.8570655" lon="11.201671"><ele>297.20000000000005</ele><time>2026-04-17T09:02:26.964Z</time></trkpt><trkpt lat="43.8570192" lon="11.2015552"><ele>297.6</ele><time>2026-04-17T09:02:28.967Z</time></trkpt><trkpt lat="43.8569666" lon="11.2014496"><ele>298.0</ele><time>2026-04-17T09:02:29.962Z</time></trkpt><trkpt lat="43.8569455" lon="11.2013251"><ele>298.2</ele><time>2026-04-17T09:02:30.97Z</time></trkpt><trkpt lat="43.8568926" lon="11.2011605"><ele>298.4</ele><time>2026-04-17T09:02:32.965Z</time></trkpt><trkpt lat="43.8568803" lon="11.2010629"><ele>298.59999999999997</ele><time>2026-04-17T09:02:33.985Z</time></trkpt><trkpt lat="43.8568685" lon="11.2009489"><ele>298.8</ele><time>2026-04-17T09:02:34.969Z</time></trkpt><trkpt lat="43.8568276" lon="11.2007964"><ele>299.0</ele><time>2026-04-17T09:02:36.964Z</time></trkpt><trkpt lat="43.8567979" lon="11.2006901"><ele>302.6666666666667</ele><time>2026-04-17T09:02:37.967Z</time></trkpt><trkpt lat="43.8567683" lon="11.2006096"><ele>306.33333333333337</ele><time>2026-04-17T09:02:38.971Z</time></trkpt><trkpt lat="43.8567351" lon="11.2005258"><ele>310.0</ele><time>2026-04-17T09:02:39.963Z</time></trkpt><trkpt lat="43.8567064" lon="11.2004466"><ele>313.6666666666667</ele><time>2026-04-17T09:02:40.956Z</time></trkpt><trkpt lat="43.8566849" lon="11.2003623"><ele>317.3333333333333</ele><time>2026-04-17T09:02:41.972Z</time></trkpt><trkpt lat="43.856649" lon="11.2002065"><ele>321.0</ele><time>2026-04-17T09:02:43.972Z</time></trkpt><trkpt lat="43.8566187" lon="11.2000812"><ele>321.0</ele><time>2026-04-17T09:02:45.965Z</time></trkpt><trkpt lat="43.8566179" lon="11.1999709"><ele>321.0</ele><time>2026-04-17T09:02:47.964Z</time></trkpt><trkpt lat="43.8566155" lon="11.1998337"><ele>321.0</ele><time>2026-04-17T09:02:50.966Z</time></trkpt><trkpt lat="43.8566095" lon="11.1997126"><ele>321.0</ele><time>2026-04-17T09:02:52.973Z</time></trkpt><trkpt lat="43.8566015" lon="11.1995863"><ele>321.0</ele><time>2026-04-17T09:02:54.964Z</time></trkpt><trkpt lat="43.8565883" lon="11.1994396"><ele>320.0</ele><time>2026-04-17T09:02:56.97Z</time></trkpt><trkpt lat="43.8565804" lon="11.1992981"><ele>319.0</ele><time>2026-04-17T09:02:58.963Z</time></trkpt><trkpt lat="43.8565876" lon="11.1991792"><ele>318.0</ele><time>2026-04-17T09:03:00.96Z</time></trkpt><trkpt lat="43.8566018" lon="11.1990499"><ele>317.0</ele><time>2026-04-17T09:03:02.966Z</time></trkpt><trkpt lat="43.8566112" lon="11.1989312"><ele>316.0</ele><time>2026-04-17T09:03:04.958Z</time></trkpt><trkpt lat="43.8566074" lon="11.1988084"><ele>315.0</ele><time>2026-04-17T09:03:06.962Z</time></trkpt><trkpt lat="43.8565968" lon="11.1986383"><ele>314.0</ele><time>2026-04-17T09:03:08.954Z</time></trkpt><trkpt lat="43.8565936" lon="11.1984816"><ele>313.0</ele><time>2026-04-17T09:03:10.969Z</time></trkpt><trkpt lat="43.8565821" lon="11.1983503"><ele>312.0</ele><time>2026-04-17T09:03:12.957Z</time></trkpt><trkpt lat="43.8565687" lon="11.198196"><ele>311.0</ele><time>2026-04-17T09:03:14.946Z</time></trkpt><trkpt lat="43.856571" lon="11.1980586"><ele>310.6</ele><time>2026-04-17T09:03:16.966Z</time></trkpt><trkpt lat="43.8565922" lon="11.1979217"><ele>310.20000000000005</ele><time>2026-04-17T09:03:18.959Z</time></trkpt><trkpt lat="43.8566161" lon="11.1978389"><ele>309.79999999999995</ele><time>2026-04-17T09:03:19.964Z</time></trkpt><trkpt lat="43.8566491" lon="11.1977061"><ele>309.4</ele><time>2026-04-17T09:03:21.967Z</time></trkpt><trkpt lat="43.8566742" lon="11.1975433"><ele>309.0</ele><time>2026-04-17T09:03:23.973Z</time></trkpt><trkpt lat="43.8566665" lon="11.1974178"><ele>308.7142857142857</ele><time>2026-04-17T09:03:25.969Z</time></trkpt><trkpt lat="43.856648" lon="11.1973335"><ele>308.42857142857144</ele><time>2026-04-17T09:03:26.978Z</time></trkpt><trkpt lat="43.8566251" lon="11.1972451"><ele>308.1428571428571</ele><time>2026-04-17T09:03:27.95Z</time></trkpt><trkpt lat="43.8565913" lon="11.1971459"><ele>307.8571428571429</ele><time>2026-04-17T09:03:28.969Z</time></trkpt><trkpt lat="43.8565587" lon="11.1970595"><ele>307.57142857142856</ele><time>2026-04-17T09:03:29.964Z</time></trkpt><trkpt lat="43.8565204" lon="11.1969596"><ele>307.2857142857143</ele><time>2026-04-17T09:03:30.96Z</time></trkpt><trkpt lat="43.8564781" lon="11.1968603"><ele>307.0</ele><time>2026-04-17T09:03:31.973Z</time></trkpt><trkpt lat="43.8564397" lon="11.1967596"><ele>307.0</ele><time>2026-04-17T09:03:32.961Z</time></trkpt><trkpt lat="43.8563988" lon="11.1966656"><ele>307.0</ele><time>2026-04-17T09:03:33.964Z</time></trkpt><trkpt lat="43.8563567" lon="11.1965835"><ele>307.0</ele><time>2026-04-17T09:03:34.961Z</time></trkpt><trkpt lat="43.856311" lon="11.1965163"><ele>307.0</ele><time>2026-04-17T09:03:35.961Z</time></trkpt><trkpt lat="43.8562198" lon="11.1964"><ele>307.0</ele><time>2026-04-17T09:03:37.969Z</time></trkpt><trkpt lat="43.8561311" lon="11.1962987"><ele>306.0</ele><time>2026-04-17T09:03:39.958Z</time></trkpt><trkpt lat="43.8560368" lon="11.1962173"><ele>305.0</ele><time>2026-04-17T09:03:41.966Z</time></trkpt><trkpt lat="43.8559414" lon="11.196181"><ele>304.0</ele><time>2026-04-17T09:03:43.967Z</time></trkpt><trkpt lat="43.8558285" lon="11.1961549"><ele>303.0</ele><time>2026-04-17T09:03:45.976Z</time></trkpt><trkpt lat="43.8556964" lon="11.1961013"><ele>303.0</ele><time>2026-04-17T09:03:47.949Z</time></trkpt><trkpt lat="43.8556213" lon="11.1960751"><ele>303.0</ele><time>2026-04-17T09:03:48.958Z</time></trkpt><trkpt lat="43.8555348" lon="11.1960454"><ele>303.0</ele><time>2026-04-17T09:03:49.966Z</time></trkpt><trkpt lat="43.8554262" lon="11.1960122"><ele>303.0</ele><time>2026-04-17T09:03:50.969Z</time></trkpt><trkpt lat="43.8553209" lon="11.1959806"><ele>303.0</ele><time>2026-04-17T09:03:51.969Z</time></trkpt><trkpt lat="43.8552193" lon="11.1959458"><ele>302.0</ele><time>2026-04-17T09:03:52.964Z</time></trkpt><trkpt lat="43.8551206" lon="11.1958963"><ele>301.0</ele><time>2026-04-17T09:03:53.969Z</time></trkpt><trkpt lat="43.8550408" lon="11.1958419"><ele>300.0</ele><time>2026-04-17T09:03:54.973Z</time></trkpt><trkpt lat="43.8549636" lon="11.1957705"><ele>299.0</ele><time>2026-04-17T09:03:55.958Z</time></trkpt><trkpt lat="43.8548941" lon="11.1956993"><ele>298.0</ele><time>2026-04-17T09:03:56.973Z</time></trkpt><trkpt lat="43.8548106" lon="11.1956354"><ele>295.8</ele><time>2026-04-17T09:03:57.973Z</time></trkpt><trkpt lat="43.8547252" lon="11.1955735"><ele>293.6</ele><time>2026-04-17T09:03:58.964Z</time></trkpt><trkpt lat="43.8546143" lon="11.1955404"><ele>291.4</ele><time>2026-04-17T09:03:59.972Z</time></trkpt><trkpt lat="43.854518" lon="11.195521"><ele>289.2</ele><time>2026-04-17T09:04:00.963Z</time></trkpt><trkpt lat="43.8544098" lon="11.1955058"><ele>287.0</ele><time>2026-04-17T09:04:01.965Z</time></trkpt><trkpt lat="43.8543026" lon="11.195474"><ele>285.6</ele><time>2026-04-17T09:04:02.965Z</time></trkpt><trkpt lat="43.8542036" lon="11.1954235"><ele>284.2</ele><time>2026-04-17T09:04:03.97Z</time></trkpt><trkpt lat="43.8541084" lon="11.1953583"><ele>282.8</ele><time>2026-04-17T09:04:04.971Z</time></trkpt><trkpt lat="43.8540139" lon="11.1952905"><ele>281.4</ele><time>2026-04-17T09:04:05.97Z</time></trkpt><trkpt lat="43.8539192" lon="11.1952232"><ele>280.0</ele><time>2026-04-17T09:04:06.969Z</time></trkpt><trkpt lat="43.8538314" lon="11.1951517"><ele>280.0</ele><time>2026-04-17T09:04:07.961Z</time></trkpt><trkpt lat="43.8537523" lon="11.1950955"><ele>280.0</ele><time>2026-04-17T09:04:08.962Z</time></trkpt><trkpt lat="43.8536701" lon="11.1950511"><ele>280.0</ele><time>2026-04-17T09:04:09.959Z</time></trkpt><trkpt lat="43.8535922" lon="11.195042"><ele>280.0</ele><time>2026-04-17T09:04:10.97Z</time></trkpt><trkpt lat="43.8535028" lon="11.1950521"><ele>280.0</ele><time>2026-04-17T09:04:11.973Z</time></trkpt><trkpt lat="43.8534237" lon="11.1950645"><ele>280.0</ele><time>2026-04-17T09:04:12.966Z</time></trkpt><trkpt lat="43.8533546" lon="11.195074"><ele>278.16666666666663</ele><time>2026-04-17T09:04:13.963Z</time></trkpt><trkpt lat="43.8532546" lon="11.1950716"><ele>276.3333333333333</ele><time>2026-04-17T09:04:15.974Z</time></trkpt><trkpt lat="43.8531829" lon="11.1950525"><ele>274.5</ele><time>2026-04-17T09:04:17.972Z</time></trkpt><trkpt lat="43.8531125" lon="11.195038"><ele>272.6666666666667</ele><time>2026-04-17T09:04:19.973Z</time></trkpt><trkpt lat="43.8530337" lon="11.1950241"><ele>270.83333333333337</ele><time>2026-04-17T09:04:21.973Z</time></trkpt><trkpt lat="43.852964" lon="11.194976"><ele>269.0</ele><time>2026-04-17T09:04:23.97Z</time></trkpt><trkpt lat="43.8528834" lon="11.1948456"><ele>268.0</ele><time>2026-04-17T09:04:25.962Z</time></trkpt><trkpt lat="43.8527769" lon="11.1947476"><ele>267.0</ele><time>2026-04-17T09:04:27.979Z</time></trkpt><trkpt lat="43.8527172" lon="11.1946865"><ele>266.0</ele><time>2026-04-17T09:04:28.97Z</time></trkpt><trkpt lat="43.8526677" lon="11.1946156"><ele>265.0</ele><time>2026-04-17T09:04:29.968Z</time></trkpt><trkpt lat="43.852544" lon="11.1945576"><ele>264.0</ele><time>2026-04-17T09:04:31.965Z</time></trkpt><trkpt lat="43.8524382" lon="11.1945457"><ele>260.2</ele><time>2026-04-17T09:04:32.964Z</time></trkpt><trkpt lat="43.8523421" lon="11.1945294"><ele>256.4</ele><time>2026-04-17T09:04:33.958Z</time></trkpt><trkpt lat="43.8522435" lon="11.1944894"><ele>252.6</ele><time>2026-04-17T09:04:34.972Z</time></trkpt><trkpt lat="43.8521612" lon="11.1944535"><ele>248.8</ele><time>2026-04-17T09:04:35.97Z</time></trkpt><trkpt lat="43.8520762" lon="11.1944152"><ele>245.0</ele><time>2026-04-17T09:04:36.975Z</time></trkpt><trkpt lat="43.8519845" lon="11.1943628"><ele>245.0</ele><time>2026-04-17T09:04:37.965Z</time></trkpt><trkpt lat="43.8519028" lon="11.1943227"><ele>245.0</ele><time>2026-04-17T09:04:38.969Z</time></trkpt><trkpt lat="43.8518165" lon="11.1942706"><ele>245.0</ele><time>2026-04-17T09:04:39.974Z</time></trkpt><trkpt lat="43.8517337" lon="11.1942221"><ele>245.0</ele><time>2026-04-17T09:04:40.964Z</time></trkpt><trkpt lat="43.8516556" lon="11.1941701"><ele>245.0</ele><time>2026-04-17T09:04:41.972Z</time></trkpt><trkpt lat="43.8515659" lon="11.1941217"><ele>243.66666666666669</ele><time>2026-04-17T09:04:42.966Z</time></trkpt><trkpt lat="43.8514815" lon="11.1940889"><ele>242.33333333333334</ele><time>2026-04-17T09:04:43.968Z</time></trkpt><trkpt lat="43.8514014" lon="11.1940604"><ele>241.0</ele><time>2026-04-17T09:04:44.974Z</time></trkpt><trkpt lat="43.8513226" lon="11.1940246"><ele>239.66666666666669</ele><time>2026-04-17T09:04:45.971Z</time></trkpt><trkpt lat="43.8512502" lon="11.1939682"><ele>238.33333333333334</ele><time>2026-04-17T09:04:46.969Z</time></trkpt><trkpt lat="43.8511843" lon="11.1939038"><ele>237.0</ele><time>2026-04-17T09:04:47.964Z</time></trkpt><trkpt lat="43.8511386" lon="11.193826"><ele>235.83333333333334</ele><time>2026-04-17T09:04:48.955Z</time></trkpt><trkpt lat="43.8510895" lon="11.1937359"><ele>234.66666666666669</ele><time>2026-04-17T09:04:49.978Z</time></trkpt><trkpt lat="43.8510435" lon="11.193635"><ele>233.5</ele><time>2026-04-17T09:04:50.965Z</time></trkpt><trkpt lat="43.8509883" lon="11.1935315"><ele>232.33333333333334</ele><time>2026-04-17T09:04:51.974Z</time></trkpt><trkpt lat="43.8509383" lon="11.1934356"><ele>231.16666666666669</ele><time>2026-04-17T09:04:52.968Z</time></trkpt><trkpt lat="43.8508876" lon="11.1933426"><ele>230.0</ele><time>2026-04-17T09:04:53.974Z</time></trkpt><trkpt lat="43.8508484" lon="11.1932391"><ele>229.00000000000003</ele><time>2026-04-17T09:04:54.97Z</time></trkpt><trkpt lat="43.8508111" lon="11.1931249"><ele>228.0</ele><time>2026-04-17T09:04:55.974Z</time></trkpt><trkpt lat="43.8507739" lon="11.1930174"><ele>227.0</ele><time>2026-04-17T09:04:56.974Z</time></trkpt><trkpt lat="43.8507296" lon="11.1929278"><ele>226.0</ele><time>2026-04-17T09:04:57.977Z</time></trkpt><trkpt lat="43.8506787" lon="11.19285"><ele>225.00000000000003</ele><time>2026-04-17T09:04:58.963Z</time></trkpt><trkpt lat="43.8506278" lon="11.192783"><ele>224.0</ele><time>2026-04-17T09:04:59.976Z</time></trkpt><trkpt lat="43.8505708" lon="11.1927025"><ele>224.0</ele><time>2026-04-17T09:05:00.966Z</time></trkpt><trkpt lat="43.8505239" lon="11.1926029"><ele>223.99999999999997</ele><time>2026-04-17T09:05:01.968Z</time></trkpt><trkpt lat="43.8504759" lon="11.192492"><ele>223.99999999999997</ele><time>2026-04-17T09:05:02.971Z</time></trkpt><trkpt lat="43.8504271" lon="11.1923816"><ele>224.0</ele><time>2026-04-17T09:05:03.968Z</time></trkpt><trkpt lat="43.8503764" lon="11.1922662"><ele>224.0</ele><time>2026-04-17T09:05:04.978Z</time></trkpt><trkpt lat="43.8503357" lon="11.1921632"><ele>223.0</ele><time>2026-04-17T09:05:05.967Z</time></trkpt><trkpt lat="43.8502922" lon="11.1920655"><ele>221.99999999999997</ele><time>2026-04-17T09:05:06.97Z</time></trkpt><trkpt lat="43.8502299" lon="11.191993"><ele>220.99999999999997</ele><time>2026-04-17T09:05:07.972Z</time></trkpt><trkpt lat="43.8501231" lon="11.1919553"><ele>220.0</ele><time>2026-04-17T09:05:08.971Z</time></trkpt><trkpt lat="43.8500111" lon="11.1919354"><ele>219.0</ele><time>2026-04-17T09:05:09.97Z</time></trkpt><trkpt lat="43.849904" lon="11.191911"><ele>219.0</ele><time>2026-04-17T09:05:10.966Z</time></trkpt><trkpt lat="43.8497995" lon="11.1918595"><ele>219.0</ele><time>2026-04-17T09:05:11.96Z</time></trkpt><trkpt lat="43.8496835" lon="11.1917959"><ele>219.0</ele><time>2026-04-17T09:05:12.962Z</time></trkpt><trkpt lat="43.849572" lon="11.1917199"><ele>219.0</ele><time>2026-04-17T09:05:13.965Z</time></trkpt><trkpt lat="43.8494529" lon="11.191652"><ele>219.0</ele><time>2026-04-17T09:05:14.956Z</time></trkpt><trkpt lat="43.8493356" lon="11.1915891"><ele>219.0</ele><time>2026-04-17T09:05:15.965Z</time></trkpt><trkpt lat="43.8492095" lon="11.1915205"><ele>219.0</ele><time>2026-04-17T09:05:16.959Z</time></trkpt><trkpt lat="43.849079" lon="11.1914439"><ele>219.0</ele><time>2026-04-17T09:05:17.961Z</time></trkpt><trkpt lat="43.8489595" lon="11.1913656"><ele>215.2</ele><time>2026-04-17T09:05:18.969Z</time></trkpt><trkpt lat="43.8488469" lon="11.1912973"><ele>211.39999999999998</ele><time>2026-04-17T09:05:19.965Z</time></trkpt><trkpt lat="43.8487448" lon="11.1912366"><ele>207.6</ele><time>2026-04-17T09:05:20.951Z</time></trkpt><trkpt lat="43.848642" lon="11.1911927"><ele>203.8</ele><time>2026-04-17T09:05:21.964Z</time></trkpt><trkpt lat="43.8485552" lon="11.191158"><ele>200.0</ele><time>2026-04-17T09:05:22.973Z</time></trkpt><trkpt lat="43.8484831" lon="11.1911249"><ele>197.4</ele><time>2026-04-17T09:05:23.971Z</time></trkpt><trkpt lat="43.8483979" lon="11.1910906"><ele>194.8</ele><time>2026-04-17T09:05:25.962Z</time></trkpt><trkpt lat="43.848353" lon="11.1909765"><ele>192.2</ele><time>2026-04-17T09:05:28.963Z</time></trkpt><trkpt lat="43.8483764" lon="11.1908009"><ele>189.6</ele><time>2026-04-17T09:05:30.962Z</time></trkpt><trkpt lat="43.8483988" lon="11.1907083"><ele>187.0</ele><time>2026-04-17T09:05:31.962Z</time></trkpt><trkpt lat="43.8484103" lon="11.1906068"><ele>186.16666666666669</ele><time>2026-04-17T09:05:32.979Z</time></trkpt><trkpt lat="43.8484234" lon="11.1904972"><ele>185.33333333333334</ele><time>2026-04-17T09:05:33.97Z</time></trkpt><trkpt lat="43.8484363" lon="11.1903878"><ele>184.5</ele><time>2026-04-17T09:05:34.967Z</time></trkpt><trkpt lat="43.8484537" lon="11.1902763"><ele>183.66666666666666</ele><time>2026-04-17T09:05:35.968Z</time></trkpt><trkpt lat="43.8484756" lon="11.1901751"><ele>182.83333333333331</ele><time>2026-04-17T09:05:36.949Z</time></trkpt><trkpt lat="43.8485058" lon="11.1900748"><ele>182.0</ele><time>2026-04-17T09:05:37.955Z</time></trkpt><trkpt lat="43.8485505" lon="11.1899711"><ele>180.39999999999998</ele><time>2026-04-17T09:05:38.981Z</time></trkpt><trkpt lat="43.8486075" lon="11.1898706"><ele>178.79999999999998</ele><time>2026-04-17T09:05:39.965Z</time></trkpt><trkpt lat="43.8486787" lon="11.1897723"><ele>177.2</ele><time>2026-04-17T09:05:40.966Z</time></trkpt><trkpt lat="43.8487566" lon="11.1896557"><ele>175.6</ele><time>2026-04-17T09:05:41.963Z</time></trkpt><trkpt lat="43.8488324" lon="11.1895366"><ele>174.0</ele><time>2026-04-17T09:05:42.978Z</time></trkpt><trkpt lat="43.8489071" lon="11.1894164"><ele>174.0</ele><time>2026-04-17T09:05:43.969Z</time></trkpt><trkpt lat="43.8489783" lon="11.1893074"><ele>174.0</ele><time>2026-04-17T09:05:44.971Z</time></trkpt><trkpt lat="43.8490417" lon="11.1891967"><ele>174.0</ele><time>2026-04-17T09:05:45.958Z</time></trkpt><trkpt lat="43.8491014" lon="11.1890864"><ele>174.0</ele><time>2026-04-17T09:05:46.964Z</time></trkpt><trkpt lat="43.8491616" lon="11.188979"><ele>174.0</ele><time>2026-04-17T09:05:47.962Z</time></trkpt><trkpt lat="43.8492206" lon="11.1888833"><ele>171.79999999999998</ele><time>2026-04-17T09:05:48.971Z</time></trkpt><trkpt lat="43.8492799" lon="11.1887969"><ele>169.6</ele><time>2026-04-17T09:05:49.972Z</time></trkpt><trkpt lat="43.8493446" lon="11.1887057"><ele>167.4</ele><time>2026-04-17T09:05:50.967Z</time></trkpt><trkpt lat="43.8494144" lon="11.1886228"><ele>165.2</ele><time>2026-04-17T09:05:51.963Z</time></trkpt><trkpt lat="43.8494853" lon="11.1885452"><ele>163.0</ele><time>2026-04-17T09:05:52.966Z</time></trkpt><trkpt lat="43.849567" lon="11.1884567"><ele>163.0</ele><time>2026-04-17T09:05:53.964Z</time></trkpt><trkpt lat="43.8496463" lon="11.1883775"><ele>163.0</ele><time>2026-04-17T09:05:54.962Z</time></trkpt><trkpt lat="43.8497182" lon="11.1883165"><ele>163.0</ele><time>2026-04-17T09:05:55.967Z</time></trkpt><trkpt lat="43.8497777" lon="11.1881887"><ele>163.0</ele><time>2026-04-17T09:05:57.974Z</time></trkpt><trkpt lat="43.8497634" lon="11.1880999"><ele>163.0</ele><time>2026-04-17T09:05:58.961Z</time></trkpt><trkpt lat="43.8497135" lon="11.1880364"><ele>163.0</ele><time>2026-04-17T09:05:59.966Z</time></trkpt><trkpt lat="43.8496587" lon="11.1879727"><ele>158.20000000000002</ele><time>2026-04-17T09:06:00.965Z</time></trkpt><trkpt lat="43.8495807" lon="11.187894"><ele>153.4</ele><time>2026-04-17T09:06:01.946Z</time></trkpt><trkpt lat="43.8494998" lon="11.1878208"><ele>148.60000000000002</ele><time>2026-04-17T09:06:02.971Z</time></trkpt><trkpt lat="43.8494184" lon="11.1877474"><ele>143.8</ele><time>2026-04-17T09:06:03.962Z</time></trkpt><trkpt lat="43.8493415" lon="11.1876909"><ele>139.0</ele><time>2026-04-17T09:06:04.967Z</time></trkpt><trkpt lat="43.8492617" lon="11.1876265"><ele>139.0</ele><time>2026-04-17T09:06:05.964Z</time></trkpt><trkpt lat="43.849197" lon="11.1875884"><ele>139.0</ele><time>2026-04-17T09:06:06.962Z</time></trkpt><trkpt lat="43.849123" lon="11.1875606"><ele>139.0</ele><time>2026-04-17T09:06:07.954Z</time></trkpt><trkpt lat="43.8490448" lon="11.1875567"><ele>139.0</ele><time>2026-04-17T09:06:08.954Z</time></trkpt><trkpt lat="43.8489754" lon="11.1875875"><ele>139.0</ele><time>2026-04-17T09:06:09.968Z</time></trkpt><trkpt lat="43.8488721" lon="11.1875578"><ele>139.0</ele><time>2026-04-17T09:06:11.948Z</time></trkpt><trkpt lat="43.8488702" lon="11.1874431"><ele>135.2</ele><time>2026-04-17T09:06:13.961Z</time></trkpt><trkpt lat="43.8489253" lon="11.1873004"><ele>131.4</ele><time>2026-04-17T09:06:15.961Z</time></trkpt><trkpt lat="43.8489678" lon="11.1872107"><ele>127.6</ele><time>2026-04-17T09:06:16.961Z</time></trkpt><trkpt lat="43.8490198" lon="11.1871255"><ele>123.8</ele><time>2026-04-17T09:06:17.964Z</time></trkpt><trkpt lat="43.8490919" lon="11.1870354"><ele>120.0</ele><time>2026-04-17T09:06:18.973Z</time></trkpt><trkpt lat="43.8491877" lon="11.1869507"><ele>120.0</ele><time>2026-04-17T09:06:19.981Z</time></trkpt><trkpt lat="43.8492913" lon="11.1868594"><ele>120.0</ele><time>2026-04-17T09:06:20.945Z</time></trkpt><trkpt lat="43.8493996" lon="11.1867668"><ele>120.0</ele><time>2026-04-17T09:06:21.968Z</time></trkpt><trkpt lat="43.8495137" lon="11.1866844"><ele>120.0</ele><time>2026-04-17T09:06:22.968Z</time></trkpt><trkpt lat="43.8496366" lon="11.1866043"><ele>120.2</ele><time>2026-04-17T09:06:23.966Z</time></trkpt><trkpt lat="43.8497522" lon="11.1865381"><ele>120.4</ele><time>2026-04-17T09:06:24.958Z</time></trkpt><trkpt lat="43.8498575" lon="11.1865256"><ele>120.6</ele><time>2026-04-17T09:06:25.967Z</time></trkpt><trkpt lat="43.8499731" lon="11.1865234"><ele>120.8</ele><time>2026-04-17T09:06:26.969Z</time></trkpt><trkpt lat="43.8500559" lon="11.1865595"><ele>121.0</ele><time>2026-04-17T09:06:27.961Z</time></trkpt><trkpt lat="43.8501442" lon="11.186633"><ele>116.75</ele><time>2026-04-17T09:06:28.969Z</time></trkpt><trkpt lat="43.8502418" lon="11.1867054"><ele>112.5</ele><time>2026-04-17T09:06:29.967Z</time></trkpt><trkpt lat="43.8503445" lon="11.1867953"><ele>108.25</ele><time>2026-04-17T09:06:30.958Z</time></trkpt><trkpt lat="43.8504394" lon="11.186885"><ele>104.0</ele><time>2026-04-17T09:06:31.963Z</time></trkpt><trkpt lat="43.8505511" lon="11.1869788"><ele>104.0</ele><time>2026-04-17T09:06:32.968Z</time></trkpt><trkpt lat="43.8506656" lon="11.1870788"><ele>104.0</ele><time>2026-04-17T09:06:33.967Z</time></trkpt><trkpt lat="43.8507782" lon="11.187196"><ele>104.0</ele><time>2026-04-17T09:06:34.961Z</time></trkpt><trkpt lat="43.8508824" lon="11.1873211"><ele>104.0</ele><time>2026-04-17T09:06:35.941Z</time></trkpt><trkpt lat="43.8509952" lon="11.1874517"><ele>102.75</ele><time>2026-04-17T09:06:36.942Z</time></trkpt><trkpt lat="43.8511031" lon="11.1875782"><ele>101.5</ele><time>2026-04-17T09:06:37.948Z</time></trkpt><trkpt lat="43.8512105" lon="11.1876955"><ele>100.25</ele><time>2026-04-17T09:06:38.96Z</time></trkpt><trkpt lat="43.8512997" lon="11.1878041"><ele>99.0</ele><time>2026-04-17T09:06:39.944Z</time></trkpt><trkpt lat="43.851381" lon="11.1878766"><ele>99.0</ele><time>2026-04-17T09:06:40.96Z</time></trkpt><trkpt lat="43.8514659" lon="11.187911"><ele>99.0</ele><time>2026-04-17T09:06:41.953Z</time></trkpt><trkpt lat="43.851564" lon="11.187911"><ele>99.0</ele><time>2026-04-17T09:06:42.961Z</time></trkpt><trkpt lat="43.8516373" lon="11.1878778"><ele>99.0</ele><time>2026-04-17T09:06:43.951Z</time></trkpt><trkpt lat="43.8516837" lon="11.1878036"><ele>99.0</ele><time>2026-04-17T09:06:44.959Z</time></trkpt><trkpt lat="43.8516935" lon="11.187717"><ele>99.0</ele><time>2026-04-17T09:06:45.969Z</time></trkpt><trkpt lat="43.8516742" lon="11.1876303"><ele>99.0</ele><time>2026-04-17T09:06:46.953Z</time></trkpt><trkpt lat="43.85163" lon="11.1875445"><ele>99.0</ele><time>2026-04-17T09:06:47.963Z</time></trkpt><trkpt lat="43.8515828" lon="11.187452"><ele>99.0</ele><time>2026-04-17T09:06:48.952Z</time></trkpt><trkpt lat="43.8515447" lon="11.1873601"><ele>99.0</ele><time>2026-04-17T09:06:49.948Z</time></trkpt><trkpt lat="43.8515014" lon="11.1872703"><ele>99.0</ele><time>2026-04-17T09:06:50.965Z</time></trkpt><trkpt lat="43.8514541" lon="11.1871846"><ele>99.0</ele><time>2026-04-17T09:06:51.967Z</time></trkpt><trkpt lat="43.8514054" lon="11.1870918"><ele>98.0</ele><time>2026-04-17T09:06:52.968Z</time></trkpt><trkpt lat="43.851363" lon="11.1869977"><ele>97.0</ele><time>2026-04-17T09:06:53.967Z</time></trkpt><trkpt lat="43.8513266" lon="11.1868925"><ele>96.0</ele><time>2026-04-17T09:06:54.97Z</time></trkpt><trkpt lat="43.8512905" lon="11.1867891"><ele>95.0</ele><time>2026-04-17T09:06:55.961Z</time></trkpt><trkpt lat="43.8512551" lon="11.1866919"><ele>94.0</ele><time>2026-04-17T09:06:56.962Z</time></trkpt><trkpt lat="43.8512165" lon="11.1866022"><ele>93.0</ele><time>2026-04-17T09:06:57.961Z</time></trkpt><trkpt lat="43.8511815" lon="11.186515"><ele>93.0</ele><time>2026-04-17T09:06:58.97Z</time></trkpt><trkpt lat="43.8511411" lon="11.1864434"><ele>88.0</ele><time>2026-04-17T09:06:59.967Z</time></trkpt><trkpt lat="43.8510943" lon="11.186337"><ele>88.0</ele><time>2026-04-17T09:07:01.96Z</time></trkpt></trkseg></trk></gpx>